<?xml version='1.0' encoding='UTF-8'?><gpx version="1.1" creator="JPX - https://github.com/jenetics/jpx" xmlns="http://www.topografix.com/GPX/1/1"><trk><trkseg><trkpt lat="46.3765303" lon="13.1370454"><ele>265.0</ele><time>2026-04-22T10:21:55.658Z</time></trkpt><trkpt lat="46.3766524" lon="13.1370097"><ele>265.0</ele><time>2026-04-22T10:21:57.658Z</time></trkpt><trkpt lat="46.3767525" lon="13.1369703"><ele>265.0</ele><time>2026-04-22T10:21:58.658Z</time></trkpt><trkpt lat="46.3768604" lon="13.1369149"><ele>265.0</ele><time>2026-04-22T10:21:59.659Z</time></trkpt><trkpt lat="46.3769695" lon="13.1368502"><ele>265.0</ele><time>2026-04-22T10:22:00.658Z</time></trkpt><trkpt lat="46.3770838" lon="13.1367807"><ele>265.0</ele><time>2026-04-22T10:22:01.658Z</time></trkpt><trkpt lat="46.3771947" lon="13.1366981"><ele>265.0</ele><time>2026-04-22T10:22:02.658Z</time></trkpt><trkpt lat="46.3773045" lon="13.1366029"><ele>265.0</ele><time>2026-04-22T10:22:03.658Z</time></trkpt><trkpt lat="46.3774195" lon="13.1364953"><ele>265.0</ele><time>2026-04-22T10:22:04.658Z</time></trkpt><trkpt lat="46.3775366" lon="13.136365"><ele>265.0</ele><time>2026-04-22T10:22:05.659Z</time></trkpt><trkpt lat="46.3776472" lon="13.1362224"><ele>265.0</ele><time>2026-04-22T10:22:06.658Z</time></trkpt><trkpt lat="46.3777603" lon="13.1360637"><ele>265.0</ele><time>2026-04-22T10:22:07.658Z</time></trkpt><trkpt lat="46.3778705" lon="13.1358793"><ele>265.0</ele><time>2026-04-22T10:22:08.658Z</time></trkpt><trkpt lat="46.3779678" lon="13.13568"><ele>265.0</ele><time>2026-04-22T10:22:09.66Z</time></trkpt><trkpt lat="46.3780556" lon="13.135478"><ele>265.3333333333333</ele><time>2026-04-22T10:22:10.658Z</time></trkpt><trkpt lat="46.3781366" lon="13.135279"><ele>265.6666666666667</ele><time>2026-04-22T10:22:11.658Z</time></trkpt><trkpt lat="46.3782156" lon="13.1350783"><ele>266.0</ele><time>2026-04-22T10:22:12.658Z</time></trkpt><trkpt lat="46.3782983" lon="13.1348724"><ele>264.6666666666667</ele><time>2026-04-22T10:22:13.659Z</time></trkpt><trkpt lat="46.3784017" lon="13.1346393"><ele>263.3333333333333</ele><time>2026-04-22T10:22:14.658Z</time></trkpt><trkpt lat="46.3785086" lon="13.1344212"><ele>262.0</ele><time>2026-04-22T10:22:15.658Z</time></trkpt><trkpt lat="46.3786196" lon="13.1342219"><ele>262.0</ele><time>2026-04-22T10:22:16.659Z</time></trkpt><trkpt lat="46.3787388" lon="13.1340412"><ele>262.0</ele><time>2026-04-22T10:22:17.658Z</time></trkpt><trkpt lat="46.3788666" lon="13.1338779"><ele>262.0</ele><time>2026-04-22T10:22:18.658Z</time></trkpt><trkpt lat="46.3790099" lon="13.1337274"><ele>262.0</ele><time>2026-04-22T10:22:19.658Z</time></trkpt><trkpt lat="46.3791636" lon="13.1335905"><ele>262.0</ele><time>2026-04-22T10:22:20.659Z</time></trkpt><trkpt lat="46.3793211" lon="13.1334712"><ele>262.0</ele><time>2026-04-22T10:22:21.658Z</time></trkpt><trkpt lat="46.3794756" lon="13.1333594"><ele>262.0</ele><time>2026-04-22T10:22:22.658Z</time></trkpt><trkpt lat="46.3796254" lon="13.1332482"><ele>262.0</ele><time>2026-04-22T10:22:23.659Z</time></trkpt><trkpt lat="46.3797683" lon="13.1331451"><ele>262.0</ele><time>2026-04-22T10:22:24.658Z</time></trkpt><trkpt lat="46.3799081" lon="13.1330552"><ele>262.5</ele><time>2026-04-22T10:22:25.658Z</time></trkpt><trkpt lat="46.3800491" lon="13.1329958"><ele>263.0</ele><time>2026-04-22T10:22:26.659Z</time></trkpt><trkpt lat="46.3801925" lon="13.1329625"><ele>263.5</ele><time>2026-04-22T10:22:27.658Z</time></trkpt><trkpt lat="46.3803341" lon="13.1329398"><ele>264.0</ele><time>2026-04-22T10:22:28.658Z</time></trkpt><trkpt lat="46.3804695" lon="13.1329276"><ele>264.25</ele><time>2026-04-22T10:22:29.658Z</time></trkpt><trkpt lat="46.3806024" lon="13.1329379"><ele>264.5</ele><time>2026-04-22T10:22:30.659Z</time></trkpt><trkpt lat="46.3807277" lon="13.1329667"><ele>264.75</ele><time>2026-04-22T10:22:31.66Z</time></trkpt><trkpt lat="46.3808585" lon="13.1330098"><ele>265.0</ele><time>2026-04-22T10:22:32.658Z</time></trkpt><trkpt lat="46.3809734" lon="13.1330708"><ele>265.0</ele><time>2026-04-22T10:22:33.658Z</time></trkpt><trkpt lat="46.3810766" lon="13.1331577"><ele>265.0</ele><time>2026-04-22T10:22:34.658Z</time></trkpt><trkpt lat="46.381167" lon="13.1332737"><ele>265.0</ele><time>2026-04-22T10:22:35.658Z</time></trkpt><trkpt lat="46.3812403" lon="13.1334218"><ele>265.0</ele><time>2026-04-22T10:22:36.658Z</time></trkpt><trkpt lat="46.381283" lon="13.1336016"><ele>264.75</ele><time>2026-04-22T10:22:37.658Z</time></trkpt><trkpt lat="46.3812968" lon="13.1337935"><ele>264.5</ele><time>2026-04-22T10:22:38.659Z</time></trkpt><trkpt lat="46.3812683" lon="13.1339803"><ele>264.25</ele><time>2026-04-22T10:22:39.658Z</time></trkpt><trkpt lat="46.3812084" lon="13.1341359"><ele>264.0</ele><time>2026-04-22T10:22:40.658Z</time></trkpt><trkpt lat="46.3811165" lon="13.1342713"><ele>263.6666666666667</ele><time>2026-04-22T10:22:41.658Z</time></trkpt><trkpt lat="46.3809944" lon="13.1343599"><ele>263.33333333333337</ele><time>2026-04-22T10:22:42.659Z</time></trkpt><trkpt lat="46.3808456" lon="13.1343954"><ele>263.0</ele><time>2026-04-22T10:22:43.659Z</time></trkpt><trkpt lat="46.3806781" lon="13.134383"><ele>263.0</ele><time>2026-04-22T10:22:44.659Z</time></trkpt><trkpt lat="46.3805194" lon="13.1343222"><ele>263.0</ele><time>2026-04-22T10:22:45.658Z</time></trkpt><trkpt lat="46.3803668" lon="13.1342143"><ele>263.0</ele><time>2026-04-22T10:22:46.658Z</time></trkpt><trkpt lat="46.3802236" lon="13.1340626"><ele>263.0</ele><time>2026-04-22T10:22:47.658Z</time></trkpt><trkpt lat="46.3801005" lon="13.1338607"><ele>263.0</ele><time>2026-04-22T10:22:48.659Z</time></trkpt><trkpt lat="46.3800135" lon="13.1336296"><ele>263.0</ele><time>2026-04-22T10:22:49.659Z</time></trkpt><trkpt lat="46.3799588" lon="13.1333867"><ele>263.33333333333337</ele><time>2026-04-22T10:22:50.659Z</time></trkpt><trkpt lat="46.3799306" lon="13.1331274"><ele>263.6666666666667</ele><time>2026-04-22T10:22:51.659Z</time></trkpt><trkpt lat="46.3799264" lon="13.1328474"><ele>264.0</ele><time>2026-04-22T10:22:52.658Z</time></trkpt><trkpt lat="46.3799447" lon="13.1325672"><ele>263.6666666666667</ele><time>2026-04-22T10:22:53.658Z</time></trkpt><trkpt lat="46.3799769" lon="13.1322746"><ele>263.33333333333337</ele><time>2026-04-22T10:22:54.658Z</time></trkpt><trkpt lat="46.380005" lon="13.1319609"><ele>263.0</ele><time>2026-04-22T10:22:55.658Z</time></trkpt><trkpt lat="46.3800235" lon="13.1316657"><ele>262.6666666666667</ele><time>2026-04-22T10:22:56.658Z</time></trkpt><trkpt lat="46.3800341" lon="13.1313742"><ele>262.3333333333333</ele><time>2026-04-22T10:22:57.658Z</time></trkpt><trkpt lat="46.3800356" lon="13.1310909"><ele>262.0</ele><time>2026-04-22T10:22:58.658Z</time></trkpt><trkpt lat="46.3800214" lon="13.1307997"><ele>262.0</ele><time>2026-04-22T10:22:59.658Z</time></trkpt><trkpt lat="46.3799888" lon="13.1305025"><ele>262.0</ele><time>2026-04-22T10:23:00.659Z</time></trkpt><trkpt lat="46.379946" lon="13.1302229"><ele>262.0</ele><time>2026-04-22T10:23:01.658Z</time></trkpt><trkpt lat="46.3798998" lon="13.1299435"><ele>261.66666666666663</ele><time>2026-04-22T10:23:02.66Z</time></trkpt><trkpt lat="46.3798619" lon="13.1296627"><ele>261.3333333333333</ele><time>2026-04-22T10:23:03.659Z</time></trkpt><trkpt lat="46.379837" lon="13.1293861"><ele>261.0</ele><time>2026-04-22T10:23:04.659Z</time></trkpt><trkpt lat="46.3798233" lon="13.1291253"><ele>260.6666666666667</ele><time>2026-04-22T10:23:05.658Z</time></trkpt><trkpt lat="46.3798228" lon="13.1288744"><ele>260.33333333333337</ele><time>2026-04-22T10:23:06.658Z</time></trkpt><trkpt lat="46.3798316" lon="13.1286397"><ele>260.0</ele><time>2026-04-22T10:23:07.658Z</time></trkpt><trkpt lat="46.3798432" lon="13.1284179"><ele>259.75</ele><time>2026-04-22T10:23:08.658Z</time></trkpt><trkpt lat="46.3798598" lon="13.1282151"><ele>259.5</ele><time>2026-04-22T10:23:09.659Z</time></trkpt><trkpt lat="46.3798789" lon="13.1280327"><ele>259.25</ele><time>2026-04-22T10:23:10.659Z</time></trkpt><trkpt lat="46.379903" lon="13.1278614"><ele>259.0</ele><time>2026-04-22T10:23:11.658Z</time></trkpt><trkpt lat="46.3799289" lon="13.1277043"><ele>259.0</ele><time>2026-04-22T10:23:12.658Z</time></trkpt><trkpt lat="46.3799515" lon="13.1275566"><ele>259.0</ele><time>2026-04-22T10:23:13.659Z</time></trkpt><trkpt lat="46.3799581" lon="13.1274154"><ele>259.0</ele><time>2026-04-22T10:23:14.658Z</time></trkpt><trkpt lat="46.3799392" lon="13.1272884"><ele>259.0</ele><time>2026-04-22T10:23:15.659Z</time></trkpt><trkpt lat="46.379896" lon="13.1271769"><ele>259.0</ele><time>2026-04-22T10:23:16.66Z</time></trkpt><trkpt lat="46.3798268" lon="13.1271035"><ele>259.0</ele><time>2026-04-22T10:23:17.659Z</time></trkpt><trkpt lat="46.3797373" lon="13.1270685"><ele>259.0</ele><time>2026-04-22T10:23:18.659Z</time></trkpt><trkpt lat="46.3796567" lon="13.127028"><ele>259.0</ele><time>2026-04-22T10:23:19.659Z</time></trkpt><trkpt lat="46.3795962" lon="13.1269541"><ele>259.0</ele><time>2026-04-22T10:23:20.658Z</time></trkpt><trkpt lat="46.3795706" lon="13.1268534"><ele>259.0</ele><time>2026-04-22T10:23:21.658Z</time></trkpt><trkpt lat="46.3795806" lon="13.1267233"><ele>259.0</ele><time>2026-04-22T10:23:22.658Z</time></trkpt><trkpt lat="46.3796174" lon="13.1265612"><ele>258.75</ele><time>2026-04-22T10:23:23.658Z</time></trkpt><trkpt lat="46.3796713" lon="13.1263632"><ele>258.5</ele><time>2026-04-22T10:23:24.659Z</time></trkpt><trkpt lat="46.3797247" lon="13.126179"><ele>258.25</ele><time>2026-04-22T10:23:25.658Z</time></trkpt><trkpt lat="46.3797776" lon="13.125989"><ele>258.0</ele><time>2026-04-22T10:23:26.658Z</time></trkpt><trkpt lat="46.3798311" lon="13.1257995"><ele>258.25</ele><time>2026-04-22T10:23:27.658Z</time></trkpt><trkpt lat="46.3798837" lon="13.1256094"><ele>258.5</ele><time>2026-04-22T10:23:28.659Z</time></trkpt><trkpt lat="46.3799352" lon="13.1254228"><ele>258.75</ele><time>2026-04-22T10:23:29.658Z</time></trkpt><trkpt lat="46.3799838" lon="13.1252399"><ele>259.0</ele><time>2026-04-22T10:23:30.658Z</time></trkpt><trkpt lat="46.3800265" lon="13.125059"><ele>258.0</ele><time>2026-04-22T10:23:31.658Z</time></trkpt><trkpt lat="46.3800621" lon="13.1248761"><ele>257.0</ele><time>2026-04-22T10:23:32.659Z</time></trkpt><trkpt lat="46.380105" lon="13.1246971"><ele>256.0</ele><time>2026-04-22T10:23:33.658Z</time></trkpt><trkpt lat="46.3801531" lon="13.124517"><ele>255.0</ele><time>2026-04-22T10:23:34.658Z</time></trkpt><trkpt lat="46.3802019" lon="13.1243315"><ele>255.0</ele><time>2026-04-22T10:23:35.659Z</time></trkpt><trkpt lat="46.3802517" lon="13.1241415"><ele>255.0</ele><time>2026-04-22T10:23:36.659Z</time></trkpt><trkpt lat="46.3803021" lon="13.1239456"><ele>255.0</ele><time>2026-04-22T10:23:37.659Z</time></trkpt><trkpt lat="46.3803585" lon="13.1237437"><ele>255.0</ele><time>2026-04-22T10:23:38.658Z</time></trkpt><trkpt lat="46.3804223" lon="13.1235124"><ele>255.0</ele><time>2026-04-22T10:23:39.658Z</time></trkpt><trkpt lat="46.3804847" lon="13.1232801"><ele>255.0</ele><time>2026-04-22T10:23:40.658Z</time></trkpt><trkpt lat="46.3805495" lon="13.1230453"><ele>255.0</ele><time>2026-04-22T10:23:41.659Z</time></trkpt><trkpt lat="46.3806125" lon="13.1228103"><ele>255.0</ele><time>2026-04-22T10:23:42.659Z</time></trkpt><trkpt lat="46.3806755" lon="13.1225768"><ele>255.0</ele><time>2026-04-22T10:23:43.658Z</time></trkpt><trkpt lat="46.3807383" lon="13.1223437"><ele>255.0</ele><time>2026-04-22T10:23:44.659Z</time></trkpt><trkpt lat="46.3807999" lon="13.1221138"><ele>255.33333333333331</ele><time>2026-04-22T10:23:45.658Z</time></trkpt><trkpt lat="46.3808589" lon="13.1218974"><ele>255.66666666666666</ele><time>2026-04-22T10:23:46.659Z</time></trkpt><trkpt lat="46.3809176" lon="13.1216915"><ele>256.0</ele><time>2026-04-22T10:23:47.659Z</time></trkpt><trkpt lat="46.3809787" lon="13.1214942"><ele>257.66666666666663</ele><time>2026-04-22T10:23:48.659Z</time></trkpt><trkpt lat="46.3810495" lon="13.1213089"><ele>259.3333333333333</ele><time>2026-04-22T10:23:49.658Z</time></trkpt><trkpt lat="46.3811097" lon="13.1211178"><ele>261.0</ele><time>2026-04-22T10:23:50.658Z</time></trkpt><trkpt lat="46.381151" lon="13.1208945"><ele>261.0</ele><time>2026-04-22T10:23:51.659Z</time></trkpt><trkpt lat="46.3811921" lon="13.1206747"><ele>261.0</ele><time>2026-04-22T10:23:52.659Z</time></trkpt><trkpt lat="46.3812422" lon="13.1204684"><ele>261.0</ele><time>2026-04-22T10:23:53.658Z</time></trkpt><trkpt lat="46.3812933" lon="13.1202648"><ele>261.0</ele><time>2026-04-22T10:23:54.658Z</time></trkpt><trkpt lat="46.3813397" lon="13.1200682"><ele>261.0</ele><time>2026-04-22T10:23:55.658Z</time></trkpt><trkpt lat="46.3813878" lon="13.1198835"><ele>261.0</ele><time>2026-04-22T10:23:56.659Z</time></trkpt><trkpt lat="46.3814357" lon="13.1197063"><ele>261.0</ele><time>2026-04-22T10:23:57.658Z</time></trkpt><trkpt lat="46.3814807" lon="13.1195348"><ele>261.75</ele><time>2026-04-22T10:23:58.659Z</time></trkpt><trkpt lat="46.3815245" lon="13.1193692"><ele>262.5</ele><time>2026-04-22T10:23:59.658Z</time></trkpt><trkpt lat="46.3815704" lon="13.1192082"><ele>263.25</ele><time>2026-04-22T10:24:00.658Z</time></trkpt><trkpt lat="46.3816163" lon="13.1190376"><ele>264.0</ele><time>2026-04-22T10:24:01.658Z</time></trkpt><trkpt lat="46.3816563" lon="13.1188729"><ele>264.0</ele><time>2026-04-22T10:24:02.658Z</time></trkpt><trkpt lat="46.3816881" lon="13.1187206"><ele>264.0</ele><time>2026-04-22T10:24:03.658Z</time></trkpt><trkpt lat="46.3817115" lon="13.1186013"><ele>264.0</ele><time>2026-04-22T10:24:04.659Z</time></trkpt><trkpt lat="46.3817425" lon="13.1185083"><ele>264.0</ele><time>2026-04-22T10:24:05.658Z</time></trkpt><trkpt lat="46.3818051" lon="13.1184528"><ele>264.0</ele><time>2026-04-22T10:24:07.659Z</time></trkpt><trkpt lat="46.3818478" lon="13.1183815"><ele>264.0</ele><time>2026-04-22T10:24:10.658Z</time></trkpt><trkpt lat="46.3818091" lon="13.1182167"><ele>265.0</ele><time>2026-04-22T10:24:12.658Z</time></trkpt><trkpt lat="46.3817824" lon="13.1181074"><ele>266.0</ele><time>2026-04-22T10:24:13.658Z</time></trkpt><trkpt lat="46.3817563" lon="13.1179783"><ele>267.0</ele><time>2026-04-22T10:24:14.659Z</time></trkpt><trkpt lat="46.381726" lon="13.1178632"><ele>268.0</ele><time>2026-04-22T10:24:15.659Z</time></trkpt><trkpt lat="46.3816901" lon="13.1177781"><ele>269.0</ele><time>2026-04-22T10:24:16.658Z</time></trkpt><trkpt lat="46.3817098" lon="13.1176579"><ele>270.0</ele><time>2026-04-22T10:24:18.659Z</time></trkpt><trkpt lat="46.3817959" lon="13.1176719"><ele>270.0</ele><time>2026-04-22T10:24:20.658Z</time></trkpt><trkpt lat="46.3818375" lon="13.1177484"><ele>270.0</ele><time>2026-04-22T10:24:21.658Z</time></trkpt><trkpt lat="46.3818592" lon="13.1178748"><ele>270.0</ele><time>2026-04-22T10:24:22.658Z</time></trkpt><trkpt lat="46.3818781" lon="13.1180286"><ele>270.0</ele><time>2026-04-22T10:24:23.659Z</time></trkpt><trkpt lat="46.3819073" lon="13.1182133"><ele>270.0</ele><time>2026-04-22T10:24:24.658Z</time></trkpt><trkpt lat="46.3819551" lon="13.118418"><ele>268.5</ele><time>2026-04-22T10:24:25.658Z</time></trkpt><trkpt lat="46.3819884" lon="13.1186076"><ele>267.0</ele><time>2026-04-22T10:24:26.658Z</time></trkpt><trkpt lat="46.382008" lon="13.1187974"><ele>265.5</ele><time>2026-04-22T10:24:27.659Z</time></trkpt><trkpt lat="46.3820246" lon="13.1189843"><ele>264.0</ele><time>2026-04-22T10:24:28.658Z</time></trkpt><trkpt lat="46.3820441" lon="13.1191736"><ele>264.0</ele><time>2026-04-22T10:24:29.658Z</time></trkpt><trkpt lat="46.3820349" lon="13.119365"><ele>264.0</ele><time>2026-04-22T10:24:30.658Z</time></trkpt><trkpt lat="46.382046" lon="13.1195451"><ele>264.0</ele><time>2026-04-22T10:24:31.658Z</time></trkpt><trkpt lat="46.3820688" lon="13.1196887"><ele>264.0</ele><time>2026-04-22T10:24:32.659Z</time></trkpt><trkpt lat="46.3821086" lon="13.1198114"><ele>264.0</ele><time>2026-04-22T10:24:33.658Z</time></trkpt><trkpt lat="46.3821774" lon="13.1199291"><ele>264.0</ele><time>2026-04-22T10:24:34.658Z</time></trkpt><trkpt lat="46.3822772" lon="13.1200496"><ele>264.0</ele><time>2026-04-22T10:24:35.659Z</time></trkpt><trkpt lat="46.3824027" lon="13.1201799"><ele>264.0</ele><time>2026-04-22T10:24:36.66Z</time></trkpt><trkpt lat="46.3825202" lon="13.1203113"><ele>264.0</ele><time>2026-04-22T10:24:37.659Z</time></trkpt><trkpt lat="46.3826342" lon="13.1204358"><ele>264.0</ele><time>2026-04-22T10:24:38.658Z</time></trkpt><trkpt lat="46.3827432" lon="13.1205573"><ele>264.0</ele><time>2026-04-22T10:24:39.658Z</time></trkpt><trkpt lat="46.3828478" lon="13.1206747"><ele>264.0</ele><time>2026-04-22T10:24:40.658Z</time></trkpt><trkpt lat="46.382947" lon="13.1207903"><ele>265.0</ele><time>2026-04-22T10:24:41.658Z</time></trkpt><trkpt lat="46.383039" lon="13.1208966"><ele>266.0</ele><time>2026-04-22T10:24:42.659Z</time></trkpt><trkpt lat="46.3831222" lon="13.1209846"><ele>267.0</ele><time>2026-04-22T10:24:43.658Z</time></trkpt><trkpt lat="46.3831991" lon="13.1210475"><ele>268.0</ele><time>2026-04-22T10:24:44.658Z</time></trkpt><trkpt lat="46.3832842" lon="13.1210774"><ele>269.0</ele><time>2026-04-22T10:24:45.658Z</time></trkpt><trkpt lat="46.3833846" lon="13.1210646"><ele>269.0</ele><time>2026-04-22T10:24:46.658Z</time></trkpt><trkpt lat="46.3834933" lon="13.121021"><ele>269.0</ele><time>2026-04-22T10:24:47.658Z</time></trkpt><trkpt lat="46.383597" lon="13.1209809"><ele>269.0</ele><time>2026-04-22T10:24:48.66Z</time></trkpt><trkpt lat="46.3837384" lon="13.1209252"><ele>269.0</ele><time>2026-04-22T10:24:49.659Z</time></trkpt><trkpt lat="46.3838959" lon="13.1208252"><ele>270.2</ele><time>2026-04-22T10:24:50.66Z</time></trkpt><trkpt lat="46.3840155" lon="13.120756"><ele>271.4</ele><time>2026-04-22T10:24:51.658Z</time></trkpt><trkpt lat="46.3841218" lon="13.1206902"><ele>272.6</ele><time>2026-04-22T10:24:52.657Z</time></trkpt><trkpt lat="46.3842096" lon="13.1206467"><ele>273.8</ele><time>2026-04-22T10:24:53.657Z</time></trkpt><trkpt lat="46.3842704" lon="13.1206206"><ele>275.0</ele><time>2026-04-22T10:24:54.657Z</time></trkpt><trkpt lat="46.3843793" lon="13.1205874"><ele>275.0</ele><time>2026-04-22T10:24:56.657Z</time></trkpt><trkpt lat="46.3844362" lon="13.1206303"><ele>275.0</ele><time>2026-04-22T10:24:57.657Z</time></trkpt><trkpt lat="46.3844901" lon="13.1207052"><ele>275.0</ele><time>2026-04-22T10:24:58.657Z</time></trkpt><trkpt lat="46.3845622" lon="13.1208121"><ele>275.0</ele><time>2026-04-22T10:24:59.658Z</time></trkpt><trkpt lat="46.3846309" lon="13.1209154"><ele>275.0</ele><time>2026-04-22T10:25:00.657Z</time></trkpt><trkpt lat="46.3846896" lon="13.1210062"><ele>275.0</ele><time>2026-04-22T10:25:01.657Z</time></trkpt><trkpt lat="46.3847461" lon="13.1210963"><ele>275.6666666666667</ele><time>2026-04-22T10:25:02.657Z</time></trkpt><trkpt lat="46.3847969" lon="13.1211888"><ele>276.33333333333337</ele><time>2026-04-22T10:25:03.657Z</time></trkpt><trkpt lat="46.3848321" lon="13.1212956"><ele>277.0</ele><time>2026-04-22T10:25:04.659Z</time></trkpt><trkpt lat="46.3848621" lon="13.1214255"><ele>277.6666666666667</ele><time>2026-04-22T10:25:05.657Z</time></trkpt><trkpt lat="46.3848762" lon="13.1215555"><ele>278.3333333333333</ele><time>2026-04-22T10:25:06.657Z</time></trkpt><trkpt lat="46.3848873" lon="13.1216709"><ele>279.0</ele><time>2026-04-22T10:25:07.658Z</time></trkpt><trkpt lat="46.3848996" lon="13.1217856"><ele>279.0</ele><time>2026-04-22T10:25:08.657Z</time></trkpt><trkpt lat="46.384918" lon="13.121879"><ele>279.0</ele><time>2026-04-22T10:25:09.658Z</time></trkpt><trkpt lat="46.3849472" lon="13.1219872"><ele>279.0</ele><time>2026-04-22T10:25:11.657Z</time></trkpt><trkpt lat="46.3848791" lon="13.1219352"><ele>279.0</ele><time>2026-04-22T10:28:48.656Z</time></trkpt><trkpt lat="46.3848878" lon="13.1218347"><ele>279.0</ele><time>2026-04-22T10:34:57.655Z</time></trkpt><trkpt lat="46.3848884" lon="13.1216828"><ele>279.0</ele><time>2026-04-22T10:34:58.655Z</time></trkpt><trkpt lat="46.3848861" lon="13.1215498"><ele>278.2</ele><time>2026-04-22T10:34:59.655Z</time></trkpt><trkpt lat="46.3848666" lon="13.1214279"><ele>277.4</ele><time>2026-04-22T10:35:00.656Z</time></trkpt><trkpt lat="46.3848336" lon="13.1213081"><ele>276.6</ele><time>2026-04-22T10:35:01.655Z</time></trkpt><trkpt lat="46.3847882" lon="13.1211802"><ele>275.8</ele><time>2026-04-22T10:35:02.655Z</time></trkpt><trkpt lat="46.3847338" lon="13.1210777"><ele>275.0</ele><time>2026-04-22T10:35:03.655Z</time></trkpt><trkpt lat="46.3846763" lon="13.1209839"><ele>275.0</ele><time>2026-04-22T10:35:04.655Z</time></trkpt><trkpt lat="46.3846178" lon="13.1208967"><ele>275.0</ele><time>2026-04-22T10:35:05.655Z</time></trkpt><trkpt lat="46.3845641" lon="13.1208134"><ele>275.0</ele><time>2026-04-22T10:35:06.655Z</time></trkpt><trkpt lat="46.3845179" lon="13.1207365"><ele>275.0</ele><time>2026-04-22T10:35:07.656Z</time></trkpt><trkpt lat="46.3844703" lon="13.1206644"><ele>275.0</ele><time>2026-04-22T10:35:08.655Z</time></trkpt><trkpt lat="46.3844156" lon="13.1206124"><ele>275.0</ele><time>2026-04-22T10:35:09.655Z</time></trkpt><trkpt lat="46.3843463" lon="13.1205983"><ele>275.0</ele><time>2026-04-22T10:35:10.656Z</time></trkpt><trkpt lat="46.3842747" lon="13.1206233"><ele>275.0</ele><time>2026-04-22T10:35:11.656Z</time></trkpt><trkpt lat="46.3841816" lon="13.1206722"><ele>275.0</ele><time>2026-04-22T10:35:12.655Z</time></trkpt><trkpt lat="46.384074" lon="13.1207209"><ele>275.0</ele><time>2026-04-22T10:35:13.656Z</time></trkpt><trkpt lat="46.3839705" lon="13.1207739"><ele>275.0</ele><time>2026-04-22T10:35:14.655Z</time></trkpt><trkpt lat="46.3838733" lon="13.120816"><ele>275.0</ele><time>2026-04-22T10:35:15.656Z</time></trkpt><trkpt lat="46.3837784" lon="13.1208576"><ele>274.0</ele><time>2026-04-22T10:35:16.655Z</time></trkpt><trkpt lat="46.3836802" lon="13.1209079"><ele>273.0</ele><time>2026-04-22T10:35:17.655Z</time></trkpt><trkpt lat="46.3835887" lon="13.120943"><ele>272.0</ele><time>2026-04-22T10:35:18.656Z</time></trkpt><trkpt lat="46.383515" lon="13.1209862"><ele>271.0</ele><time>2026-04-22T10:35:19.655Z</time></trkpt><trkpt lat="46.383456" lon="13.1210383"><ele>270.0</ele><time>2026-04-22T10:35:20.655Z</time></trkpt><trkpt lat="46.3833838" lon="13.1210604"><ele>269.0</ele><time>2026-04-22T10:35:21.656Z</time></trkpt><trkpt lat="46.3833161" lon="13.121082"><ele>269.0</ele><time>2026-04-22T10:35:22.655Z</time></trkpt><trkpt lat="46.3832473" lon="13.1210695"><ele>269.0</ele><time>2026-04-22T10:35:23.655Z</time></trkpt><trkpt lat="46.3831795" lon="13.1210315"><ele>269.0</ele><time>2026-04-22T10:35:24.655Z</time></trkpt><trkpt lat="46.3831173" lon="13.1209858"><ele>269.0</ele><time>2026-04-22T10:35:25.656Z</time></trkpt><trkpt lat="46.3830618" lon="13.1209406"><ele>269.0</ele><time>2026-04-22T10:35:26.655Z</time></trkpt><trkpt lat="46.3829755" lon="13.1208653"><ele>269.0</ele><time>2026-04-22T10:35:28.655Z</time></trkpt><trkpt lat="46.3829204" lon="13.1208074"><ele>269.0</ele><time>2026-04-22T10:35:44.655Z</time></trkpt><trkpt lat="46.3828782" lon="13.1207364"><ele>269.0</ele><time>2026-04-22T10:35:45.655Z</time></trkpt><trkpt lat="46.3828177" lon="13.1206607"><ele>269.0</ele><time>2026-04-22T10:35:46.656Z</time></trkpt><trkpt lat="46.3827512" lon="13.1205867"><ele>269.0</ele><time>2026-04-22T10:35:47.656Z</time></trkpt><trkpt lat="46.3826882" lon="13.1205182"><ele>269.0</ele><time>2026-04-22T10:35:48.655Z</time></trkpt><trkpt lat="46.3826133" lon="13.1204432"><ele>269.0</ele><time>2026-04-22T10:35:49.656Z</time></trkpt><trkpt lat="46.3825342" lon="13.1203591"><ele>269.0</ele><time>2026-04-22T10:35:50.655Z</time></trkpt><trkpt lat="46.3824637" lon="13.120268"><ele>269.0</ele><time>2026-04-22T10:35:51.655Z</time></trkpt><trkpt lat="46.382395" lon="13.1201797"><ele>269.0</ele><time>2026-04-22T10:35:52.655Z</time></trkpt><trkpt lat="46.3823049" lon="13.1200917"><ele>269.0</ele><time>2026-04-22T10:35:53.655Z</time></trkpt><trkpt lat="46.3822243" lon="13.1200137"><ele>269.0</ele><time>2026-04-22T10:35:54.656Z</time></trkpt><trkpt lat="46.3821527" lon="13.1199245"><ele>269.0</ele><time>2026-04-22T10:35:55.655Z</time></trkpt><trkpt lat="46.3821007" lon="13.1198231"><ele>268.0</ele><time>2026-04-22T10:35:56.655Z</time></trkpt><trkpt lat="46.3820722" lon="13.1197091"><ele>267.0</ele><time>2026-04-22T10:35:57.656Z</time></trkpt><trkpt lat="46.3820535" lon="13.11956"><ele>266.0</ele><time>2026-04-22T10:35:58.656Z</time></trkpt><trkpt lat="46.3820434" lon="13.1193779"><ele>265.0</ele><time>2026-04-22T10:35:59.656Z</time></trkpt><trkpt lat="46.3820388" lon="13.1191877"><ele>264.0</ele><time>2026-04-22T10:36:00.655Z</time></trkpt><trkpt lat="46.3820344" lon="13.1189927"><ele>264.0</ele><time>2026-04-22T10:36:01.655Z</time></trkpt><trkpt lat="46.3820088" lon="13.1188042"><ele>264.0</ele><time>2026-04-22T10:36:02.656Z</time></trkpt><trkpt lat="46.3819843" lon="13.118627"><ele>264.0</ele><time>2026-04-22T10:36:03.655Z</time></trkpt><trkpt lat="46.3819552" lon="13.1184659"><ele>264.0</ele><time>2026-04-22T10:36:04.655Z</time></trkpt><trkpt lat="46.3819252" lon="13.1183067"><ele>265.0</ele><time>2026-04-22T10:36:05.656Z</time></trkpt><trkpt lat="46.3819067" lon="13.1181507"><ele>266.0</ele><time>2026-04-22T10:36:06.656Z</time></trkpt><trkpt lat="46.3818973" lon="13.1180142"><ele>267.0</ele><time>2026-04-22T10:36:07.655Z</time></trkpt><trkpt lat="46.3818839" lon="13.117892"><ele>268.0</ele><time>2026-04-22T10:36:08.656Z</time></trkpt><trkpt lat="46.3818571" lon="13.1177779"><ele>269.0</ele><time>2026-04-22T10:36:09.655Z</time></trkpt><trkpt lat="46.3818138" lon="13.1176872"><ele>270.0</ele><time>2026-04-22T10:36:10.656Z</time></trkpt><trkpt lat="46.3817209" lon="13.1175918"><ele>270.0</ele><time>2026-04-22T10:36:12.655Z</time></trkpt><trkpt lat="46.3816558" lon="13.1175499"><ele>270.0</ele><time>2026-04-22T10:36:14.656Z</time></trkpt><trkpt lat="46.381563" lon="13.1173951"><ele>270.0</ele><time>2026-04-22T10:36:16.656Z</time></trkpt><trkpt lat="46.3815082" lon="13.1172748"><ele>270.0</ele><time>2026-04-22T10:36:17.655Z</time></trkpt><trkpt lat="46.3814243" lon="13.1171094"><ele>269.3333333333333</ele><time>2026-04-22T10:36:18.655Z</time></trkpt><trkpt lat="46.3813381" lon="13.1169416"><ele>268.66666666666663</ele><time>2026-04-22T10:36:19.655Z</time></trkpt><trkpt lat="46.3812242" lon="13.1167359"><ele>268.0</ele><time>2026-04-22T10:36:20.655Z</time></trkpt><trkpt lat="46.3811079" lon="13.1165333"><ele>268.0</ele><time>2026-04-22T10:36:21.655Z</time></trkpt><trkpt lat="46.3809836" lon="13.1163174"><ele>268.0</ele><time>2026-04-22T10:36:22.655Z</time></trkpt><trkpt lat="46.3808327" lon="13.1160619"><ele>268.0</ele><time>2026-04-22T10:36:23.655Z</time></trkpt><trkpt lat="46.3806796" lon="13.1157903"><ele>266.5</ele><time>2026-04-22T10:36:24.655Z</time></trkpt><trkpt lat="46.380517" lon="13.1155121"><ele>265.0</ele><time>2026-04-22T10:36:25.655Z</time></trkpt><trkpt lat="46.3803223" lon="13.1152095"><ele>265.0</ele><time>2026-04-22T10:36:26.655Z</time></trkpt><trkpt lat="46.3801429" lon="13.1149112"><ele>265.0</ele><time>2026-04-22T10:36:27.655Z</time></trkpt><trkpt lat="46.3799707" lon="13.1146089"><ele>265.5</ele><time>2026-04-22T10:36:28.656Z</time></trkpt><trkpt lat="46.3798046" lon="13.1143088"><ele>266.0</ele><time>2026-04-22T10:36:29.656Z</time></trkpt><trkpt lat="46.3796463" lon="13.1140082"><ele>266.0</ele><time>2026-04-22T10:36:30.655Z</time></trkpt><trkpt lat="46.3794829" lon="13.1137186"><ele>266.0</ele><time>2026-04-22T10:36:31.655Z</time></trkpt><trkpt lat="46.3793226" lon="13.1134386"><ele>270.5</ele><time>2026-04-22T10:36:32.655Z</time></trkpt><trkpt lat="46.3791728" lon="13.1131746"><ele>275.0</ele><time>2026-04-22T10:36:33.656Z</time></trkpt><trkpt lat="46.3790256" lon="13.1129128"><ele>275.0</ele><time>2026-04-22T10:36:34.655Z</time></trkpt><trkpt lat="46.3788844" lon="13.1126529"><ele>275.0</ele><time>2026-04-22T10:36:35.655Z</time></trkpt><trkpt lat="46.3787496" lon="13.1123922"><ele>271.6666666666667</ele><time>2026-04-22T10:36:36.656Z</time></trkpt><trkpt lat="46.3786219" lon="13.1121311"><ele>268.3333333333333</ele><time>2026-04-22T10:36:37.655Z</time></trkpt><trkpt lat="46.3785022" lon="13.111866"><ele>265.0</ele><time>2026-04-22T10:36:38.655Z</time></trkpt><trkpt lat="46.3783906" lon="13.1115973"><ele>267.0</ele><time>2026-04-22T10:36:39.655Z</time></trkpt><trkpt lat="46.3782867" lon="13.1113214"><ele>269.0</ele><time>2026-04-22T10:36:40.656Z</time></trkpt><trkpt lat="46.3781908" lon="13.1110429"><ele>271.0</ele><time>2026-04-22T10:36:41.655Z</time></trkpt><trkpt lat="46.3781042" lon="13.1107595"><ele>271.3333333333333</ele><time>2026-04-22T10:36:42.655Z</time></trkpt><trkpt lat="46.378025" lon="13.1104744"><ele>271.6666666666667</ele><time>2026-04-22T10:36:43.655Z</time></trkpt><trkpt lat="46.3779481" lon="13.1101916"><ele>272.0</ele><time>2026-04-22T10:36:44.655Z</time></trkpt><trkpt lat="46.3778751" lon="13.1099023"><ele>272.0</ele><time>2026-04-22T10:36:45.656Z</time></trkpt><trkpt lat="46.3778028" lon="13.1096057"><ele>272.0</ele><time>2026-04-22T10:36:46.655Z</time></trkpt><trkpt lat="46.3777302" lon="13.1093061"><ele>272.0</ele><time>2026-04-22T10:36:47.655Z</time></trkpt><trkpt lat="46.3776552" lon="13.1090045"><ele>274.6666666666667</ele><time>2026-04-22T10:36:48.656Z</time></trkpt><trkpt lat="46.3775822" lon="13.1086997"><ele>277.3333333333333</ele><time>2026-04-22T10:36:49.656Z</time></trkpt><trkpt lat="46.3775061" lon="13.1083964"><ele>280.0</ele><time>2026-04-22T10:36:50.655Z</time></trkpt><trkpt lat="46.3774288" lon="13.1080948"><ele>284.5</ele><time>2026-04-22T10:36:51.656Z</time></trkpt><trkpt lat="46.3773406" lon="13.1077936"><ele>289.0</ele><time>2026-04-22T10:36:52.655Z</time></trkpt><trkpt lat="46.3772439" lon="13.1074942"><ele>282.5</ele><time>2026-04-22T10:36:53.655Z</time></trkpt><trkpt lat="46.3771368" lon="13.1072001"><ele>276.0</ele><time>2026-04-22T10:36:54.655Z</time></trkpt><trkpt lat="46.3770154" lon="13.1069153"><ele>276.0</ele><time>2026-04-22T10:36:55.655Z</time></trkpt><trkpt lat="46.3768804" lon="13.1066406"><ele>276.0</ele><time>2026-04-22T10:36:56.655Z</time></trkpt><trkpt lat="46.3767327" lon="13.1063753"><ele>279.5</ele><time>2026-04-22T10:36:57.655Z</time></trkpt><trkpt lat="46.3765775" lon="13.1061191"><ele>283.0</ele><time>2026-04-22T10:36:58.655Z</time></trkpt><trkpt lat="46.3764188" lon="13.1058687"><ele>282.0</ele><time>2026-04-22T10:36:59.655Z</time></trkpt><trkpt lat="46.3762613" lon="13.1056138"><ele>281.0</ele><time>2026-04-22T10:37:00.656Z</time></trkpt><trkpt lat="46.3761047" lon="13.1053585"><ele>281.0</ele><time>2026-04-22T10:37:01.655Z</time></trkpt><trkpt lat="46.3759478" lon="13.1051043"><ele>281.0</ele><time>2026-04-22T10:37:02.655Z</time></trkpt><trkpt lat="46.3757931" lon="13.1048476"><ele>277.5</ele><time>2026-04-22T10:37:03.656Z</time></trkpt><trkpt lat="46.3756402" lon="13.1045869"><ele>274.0</ele><time>2026-04-22T10:37:04.656Z</time></trkpt><trkpt lat="46.3754915" lon="13.1043285"><ele>277.3333333333333</ele><time>2026-04-22T10:37:05.656Z</time></trkpt><trkpt lat="46.3753481" lon="13.1040691"><ele>280.6666666666667</ele><time>2026-04-22T10:37:06.656Z</time></trkpt><trkpt lat="46.3752116" lon="13.1038191"><ele>284.0</ele><time>2026-04-22T10:37:07.655Z</time></trkpt><trkpt lat="46.3750803" lon="13.1035803"><ele>284.0</ele><time>2026-04-22T10:37:08.655Z</time></trkpt><trkpt lat="46.3749582" lon="13.103344"><ele>284.0</ele><time>2026-04-22T10:37:09.655Z</time></trkpt><trkpt lat="46.3748436" lon="13.1031078"><ele>284.0</ele><time>2026-04-22T10:37:10.655Z</time></trkpt><trkpt lat="46.3747309" lon="13.1028802"><ele>285.33333333333337</ele><time>2026-04-22T10:37:11.655Z</time></trkpt><trkpt lat="46.3746203" lon="13.1026476"><ele>286.6666666666667</ele><time>2026-04-22T10:37:12.655Z</time></trkpt><trkpt lat="46.3745137" lon="13.1024177"><ele>288.0</ele><time>2026-04-22T10:37:13.657Z</time></trkpt><trkpt lat="46.3744079" lon="13.1021894"><ele>288.0</ele><time>2026-04-22T10:37:14.656Z</time></trkpt><trkpt lat="46.3743029" lon="13.101967"><ele>288.0</ele><time>2026-04-22T10:37:15.655Z</time></trkpt><trkpt lat="46.3741904" lon="13.1017343"><ele>288.0</ele><time>2026-04-22T10:37:16.656Z</time></trkpt><trkpt lat="46.3740761" lon="13.1015106"><ele>289.0</ele><time>2026-04-22T10:37:17.655Z</time></trkpt><trkpt lat="46.3739661" lon="13.1013012"><ele>290.0</ele><time>2026-04-22T10:37:18.655Z</time></trkpt><trkpt lat="46.3738576" lon="13.1010905"><ele>291.0</ele><time>2026-04-22T10:37:19.655Z</time></trkpt><trkpt lat="46.3737522" lon="13.1008887"><ele>288.3333333333333</ele><time>2026-04-22T10:37:20.655Z</time></trkpt><trkpt lat="46.3736537" lon="13.1006899"><ele>285.66666666666663</ele><time>2026-04-22T10:37:21.655Z</time></trkpt><trkpt lat="46.373554" lon="13.1004901"><ele>283.0</ele><time>2026-04-22T10:37:22.655Z</time></trkpt><trkpt lat="46.3734648" lon="13.1002848"><ele>283.0</ele><time>2026-04-22T10:37:23.655Z</time></trkpt><trkpt lat="46.3733902" lon="13.1000691"><ele>283.0</ele><time>2026-04-22T10:37:24.655Z</time></trkpt><trkpt lat="46.373329" lon="13.0998423"><ele>283.0</ele><time>2026-04-22T10:37:25.655Z</time></trkpt><trkpt lat="46.3732821" lon="13.0996097"><ele>283.3333333333333</ele><time>2026-04-22T10:37:26.655Z</time></trkpt><trkpt lat="46.3732547" lon="13.0993622"><ele>283.6666666666667</ele><time>2026-04-22T10:37:27.655Z</time></trkpt><trkpt lat="46.3732461" lon="13.0990997"><ele>284.0</ele><time>2026-04-22T10:37:28.656Z</time></trkpt><trkpt lat="46.3732484" lon="13.0988232"><ele>284.0</ele><time>2026-04-22T10:37:29.655Z</time></trkpt><trkpt lat="46.3732536" lon="13.0985377"><ele>284.0</ele><time>2026-04-22T10:37:30.656Z</time></trkpt><trkpt lat="46.3732637" lon="13.0982623"><ele>284.0</ele><time>2026-04-22T10:37:31.655Z</time></trkpt><trkpt lat="46.3732717" lon="13.0979815"><ele>284.0</ele><time>2026-04-22T10:37:32.655Z</time></trkpt><trkpt lat="46.3732767" lon="13.0976859"><ele>284.0</ele><time>2026-04-22T10:37:33.655Z</time></trkpt><trkpt lat="46.373275" lon="13.0973963"><ele>284.0</ele><time>2026-04-22T10:37:34.655Z</time></trkpt><trkpt lat="46.3732648" lon="13.0971135"><ele>285.6666666666667</ele><time>2026-04-22T10:37:35.656Z</time></trkpt><trkpt lat="46.3732363" lon="13.096832"><ele>287.3333333333333</ele><time>2026-04-22T10:37:36.657Z</time></trkpt><trkpt lat="46.3731899" lon="13.0965494"><ele>289.0</ele><time>2026-04-22T10:37:37.656Z</time></trkpt><trkpt lat="46.3731308" lon="13.0962591"><ele>289.0</ele><time>2026-04-22T10:37:38.655Z</time></trkpt><trkpt lat="46.3730641" lon="13.0959708"><ele>289.0</ele><time>2026-04-22T10:37:39.656Z</time></trkpt><trkpt lat="46.3729974" lon="13.0956799"><ele>289.0</ele><time>2026-04-22T10:37:40.655Z</time></trkpt><trkpt lat="46.3729278" lon="13.0954"><ele>288.66666666666663</ele><time>2026-04-22T10:37:41.655Z</time></trkpt><trkpt lat="46.3728631" lon="13.0951266"><ele>288.3333333333333</ele><time>2026-04-22T10:37:42.655Z</time></trkpt><trkpt lat="46.3727981" lon="13.0948572"><ele>288.0</ele><time>2026-04-22T10:37:43.655Z</time></trkpt><trkpt lat="46.3727364" lon="13.0945919"><ele>288.0</ele><time>2026-04-22T10:37:44.655Z</time></trkpt><trkpt lat="46.3726768" lon="13.0943287"><ele>288.0</ele><time>2026-04-22T10:37:45.656Z</time></trkpt><trkpt lat="46.3726137" lon="13.0940712"><ele>288.0</ele><time>2026-04-22T10:37:46.655Z</time></trkpt><trkpt lat="46.3725547" lon="13.0938223"><ele>288.3333333333333</ele><time>2026-04-22T10:37:47.655Z</time></trkpt><trkpt lat="46.372499" lon="13.0935881"><ele>288.66666666666663</ele><time>2026-04-22T10:37:48.655Z</time></trkpt><trkpt lat="46.3724452" lon="13.0933609"><ele>289.0</ele><time>2026-04-22T10:37:49.655Z</time></trkpt><trkpt lat="46.3723882" lon="13.0931307"><ele>289.66666666666663</ele><time>2026-04-22T10:37:50.655Z</time></trkpt><trkpt lat="46.3723344" lon="13.0929021"><ele>290.3333333333333</ele><time>2026-04-22T10:37:51.655Z</time></trkpt><trkpt lat="46.372283" lon="13.0926815"><ele>291.0</ele><time>2026-04-22T10:37:52.655Z</time></trkpt><trkpt lat="46.3722328" lon="13.0924662"><ele>289.75</ele><time>2026-04-22T10:37:53.655Z</time></trkpt><trkpt lat="46.372186" lon="13.0922619"><ele>288.5</ele><time>2026-04-22T10:37:54.656Z</time></trkpt><trkpt lat="46.3721399" lon="13.0920719"><ele>287.25</ele><time>2026-04-22T10:37:55.655Z</time></trkpt><trkpt lat="46.3720973" lon="13.0918948"><ele>286.0</ele><time>2026-04-22T10:37:56.655Z</time></trkpt><trkpt lat="46.3720578" lon="13.0917325"><ele>286.0</ele><time>2026-04-22T10:37:57.657Z</time></trkpt><trkpt lat="46.3720235" lon="13.0915939"><ele>286.0</ele><time>2026-04-22T10:37:58.656Z</time></trkpt><trkpt lat="46.3720061" lon="13.0914913"><ele>286.0</ele><time>2026-04-22T10:37:59.656Z</time></trkpt><trkpt lat="46.3720003" lon="13.0913877"><ele>286.0</ele><time>2026-04-22T10:38:01.655Z</time></trkpt><trkpt lat="46.3720374" lon="13.091244"><ele>286.0</ele><time>2026-04-22T10:38:04.656Z</time></trkpt><trkpt lat="46.3720638" lon="13.0911348"><ele>286.0</ele><time>2026-04-22T10:38:05.655Z</time></trkpt><trkpt lat="46.3720606" lon="13.0910079"><ele>286.25</ele><time>2026-04-22T10:38:06.655Z</time></trkpt><trkpt lat="46.3720261" lon="13.0908628"><ele>286.5</ele><time>2026-04-22T10:38:07.656Z</time></trkpt><trkpt lat="46.3719722" lon="13.090712"><ele>286.75</ele><time>2026-04-22T10:38:08.655Z</time></trkpt><trkpt lat="46.3719102" lon="13.0905432"><ele>287.0</ele><time>2026-04-22T10:38:09.657Z</time></trkpt><trkpt lat="46.3718275" lon="13.090346"><ele>287.6666666666667</ele><time>2026-04-22T10:38:10.655Z</time></trkpt><trkpt lat="46.3717412" lon="13.0901768"><ele>288.3333333333333</ele><time>2026-04-22T10:38:11.655Z</time></trkpt><trkpt lat="46.3716635" lon="13.0899886"><ele>289.0</ele><time>2026-04-22T10:38:12.655Z</time></trkpt><trkpt lat="46.3715959" lon="13.0897791"><ele>289.0</ele><time>2026-04-22T10:38:13.655Z</time></trkpt><trkpt lat="46.3715394" lon="13.0895612"><ele>289.0</ele><time>2026-04-22T10:38:14.656Z</time></trkpt><trkpt lat="46.3714962" lon="13.0893377"><ele>289.0</ele><time>2026-04-22T10:38:15.656Z</time></trkpt><trkpt lat="46.371457" lon="13.0891099"><ele>288.66666666666663</ele><time>2026-04-22T10:38:16.655Z</time></trkpt><trkpt lat="46.3714297" lon="13.0888767"><ele>288.3333333333333</ele><time>2026-04-22T10:38:17.656Z</time></trkpt><trkpt lat="46.3714109" lon="13.0886398"><ele>288.0</ele><time>2026-04-22T10:38:18.655Z</time></trkpt><trkpt lat="46.3714052" lon="13.0883971"><ele>287.0</ele><time>2026-04-22T10:38:19.655Z</time></trkpt><trkpt lat="46.3714111" lon="13.0881495"><ele>286.0</ele><time>2026-04-22T10:38:20.657Z</time></trkpt><trkpt lat="46.3714299" lon="13.0878755"><ele>285.0</ele><time>2026-04-22T10:38:21.657Z</time></trkpt><trkpt lat="46.3714558" lon="13.087615"><ele>286.0</ele><time>2026-04-22T10:38:22.655Z</time></trkpt><trkpt lat="46.3714842" lon="13.0873486"><ele>287.0</ele><time>2026-04-22T10:38:23.655Z</time></trkpt><trkpt lat="46.3715119" lon="13.0870845"><ele>288.0</ele><time>2026-04-22T10:38:24.655Z</time></trkpt><trkpt lat="46.3715395" lon="13.0868217"><ele>289.0</ele><time>2026-04-22T10:38:25.656Z</time></trkpt><trkpt lat="46.3715614" lon="13.0865591"><ele>290.0</ele><time>2026-04-22T10:38:26.655Z</time></trkpt><trkpt lat="46.3715759" lon="13.0862943"><ele>291.0</ele><time>2026-04-22T10:38:27.655Z</time></trkpt><trkpt lat="46.3715734" lon="13.086012"><ele>291.0</ele><time>2026-04-22T10:38:28.655Z</time></trkpt><trkpt lat="46.3715638" lon="13.0857275"><ele>291.0</ele><time>2026-04-22T10:38:29.655Z</time></trkpt><trkpt lat="46.3715529" lon="13.085444"><ele>291.0</ele><time>2026-04-22T10:38:30.655Z</time></trkpt><trkpt lat="46.3715438" lon="13.0851645"><ele>290.0</ele><time>2026-04-22T10:38:31.655Z</time></trkpt><trkpt lat="46.3715414" lon="13.0848841"><ele>289.0</ele><time>2026-04-22T10:38:32.656Z</time></trkpt><trkpt lat="46.3715507" lon="13.0846088"><ele>288.0</ele><time>2026-04-22T10:38:33.655Z</time></trkpt><trkpt lat="46.3715672" lon="13.0843367"><ele>288.0</ele><time>2026-04-22T10:38:34.655Z</time></trkpt><trkpt lat="46.3715937" lon="13.0840678"><ele>288.0</ele><time>2026-04-22T10:38:35.655Z</time></trkpt><trkpt lat="46.3716261" lon="13.0838021"><ele>288.0</ele><time>2026-04-22T10:38:36.656Z</time></trkpt><trkpt lat="46.3716666" lon="13.0835417"><ele>288.0</ele><time>2026-04-22T10:38:37.655Z</time></trkpt><trkpt lat="46.3717118" lon="13.0832925"><ele>288.0</ele><time>2026-04-22T10:38:38.656Z</time></trkpt><trkpt lat="46.3717605" lon="13.0830666"><ele>288.0</ele><time>2026-04-22T10:38:39.655Z</time></trkpt><trkpt lat="46.3718126" lon="13.0828524"><ele>288.0</ele><time>2026-04-22T10:38:40.656Z</time></trkpt><trkpt lat="46.3718667" lon="13.0826508"><ele>288.0</ele><time>2026-04-22T10:38:41.656Z</time></trkpt><trkpt lat="46.3719154" lon="13.0824644"><ele>288.0</ele><time>2026-04-22T10:38:42.655Z</time></trkpt><trkpt lat="46.3719635" lon="13.0822808"><ele>288.0</ele><time>2026-04-22T10:38:43.655Z</time></trkpt><trkpt lat="46.372019" lon="13.0821058"><ele>288.0</ele><time>2026-04-22T10:38:44.655Z</time></trkpt><trkpt lat="46.372094" lon="13.0819471"><ele>288.0</ele><time>2026-04-22T10:38:45.656Z</time></trkpt><trkpt lat="46.372189" lon="13.0818068"><ele>288.0</ele><time>2026-04-22T10:38:46.655Z</time></trkpt><trkpt lat="46.3723086" lon="13.0816751"><ele>288.0</ele><time>2026-04-22T10:38:47.656Z</time></trkpt><trkpt lat="46.3724406" lon="13.0815391"><ele>288.0</ele><time>2026-04-22T10:38:48.656Z</time></trkpt><trkpt lat="46.3725749" lon="13.0814092"><ele>288.0</ele><time>2026-04-22T10:38:49.655Z</time></trkpt><trkpt lat="46.3727029" lon="13.0812815"><ele>288.0</ele><time>2026-04-22T10:38:50.655Z</time></trkpt><trkpt lat="46.3728293" lon="13.0811586"><ele>288.0</ele><time>2026-04-22T10:38:51.656Z</time></trkpt><trkpt lat="46.372951" lon="13.0810254"><ele>288.0</ele><time>2026-04-22T10:38:52.655Z</time></trkpt><trkpt lat="46.3730644" lon="13.0808664"><ele>288.0</ele><time>2026-04-22T10:38:53.655Z</time></trkpt><trkpt lat="46.3731736" lon="13.0806749"><ele>286.3333333333333</ele><time>2026-04-22T10:38:54.655Z</time></trkpt><trkpt lat="46.3732716" lon="13.0804701"><ele>284.66666666666663</ele><time>2026-04-22T10:38:55.655Z</time></trkpt><trkpt lat="46.3733641" lon="13.0802408"><ele>283.0</ele><time>2026-04-22T10:38:56.655Z</time></trkpt><trkpt lat="46.3734579" lon="13.0799822"><ele>282.0</ele><time>2026-04-22T10:38:57.655Z</time></trkpt><trkpt lat="46.373545" lon="13.0797345"><ele>281.0</ele><time>2026-04-22T10:38:58.656Z</time></trkpt><trkpt lat="46.3736344" lon="13.0794969"><ele>280.0</ele><time>2026-04-22T10:38:59.655Z</time></trkpt><trkpt lat="46.3737163" lon="13.079262"><ele>279.3333333333333</ele><time>2026-04-22T10:39:00.655Z</time></trkpt><trkpt lat="46.3737833" lon="13.0790242"><ele>278.6666666666667</ele><time>2026-04-22T10:39:01.656Z</time></trkpt><trkpt lat="46.3738363" lon="13.0787697"><ele>278.0</ele><time>2026-04-22T10:39:02.655Z</time></trkpt><trkpt lat="46.3738715" lon="13.0785056"><ele>280.33333333333337</ele><time>2026-04-22T10:39:03.656Z</time></trkpt><trkpt lat="46.3738846" lon="13.0782349"><ele>282.6666666666667</ele><time>2026-04-22T10:39:04.656Z</time></trkpt><trkpt lat="46.3738834" lon="13.0779576"><ele>285.0</ele><time>2026-04-22T10:39:05.656Z</time></trkpt><trkpt lat="46.3738679" lon="13.0776568"><ele>283.0</ele><time>2026-04-22T10:39:06.655Z</time></trkpt><trkpt lat="46.3738414" lon="13.0773557"><ele>281.0</ele><time>2026-04-22T10:39:07.655Z</time></trkpt><trkpt lat="46.3738214" lon="13.0770638"><ele>279.0</ele><time>2026-04-22T10:39:08.656Z</time></trkpt><trkpt lat="46.3738122" lon="13.0767697"><ele>278.0</ele><time>2026-04-22T10:39:09.655Z</time></trkpt><trkpt lat="46.3738212" lon="13.0764694"><ele>277.0</ele><time>2026-04-22T10:39:10.655Z</time></trkpt><trkpt lat="46.373846" lon="13.0761751"><ele>276.0</ele><time>2026-04-22T10:39:11.655Z</time></trkpt><trkpt lat="46.3738866" lon="13.075887"><ele>278.0</ele><time>2026-04-22T10:39:12.655Z</time></trkpt><trkpt lat="46.3739468" lon="13.075595"><ele>280.0</ele><time>2026-04-22T10:39:13.656Z</time></trkpt><trkpt lat="46.3740251" lon="13.0752968"><ele>282.0</ele><time>2026-04-22T10:39:14.655Z</time></trkpt><trkpt lat="46.3741191" lon="13.0750019"><ele>282.0</ele><time>2026-04-22T10:39:15.655Z</time></trkpt><trkpt lat="46.3742141" lon="13.0747217"><ele>282.0</ele><time>2026-04-22T10:39:16.655Z</time></trkpt><trkpt lat="46.3743071" lon="13.074442"><ele>282.0</ele><time>2026-04-22T10:39:17.656Z</time></trkpt><trkpt lat="46.3743856" lon="13.0741599"><ele>281.0</ele><time>2026-04-22T10:39:18.656Z</time></trkpt><trkpt lat="46.3744482" lon="13.0738726"><ele>280.0</ele><time>2026-04-22T10:39:19.655Z</time></trkpt><trkpt lat="46.3744949" lon="13.0735764"><ele>279.0</ele><time>2026-04-22T10:39:20.656Z</time></trkpt><trkpt lat="46.3745287" lon="13.073275"><ele>276.6666666666667</ele><time>2026-04-22T10:39:21.655Z</time></trkpt><trkpt lat="46.3745596" lon="13.0729825"><ele>274.33333333333337</ele><time>2026-04-22T10:39:22.656Z</time></trkpt><trkpt lat="46.3745878" lon="13.0726943"><ele>272.0</ele><time>2026-04-22T10:39:23.655Z</time></trkpt><trkpt lat="46.3746139" lon="13.0724055"><ele>272.0</ele><time>2026-04-22T10:39:24.655Z</time></trkpt><trkpt lat="46.3746403" lon="13.07211"><ele>272.0</ele><time>2026-04-22T10:39:25.655Z</time></trkpt><trkpt lat="46.3746674" lon="13.0718196"><ele>272.0</ele><time>2026-04-22T10:39:26.655Z</time></trkpt><trkpt lat="46.3746939" lon="13.0715375"><ele>278.33333333333337</ele><time>2026-04-22T10:39:27.655Z</time></trkpt><trkpt lat="46.3747238" lon="13.0712635"><ele>284.6666666666667</ele><time>2026-04-22T10:39:28.655Z</time></trkpt><trkpt lat="46.3747515" lon="13.0710018"><ele>291.0</ele><time>2026-04-22T10:39:29.655Z</time></trkpt><trkpt lat="46.3747689" lon="13.0707502"><ele>291.0</ele><time>2026-04-22T10:39:30.655Z</time></trkpt><trkpt lat="46.3747682" lon="13.0705024"><ele>291.0</ele><time>2026-04-22T10:39:31.655Z</time></trkpt><trkpt lat="46.3747394" lon="13.07025"><ele>291.0</ele><time>2026-04-22T10:39:32.655Z</time></trkpt><trkpt lat="46.3746909" lon="13.0699911"><ele>286.3333333333333</ele><time>2026-04-22T10:39:33.655Z</time></trkpt><trkpt lat="46.3746259" lon="13.0697092"><ele>281.66666666666663</ele><time>2026-04-22T10:39:34.655Z</time></trkpt><trkpt lat="46.3745566" lon="13.0694324"><ele>277.0</ele><time>2026-04-22T10:39:35.655Z</time></trkpt><trkpt lat="46.3744913" lon="13.0691602"><ele>277.0</ele><time>2026-04-22T10:39:36.655Z</time></trkpt><trkpt lat="46.3744212" lon="13.0688751"><ele>277.0</ele><time>2026-04-22T10:39:37.657Z</time></trkpt><trkpt lat="46.3743507" lon="13.0685841"><ele>277.0</ele><time>2026-04-22T10:39:38.656Z</time></trkpt><trkpt lat="46.3742841" lon="13.0683127"><ele>278.3333333333333</ele><time>2026-04-22T10:39:39.655Z</time></trkpt><trkpt lat="46.3742221" lon="13.068044"><ele>279.6666666666667</ele><time>2026-04-22T10:39:40.656Z</time></trkpt><trkpt lat="46.37416" lon="13.0677839"><ele>281.0</ele><time>2026-04-22T10:39:41.655Z</time></trkpt><trkpt lat="46.3740948" lon="13.0675293"><ele>281.33333333333337</ele><time>2026-04-22T10:39:42.655Z</time></trkpt><trkpt lat="46.3740333" lon="13.0672744"><ele>281.6666666666667</ele><time>2026-04-22T10:39:43.655Z</time></trkpt><trkpt lat="46.3739945" lon="13.0670063"><ele>282.0</ele><time>2026-04-22T10:39:44.655Z</time></trkpt><trkpt lat="46.3739823" lon="13.0667289"><ele>283.0</ele><time>2026-04-22T10:39:45.655Z</time></trkpt><trkpt lat="46.3739894" lon="13.0664481"><ele>284.0</ele><time>2026-04-22T10:39:46.655Z</time></trkpt><trkpt lat="46.374006" lon="13.0661679"><ele>285.0</ele><time>2026-04-22T10:39:47.656Z</time></trkpt><trkpt lat="46.3740237" lon="13.0658869"><ele>285.0</ele><time>2026-04-22T10:39:48.655Z</time></trkpt><trkpt lat="46.374042" lon="13.0656082"><ele>285.0</ele><time>2026-04-22T10:39:49.655Z</time></trkpt><trkpt lat="46.3740611" lon="13.0653343"><ele>285.0</ele><time>2026-04-22T10:39:50.656Z</time></trkpt><trkpt lat="46.3740755" lon="13.0650648"><ele>285.0</ele><time>2026-04-22T10:39:51.656Z</time></trkpt><trkpt lat="46.3740924" lon="13.0647988"><ele>285.0</ele><time>2026-04-22T10:39:52.655Z</time></trkpt><trkpt lat="46.3741221" lon="13.0645306"><ele>285.0</ele><time>2026-04-22T10:39:53.656Z</time></trkpt><trkpt lat="46.3741715" lon="13.0642572"><ele>283.6666666666667</ele><time>2026-04-22T10:39:54.656Z</time></trkpt><trkpt lat="46.3742461" lon="13.0639778"><ele>282.33333333333337</ele><time>2026-04-22T10:39:55.655Z</time></trkpt><trkpt lat="46.3743346" lon="13.0636887"><ele>281.0</ele><time>2026-04-22T10:39:56.655Z</time></trkpt><trkpt lat="46.3744269" lon="13.0634079"><ele>280.33333333333337</ele><time>2026-04-22T10:39:57.655Z</time></trkpt><trkpt lat="46.3745179" lon="13.0631329"><ele>279.6666666666667</ele><time>2026-04-22T10:39:58.655Z</time></trkpt><trkpt lat="46.3746081" lon="13.0628634"><ele>279.0</ele><time>2026-04-22T10:39:59.656Z</time></trkpt><trkpt lat="46.3746972" lon="13.0625968"><ele>282.6666666666667</ele><time>2026-04-22T10:40:00.655Z</time></trkpt><trkpt lat="46.3747805" lon="13.0623328"><ele>286.33333333333337</ele><time>2026-04-22T10:40:01.655Z</time></trkpt><trkpt lat="46.3748629" lon="13.0620739"><ele>290.0</ele><time>2026-04-22T10:40:02.655Z</time></trkpt><trkpt lat="46.3749474" lon="13.0618218"><ele>287.33333333333337</ele><time>2026-04-22T10:40:03.656Z</time></trkpt><trkpt lat="46.375043" lon="13.0615825"><ele>284.6666666666667</ele><time>2026-04-22T10:40:04.655Z</time></trkpt><trkpt lat="46.3751477" lon="13.0613543"><ele>282.0</ele><time>2026-04-22T10:40:05.655Z</time></trkpt><trkpt lat="46.3752628" lon="13.0611393"><ele>282.0</ele><time>2026-04-22T10:40:06.656Z</time></trkpt><trkpt lat="46.3753891" lon="13.0609409"><ele>282.0</ele><time>2026-04-22T10:40:07.656Z</time></trkpt><trkpt lat="46.3755257" lon="13.0607628"><ele>282.0</ele><time>2026-04-22T10:40:08.655Z</time></trkpt><trkpt lat="46.3756741" lon="13.060606"><ele>282.0</ele><time>2026-04-22T10:40:09.655Z</time></trkpt><trkpt lat="46.3758247" lon="13.0604607"><ele>282.0</ele><time>2026-04-22T10:40:10.656Z</time></trkpt><trkpt lat="46.3759802" lon="13.0603212"><ele>282.0</ele><time>2026-04-22T10:40:11.655Z</time></trkpt><trkpt lat="46.3761365" lon="13.0601916"><ele>282.0</ele><time>2026-04-22T10:40:12.655Z</time></trkpt><trkpt lat="46.3762924" lon="13.0600713"><ele>282.0</ele><time>2026-04-22T10:40:13.655Z</time></trkpt><trkpt lat="46.3764359" lon="13.0599531"><ele>282.0</ele><time>2026-04-22T10:40:14.656Z</time></trkpt><trkpt lat="46.3765878" lon="13.0598183"><ele>281.6666666666667</ele><time>2026-04-22T10:40:15.655Z</time></trkpt><trkpt lat="46.376744" lon="13.0596831"><ele>281.33333333333337</ele><time>2026-04-22T10:40:16.655Z</time></trkpt><trkpt lat="46.3768903" lon="13.0595613"><ele>281.0</ele><time>2026-04-22T10:40:17.655Z</time></trkpt><trkpt lat="46.3770326" lon="13.059443"><ele>281.0</ele><time>2026-04-22T10:40:18.655Z</time></trkpt><trkpt lat="46.3771714" lon="13.0593268"><ele>281.0</ele><time>2026-04-22T10:40:19.655Z</time></trkpt><trkpt lat="46.3772994" lon="13.0592012"><ele>281.0</ele><time>2026-04-22T10:40:20.656Z</time></trkpt><trkpt lat="46.3774269" lon="13.0590428"><ele>280.0</ele><time>2026-04-22T10:40:21.655Z</time></trkpt><trkpt lat="46.3775449" lon="13.0588677"><ele>279.0</ele><time>2026-04-22T10:40:22.656Z</time></trkpt><trkpt lat="46.3776684" lon="13.058703"><ele>278.0</ele><time>2026-04-22T10:40:23.655Z</time></trkpt><trkpt lat="46.377819" lon="13.0585758"><ele>278.0</ele><time>2026-04-22T10:40:24.655Z</time></trkpt><trkpt lat="46.3779935" lon="13.0584571"><ele>278.0</ele><time>2026-04-22T10:40:25.655Z</time></trkpt><trkpt lat="46.3781638" lon="13.058345"><ele>278.0</ele><time>2026-04-22T10:40:26.655Z</time></trkpt><trkpt lat="46.3783323" lon="13.0582362"><ele>278.6666666666667</ele><time>2026-04-22T10:40:27.655Z</time></trkpt><trkpt lat="46.3785037" lon="13.0581043"><ele>279.3333333333333</ele><time>2026-04-22T10:40:28.654Z</time></trkpt><trkpt lat="46.3786701" lon="13.0579339"><ele>280.0</ele><time>2026-04-22T10:40:29.655Z</time></trkpt><trkpt lat="46.3788346" lon="13.0577403"><ele>281.66666666666663</ele><time>2026-04-22T10:40:30.654Z</time></trkpt><trkpt lat="46.3789792" lon="13.0575507"><ele>283.3333333333333</ele><time>2026-04-22T10:40:31.654Z</time></trkpt><trkpt lat="46.3791117" lon="13.0573546"><ele>285.0</ele><time>2026-04-22T10:40:32.654Z</time></trkpt><trkpt lat="46.3792418" lon="13.0571645"><ele>285.0</ele><time>2026-04-22T10:40:33.654Z</time></trkpt><trkpt lat="46.3793816" lon="13.0569935"><ele>285.0</ele><time>2026-04-22T10:40:34.656Z</time></trkpt><trkpt lat="46.3795339" lon="13.0568483"><ele>285.0</ele><time>2026-04-22T10:40:35.654Z</time></trkpt><trkpt lat="46.3796964" lon="13.0567181"><ele>283.3333333333333</ele><time>2026-04-22T10:40:36.654Z</time></trkpt><trkpt lat="46.3798655" lon="13.0565936"><ele>281.66666666666663</ele><time>2026-04-22T10:40:37.654Z</time></trkpt><trkpt lat="46.3800345" lon="13.0564685"><ele>280.0</ele><time>2026-04-22T10:40:38.654Z</time></trkpt><trkpt lat="46.3802028" lon="13.0563432"><ele>280.0</ele><time>2026-04-22T10:40:39.655Z</time></trkpt><trkpt lat="46.3803701" lon="13.0562176"><ele>280.0</ele><time>2026-04-22T10:40:40.654Z</time></trkpt><trkpt lat="46.3805375" lon="13.056093"><ele>280.0</ele><time>2026-04-22T10:40:41.654Z</time></trkpt><trkpt lat="46.3807054" lon="13.0559717"><ele>278.3333333333333</ele><time>2026-04-22T10:40:42.655Z</time></trkpt><trkpt lat="46.3808747" lon="13.0558598"><ele>276.6666666666667</ele><time>2026-04-22T10:40:43.654Z</time></trkpt><trkpt lat="46.3810456" lon="13.0557825"><ele>275.0</ele><time>2026-04-22T10:40:44.655Z</time></trkpt><trkpt lat="46.3812158" lon="13.0557295"><ele>277.0</ele><time>2026-04-22T10:40:45.655Z</time></trkpt><trkpt lat="46.3813849" lon="13.0556612"><ele>279.0</ele><time>2026-04-22T10:40:46.655Z</time></trkpt><trkpt lat="46.3815516" lon="13.0555576"><ele>281.0</ele><time>2026-04-22T10:40:47.655Z</time></trkpt><trkpt lat="46.3817129" lon="13.0554322"><ele>281.0</ele><time>2026-04-22T10:40:48.654Z</time></trkpt><trkpt lat="46.3818693" lon="13.0552921"><ele>281.0</ele><time>2026-04-22T10:40:49.654Z</time></trkpt><trkpt lat="46.3820247" lon="13.055143"><ele>281.0</ele><time>2026-04-22T10:40:50.656Z</time></trkpt><trkpt lat="46.3821775" lon="13.054996"><ele>283.33333333333337</ele><time>2026-04-22T10:40:51.654Z</time></trkpt><trkpt lat="46.3823306" lon="13.0548479"><ele>285.6666666666667</ele><time>2026-04-22T10:40:52.654Z</time></trkpt><trkpt lat="46.3824847" lon="13.0547062"><ele>288.0</ele><time>2026-04-22T10:40:53.654Z</time></trkpt><trkpt lat="46.3826376" lon="13.0545735"><ele>288.0</ele><time>2026-04-22T10:40:54.654Z</time></trkpt><trkpt lat="46.38279" lon="13.0544474"><ele>288.0</ele><time>2026-04-22T10:40:55.655Z</time></trkpt><trkpt lat="46.3829403" lon="13.0543229"><ele>288.0</ele><time>2026-04-22T10:40:56.654Z</time></trkpt><trkpt lat="46.3830884" lon="13.0541976"><ele>286.3333333333333</ele><time>2026-04-22T10:40:57.655Z</time></trkpt><trkpt lat="46.3832394" lon="13.0540807"><ele>284.66666666666663</ele><time>2026-04-22T10:40:58.654Z</time></trkpt><trkpt lat="46.3833902" lon="13.0539616"><ele>283.0</ele><time>2026-04-22T10:40:59.654Z</time></trkpt><trkpt lat="46.3836" lon="13.0538156"><ele>283.0</ele><time>2026-04-22T10:41:00.654Z</time></trkpt><trkpt lat="46.3837771" lon="13.0536621"><ele>283.0</ele><time>2026-04-22T10:41:01.654Z</time></trkpt><trkpt lat="46.383949" lon="13.0535117"><ele>283.0</ele><time>2026-04-22T10:41:02.654Z</time></trkpt><trkpt lat="46.3841146" lon="13.0533639"><ele>285.66666666666663</ele><time>2026-04-22T10:41:03.654Z</time></trkpt><trkpt lat="46.3842651" lon="13.0531979"><ele>288.3333333333333</ele><time>2026-04-22T10:41:04.655Z</time></trkpt><trkpt lat="46.3844049" lon="13.0530239"><ele>291.0</ele><time>2026-04-22T10:41:05.655Z</time></trkpt><trkpt lat="46.3845403" lon="13.0528573"><ele>291.0</ele><time>2026-04-22T10:41:06.654Z</time></trkpt><trkpt lat="46.3846738" lon="13.052695"><ele>291.0</ele><time>2026-04-22T10:41:07.654Z</time></trkpt><trkpt lat="46.3848053" lon="13.0525321"><ele>291.0</ele><time>2026-04-22T10:41:08.654Z</time></trkpt><trkpt lat="46.3849332" lon="13.0523704"><ele>292.0</ele><time>2026-04-22T10:41:09.654Z</time></trkpt><trkpt lat="46.3850551" lon="13.0521906"><ele>293.0</ele><time>2026-04-22T10:41:10.654Z</time></trkpt><trkpt lat="46.3851766" lon="13.0519764"><ele>294.0</ele><time>2026-04-22T10:41:11.654Z</time></trkpt><trkpt lat="46.3852856" lon="13.051749"><ele>292.3333333333333</ele><time>2026-04-22T10:41:12.654Z</time></trkpt><trkpt lat="46.3853941" lon="13.0515217"><ele>290.66666666666663</ele><time>2026-04-22T10:41:13.655Z</time></trkpt><trkpt lat="46.385501" lon="13.0513022"><ele>289.0</ele><time>2026-04-22T10:41:14.654Z</time></trkpt><trkpt lat="46.3856038" lon="13.0510822"><ele>291.0</ele><time>2026-04-22T10:41:15.655Z</time></trkpt><trkpt lat="46.3857059" lon="13.0508635"><ele>293.0</ele><time>2026-04-22T10:41:16.654Z</time></trkpt><trkpt lat="46.3858062" lon="13.0506501"><ele>295.0</ele><time>2026-04-22T10:41:17.654Z</time></trkpt><trkpt lat="46.3859078" lon="13.050445"><ele>295.0</ele><time>2026-04-22T10:41:18.655Z</time></trkpt><trkpt lat="46.3860189" lon="13.0502492"><ele>295.0</ele><time>2026-04-22T10:41:19.654Z</time></trkpt><trkpt lat="46.3861479" lon="13.0500608"><ele>295.0</ele><time>2026-04-22T10:41:20.654Z</time></trkpt><trkpt lat="46.3862898" lon="13.0498756"><ele>296.66666666666663</ele><time>2026-04-22T10:41:21.654Z</time></trkpt><trkpt lat="46.3864286" lon="13.0497047"><ele>298.3333333333333</ele><time>2026-04-22T10:41:22.654Z</time></trkpt><trkpt lat="46.3865675" lon="13.0495393"><ele>300.0</ele><time>2026-04-22T10:41:23.654Z</time></trkpt><trkpt lat="46.3867032" lon="13.0493784"><ele>300.0</ele><time>2026-04-22T10:41:24.656Z</time></trkpt><trkpt lat="46.3868332" lon="13.0492232"><ele>300.0</ele><time>2026-04-22T10:41:25.654Z</time></trkpt><trkpt lat="46.3869593" lon="13.0490712"><ele>300.0</ele><time>2026-04-22T10:41:26.654Z</time></trkpt><trkpt lat="46.387084" lon="13.048918"><ele>299.0</ele><time>2026-04-22T10:41:27.654Z</time></trkpt><trkpt lat="46.3872104" lon="13.048767"><ele>298.0</ele><time>2026-04-22T10:41:28.654Z</time></trkpt><trkpt lat="46.3873392" lon="13.0486114"><ele>297.0</ele><time>2026-04-22T10:41:29.654Z</time></trkpt><trkpt lat="46.3874652" lon="13.048469"><ele>297.0</ele><time>2026-04-22T10:41:30.654Z</time></trkpt><trkpt lat="46.3875912" lon="13.0483477"><ele>297.0</ele><time>2026-04-22T10:41:31.655Z</time></trkpt><trkpt lat="46.3877214" lon="13.0482568"><ele>297.0</ele><time>2026-04-22T10:41:32.655Z</time></trkpt><trkpt lat="46.3878515" lon="13.0481946"><ele>297.0</ele><time>2026-04-22T10:41:33.655Z</time></trkpt><trkpt lat="46.3879875" lon="13.0481588"><ele>295.75</ele><time>2026-04-22T10:41:34.655Z</time></trkpt><trkpt lat="46.3881241" lon="13.0481329"><ele>294.5</ele><time>2026-04-22T10:41:35.655Z</time></trkpt><trkpt lat="46.3882586" lon="13.0481167"><ele>293.25</ele><time>2026-04-22T10:41:36.654Z</time></trkpt><trkpt lat="46.3884017" lon="13.0481"><ele>292.0</ele><time>2026-04-22T10:41:37.655Z</time></trkpt><trkpt lat="46.3885525" lon="13.0480772"><ele>292.0</ele><time>2026-04-22T10:41:38.655Z</time></trkpt><trkpt lat="46.3887004" lon="13.0480278"><ele>292.0</ele><time>2026-04-22T10:41:39.654Z</time></trkpt><trkpt lat="46.3888449" lon="13.0479551"><ele>292.0</ele><time>2026-04-22T10:41:40.654Z</time></trkpt><trkpt lat="46.3889861" lon="13.0478382"><ele>293.66666666666663</ele><time>2026-04-22T10:41:41.655Z</time></trkpt><trkpt lat="46.3891192" lon="13.0476817"><ele>295.3333333333333</ele><time>2026-04-22T10:41:42.655Z</time></trkpt><trkpt lat="46.3892322" lon="13.0475003"><ele>297.0</ele><time>2026-04-22T10:41:43.654Z</time></trkpt><trkpt lat="46.389325" lon="13.0472851"><ele>297.0</ele><time>2026-04-22T10:41:44.654Z</time></trkpt><trkpt lat="46.3893994" lon="13.0470407"><ele>297.0</ele><time>2026-04-22T10:41:45.654Z</time></trkpt><trkpt lat="46.3894567" lon="13.0467741"><ele>297.0</ele><time>2026-04-22T10:41:46.655Z</time></trkpt><trkpt lat="46.389509" lon="13.046499"><ele>296.0</ele><time>2026-04-22T10:41:47.654Z</time></trkpt><trkpt lat="46.3895592" lon="13.0462373"><ele>295.0</ele><time>2026-04-22T10:41:48.654Z</time></trkpt><trkpt lat="46.3896064" lon="13.0459778"><ele>294.0</ele><time>2026-04-22T10:41:49.655Z</time></trkpt><trkpt lat="46.3896551" lon="13.0457244"><ele>298.0</ele><time>2026-04-22T10:41:50.656Z</time></trkpt><trkpt lat="46.3897027" lon="13.0454765"><ele>302.0</ele><time>2026-04-22T10:41:51.655Z</time></trkpt><trkpt lat="46.3897524" lon="13.0452333"><ele>306.0</ele><time>2026-04-22T10:41:52.655Z</time></trkpt><trkpt lat="46.3898118" lon="13.0449958"><ele>304.6666666666667</ele><time>2026-04-22T10:41:53.655Z</time></trkpt><trkpt lat="46.3898792" lon="13.0447631"><ele>303.33333333333337</ele><time>2026-04-22T10:41:54.655Z</time></trkpt><trkpt lat="46.3899539" lon="13.0445351"><ele>302.0</ele><time>2026-04-22T10:41:55.656Z</time></trkpt><trkpt lat="46.3900292" lon="13.0443116"><ele>301.6666666666667</ele><time>2026-04-22T10:41:56.654Z</time></trkpt><trkpt lat="46.3901026" lon="13.0440902"><ele>301.3333333333333</ele><time>2026-04-22T10:41:57.654Z</time></trkpt><trkpt lat="46.3901608" lon="13.0438556"><ele>301.0</ele><time>2026-04-22T10:41:58.655Z</time></trkpt><trkpt lat="46.3902114" lon="13.0436206"><ele>301.0</ele><time>2026-04-22T10:41:59.654Z</time></trkpt><trkpt lat="46.3902616" lon="13.0433864"><ele>301.0</ele><time>2026-04-22T10:42:00.654Z</time></trkpt><trkpt lat="46.3903125" lon="13.0431571"><ele>301.0</ele><time>2026-04-22T10:42:01.654Z</time></trkpt><trkpt lat="46.39036" lon="13.0429318"><ele>300.66666666666663</ele><time>2026-04-22T10:42:02.654Z</time></trkpt><trkpt lat="46.3904082" lon="13.0427057"><ele>300.3333333333333</ele><time>2026-04-22T10:42:03.654Z</time></trkpt><trkpt lat="46.390458" lon="13.0424814"><ele>300.0</ele><time>2026-04-22T10:42:04.655Z</time></trkpt><trkpt lat="46.3905056" lon="13.0422466"><ele>301.6666666666667</ele><time>2026-04-22T10:42:05.654Z</time></trkpt><trkpt lat="46.3905563" lon="13.0420002"><ele>303.33333333333337</ele><time>2026-04-22T10:42:06.654Z</time></trkpt><trkpt lat="46.3906054" lon="13.0417583"><ele>305.0</ele><time>2026-04-22T10:42:07.654Z</time></trkpt><trkpt lat="46.3906575" lon="13.0415173"><ele>305.0</ele><time>2026-04-22T10:42:08.656Z</time></trkpt><trkpt lat="46.3907136" lon="13.0412791"><ele>305.0</ele><time>2026-04-22T10:42:09.655Z</time></trkpt><trkpt lat="46.3907725" lon="13.0410492"><ele>305.0</ele><time>2026-04-22T10:42:10.654Z</time></trkpt><trkpt lat="46.39084" lon="13.0408266"><ele>304.0</ele><time>2026-04-22T10:42:11.655Z</time></trkpt><trkpt lat="46.3909109" lon="13.0406105"><ele>303.0</ele><time>2026-04-22T10:42:12.654Z</time></trkpt><trkpt lat="46.3909907" lon="13.0403961"><ele>302.0</ele><time>2026-04-22T10:42:13.654Z</time></trkpt><trkpt lat="46.3910812" lon="13.0401941"><ele>302.0</ele><time>2026-04-22T10:42:14.654Z</time></trkpt><trkpt lat="46.3911743" lon="13.039999"><ele>302.0</ele><time>2026-04-22T10:42:15.655Z</time></trkpt><trkpt lat="46.3912659" lon="13.0398102"><ele>302.0</ele><time>2026-04-22T10:42:16.655Z</time></trkpt><trkpt lat="46.3913565" lon="13.039623"><ele>302.33333333333337</ele><time>2026-04-22T10:42:17.654Z</time></trkpt><trkpt lat="46.3914438" lon="13.0394374"><ele>302.6666666666667</ele><time>2026-04-22T10:42:18.654Z</time></trkpt><trkpt lat="46.3915315" lon="13.039256"><ele>303.0</ele><time>2026-04-22T10:42:19.654Z</time></trkpt><trkpt lat="46.3916238" lon="13.0390639"><ele>303.0</ele><time>2026-04-22T10:42:20.654Z</time></trkpt><trkpt lat="46.3917136" lon="13.0388879"><ele>303.0</ele><time>2026-04-22T10:42:21.654Z</time></trkpt><trkpt lat="46.3918061" lon="13.0387097"><ele>303.0</ele><time>2026-04-22T10:42:22.654Z</time></trkpt><trkpt lat="46.3918997" lon="13.0385272"><ele>303.0</ele><time>2026-04-22T10:42:23.654Z</time></trkpt><trkpt lat="46.3919919" lon="13.0383308"><ele>303.0</ele><time>2026-04-22T10:42:24.654Z</time></trkpt><trkpt lat="46.3920942" lon="13.038142"><ele>303.0</ele><time>2026-04-22T10:42:25.654Z</time></trkpt><trkpt lat="46.3921925" lon="13.0379456"><ele>304.0</ele><time>2026-04-22T10:42:26.654Z</time></trkpt><trkpt lat="46.3922866" lon="13.0377492"><ele>305.0</ele><time>2026-04-22T10:42:27.654Z</time></trkpt><trkpt lat="46.3923829" lon="13.0375555"><ele>306.0</ele><time>2026-04-22T10:42:28.656Z</time></trkpt><trkpt lat="46.3924796" lon="13.0373641"><ele>306.0</ele><time>2026-04-22T10:42:29.654Z</time></trkpt><trkpt lat="46.3925758" lon="13.0371734"><ele>306.0</ele><time>2026-04-22T10:42:30.654Z</time></trkpt><trkpt lat="46.3926724" lon="13.0369836"><ele>306.0</ele><time>2026-04-22T10:42:31.654Z</time></trkpt><trkpt lat="46.3927687" lon="13.0367924"><ele>306.0</ele><time>2026-04-22T10:42:32.654Z</time></trkpt><trkpt lat="46.392859" lon="13.0366039"><ele>306.0</ele><time>2026-04-22T10:42:33.654Z</time></trkpt><trkpt lat="46.3929388" lon="13.0364058"><ele>306.0</ele><time>2026-04-22T10:42:34.654Z</time></trkpt><trkpt lat="46.3930121" lon="13.0361878"><ele>306.6666666666667</ele><time>2026-04-22T10:42:35.654Z</time></trkpt><trkpt lat="46.3930851" lon="13.0359495"><ele>307.33333333333337</ele><time>2026-04-22T10:42:36.654Z</time></trkpt><trkpt lat="46.393154" lon="13.0357243"><ele>308.0</ele><time>2026-04-22T10:42:37.654Z</time></trkpt><trkpt lat="46.393219" lon="13.0354981"><ele>308.0</ele><time>2026-04-22T10:42:38.654Z</time></trkpt><trkpt lat="46.3932821" lon="13.0352736"><ele>308.0</ele><time>2026-04-22T10:42:39.654Z</time></trkpt><trkpt lat="46.393346" lon="13.0350482"><ele>308.0</ele><time>2026-04-22T10:42:40.654Z</time></trkpt><trkpt lat="46.3934105" lon="13.0348229"><ele>307.6666666666667</ele><time>2026-04-22T10:42:41.654Z</time></trkpt><trkpt lat="46.3934741" lon="13.034597"><ele>307.3333333333333</ele><time>2026-04-22T10:42:42.654Z</time></trkpt><trkpt lat="46.3935402" lon="13.0343704"><ele>307.0</ele><time>2026-04-22T10:42:43.655Z</time></trkpt><trkpt lat="46.3936056" lon="13.0341423"><ele>306.3333333333333</ele><time>2026-04-22T10:42:44.655Z</time></trkpt><trkpt lat="46.3936679" lon="13.0339108"><ele>305.6666666666667</ele><time>2026-04-22T10:42:45.654Z</time></trkpt><trkpt lat="46.3937305" lon="13.0336842"><ele>305.0</ele><time>2026-04-22T10:42:46.655Z</time></trkpt><trkpt lat="46.3937945" lon="13.0334594"><ele>306.0</ele><time>2026-04-22T10:42:47.655Z</time></trkpt><trkpt lat="46.393856" lon="13.033235"><ele>307.0</ele><time>2026-04-22T10:42:48.654Z</time></trkpt><trkpt lat="46.3939193" lon="13.0330159"><ele>308.0</ele><time>2026-04-22T10:42:49.655Z</time></trkpt><trkpt lat="46.3939818" lon="13.0327974"><ele>308.0</ele><time>2026-04-22T10:42:50.654Z</time></trkpt><trkpt lat="46.3940455" lon="13.032583"><ele>308.0</ele><time>2026-04-22T10:42:51.655Z</time></trkpt><trkpt lat="46.3941061" lon="13.0323691"><ele>308.0</ele><time>2026-04-22T10:42:52.656Z</time></trkpt><trkpt lat="46.3941661" lon="13.0321547"><ele>307.0</ele><time>2026-04-22T10:42:53.654Z</time></trkpt><trkpt lat="46.3942328" lon="13.0319396"><ele>306.0</ele><time>2026-04-22T10:42:54.654Z</time></trkpt><trkpt lat="46.3943023" lon="13.0317169"><ele>305.0</ele><time>2026-04-22T10:42:55.654Z</time></trkpt><trkpt lat="46.3943674" lon="13.0314902"><ele>304.33333333333337</ele><time>2026-04-22T10:42:56.654Z</time></trkpt><trkpt lat="46.3944276" lon="13.0312563"><ele>303.6666666666667</ele><time>2026-04-22T10:42:57.654Z</time></trkpt><trkpt lat="46.3944876" lon="13.0310123"><ele>303.0</ele><time>2026-04-22T10:42:58.654Z</time></trkpt><trkpt lat="46.3945411" lon="13.0307806"><ele>302.6666666666667</ele><time>2026-04-22T10:42:59.654Z</time></trkpt><trkpt lat="46.3945945" lon="13.0305646"><ele>302.33333333333337</ele><time>2026-04-22T10:43:00.654Z</time></trkpt><trkpt lat="46.3946514" lon="13.0303572"><ele>302.0</ele><time>2026-04-22T10:43:01.654Z</time></trkpt><trkpt lat="46.3947226" lon="13.0301551"><ele>302.33333333333337</ele><time>2026-04-22T10:43:02.654Z</time></trkpt><trkpt lat="46.3947982" lon="13.0299496"><ele>302.6666666666667</ele><time>2026-04-22T10:43:03.654Z</time></trkpt><trkpt lat="46.3948837" lon="13.0297427"><ele>303.0</ele><time>2026-04-22T10:43:04.654Z</time></trkpt><trkpt lat="46.3949767" lon="13.0295492"><ele>303.0</ele><time>2026-04-22T10:43:05.655Z</time></trkpt><trkpt lat="46.3950762" lon="13.0293692"><ele>303.0</ele><time>2026-04-22T10:43:06.654Z</time></trkpt><trkpt lat="46.3951794" lon="13.0292035"><ele>303.0</ele><time>2026-04-22T10:43:07.654Z</time></trkpt><trkpt lat="46.3952952" lon="13.0290398"><ele>303.3333333333333</ele><time>2026-04-22T10:43:08.654Z</time></trkpt><trkpt lat="46.3954121" lon="13.0288833"><ele>303.66666666666663</ele><time>2026-04-22T10:43:09.654Z</time></trkpt><trkpt lat="46.3955203" lon="13.0287332"><ele>304.0</ele><time>2026-04-22T10:43:10.654Z</time></trkpt><trkpt lat="46.3956268" lon="13.0285829"><ele>304.0</ele><time>2026-04-22T10:43:11.656Z</time></trkpt><trkpt lat="46.3957332" lon="13.0284398"><ele>304.0</ele><time>2026-04-22T10:43:12.654Z</time></trkpt><trkpt lat="46.3958453" lon="13.0282961"><ele>304.0</ele><time>2026-04-22T10:43:13.654Z</time></trkpt><trkpt lat="46.3959618" lon="13.0281561"><ele>304.0</ele><time>2026-04-22T10:43:14.656Z</time></trkpt><trkpt lat="46.3960888" lon="13.0280158"><ele>304.0</ele><time>2026-04-22T10:43:15.656Z</time></trkpt><trkpt lat="46.3962202" lon="13.0278728"><ele>304.0</ele><time>2026-04-22T10:43:16.654Z</time></trkpt><trkpt lat="46.3963411" lon="13.0277431"><ele>304.0</ele><time>2026-04-22T10:43:17.654Z</time></trkpt><trkpt lat="46.3964566" lon="13.027621"><ele>304.0</ele><time>2026-04-22T10:43:18.654Z</time></trkpt><trkpt lat="46.3965647" lon="13.0275093"><ele>304.0</ele><time>2026-04-22T10:43:19.654Z</time></trkpt><trkpt lat="46.3966699" lon="13.0274052"><ele>304.0</ele><time>2026-04-22T10:43:20.654Z</time></trkpt><trkpt lat="46.3967781" lon="13.0273102"><ele>304.0</ele><time>2026-04-22T10:43:21.654Z</time></trkpt><trkpt lat="46.396885" lon="13.0272262"><ele>303.75</ele><time>2026-04-22T10:43:22.654Z</time></trkpt><trkpt lat="46.3969851" lon="13.0271467"><ele>303.5</ele><time>2026-04-22T10:43:23.654Z</time></trkpt><trkpt lat="46.3970925" lon="13.0270609"><ele>303.25</ele><time>2026-04-22T10:43:24.655Z</time></trkpt><trkpt lat="46.397202" lon="13.0269771"><ele>303.0</ele><time>2026-04-22T10:43:25.654Z</time></trkpt><trkpt lat="46.3973077" lon="13.0269019"><ele>303.8</ele><time>2026-04-22T10:43:26.654Z</time></trkpt><trkpt lat="46.3974085" lon="13.0268297"><ele>304.6</ele><time>2026-04-22T10:43:27.654Z</time></trkpt><trkpt lat="46.3975064" lon="13.0267616"><ele>305.4</ele><time>2026-04-22T10:43:28.656Z</time></trkpt><trkpt lat="46.3975973" lon="13.0267045"><ele>306.2</ele><time>2026-04-22T10:43:29.654Z</time></trkpt><trkpt lat="46.3976887" lon="13.0266471"><ele>307.0</ele><time>2026-04-22T10:43:30.654Z</time></trkpt><trkpt lat="46.3977744" lon="13.0266104"><ele>307.0</ele><time>2026-04-22T10:43:31.654Z</time></trkpt><trkpt lat="46.3978566" lon="13.026596"><ele>307.0</ele><time>2026-04-22T10:43:32.655Z</time></trkpt><trkpt lat="46.3979379" lon="13.0266134"><ele>307.0</ele><time>2026-04-22T10:43:33.654Z</time></trkpt><trkpt lat="46.3980179" lon="13.02663"><ele>307.0</ele><time>2026-04-22T10:43:34.654Z</time></trkpt><trkpt lat="46.3980962" lon="13.0266069"><ele>307.0</ele><time>2026-04-22T10:43:35.655Z</time></trkpt><trkpt lat="46.3981659" lon="13.0265544"><ele>307.0</ele><time>2026-04-22T10:43:36.656Z</time></trkpt><trkpt lat="46.3982243" lon="13.0264687"><ele>307.4</ele><time>2026-04-22T10:43:37.654Z</time></trkpt><trkpt lat="46.3982723" lon="13.0263586"><ele>307.79999999999995</ele><time>2026-04-22T10:43:38.654Z</time></trkpt><trkpt lat="46.3983282" lon="13.026228"><ele>308.2</ele><time>2026-04-22T10:43:39.654Z</time></trkpt><trkpt lat="46.3984018" lon="13.0261"><ele>308.59999999999997</ele><time>2026-04-22T10:43:40.654Z</time></trkpt><trkpt lat="46.3984901" lon="13.0259813"><ele>309.0</ele><time>2026-04-22T10:43:41.654Z</time></trkpt><trkpt lat="46.3985885" lon="13.0258616"><ele>309.0</ele><time>2026-04-22T10:43:42.655Z</time></trkpt><trkpt lat="46.3986887" lon="13.0257452"><ele>309.0</ele><time>2026-04-22T10:43:43.654Z</time></trkpt><trkpt lat="46.3987908" lon="13.0256271"><ele>309.0</ele><time>2026-04-22T10:43:44.654Z</time></trkpt><trkpt lat="46.3988953" lon="13.0255122"><ele>309.0</ele><time>2026-04-22T10:43:45.655Z</time></trkpt><trkpt lat="46.3990082" lon="13.0253828"><ele>309.0</ele><time>2026-04-22T10:43:46.654Z</time></trkpt><trkpt lat="46.3991096" lon="13.0252715"><ele>309.0</ele><time>2026-04-22T10:43:47.654Z</time></trkpt><trkpt lat="46.3992079" lon="13.0251641"><ele>309.0</ele><time>2026-04-22T10:43:48.654Z</time></trkpt><trkpt lat="46.3993016" lon="13.0250559"><ele>309.0</ele><time>2026-04-22T10:43:49.655Z</time></trkpt><trkpt lat="46.3993875" lon="13.0249504"><ele>309.0</ele><time>2026-04-22T10:43:50.655Z</time></trkpt><trkpt lat="46.3994713" lon="13.0248429"><ele>309.0</ele><time>2026-04-22T10:43:51.654Z</time></trkpt><trkpt lat="46.3995517" lon="13.0247315"><ele>309.0</ele><time>2026-04-22T10:43:52.654Z</time></trkpt><trkpt lat="46.399633" lon="13.0246166"><ele>309.0</ele><time>2026-04-22T10:43:53.654Z</time></trkpt><trkpt lat="46.399716" lon="13.0244995"><ele>309.0</ele><time>2026-04-22T10:43:54.654Z</time></trkpt><trkpt lat="46.3997976" lon="13.0243793"><ele>309.0</ele><time>2026-04-22T10:43:55.654Z</time></trkpt><trkpt lat="46.3998775" lon="13.0242547"><ele>309.0</ele><time>2026-04-22T10:43:56.655Z</time></trkpt><trkpt lat="46.3999573" lon="13.0241334"><ele>309.0</ele><time>2026-04-22T10:43:57.654Z</time></trkpt><trkpt lat="46.4000413" lon="13.0240136"><ele>309.5</ele><time>2026-04-22T10:43:58.654Z</time></trkpt><trkpt lat="46.4001237" lon="13.0238942"><ele>310.0</ele><time>2026-04-22T10:43:59.654Z</time></trkpt><trkpt lat="46.400207" lon="13.0237753"><ele>310.5</ele><time>2026-04-22T10:44:00.654Z</time></trkpt><trkpt lat="46.4002908" lon="13.0236581"><ele>311.0</ele><time>2026-04-22T10:44:01.655Z</time></trkpt><trkpt lat="46.4003774" lon="13.0235431"><ele>311.0</ele><time>2026-04-22T10:44:02.654Z</time></trkpt><trkpt lat="46.4004634" lon="13.0234298"><ele>311.0</ele><time>2026-04-22T10:44:03.655Z</time></trkpt><trkpt lat="46.4005541" lon="13.0233124"><ele>311.0</ele><time>2026-04-22T10:44:04.654Z</time></trkpt><trkpt lat="46.4006441" lon="13.0231882"><ele>311.0</ele><time>2026-04-22T10:44:05.655Z</time></trkpt><trkpt lat="46.4007371" lon="13.0230617"><ele>311.75</ele><time>2026-04-22T10:44:06.655Z</time></trkpt><trkpt lat="46.4008317" lon="13.0229357"><ele>312.5</ele><time>2026-04-22T10:44:07.654Z</time></trkpt><trkpt lat="46.4009333" lon="13.0228011"><ele>313.25</ele><time>2026-04-22T10:44:08.654Z</time></trkpt><trkpt lat="46.4010287" lon="13.0226728"><ele>314.0</ele><time>2026-04-22T10:44:09.654Z</time></trkpt><trkpt lat="46.4011204" lon="13.022552"><ele>314.0</ele><time>2026-04-22T10:44:10.654Z</time></trkpt><trkpt lat="46.4012083" lon="13.0224341"><ele>314.0</ele><time>2026-04-22T10:44:11.655Z</time></trkpt><trkpt lat="46.4012969" lon="13.0223172"><ele>314.0</ele><time>2026-04-22T10:44:12.655Z</time></trkpt><trkpt lat="46.4013854" lon="13.0222002"><ele>314.0</ele><time>2026-04-22T10:44:13.655Z</time></trkpt><trkpt lat="46.4014721" lon="13.0220826"><ele>314.25</ele><time>2026-04-22T10:44:14.654Z</time></trkpt><trkpt lat="46.4015569" lon="13.0219663"><ele>314.5</ele><time>2026-04-22T10:44:15.654Z</time></trkpt><trkpt lat="46.4016389" lon="13.0218576"><ele>314.75</ele><time>2026-04-22T10:44:16.654Z</time></trkpt><trkpt lat="46.4017221" lon="13.0217481"><ele>315.0</ele><time>2026-04-22T10:44:17.654Z</time></trkpt><trkpt lat="46.4018023" lon="13.02164"><ele>315.0</ele><time>2026-04-22T10:44:18.655Z</time></trkpt><trkpt lat="46.401878" lon="13.0215293"><ele>315.0</ele><time>2026-04-22T10:44:19.655Z</time></trkpt><trkpt lat="46.4019534" lon="13.021413"><ele>315.0</ele><time>2026-04-22T10:44:20.654Z</time></trkpt><trkpt lat="46.4020236" lon="13.0212927"><ele>315.0</ele><time>2026-04-22T10:44:21.654Z</time></trkpt><trkpt lat="46.4020935" lon="13.0211659"><ele>315.0</ele><time>2026-04-22T10:44:22.656Z</time></trkpt><trkpt lat="46.4021631" lon="13.0210281"><ele>315.5</ele><time>2026-04-22T10:44:23.654Z</time></trkpt><trkpt lat="46.4022399" lon="13.0208825"><ele>316.0</ele><time>2026-04-22T10:44:24.654Z</time></trkpt><trkpt lat="46.402306" lon="13.0207441"><ele>316.5</ele><time>2026-04-22T10:44:25.655Z</time></trkpt><trkpt lat="46.4023758" lon="13.020592"><ele>317.0</ele><time>2026-04-22T10:44:26.654Z</time></trkpt><trkpt lat="46.4024478" lon="13.0204447"><ele>317.0</ele><time>2026-04-22T10:44:27.654Z</time></trkpt><trkpt lat="46.4025312" lon="13.0202822"><ele>317.0</ele><time>2026-04-22T10:44:28.654Z</time></trkpt><trkpt lat="46.4026069" lon="13.0201291"><ele>317.0</ele><time>2026-04-22T10:44:29.654Z</time></trkpt><trkpt lat="46.4026798" lon="13.0199739"><ele>317.0</ele><time>2026-04-22T10:44:30.655Z</time></trkpt><trkpt lat="46.402748" lon="13.019826"><ele>317.25</ele><time>2026-04-22T10:44:31.655Z</time></trkpt><trkpt lat="46.4028195" lon="13.0196861"><ele>317.5</ele><time>2026-04-22T10:44:32.655Z</time></trkpt><trkpt lat="46.402889" lon="13.0195463"><ele>317.75</ele><time>2026-04-22T10:44:33.655Z</time></trkpt><trkpt lat="46.4029534" lon="13.0194189"><ele>318.0</ele><time>2026-04-22T10:44:34.654Z</time></trkpt><trkpt lat="46.403013" lon="13.0192977"><ele>318.2</ele><time>2026-04-22T10:44:35.654Z</time></trkpt><trkpt lat="46.4030758" lon="13.0191742"><ele>318.4</ele><time>2026-04-22T10:44:36.655Z</time></trkpt><trkpt lat="46.4031414" lon="13.0190593"><ele>318.59999999999997</ele><time>2026-04-22T10:44:37.654Z</time></trkpt><trkpt lat="46.4031959" lon="13.0189505"><ele>318.8</ele><time>2026-04-22T10:44:38.654Z</time></trkpt><trkpt lat="46.4032445" lon="13.0188448"><ele>319.0</ele><time>2026-04-22T10:44:39.654Z</time></trkpt><trkpt lat="46.4032875" lon="13.0187523"><ele>319.0</ele><time>2026-04-22T10:44:40.655Z</time></trkpt><trkpt lat="46.4033296" lon="13.0186652"><ele>319.0</ele><time>2026-04-22T10:44:41.654Z</time></trkpt><trkpt lat="46.4033653" lon="13.0185858"><ele>319.0</ele><time>2026-04-22T10:44:42.654Z</time></trkpt><trkpt lat="46.4034341" lon="13.0184435"><ele>319.0</ele><time>2026-04-22T10:44:44.654Z</time></trkpt><trkpt lat="46.4035036" lon="13.0183156"><ele>319.0</ele><time>2026-04-22T10:44:46.655Z</time></trkpt><trkpt lat="46.4035852" lon="13.0181897"><ele>319.0</ele><time>2026-04-22T10:44:48.654Z</time></trkpt><trkpt lat="46.403692" lon="13.0180627"><ele>319.0</ele><time>2026-04-22T10:44:50.656Z</time></trkpt><trkpt lat="46.4037625" lon="13.017966"><ele>319.0</ele><time>2026-04-22T10:44:51.654Z</time></trkpt><trkpt lat="46.4038296" lon="13.0178924"><ele>319.0</ele><time>2026-04-22T10:44:52.654Z</time></trkpt><trkpt lat="46.403899" lon="13.0178153"><ele>319.0</ele><time>2026-04-22T10:44:53.654Z</time></trkpt><trkpt lat="46.4039788" lon="13.0177392"><ele>319.5</ele><time>2026-04-22T10:44:54.654Z</time></trkpt><trkpt lat="46.4040573" lon="13.0176656"><ele>320.0</ele><time>2026-04-22T10:44:55.654Z</time></trkpt><trkpt lat="46.404135" lon="13.0175947"><ele>320.5</ele><time>2026-04-22T10:44:56.654Z</time></trkpt><trkpt lat="46.4042065" lon="13.0175208"><ele>321.0</ele><time>2026-04-22T10:44:57.654Z</time></trkpt><trkpt lat="46.4042791" lon="13.0174539"><ele>321.5</ele><time>2026-04-22T10:44:58.654Z</time></trkpt><trkpt lat="46.4043475" lon="13.0173816"><ele>322.0</ele><time>2026-04-22T10:44:59.655Z</time></trkpt><trkpt lat="46.4044152" lon="13.0173074"><ele>322.16666666666663</ele><time>2026-04-22T10:45:00.654Z</time></trkpt><trkpt lat="46.4044835" lon="13.0172401"><ele>322.3333333333333</ele><time>2026-04-22T10:45:01.655Z</time></trkpt><trkpt lat="46.4045464" lon="13.0171636"><ele>322.5</ele><time>2026-04-22T10:45:02.654Z</time></trkpt><trkpt lat="46.4046154" lon="13.0170899"><ele>322.6666666666667</ele><time>2026-04-22T10:45:03.655Z</time></trkpt><trkpt lat="46.4046829" lon="13.0170239"><ele>322.83333333333337</ele><time>2026-04-22T10:45:04.655Z</time></trkpt><trkpt lat="46.4047477" lon="13.0169612"><ele>323.0</ele><time>2026-04-22T10:45:05.654Z</time></trkpt><trkpt lat="46.4048074" lon="13.0169061"><ele>323.5</ele><time>2026-04-22T10:45:06.655Z</time></trkpt><trkpt lat="46.404866" lon="13.0168543"><ele>324.0</ele><time>2026-04-22T10:45:07.655Z</time></trkpt><trkpt lat="46.4049258" lon="13.0168028"><ele>324.5</ele><time>2026-04-22T10:45:08.655Z</time></trkpt><trkpt lat="46.4049944" lon="13.0167323"><ele>325.0</ele><time>2026-04-22T10:45:09.654Z</time></trkpt><trkpt lat="46.405071" lon="13.0166502"><ele>325.5</ele><time>2026-04-22T10:45:10.654Z</time></trkpt><trkpt lat="46.4051514" lon="13.0165731"><ele>326.0</ele><time>2026-04-22T10:45:11.655Z</time></trkpt><trkpt lat="46.4052232" lon="13.0165075"><ele>326.0</ele><time>2026-04-22T10:45:12.655Z</time></trkpt><trkpt lat="46.4053058" lon="13.016436"><ele>326.0</ele><time>2026-04-22T10:45:13.654Z</time></trkpt><trkpt lat="46.4053863" lon="13.0163438"><ele>326.0</ele><time>2026-04-22T10:45:14.656Z</time></trkpt><trkpt lat="46.405469" lon="13.0162569"><ele>326.0</ele><time>2026-04-22T10:45:15.654Z</time></trkpt><trkpt lat="46.4055492" lon="13.0161744"><ele>326.0</ele><time>2026-04-22T10:45:16.655Z</time></trkpt><trkpt lat="46.4056223" lon="13.0161023"><ele>326.0</ele><time>2026-04-22T10:45:17.654Z</time></trkpt><trkpt lat="46.4056918" lon="13.0160321"><ele>326.0</ele><time>2026-04-22T10:45:18.654Z</time></trkpt><trkpt lat="46.4057631" lon="13.0159731"><ele>326.0</ele><time>2026-04-22T10:45:19.654Z</time></trkpt><trkpt lat="46.405828" lon="13.0159159"><ele>326.0</ele><time>2026-04-22T10:45:20.654Z</time></trkpt><trkpt lat="46.4058921" lon="13.0158184"><ele>326.0</ele><time>2026-04-22T10:45:21.655Z</time></trkpt><trkpt lat="46.4059548" lon="13.0157218"><ele>326.0</ele><time>2026-04-22T10:45:22.654Z</time></trkpt><trkpt lat="46.4060094" lon="13.0156491"><ele>326.0</ele><time>2026-04-22T10:45:23.654Z</time></trkpt><trkpt lat="46.4060768" lon="13.015573"><ele>326.0</ele><time>2026-04-22T10:45:24.654Z</time></trkpt><trkpt lat="46.4061363" lon="13.015493"><ele>326.0</ele><time>2026-04-22T10:45:25.654Z</time></trkpt><trkpt lat="46.4061998" lon="13.0154271"><ele>326.0</ele><time>2026-04-22T10:45:26.655Z</time></trkpt><trkpt lat="46.4062625" lon="13.0153655"><ele>326.0</ele><time>2026-04-22T10:45:27.654Z</time></trkpt><trkpt lat="46.4063281" lon="13.0152986"><ele>326.0</ele><time>2026-04-22T10:45:28.654Z</time></trkpt><trkpt lat="46.4063976" lon="13.0152576"><ele>326.6666666666667</ele><time>2026-04-22T10:45:29.654Z</time></trkpt><trkpt lat="46.4064589" lon="13.0152044"><ele>327.33333333333337</ele><time>2026-04-22T10:45:30.654Z</time></trkpt><trkpt lat="46.4065203" lon="13.0151439"><ele>328.0</ele><time>2026-04-22T10:45:31.655Z</time></trkpt><trkpt lat="46.4065854" lon="13.015075"><ele>328.6666666666667</ele><time>2026-04-22T10:45:32.654Z</time></trkpt><trkpt lat="46.4066525" lon="13.0150119"><ele>329.3333333333333</ele><time>2026-04-22T10:45:33.655Z</time></trkpt><trkpt lat="46.4067179" lon="13.0149493"><ele>330.0</ele><time>2026-04-22T10:45:34.655Z</time></trkpt><trkpt lat="46.4067789" lon="13.0148813"><ele>330.0</ele><time>2026-04-22T10:45:35.654Z</time></trkpt><trkpt lat="46.4068175" lon="13.0148055"><ele>330.0</ele><time>2026-04-22T10:45:36.654Z</time></trkpt><trkpt lat="46.4068649" lon="13.0146569"><ele>330.0</ele><time>2026-04-22T10:45:38.654Z</time></trkpt><trkpt lat="46.4069267" lon="13.0145131"><ele>330.0</ele><time>2026-04-22T10:45:40.654Z</time></trkpt><trkpt lat="46.4070319" lon="13.0144397"><ele>330.0</ele><time>2026-04-22T10:45:42.653Z</time></trkpt><trkpt lat="46.4071707" lon="13.0144197"><ele>330.0</ele><time>2026-04-22T10:45:44.654Z</time></trkpt><trkpt lat="46.4072487" lon="13.0144253"><ele>330.0</ele><time>2026-04-22T10:45:45.653Z</time></trkpt><trkpt lat="46.4073222" lon="13.0144183"><ele>330.0</ele><time>2026-04-22T10:45:46.653Z</time></trkpt><trkpt lat="46.4073948" lon="13.0143877"><ele>330.0</ele><time>2026-04-22T10:45:47.653Z</time></trkpt><trkpt lat="46.4074732" lon="13.0143429"><ele>330.0</ele><time>2026-04-22T10:45:48.653Z</time></trkpt><trkpt lat="46.4075583" lon="13.0142893"><ele>330.0</ele><time>2026-04-22T10:45:49.655Z</time></trkpt><trkpt lat="46.4076569" lon="13.0142381"><ele>330.0</ele><time>2026-04-22T10:45:50.653Z</time></trkpt><trkpt lat="46.4077745" lon="13.0141766"><ele>330.0</ele><time>2026-04-22T10:45:51.653Z</time></trkpt><trkpt lat="46.407903" lon="13.0141148"><ele>330.0</ele><time>2026-04-22T10:45:52.653Z</time></trkpt><trkpt lat="46.4080133" lon="13.0140756"><ele>330.0</ele><time>2026-04-22T10:45:53.653Z</time></trkpt><trkpt lat="46.408138" lon="13.014017"><ele>329.75</ele><time>2026-04-22T10:45:54.655Z</time></trkpt><trkpt lat="46.4082568" lon="13.0139519"><ele>329.5</ele><time>2026-04-22T10:45:55.653Z</time></trkpt><trkpt lat="46.4083715" lon="13.0138952"><ele>329.25</ele><time>2026-04-22T10:45:56.653Z</time></trkpt><trkpt lat="46.4084914" lon="13.0138376"><ele>329.0</ele><time>2026-04-22T10:45:57.654Z</time></trkpt><trkpt lat="46.40861" lon="13.0137809"><ele>329.0</ele><time>2026-04-22T10:45:58.653Z</time></trkpt><trkpt lat="46.4087304" lon="13.0137284"><ele>329.0</ele><time>2026-04-22T10:45:59.654Z</time></trkpt><trkpt lat="46.4088447" lon="13.0136742"><ele>329.0</ele><time>2026-04-22T10:46:00.654Z</time></trkpt><trkpt lat="46.4089545" lon="13.0136198"><ele>329.0</ele><time>2026-04-22T10:46:01.654Z</time></trkpt><trkpt lat="46.4090618" lon="13.0135655"><ele>329.75</ele><time>2026-04-22T10:46:02.654Z</time></trkpt><trkpt lat="46.4091695" lon="13.0135158"><ele>330.5</ele><time>2026-04-22T10:46:03.653Z</time></trkpt><trkpt lat="46.4092783" lon="13.0134696"><ele>331.25</ele><time>2026-04-22T10:46:04.653Z</time></trkpt><trkpt lat="46.4093981" lon="13.0134155"><ele>332.0</ele><time>2026-04-22T10:46:05.653Z</time></trkpt><trkpt lat="46.4095168" lon="13.013362"><ele>331.75</ele><time>2026-04-22T10:46:06.653Z</time></trkpt><trkpt lat="46.409639" lon="13.0133056"><ele>331.5</ele><time>2026-04-22T10:46:07.653Z</time></trkpt><trkpt lat="46.4097597" lon="13.0132525"><ele>331.25</ele><time>2026-04-22T10:46:08.654Z</time></trkpt><trkpt lat="46.409879" lon="13.0132042"><ele>331.0</ele><time>2026-04-22T10:46:09.654Z</time></trkpt><trkpt lat="46.4099974" lon="13.0131615"><ele>331.0</ele><time>2026-04-22T10:46:10.655Z</time></trkpt><trkpt lat="46.4101164" lon="13.0131041"><ele>331.0</ele><time>2026-04-22T10:46:11.654Z</time></trkpt><trkpt lat="46.410241" lon="13.013042"><ele>331.0</ele><time>2026-04-22T10:46:12.653Z</time></trkpt><trkpt lat="46.4103723" lon="13.0129797"><ele>331.0</ele><time>2026-04-22T10:46:13.654Z</time></trkpt><trkpt lat="46.4104997" lon="13.0129216"><ele>331.75</ele><time>2026-04-22T10:46:14.653Z</time></trkpt><trkpt lat="46.410621" lon="13.0128612"><ele>332.5</ele><time>2026-04-22T10:46:15.653Z</time></trkpt><trkpt lat="46.4107441" lon="13.0128097"><ele>333.25</ele><time>2026-04-22T10:46:16.653Z</time></trkpt><trkpt lat="46.4108643" lon="13.0127506"><ele>334.0</ele><time>2026-04-22T10:46:17.654Z</time></trkpt><trkpt lat="46.4109831" lon="13.0126928"><ele>334.0</ele><time>2026-04-22T10:46:18.654Z</time></trkpt><trkpt lat="46.4111023" lon="13.0126368"><ele>334.0</ele><time>2026-04-22T10:46:19.654Z</time></trkpt><trkpt lat="46.4112184" lon="13.0125861"><ele>334.0</ele><time>2026-04-22T10:46:20.653Z</time></trkpt><trkpt lat="46.4113316" lon="13.012531"><ele>334.0</ele><time>2026-04-22T10:46:21.653Z</time></trkpt><trkpt lat="46.4114402" lon="13.0124853"><ele>333.4</ele><time>2026-04-22T10:46:22.654Z</time></trkpt><trkpt lat="46.4115467" lon="13.0124326"><ele>332.79999999999995</ele><time>2026-04-22T10:46:23.654Z</time></trkpt><trkpt lat="46.4116538" lon="13.0123817"><ele>332.20000000000005</ele><time>2026-04-22T10:46:24.653Z</time></trkpt><trkpt lat="46.4117617" lon="13.01233"><ele>331.6</ele><time>2026-04-22T10:46:25.653Z</time></trkpt><trkpt lat="46.4118645" lon="13.0122847"><ele>331.0</ele><time>2026-04-22T10:46:26.653Z</time></trkpt><trkpt lat="46.4119688" lon="13.0122526"><ele>331.0</ele><time>2026-04-22T10:46:27.653Z</time></trkpt><trkpt lat="46.4120741" lon="13.0122397"><ele>331.0</ele><time>2026-04-22T10:46:28.654Z</time></trkpt><trkpt lat="46.4121846" lon="13.0122415"><ele>331.0</ele><time>2026-04-22T10:46:29.653Z</time></trkpt><trkpt lat="46.4123094" lon="13.0122757"><ele>331.0</ele><time>2026-04-22T10:46:30.653Z</time></trkpt><trkpt lat="46.4124302" lon="13.0123482"><ele>331.0</ele><time>2026-04-22T10:46:31.653Z</time></trkpt><trkpt lat="46.412556" lon="13.0124586"><ele>331.0</ele><time>2026-04-22T10:46:32.654Z</time></trkpt><trkpt lat="46.4126698" lon="13.012578"><ele>331.0</ele><time>2026-04-22T10:46:33.653Z</time></trkpt><trkpt lat="46.4127781" lon="13.012695"><ele>331.0</ele><time>2026-04-22T10:46:34.653Z</time></trkpt><trkpt lat="46.4128839" lon="13.0128025"><ele>331.75</ele><time>2026-04-22T10:46:35.653Z</time></trkpt><trkpt lat="46.4129851" lon="13.0129115"><ele>332.5</ele><time>2026-04-22T10:46:36.653Z</time></trkpt><trkpt lat="46.4130836" lon="13.0130203"><ele>333.25</ele><time>2026-04-22T10:46:37.653Z</time></trkpt><trkpt lat="46.4131807" lon="13.0131251"><ele>334.0</ele><time>2026-04-22T10:46:38.653Z</time></trkpt><trkpt lat="46.4132763" lon="13.0132246"><ele>333.75</ele><time>2026-04-22T10:46:39.653Z</time></trkpt><trkpt lat="46.4133729" lon="13.0133255"><ele>333.5</ele><time>2026-04-22T10:46:40.653Z</time></trkpt><trkpt lat="46.4134696" lon="13.0134278"><ele>333.25</ele><time>2026-04-22T10:46:41.653Z</time></trkpt><trkpt lat="46.4135649" lon="13.0135347"><ele>333.0</ele><time>2026-04-22T10:46:42.654Z</time></trkpt><trkpt lat="46.4136606" lon="13.0136428"><ele>333.0</ele><time>2026-04-22T10:46:43.653Z</time></trkpt><trkpt lat="46.4137614" lon="13.0137457"><ele>333.0</ele><time>2026-04-22T10:46:44.653Z</time></trkpt><trkpt lat="46.41386" lon="13.0138564"><ele>333.0</ele><time>2026-04-22T10:46:45.653Z</time></trkpt><trkpt lat="46.4139544" lon="13.0139676"><ele>333.0</ele><time>2026-04-22T10:46:46.653Z</time></trkpt><trkpt lat="46.4140538" lon="13.0140648"><ele>333.0</ele><time>2026-04-22T10:46:47.653Z</time></trkpt><trkpt lat="46.4141485" lon="13.0141616"><ele>333.0</ele><time>2026-04-22T10:46:48.653Z</time></trkpt><trkpt lat="46.4142374" lon="13.014264"><ele>333.0</ele><time>2026-04-22T10:46:49.653Z</time></trkpt><trkpt lat="46.4143279" lon="13.0143669"><ele>333.0</ele><time>2026-04-22T10:46:50.654Z</time></trkpt><trkpt lat="46.4144292" lon="13.0144731"><ele>333.0</ele><time>2026-04-22T10:46:51.653Z</time></trkpt><trkpt lat="46.4145209" lon="13.0145677"><ele>333.0</ele><time>2026-04-22T10:46:52.653Z</time></trkpt><trkpt lat="46.4146057" lon="13.0146581"><ele>333.0</ele><time>2026-04-22T10:46:53.653Z</time></trkpt><trkpt lat="46.4146822" lon="13.0147389"><ele>333.0</ele><time>2026-04-22T10:46:54.653Z</time></trkpt><trkpt lat="46.4147483" lon="13.014808"><ele>333.0</ele><time>2026-04-22T10:46:55.653Z</time></trkpt><trkpt lat="46.4148307" lon="13.0148951"><ele>333.4</ele><time>2026-04-22T10:46:57.653Z</time></trkpt><trkpt lat="46.4149108" lon="13.0149682"><ele>333.79999999999995</ele><time>2026-04-22T10:46:59.653Z</time></trkpt><trkpt lat="46.4149742" lon="13.0150351"><ele>334.2</ele><time>2026-04-22T10:47:00.653Z</time></trkpt><trkpt lat="46.4150475" lon="13.0151239"><ele>334.6</ele><time>2026-04-22T10:47:01.654Z</time></trkpt><trkpt lat="46.4151688" lon="13.0152641"><ele>335.0</ele><time>2026-04-22T10:47:02.653Z</time></trkpt><trkpt lat="46.4152941" lon="13.0154018"><ele>335.33333333333337</ele><time>2026-04-22T10:47:03.653Z</time></trkpt><trkpt lat="46.4154234" lon="13.0155412"><ele>335.6666666666667</ele><time>2026-04-22T10:47:04.653Z</time></trkpt><trkpt lat="46.4155719" lon="13.0156974"><ele>336.0</ele><time>2026-04-22T10:47:05.653Z</time></trkpt><trkpt lat="46.4157174" lon="13.0158523"><ele>336.3333333333333</ele><time>2026-04-22T10:47:06.654Z</time></trkpt><trkpt lat="46.415862" lon="13.0160091"><ele>336.66666666666663</ele><time>2026-04-22T10:47:07.653Z</time></trkpt><trkpt lat="46.416005" lon="13.0161621"><ele>337.0</ele><time>2026-04-22T10:47:08.653Z</time></trkpt><trkpt lat="46.4161459" lon="13.0163113"><ele>337.0</ele><time>2026-04-22T10:47:09.653Z</time></trkpt><trkpt lat="46.4162864" lon="13.0164613"><ele>337.0</ele><time>2026-04-22T10:47:10.653Z</time></trkpt><trkpt lat="46.4164311" lon="13.0166173"><ele>337.0</ele><time>2026-04-22T10:47:11.653Z</time></trkpt><trkpt lat="46.416589" lon="13.0167871"><ele>338.0</ele><time>2026-04-22T10:47:12.653Z</time></trkpt><trkpt lat="46.4167394" lon="13.0169543"><ele>339.0</ele><time>2026-04-22T10:47:13.653Z</time></trkpt><trkpt lat="46.4168897" lon="13.0171193"><ele>340.0</ele><time>2026-04-22T10:47:14.654Z</time></trkpt><trkpt lat="46.4170391" lon="13.0172787"><ele>340.66666666666663</ele><time>2026-04-22T10:47:15.653Z</time></trkpt><trkpt lat="46.4171866" lon="13.01744"><ele>341.3333333333333</ele><time>2026-04-22T10:47:16.653Z</time></trkpt><trkpt lat="46.4173364" lon="13.0175974"><ele>342.0</ele><time>2026-04-22T10:47:17.653Z</time></trkpt><trkpt lat="46.4174858" lon="13.0177578"><ele>342.3333333333333</ele><time>2026-04-22T10:47:18.655Z</time></trkpt><trkpt lat="46.4176355" lon="13.0179204"><ele>342.66666666666663</ele><time>2026-04-22T10:47:19.654Z</time></trkpt><trkpt lat="46.417787" lon="13.0180853"><ele>343.0</ele><time>2026-04-22T10:47:20.653Z</time></trkpt><trkpt lat="46.4179492" lon="13.0182596"><ele>343.3333333333333</ele><time>2026-04-22T10:47:21.653Z</time></trkpt><trkpt lat="46.4181127" lon="13.0184305"><ele>343.6666666666667</ele><time>2026-04-22T10:47:22.654Z</time></trkpt><trkpt lat="46.4182654" lon="13.0185939"><ele>344.0</ele><time>2026-04-22T10:47:23.654Z</time></trkpt><trkpt lat="46.4184162" lon="13.0187553"><ele>344.0</ele><time>2026-04-22T10:47:24.653Z</time></trkpt><trkpt lat="46.4185614" lon="13.0189119"><ele>344.0</ele><time>2026-04-22T10:47:25.653Z</time></trkpt><trkpt lat="46.4187093" lon="13.0190796"><ele>344.0</ele><time>2026-04-22T10:47:26.653Z</time></trkpt><trkpt lat="46.4188626" lon="13.0192488"><ele>343.33333333333337</ele><time>2026-04-22T10:47:27.654Z</time></trkpt><trkpt lat="46.4190133" lon="13.0194089"><ele>342.6666666666667</ele><time>2026-04-22T10:47:28.654Z</time></trkpt><trkpt lat="46.4191593" lon="13.0195625"><ele>342.0</ele><time>2026-04-22T10:47:29.653Z</time></trkpt><trkpt lat="46.4192978" lon="13.0197171"><ele>342.0</ele><time>2026-04-22T10:47:30.654Z</time></trkpt><trkpt lat="46.419433" lon="13.0198641"><ele>342.0</ele><time>2026-04-22T10:47:31.653Z</time></trkpt><trkpt lat="46.4195664" lon="13.0200115"><ele>342.0</ele><time>2026-04-22T10:47:32.653Z</time></trkpt><trkpt lat="46.4196931" lon="13.0201497"><ele>342.6666666666667</ele><time>2026-04-22T10:47:33.654Z</time></trkpt><trkpt lat="46.4198158" lon="13.0202837"><ele>343.33333333333337</ele><time>2026-04-22T10:47:34.654Z</time></trkpt><trkpt lat="46.4199489" lon="13.0204275"><ele>344.0</ele><time>2026-04-22T10:47:35.654Z</time></trkpt><trkpt lat="46.4200876" lon="13.020579"><ele>344.0</ele><time>2026-04-22T10:47:36.653Z</time></trkpt><trkpt lat="46.420227" lon="13.0207296"><ele>344.0</ele><time>2026-04-22T10:47:37.654Z</time></trkpt><trkpt lat="46.420367" lon="13.0208846"><ele>344.0</ele><time>2026-04-22T10:47:38.653Z</time></trkpt><trkpt lat="46.4205116" lon="13.0210407"><ele>344.6666666666667</ele><time>2026-04-22T10:47:39.653Z</time></trkpt><trkpt lat="46.420666" lon="13.0212065"><ele>345.3333333333333</ele><time>2026-04-22T10:47:40.653Z</time></trkpt><trkpt lat="46.42083" lon="13.0213799"><ele>346.0</ele><time>2026-04-22T10:47:41.653Z</time></trkpt><trkpt lat="46.4209892" lon="13.0215493"><ele>346.3333333333333</ele><time>2026-04-22T10:47:42.653Z</time></trkpt><trkpt lat="46.4211446" lon="13.0217108"><ele>346.6666666666667</ele><time>2026-04-22T10:47:43.654Z</time></trkpt><trkpt lat="46.4212956" lon="13.0218705"><ele>347.0</ele><time>2026-04-22T10:47:44.654Z</time></trkpt><trkpt lat="46.421438" lon="13.0220252"><ele>347.0</ele><time>2026-04-22T10:47:45.654Z</time></trkpt><trkpt lat="46.4215728" lon="13.022175"><ele>347.0</ele><time>2026-04-22T10:47:46.653Z</time></trkpt><trkpt lat="46.421697" lon="13.0223238"><ele>347.0</ele><time>2026-04-22T10:47:47.653Z</time></trkpt><trkpt lat="46.4218064" lon="13.0224749"><ele>347.0</ele><time>2026-04-22T10:47:48.653Z</time></trkpt><trkpt lat="46.4219085" lon="13.0226247"><ele>347.0</ele><time>2026-04-22T10:47:49.654Z</time></trkpt><trkpt lat="46.4220018" lon="13.0227685"><ele>347.0</ele><time>2026-04-22T10:47:50.653Z</time></trkpt><trkpt lat="46.4220893" lon="13.0229048"><ele>347.0</ele><time>2026-04-22T10:47:51.653Z</time></trkpt><trkpt lat="46.4221706" lon="13.0230371"><ele>347.25</ele><time>2026-04-22T10:47:52.653Z</time></trkpt><trkpt lat="46.4222518" lon="13.0231667"><ele>347.5</ele><time>2026-04-22T10:47:53.653Z</time></trkpt><trkpt lat="46.4223328" lon="13.0232937"><ele>347.75</ele><time>2026-04-22T10:47:54.653Z</time></trkpt><trkpt lat="46.4224213" lon="13.0234189"><ele>348.0</ele><time>2026-04-22T10:47:55.654Z</time></trkpt><trkpt lat="46.4225273" lon="13.0235511"><ele>348.0</ele><time>2026-04-22T10:47:56.653Z</time></trkpt><trkpt lat="46.4226366" lon="13.0237081"><ele>348.0</ele><time>2026-04-22T10:47:57.653Z</time></trkpt><trkpt lat="46.422749" lon="13.0239007"><ele>348.0</ele><time>2026-04-22T10:47:58.653Z</time></trkpt><trkpt lat="46.4228731" lon="13.0241049"><ele>349.3333333333333</ele><time>2026-04-22T10:47:59.654Z</time></trkpt><trkpt lat="46.4230058" lon="13.0243013"><ele>350.66666666666663</ele><time>2026-04-22T10:48:00.653Z</time></trkpt><trkpt lat="46.4231619" lon="13.0245255"><ele>352.0</ele><time>2026-04-22T10:48:01.653Z</time></trkpt><trkpt lat="46.4233197" lon="13.0247567"><ele>352.0</ele><time>2026-04-22T10:48:02.653Z</time></trkpt><trkpt lat="46.4234703" lon="13.0249732"><ele>352.0</ele><time>2026-04-22T10:48:03.653Z</time></trkpt><trkpt lat="46.4236221" lon="13.0251865"><ele>352.0</ele><time>2026-04-22T10:48:04.655Z</time></trkpt><trkpt lat="46.4237699" lon="13.0253982"><ele>353.66666666666663</ele><time>2026-04-22T10:48:05.654Z</time></trkpt><trkpt lat="46.4239119" lon="13.0256106"><ele>355.3333333333333</ele><time>2026-04-22T10:48:06.653Z</time></trkpt><trkpt lat="46.4240512" lon="13.0258212"><ele>357.0</ele><time>2026-04-22T10:48:07.654Z</time></trkpt><trkpt lat="46.4241863" lon="13.0260308"><ele>358.0</ele><time>2026-04-22T10:48:08.655Z</time></trkpt><trkpt lat="46.4243184" lon="13.0262367"><ele>359.0</ele><time>2026-04-22T10:48:09.653Z</time></trkpt><trkpt lat="46.4244497" lon="13.026439"><ele>360.0</ele><time>2026-04-22T10:48:10.654Z</time></trkpt><trkpt lat="46.4245817" lon="13.0266403"><ele>361.0</ele><time>2026-04-22T10:48:11.654Z</time></trkpt><trkpt lat="46.4247129" lon="13.0268397"><ele>362.0</ele><time>2026-04-22T10:48:12.653Z</time></trkpt><trkpt lat="46.424844" lon="13.0270343"><ele>363.0</ele><time>2026-04-22T10:48:13.653Z</time></trkpt><trkpt lat="46.4249837" lon="13.0272151"><ele>363.0</ele><time>2026-04-22T10:48:14.654Z</time></trkpt><trkpt lat="46.4251347" lon="13.0273797"><ele>363.0</ele><time>2026-04-22T10:48:15.653Z</time></trkpt><trkpt lat="46.4252947" lon="13.0275364"><ele>363.0</ele><time>2026-04-22T10:48:16.654Z</time></trkpt><trkpt lat="46.4254619" lon="13.0276874"><ele>360.6666666666667</ele><time>2026-04-22T10:48:17.654Z</time></trkpt><trkpt lat="46.4256335" lon="13.027837"><ele>358.33333333333337</ele><time>2026-04-22T10:48:18.653Z</time></trkpt><trkpt lat="46.4258049" lon="13.0279839"><ele>356.0</ele><time>2026-04-22T10:48:19.653Z</time></trkpt><trkpt lat="46.4259763" lon="13.0281352"><ele>356.0</ele><time>2026-04-22T10:48:20.653Z</time></trkpt><trkpt lat="46.4261486" lon="13.0282893"><ele>356.0</ele><time>2026-04-22T10:48:21.654Z</time></trkpt><trkpt lat="46.4263214" lon="13.0284366"><ele>356.0</ele><time>2026-04-22T10:48:22.653Z</time></trkpt><trkpt lat="46.426492" lon="13.0285854"><ele>356.33333333333337</ele><time>2026-04-22T10:48:23.653Z</time></trkpt><trkpt lat="46.4266618" lon="13.028729"><ele>356.6666666666667</ele><time>2026-04-22T10:48:24.653Z</time></trkpt><trkpt lat="46.4268273" lon="13.0288732"><ele>357.0</ele><time>2026-04-22T10:48:25.653Z</time></trkpt><trkpt lat="46.4269908" lon="13.0290159"><ele>357.0</ele><time>2026-04-22T10:48:26.653Z</time></trkpt><trkpt lat="46.4271533" lon="13.0291596"><ele>357.0</ele><time>2026-04-22T10:48:27.654Z</time></trkpt><trkpt lat="46.4273136" lon="13.0292999"><ele>357.0</ele><time>2026-04-22T10:48:28.653Z</time></trkpt><trkpt lat="46.427474" lon="13.0294392"><ele>357.0</ele><time>2026-04-22T10:48:29.653Z</time></trkpt><trkpt lat="46.4276343" lon="13.0295753"><ele>357.0</ele><time>2026-04-22T10:48:30.653Z</time></trkpt><trkpt lat="46.4277963" lon="13.0297144"><ele>357.0</ele><time>2026-04-22T10:48:31.654Z</time></trkpt><trkpt lat="46.427961" lon="13.029854"><ele>357.3333333333333</ele><time>2026-04-22T10:48:32.653Z</time></trkpt><trkpt lat="46.428124" lon="13.0299977"><ele>357.66666666666663</ele><time>2026-04-22T10:48:33.654Z</time></trkpt><trkpt lat="46.4282894" lon="13.0301408"><ele>358.0</ele><time>2026-04-22T10:48:34.654Z</time></trkpt><trkpt lat="46.4284562" lon="13.030287"><ele>358.0</ele><time>2026-04-22T10:48:35.653Z</time></trkpt><trkpt lat="46.4286219" lon="13.0304336"><ele>358.0</ele><time>2026-04-22T10:48:36.653Z</time></trkpt><trkpt lat="46.4287867" lon="13.0305838"><ele>358.0</ele><time>2026-04-22T10:48:37.653Z</time></trkpt><trkpt lat="46.4289491" lon="13.0307301"><ele>358.66666666666663</ele><time>2026-04-22T10:48:38.653Z</time></trkpt><trkpt lat="46.4291127" lon="13.0308717"><ele>359.3333333333333</ele><time>2026-04-22T10:48:39.654Z</time></trkpt><trkpt lat="46.4292755" lon="13.0310095"><ele>360.0</ele><time>2026-04-22T10:48:40.653Z</time></trkpt><trkpt lat="46.4294371" lon="13.0311497"><ele>360.0</ele><time>2026-04-22T10:48:41.654Z</time></trkpt><trkpt lat="46.4295993" lon="13.031288"><ele>360.0</ele><time>2026-04-22T10:48:42.654Z</time></trkpt><trkpt lat="46.4297592" lon="13.0314267"><ele>360.0</ele><time>2026-04-22T10:48:43.653Z</time></trkpt><trkpt lat="46.4299186" lon="13.0315644"><ele>364.6666666666667</ele><time>2026-04-22T10:48:44.653Z</time></trkpt><trkpt lat="46.430077" lon="13.0317025"><ele>369.33333333333337</ele><time>2026-04-22T10:48:45.654Z</time></trkpt><trkpt lat="46.4302359" lon="13.0318394"><ele>374.0</ele><time>2026-04-22T10:48:46.653Z</time></trkpt><trkpt lat="46.4303946" lon="13.0319779"><ele>369.33333333333337</ele><time>2026-04-22T10:48:47.654Z</time></trkpt><trkpt lat="46.4305539" lon="13.0321175"><ele>364.6666666666667</ele><time>2026-04-22T10:48:48.653Z</time></trkpt><trkpt lat="46.4307149" lon="13.0322507"><ele>360.0</ele><time>2026-04-22T10:48:49.653Z</time></trkpt><trkpt lat="46.4308688" lon="13.0323771"><ele>366.3333333333333</ele><time>2026-04-22T10:48:50.654Z</time></trkpt><trkpt lat="46.4310175" lon="13.0325182"><ele>372.66666666666663</ele><time>2026-04-22T10:48:51.654Z</time></trkpt><trkpt lat="46.4311522" lon="13.0326879"><ele>379.0</ele><time>2026-04-22T10:48:52.653Z</time></trkpt><trkpt lat="46.4312766" lon="13.0329126"><ele>374.0</ele><time>2026-04-22T10:48:53.654Z</time></trkpt><trkpt lat="46.4313918" lon="13.033168"><ele>369.0</ele><time>2026-04-22T10:48:54.653Z</time></trkpt><trkpt lat="46.4314927" lon="13.033429"><ele>364.0</ele><time>2026-04-22T10:48:55.653Z</time></trkpt><trkpt lat="46.4315878" lon="13.0336831"><ele>364.0</ele><time>2026-04-22T10:48:56.653Z</time></trkpt><trkpt lat="46.4316786" lon="13.0339385"><ele>364.0</ele><time>2026-04-22T10:48:57.653Z</time></trkpt><trkpt lat="46.4317683" lon="13.0341895"><ele>364.0</ele><time>2026-04-22T10:48:58.653Z</time></trkpt><trkpt lat="46.4318595" lon="13.0344478"><ele>364.3333333333333</ele><time>2026-04-22T10:48:59.654Z</time></trkpt><trkpt lat="46.4319506" lon="13.0346959"><ele>364.6666666666667</ele><time>2026-04-22T10:49:00.653Z</time></trkpt><trkpt lat="46.4320359" lon="13.0349392"><ele>365.0</ele><time>2026-04-22T10:49:01.653Z</time></trkpt><trkpt lat="46.4321164" lon="13.0351727"><ele>365.6666666666667</ele><time>2026-04-22T10:49:02.653Z</time></trkpt><trkpt lat="46.4321965" lon="13.0353926"><ele>366.3333333333333</ele><time>2026-04-22T10:49:03.653Z</time></trkpt><trkpt lat="46.4322732" lon="13.0356072"><ele>367.0</ele><time>2026-04-22T10:49:04.654Z</time></trkpt><trkpt lat="46.4323447" lon="13.0358115"><ele>367.25</ele><time>2026-04-22T10:49:05.653Z</time></trkpt><trkpt lat="46.4324139" lon="13.0360124"><ele>367.5</ele><time>2026-04-22T10:49:06.653Z</time></trkpt><trkpt lat="46.432478" lon="13.0362001"><ele>367.75</ele><time>2026-04-22T10:49:07.653Z</time></trkpt><trkpt lat="46.4325388" lon="13.0363823"><ele>368.0</ele><time>2026-04-22T10:49:08.653Z</time></trkpt><trkpt lat="46.4326018" lon="13.036558"><ele>368.0</ele><time>2026-04-22T10:49:09.653Z</time></trkpt><trkpt lat="46.4326675" lon="13.0367345"><ele>368.0</ele><time>2026-04-22T10:49:10.654Z</time></trkpt><trkpt lat="46.4327507" lon="13.0368988"><ele>368.0</ele><time>2026-04-22T10:49:11.654Z</time></trkpt><trkpt lat="46.4328588" lon="13.037037"><ele>368.0</ele><time>2026-04-22T10:49:12.653Z</time></trkpt><trkpt lat="46.4330029" lon="13.0371522"><ele>368.0</ele><time>2026-04-22T10:49:13.653Z</time></trkpt><trkpt lat="46.4331846" lon="13.0372573"><ele>368.0</ele><time>2026-04-22T10:49:14.653Z</time></trkpt><trkpt lat="46.4333871" lon="13.0373848"><ele>368.0</ele><time>2026-04-22T10:49:15.654Z</time></trkpt><trkpt lat="46.4335826" lon="13.0375312"><ele>368.6666666666667</ele><time>2026-04-22T10:49:16.654Z</time></trkpt><trkpt lat="46.4337633" lon="13.0376571"><ele>369.3333333333333</ele><time>2026-04-22T10:49:17.653Z</time></trkpt><trkpt lat="46.433938" lon="13.0377716"><ele>370.0</ele><time>2026-04-22T10:49:18.654Z</time></trkpt><trkpt lat="46.4341023" lon="13.0378781"><ele>370.0</ele><time>2026-04-22T10:49:19.653Z</time></trkpt><trkpt lat="46.4342559" lon="13.03798"><ele>370.0</ele><time>2026-04-22T10:49:20.653Z</time></trkpt><trkpt lat="46.4344077" lon="13.0380731"><ele>370.0</ele><time>2026-04-22T10:49:21.654Z</time></trkpt><trkpt lat="46.4345569" lon="13.0381684"><ele>370.0</ele><time>2026-04-22T10:49:22.653Z</time></trkpt><trkpt lat="46.4347095" lon="13.0382703"><ele>370.0</ele><time>2026-04-22T10:49:23.653Z</time></trkpt><trkpt lat="46.4348642" lon="13.0383655"><ele>370.0</ele><time>2026-04-22T10:49:24.653Z</time></trkpt><trkpt lat="46.4350111" lon="13.0384671"><ele>370.0</ele><time>2026-04-22T10:49:25.653Z</time></trkpt><trkpt lat="46.4351553" lon="13.0385653"><ele>370.0</ele><time>2026-04-22T10:49:26.653Z</time></trkpt><trkpt lat="46.4353021" lon="13.0386565"><ele>370.0</ele><time>2026-04-22T10:49:27.655Z</time></trkpt><trkpt lat="46.4354466" lon="13.0387511"><ele>370.66666666666663</ele><time>2026-04-22T10:49:28.653Z</time></trkpt><trkpt lat="46.4355885" lon="13.0388485"><ele>371.3333333333333</ele><time>2026-04-22T10:49:29.653Z</time></trkpt><trkpt lat="46.4357321" lon="13.0389375"><ele>372.0</ele><time>2026-04-22T10:49:30.653Z</time></trkpt><trkpt lat="46.4358742" lon="13.0390292"><ele>372.0</ele><time>2026-04-22T10:49:31.653Z</time></trkpt><trkpt lat="46.4360134" lon="13.0391221"><ele>372.0</ele><time>2026-04-22T10:49:32.653Z</time></trkpt><trkpt lat="46.4361546" lon="13.0392102"><ele>372.0</ele><time>2026-04-22T10:49:33.653Z</time></trkpt><trkpt lat="46.4363001" lon="13.0392942"><ele>373.3333333333333</ele><time>2026-04-22T10:49:34.653Z</time></trkpt><trkpt lat="46.4364553" lon="13.0393622"><ele>374.66666666666663</ele><time>2026-04-22T10:49:35.653Z</time></trkpt><trkpt lat="46.4366147" lon="13.0394093"><ele>376.0</ele><time>2026-04-22T10:49:36.653Z</time></trkpt><trkpt lat="46.4367748" lon="13.039441"><ele>376.0</ele><time>2026-04-22T10:49:37.653Z</time></trkpt><trkpt lat="46.4369361" lon="13.0394654"><ele>376.0</ele><time>2026-04-22T10:49:38.654Z</time></trkpt><trkpt lat="46.437097" lon="13.0394901"><ele>376.0</ele><time>2026-04-22T10:49:39.654Z</time></trkpt><trkpt lat="46.4372592" lon="13.0395144"><ele>375.0</ele><time>2026-04-22T10:49:40.654Z</time></trkpt><trkpt lat="46.4374327" lon="13.0395291"><ele>374.0</ele><time>2026-04-22T10:49:41.653Z</time></trkpt><trkpt lat="46.4376331" lon="13.0395186"><ele>373.0</ele><time>2026-04-22T10:49:42.653Z</time></trkpt><trkpt lat="46.4378487" lon="13.0395007"><ele>374.0</ele><time>2026-04-22T10:49:43.655Z</time></trkpt><trkpt lat="46.4381303" lon="13.039434"><ele>375.0</ele><time>2026-04-22T10:49:44.653Z</time></trkpt><trkpt lat="46.4384171" lon="13.0393761"><ele>375.0</ele><time>2026-04-22T10:49:45.653Z</time></trkpt><trkpt lat="46.4387363" lon="13.0393159"><ele>375.0</ele><time>2026-04-22T10:49:46.653Z</time></trkpt><trkpt lat="46.4390609" lon="13.0392547"><ele>375.0</ele><time>2026-04-22T10:49:47.653Z</time></trkpt><trkpt lat="46.439381" lon="13.0391995"><ele>375.0</ele><time>2026-04-22T10:49:48.653Z</time></trkpt><trkpt lat="46.4396821" lon="13.0391491"><ele>375.5</ele><time>2026-04-22T10:49:49.653Z</time></trkpt><trkpt lat="46.4399672" lon="13.0391092"><ele>376.0</ele><time>2026-04-22T10:49:50.653Z</time></trkpt><trkpt lat="46.4402394" lon="13.0390656"><ele>376.0</ele><time>2026-04-22T10:49:51.653Z</time></trkpt><trkpt lat="46.4405032" lon="13.0390141"><ele>376.0</ele><time>2026-04-22T10:49:52.654Z</time></trkpt><trkpt lat="46.4407579" lon="13.0389649"><ele>376.0</ele><time>2026-04-22T10:49:53.653Z</time></trkpt><trkpt lat="46.4410041" lon="13.0389126"><ele>376.0</ele><time>2026-04-22T10:49:54.653Z</time></trkpt><trkpt lat="46.4412432" lon="13.0388591"><ele>376.0</ele><time>2026-04-22T10:49:55.654Z</time></trkpt><trkpt lat="46.4414783" lon="13.0388182"><ele>376.0</ele><time>2026-04-22T10:49:56.653Z</time></trkpt><trkpt lat="46.441711" lon="13.0387692"><ele>376.0</ele><time>2026-04-22T10:49:57.654Z</time></trkpt><trkpt lat="46.4419471" lon="13.0387202"><ele>376.0</ele><time>2026-04-22T10:49:58.653Z</time></trkpt><trkpt lat="46.4421851" lon="13.0386737"><ele>376.5</ele><time>2026-04-22T10:49:59.654Z</time></trkpt><trkpt lat="46.4424178" lon="13.0386212"><ele>377.0</ele><time>2026-04-22T10:50:00.654Z</time></trkpt><trkpt lat="46.442642" lon="13.0385763"><ele>377.0</ele><time>2026-04-22T10:50:01.654Z</time></trkpt><trkpt lat="46.4428621" lon="13.0385297"><ele>377.0</ele><time>2026-04-22T10:50:02.654Z</time></trkpt><trkpt lat="46.4430767" lon="13.0384871"><ele>377.0</ele><time>2026-04-22T10:50:03.653Z</time></trkpt><trkpt lat="46.4432878" lon="13.0384434"><ele>376.6666666666667</ele><time>2026-04-22T10:50:04.653Z</time></trkpt><trkpt lat="46.4434912" lon="13.0384043"><ele>376.3333333333333</ele><time>2026-04-22T10:50:05.654Z</time></trkpt><trkpt lat="46.4436873" lon="13.0383645"><ele>376.0</ele><time>2026-04-22T10:50:06.654Z</time></trkpt><trkpt lat="46.4438804" lon="13.0383297"><ele>377.3333333333333</ele><time>2026-04-22T10:50:07.654Z</time></trkpt><trkpt lat="46.4440672" lon="13.0382946"><ele>378.6666666666667</ele><time>2026-04-22T10:50:08.653Z</time></trkpt><trkpt lat="46.4442537" lon="13.0382592"><ele>380.0</ele><time>2026-04-22T10:50:09.653Z</time></trkpt><trkpt lat="46.4444364" lon="13.0382234"><ele>380.0</ele><time>2026-04-22T10:50:10.653Z</time></trkpt><trkpt lat="46.4446173" lon="13.0381883"><ele>380.0</ele><time>2026-04-22T10:50:11.653Z</time></trkpt><trkpt lat="46.4447921" lon="13.038148"><ele>380.0</ele><time>2026-04-22T10:50:12.654Z</time></trkpt><trkpt lat="46.4449579" lon="13.0381144"><ele>380.5</ele><time>2026-04-22T10:50:13.654Z</time></trkpt><trkpt lat="46.445112" lon="13.0380818"><ele>381.0</ele><time>2026-04-22T10:50:14.653Z</time></trkpt><trkpt lat="46.4452591" lon="13.0380517"><ele>381.5</ele><time>2026-04-22T10:50:15.654Z</time></trkpt><trkpt lat="46.4453973" lon="13.0380216"><ele>382.0</ele><time>2026-04-22T10:50:16.654Z</time></trkpt><trkpt lat="46.44554" lon="13.037994"><ele>383.0</ele><time>2026-04-22T10:50:17.653Z</time></trkpt><trkpt lat="46.4456845" lon="13.0379654"><ele>384.0</ele><time>2026-04-22T10:50:18.653Z</time></trkpt><trkpt lat="46.4458281" lon="13.0379353"><ele>385.0</ele><time>2026-04-22T10:50:19.653Z</time></trkpt><trkpt lat="46.4459796" lon="13.0379065"><ele>386.0</ele><time>2026-04-22T10:50:20.653Z</time></trkpt><trkpt lat="46.4461284" lon="13.0378777"><ele>386.0</ele><time>2026-04-22T10:50:21.654Z</time></trkpt><trkpt lat="46.4462671" lon="13.0378483"><ele>386.0</ele><time>2026-04-22T10:50:22.653Z</time></trkpt><trkpt lat="46.4463916" lon="13.0378191"><ele>386.0</ele><time>2026-04-22T10:50:23.653Z</time></trkpt><trkpt lat="46.4465178" lon="13.0377915"><ele>386.0</ele><time>2026-04-22T10:50:24.654Z</time></trkpt><trkpt lat="46.446649" lon="13.037771"><ele>386.75</ele><time>2026-04-22T10:50:25.653Z</time></trkpt><trkpt lat="46.4467775" lon="13.0377557"><ele>387.5</ele><time>2026-04-22T10:50:26.653Z</time></trkpt><trkpt lat="46.4469093" lon="13.0377446"><ele>388.25</ele><time>2026-04-22T10:50:27.653Z</time></trkpt><trkpt lat="46.447046" lon="13.0377406"><ele>389.0</ele><time>2026-04-22T10:50:28.653Z</time></trkpt><trkpt lat="46.4471925" lon="13.0377343"><ele>389.25</ele><time>2026-04-22T10:50:29.654Z</time></trkpt><trkpt lat="46.4473388" lon="13.0377364"><ele>389.5</ele><time>2026-04-22T10:50:30.653Z</time></trkpt><trkpt lat="46.4474884" lon="13.0377385"><ele>389.75</ele><time>2026-04-22T10:50:31.653Z</time></trkpt><trkpt lat="46.4476403" lon="13.0377353"><ele>390.0</ele><time>2026-04-22T10:50:32.653Z</time></trkpt><trkpt lat="46.4477928" lon="13.0377302"><ele>390.0</ele><time>2026-04-22T10:50:33.654Z</time></trkpt><trkpt lat="46.4479444" lon="13.037731"><ele>390.0</ele><time>2026-04-22T10:50:34.654Z</time></trkpt><trkpt lat="46.4480941" lon="13.0377337"><ele>390.0</ele><time>2026-04-22T10:50:35.654Z</time></trkpt><trkpt lat="46.448242" lon="13.0377358"><ele>390.0</ele><time>2026-04-22T10:50:36.653Z</time></trkpt><trkpt lat="46.4483914" lon="13.0377347"><ele>390.25</ele><time>2026-04-22T10:50:37.653Z</time></trkpt><trkpt lat="46.44854" lon="13.0377253"><ele>390.5</ele><time>2026-04-22T10:50:38.653Z</time></trkpt><trkpt lat="46.4486869" lon="13.0377018"><ele>390.75</ele><time>2026-04-22T10:50:39.653Z</time></trkpt><trkpt lat="46.4488327" lon="13.0376623"><ele>391.0</ele><time>2026-04-22T10:50:40.653Z</time></trkpt><trkpt lat="46.4489797" lon="13.0376024"><ele>391.0</ele><time>2026-04-22T10:50:41.653Z</time></trkpt><trkpt lat="46.4491239" lon="13.0375298"><ele>391.0</ele><time>2026-04-22T10:50:42.653Z</time></trkpt><trkpt lat="46.4492622" lon="13.0374479"><ele>391.0</ele><time>2026-04-22T10:50:43.653Z</time></trkpt><trkpt lat="46.4493988" lon="13.0373681"><ele>391.0</ele><time>2026-04-22T10:50:44.653Z</time></trkpt><trkpt lat="46.4495332" lon="13.0372909"><ele>390.75</ele><time>2026-04-22T10:50:45.654Z</time></trkpt><trkpt lat="46.4496664" lon="13.0372219"><ele>390.5</ele><time>2026-04-22T10:50:46.654Z</time></trkpt><trkpt lat="46.4497996" lon="13.0371665"><ele>390.25</ele><time>2026-04-22T10:50:47.654Z</time></trkpt><trkpt lat="46.449933" lon="13.0371209"><ele>390.0</ele><time>2026-04-22T10:50:48.655Z</time></trkpt><trkpt lat="46.450066" lon="13.0370843"><ele>390.0</ele><time>2026-04-22T10:50:49.653Z</time></trkpt><trkpt lat="46.4501977" lon="13.0370525"><ele>390.0</ele><time>2026-04-22T10:50:50.654Z</time></trkpt><trkpt lat="46.4503364" lon="13.0370239"><ele>390.0</ele><time>2026-04-22T10:50:51.653Z</time></trkpt><trkpt lat="46.4504708" lon="13.036992"><ele>390.0</ele><time>2026-04-22T10:50:52.653Z</time></trkpt><trkpt lat="46.4506051" lon="13.0369587"><ele>389.75</ele><time>2026-04-22T10:50:53.654Z</time></trkpt><trkpt lat="46.4507379" lon="13.0369206"><ele>389.5</ele><time>2026-04-22T10:50:54.653Z</time></trkpt><trkpt lat="46.4508716" lon="13.0368868"><ele>389.25</ele><time>2026-04-22T10:50:55.654Z</time></trkpt><trkpt lat="46.451006" lon="13.0368519"><ele>389.0</ele><time>2026-04-22T10:50:56.654Z</time></trkpt><trkpt lat="46.4511376" lon="13.0368179"><ele>389.0</ele><time>2026-04-22T10:50:57.653Z</time></trkpt><trkpt lat="46.4512691" lon="13.0367806"><ele>389.0</ele><time>2026-04-22T10:50:58.654Z</time></trkpt><trkpt lat="46.4513985" lon="13.0367446"><ele>389.0</ele><time>2026-04-22T10:50:59.653Z</time></trkpt><trkpt lat="46.4515296" lon="13.0367103"><ele>389.0</ele><time>2026-04-22T10:51:00.654Z</time></trkpt><trkpt lat="46.451664" lon="13.0366727"><ele>389.5</ele><time>2026-04-22T10:51:01.654Z</time></trkpt><trkpt lat="46.4518103" lon="13.036628"><ele>390.0</ele><time>2026-04-22T10:51:02.653Z</time></trkpt><trkpt lat="46.4519487" lon="13.0365893"><ele>390.5</ele><time>2026-04-22T10:51:03.654Z</time></trkpt><trkpt lat="46.452086" lon="13.0365518"><ele>391.0</ele><time>2026-04-22T10:51:04.653Z</time></trkpt><trkpt lat="46.4522206" lon="13.0365145"><ele>391.25</ele><time>2026-04-22T10:51:05.653Z</time></trkpt><trkpt lat="46.4523509" lon="13.0364771"><ele>391.5</ele><time>2026-04-22T10:51:06.654Z</time></trkpt><trkpt lat="46.4524779" lon="13.0364414"><ele>391.75</ele><time>2026-04-22T10:51:07.653Z</time></trkpt><trkpt lat="46.4526033" lon="13.0364088"><ele>392.0</ele><time>2026-04-22T10:51:08.653Z</time></trkpt><trkpt lat="46.4527307" lon="13.0363791"><ele>392.0</ele><time>2026-04-22T10:51:09.653Z</time></trkpt><trkpt lat="46.4528674" lon="13.03636"><ele>392.0</ele><time>2026-04-22T10:51:10.653Z</time></trkpt><trkpt lat="46.4530106" lon="13.0363511"><ele>392.0</ele><time>2026-04-22T10:51:11.653Z</time></trkpt><trkpt lat="46.4531552" lon="13.0363449"><ele>392.0</ele><time>2026-04-22T10:51:12.653Z</time></trkpt><trkpt lat="46.4533008" lon="13.0363401"><ele>392.0</ele><time>2026-04-22T10:51:13.653Z</time></trkpt><trkpt lat="46.4534463" lon="13.0363348"><ele>392.0</ele><time>2026-04-22T10:51:14.652Z</time></trkpt><trkpt lat="46.4535907" lon="13.0363279"><ele>392.0</ele><time>2026-04-22T10:51:15.652Z</time></trkpt><trkpt lat="46.4537328" lon="13.0363226"><ele>392.0</ele><time>2026-04-22T10:51:16.652Z</time></trkpt><trkpt lat="46.4538741" lon="13.0363128"><ele>392.5</ele><time>2026-04-22T10:51:17.652Z</time></trkpt><trkpt lat="46.4540162" lon="13.0363044"><ele>393.0</ele><time>2026-04-22T10:51:18.652Z</time></trkpt><trkpt lat="46.4541574" lon="13.0362984"><ele>393.5</ele><time>2026-04-22T10:51:19.652Z</time></trkpt><trkpt lat="46.4543003" lon="13.0362924"><ele>394.0</ele><time>2026-04-22T10:51:20.653Z</time></trkpt><trkpt lat="46.4544433" lon="13.0362839"><ele>394.0</ele><time>2026-04-22T10:51:21.653Z</time></trkpt><trkpt lat="46.4545849" lon="13.0362745"><ele>394.0</ele><time>2026-04-22T10:51:22.652Z</time></trkpt><trkpt lat="46.4547258" lon="13.0362673"><ele>394.0</ele><time>2026-04-22T10:51:23.653Z</time></trkpt><trkpt lat="46.4548661" lon="13.0362576"><ele>394.0</ele><time>2026-04-22T10:51:24.652Z</time></trkpt><trkpt lat="46.4550053" lon="13.0362507"><ele>393.75</ele><time>2026-04-22T10:51:25.652Z</time></trkpt><trkpt lat="46.4551424" lon="13.0362443"><ele>393.5</ele><time>2026-04-22T10:51:26.652Z</time></trkpt><trkpt lat="46.4552782" lon="13.0362344"><ele>393.25</ele><time>2026-04-22T10:51:27.652Z</time></trkpt><trkpt lat="46.4554113" lon="13.0362272"><ele>393.0</ele><time>2026-04-22T10:51:28.652Z</time></trkpt><trkpt lat="46.4555413" lon="13.0362217"><ele>394.0</ele><time>2026-04-22T10:51:29.652Z</time></trkpt><trkpt lat="46.4556732" lon="13.0362187"><ele>395.0</ele><time>2026-04-22T10:51:30.653Z</time></trkpt><trkpt lat="46.455824" lon="13.0362099"><ele>396.0</ele><time>2026-04-22T10:51:31.653Z</time></trkpt><trkpt lat="46.455986" lon="13.0361815"><ele>397.0</ele><time>2026-04-22T10:51:32.652Z</time></trkpt><trkpt lat="46.4561364" lon="13.0361221"><ele>397.0</ele><time>2026-04-22T10:51:33.652Z</time></trkpt><trkpt lat="46.4562809" lon="13.0360424"><ele>397.0</ele><time>2026-04-22T10:51:34.652Z</time></trkpt><trkpt lat="46.4564251" lon="13.0359582"><ele>397.0</ele><time>2026-04-22T10:51:35.653Z</time></trkpt><trkpt lat="46.4565607" lon="13.0358687"><ele>397.0</ele><time>2026-04-22T10:51:36.653Z</time></trkpt><trkpt lat="46.4566897" lon="13.0357863"><ele>397.0</ele><time>2026-04-22T10:51:37.652Z</time></trkpt><trkpt lat="46.4568119" lon="13.035709"><ele>397.0</ele><time>2026-04-22T10:51:38.653Z</time></trkpt><trkpt lat="46.4569328" lon="13.0356267"><ele>397.0</ele><time>2026-04-22T10:51:39.652Z</time></trkpt><trkpt lat="46.4570454" lon="13.035536"><ele>397.75</ele><time>2026-04-22T10:51:40.653Z</time></trkpt><trkpt lat="46.4571364" lon="13.0353998"><ele>398.5</ele><time>2026-04-22T10:51:41.653Z</time></trkpt><trkpt lat="46.4572097" lon="13.0352162"><ele>399.25</ele><time>2026-04-22T10:51:42.652Z</time></trkpt><trkpt lat="46.4572592" lon="13.0349936"><ele>400.0</ele><time>2026-04-22T10:51:43.652Z</time></trkpt><trkpt lat="46.4572981" lon="13.0347672"><ele>400.0</ele><time>2026-04-22T10:51:44.652Z</time></trkpt><trkpt lat="46.4573509" lon="13.0345455"><ele>400.0</ele><time>2026-04-22T10:51:45.652Z</time></trkpt><trkpt lat="46.4574269" lon="13.0343354"><ele>400.0</ele><time>2026-04-22T10:51:46.653Z</time></trkpt><trkpt lat="46.4575222" lon="13.0341227"><ele>400.6666666666667</ele><time>2026-04-22T10:51:47.652Z</time></trkpt><trkpt lat="46.4576201" lon="13.0339113"><ele>401.33333333333337</ele><time>2026-04-22T10:51:48.652Z</time></trkpt><trkpt lat="46.4577195" lon="13.0337026"><ele>402.0</ele><time>2026-04-22T10:51:49.652Z</time></trkpt><trkpt lat="46.4578153" lon="13.0335057"><ele>402.0</ele><time>2026-04-22T10:51:50.652Z</time></trkpt><trkpt lat="46.4579067" lon="13.0333142"><ele>402.0</ele><time>2026-04-22T10:51:51.652Z</time></trkpt><trkpt lat="46.4579944" lon="13.0331256"><ele>402.0</ele><time>2026-04-22T10:51:52.652Z</time></trkpt><trkpt lat="46.4580879" lon="13.0329376"><ele>401.66666666666663</ele><time>2026-04-22T10:51:53.652Z</time></trkpt><trkpt lat="46.4581864" lon="13.0327468"><ele>401.3333333333333</ele><time>2026-04-22T10:51:54.653Z</time></trkpt><trkpt lat="46.4582814" lon="13.032562"><ele>401.0</ele><time>2026-04-22T10:51:55.652Z</time></trkpt><trkpt lat="46.4583796" lon="13.0323883"><ele>401.0</ele><time>2026-04-22T10:51:56.652Z</time></trkpt><trkpt lat="46.4584744" lon="13.0322169"><ele>401.0</ele><time>2026-04-22T10:51:57.652Z</time></trkpt><trkpt lat="46.4585668" lon="13.0320456"><ele>401.0</ele><time>2026-04-22T10:51:58.653Z</time></trkpt><trkpt lat="46.4586623" lon="13.0318848"><ele>401.0</ele><time>2026-04-22T10:51:59.652Z</time></trkpt><trkpt lat="46.4587585" lon="13.0317454"><ele>401.0</ele><time>2026-04-22T10:52:00.652Z</time></trkpt><trkpt lat="46.458874" lon="13.03164"><ele>401.0</ele><time>2026-04-22T10:52:01.652Z</time></trkpt><trkpt lat="46.4590162" lon="13.0315692"><ele>401.0</ele><time>2026-04-22T10:52:02.653Z</time></trkpt><trkpt lat="46.4591658" lon="13.0315492"><ele>401.0</ele><time>2026-04-22T10:52:03.653Z</time></trkpt><trkpt lat="46.4593204" lon="13.0315668"><ele>401.0</ele><time>2026-04-22T10:52:04.652Z</time></trkpt><trkpt lat="46.4594905" lon="13.0315905"><ele>401.0</ele><time>2026-04-22T10:52:05.652Z</time></trkpt><trkpt lat="46.4596435" lon="13.0316108"><ele>401.0</ele><time>2026-04-22T10:52:06.653Z</time></trkpt><trkpt lat="46.4598011" lon="13.0316032"><ele>402.66666666666663</ele><time>2026-04-22T10:52:07.653Z</time></trkpt><trkpt lat="46.4599547" lon="13.0315294"><ele>404.33333333333337</ele><time>2026-04-22T10:52:08.652Z</time></trkpt><trkpt lat="46.4601054" lon="13.0314563"><ele>406.0</ele><time>2026-04-22T10:52:09.652Z</time></trkpt><trkpt lat="46.4602499" lon="13.0314349"><ele>406.0</ele><time>2026-04-22T10:52:10.653Z</time></trkpt><trkpt lat="46.460386" lon="13.031437"><ele>406.0</ele><time>2026-04-22T10:52:11.652Z</time></trkpt><trkpt lat="46.4605109" lon="13.031414"><ele>406.0</ele><time>2026-04-22T10:52:12.653Z</time></trkpt><trkpt lat="46.4606365" lon="13.0313434"><ele>406.0</ele><time>2026-04-22T10:52:13.653Z</time></trkpt><trkpt lat="46.4607493" lon="13.031212"><ele>406.6666666666667</ele><time>2026-04-22T10:52:14.652Z</time></trkpt><trkpt lat="46.4608447" lon="13.0310267"><ele>407.33333333333337</ele><time>2026-04-22T10:52:15.653Z</time></trkpt><trkpt lat="46.4609353" lon="13.0308325"><ele>408.0</ele><time>2026-04-22T10:52:16.652Z</time></trkpt><trkpt lat="46.461037" lon="13.0306419"><ele>408.0</ele><time>2026-04-22T10:52:17.652Z</time></trkpt><trkpt lat="46.4611763" lon="13.0304777"><ele>408.0</ele><time>2026-04-22T10:52:18.653Z</time></trkpt><trkpt lat="46.4613251" lon="13.030391"><ele>408.0</ele><time>2026-04-22T10:52:19.652Z</time></trkpt><trkpt lat="46.4614812" lon="13.0303429"><ele>409.33333333333337</ele><time>2026-04-22T10:52:20.652Z</time></trkpt><trkpt lat="46.4616484" lon="13.0303405"><ele>410.6666666666667</ele><time>2026-04-22T10:52:21.652Z</time></trkpt><trkpt lat="46.4618176" lon="13.0303548"><ele>412.0</ele><time>2026-04-22T10:52:22.652Z</time></trkpt><trkpt lat="46.4619816" lon="13.0303591"><ele>418.0</ele><time>2026-04-22T10:52:23.653Z</time></trkpt><trkpt lat="46.462145" lon="13.0303212"><ele>424.0</ele><time>2026-04-22T10:52:24.654Z</time></trkpt><trkpt lat="46.4623097" lon="13.0302152"><ele>430.0</ele><time>2026-04-22T10:52:25.653Z</time></trkpt><trkpt lat="46.4624763" lon="13.0300668"><ele>427.0</ele><time>2026-04-22T10:52:26.652Z</time></trkpt><trkpt lat="46.4626358" lon="13.0299183"><ele>424.0</ele><time>2026-04-22T10:52:27.652Z</time></trkpt><trkpt lat="46.4627981" lon="13.0297804"><ele>421.0</ele><time>2026-04-22T10:52:28.653Z</time></trkpt><trkpt lat="46.4629551" lon="13.0296556"><ele>421.0</ele><time>2026-04-22T10:52:29.652Z</time></trkpt><trkpt lat="46.4631181" lon="13.0295336"><ele>421.0</ele><time>2026-04-22T10:52:30.652Z</time></trkpt><trkpt lat="46.4632817" lon="13.0294128"><ele>421.0</ele><time>2026-04-22T10:52:31.653Z</time></trkpt><trkpt lat="46.4634395" lon="13.0292976"><ele>421.0</ele><time>2026-04-22T10:52:32.652Z</time></trkpt><trkpt lat="46.463593" lon="13.0291768"><ele>421.0</ele><time>2026-04-22T10:52:33.653Z</time></trkpt><trkpt lat="46.4637395" lon="13.0290457"><ele>421.0</ele><time>2026-04-22T10:52:34.653Z</time></trkpt><trkpt lat="46.4638786" lon="13.0289049"><ele>421.0</ele><time>2026-04-22T10:52:35.653Z</time></trkpt><trkpt lat="46.4640132" lon="13.0287603"><ele>421.0</ele><time>2026-04-22T10:52:36.653Z</time></trkpt><trkpt lat="46.4641407" lon="13.0286182"><ele>421.0</ele><time>2026-04-22T10:52:37.653Z</time></trkpt><trkpt lat="46.4642635" lon="13.0284815"><ele>421.0</ele><time>2026-04-22T10:52:38.653Z</time></trkpt><trkpt lat="46.4643819" lon="13.0283474"><ele>421.0</ele><time>2026-04-22T10:52:39.653Z</time></trkpt><trkpt lat="46.4644981" lon="13.0282112"><ele>421.0</ele><time>2026-04-22T10:52:40.652Z</time></trkpt><trkpt lat="46.4646188" lon="13.028083"><ele>421.0</ele><time>2026-04-22T10:52:41.653Z</time></trkpt><trkpt lat="46.4647453" lon="13.0279615"><ele>420.0</ele><time>2026-04-22T10:52:42.652Z</time></trkpt><trkpt lat="46.4648769" lon="13.0278496"><ele>419.0</ele><time>2026-04-22T10:52:43.652Z</time></trkpt><trkpt lat="46.4650102" lon="13.0277388"><ele>418.0</ele><time>2026-04-22T10:52:44.653Z</time></trkpt><trkpt lat="46.4651469" lon="13.0276432"><ele>418.0</ele><time>2026-04-22T10:52:45.652Z</time></trkpt><trkpt lat="46.4652925" lon="13.0275724"><ele>418.0</ele><time>2026-04-22T10:52:46.653Z</time></trkpt><trkpt lat="46.4654436" lon="13.0275119"><ele>418.0</ele><time>2026-04-22T10:52:47.653Z</time></trkpt><trkpt lat="46.4656006" lon="13.0274587"><ele>416.0</ele><time>2026-04-22T10:52:48.652Z</time></trkpt><trkpt lat="46.4657583" lon="13.0274016"><ele>414.0</ele><time>2026-04-22T10:52:49.652Z</time></trkpt><trkpt lat="46.4659185" lon="13.0273481"><ele>412.0</ele><time>2026-04-22T10:52:50.653Z</time></trkpt><trkpt lat="46.4660793" lon="13.0272956"><ele>412.0</ele><time>2026-04-22T10:52:51.652Z</time></trkpt><trkpt lat="46.4662384" lon="13.027243"><ele>412.0</ele><time>2026-04-22T10:52:52.652Z</time></trkpt><trkpt lat="46.4663966" lon="13.0271912"><ele>412.0</ele><time>2026-04-22T10:52:53.653Z</time></trkpt><trkpt lat="46.4665547" lon="13.027146"><ele>413.33333333333337</ele><time>2026-04-22T10:52:54.652Z</time></trkpt><trkpt lat="46.4667135" lon="13.0270942"><ele>414.66666666666663</ele><time>2026-04-22T10:52:55.653Z</time></trkpt><trkpt lat="46.466875" lon="13.0270432"><ele>416.0</ele><time>2026-04-22T10:52:56.652Z</time></trkpt><trkpt lat="46.4670371" lon="13.0269951"><ele>418.0</ele><time>2026-04-22T10:52:57.653Z</time></trkpt><trkpt lat="46.4671993" lon="13.0269523"><ele>420.0</ele><time>2026-04-22T10:52:58.652Z</time></trkpt><trkpt lat="46.4673602" lon="13.0269067"><ele>422.0</ele><time>2026-04-22T10:52:59.652Z</time></trkpt><trkpt lat="46.4675212" lon="13.0268609"><ele>422.0</ele><time>2026-04-22T10:53:00.652Z</time></trkpt><trkpt lat="46.4676837" lon="13.0268141"><ele>422.0</ele><time>2026-04-22T10:53:01.653Z</time></trkpt><trkpt lat="46.467845" lon="13.0267661"><ele>422.0</ele><time>2026-04-22T10:53:02.652Z</time></trkpt><trkpt lat="46.4680055" lon="13.0267119"><ele>423.0</ele><time>2026-04-22T10:53:03.653Z</time></trkpt><trkpt lat="46.4681659" lon="13.0266544"><ele>424.0</ele><time>2026-04-22T10:53:04.652Z</time></trkpt><trkpt lat="46.4683245" lon="13.0265977"><ele>425.0</ele><time>2026-04-22T10:53:05.653Z</time></trkpt><trkpt lat="46.4684795" lon="13.0265355"><ele>425.0</ele><time>2026-04-22T10:53:06.652Z</time></trkpt><trkpt lat="46.4686308" lon="13.0264629"><ele>425.0</ele><time>2026-04-22T10:53:07.652Z</time></trkpt><trkpt lat="46.468778" lon="13.0263865"><ele>425.0</ele><time>2026-04-22T10:53:08.653Z</time></trkpt><trkpt lat="46.4689246" lon="13.0263047"><ele>426.3333333333333</ele><time>2026-04-22T10:53:09.653Z</time></trkpt><trkpt lat="46.4690688" lon="13.0262205"><ele>427.66666666666663</ele><time>2026-04-22T10:53:10.652Z</time></trkpt><trkpt lat="46.4692121" lon="13.0261324"><ele>429.0</ele><time>2026-04-22T10:53:11.652Z</time></trkpt><trkpt lat="46.4693536" lon="13.0260392"><ele>429.0</ele><time>2026-04-22T10:53:12.652Z</time></trkpt><trkpt lat="46.4694929" lon="13.0259409"><ele>429.0</ele><time>2026-04-22T10:53:13.652Z</time></trkpt><trkpt lat="46.4696288" lon="13.0258393"><ele>429.0</ele><time>2026-04-22T10:53:14.652Z</time></trkpt><trkpt lat="46.4697615" lon="13.025731"><ele>429.66666666666663</ele><time>2026-04-22T10:53:15.654Z</time></trkpt><trkpt lat="46.4698923" lon="13.0256185"><ele>430.3333333333333</ele><time>2026-04-22T10:53:16.652Z</time></trkpt><trkpt lat="46.4700221" lon="13.0255026"><ele>431.0</ele><time>2026-04-22T10:53:17.652Z</time></trkpt><trkpt lat="46.4701495" lon="13.0253848"><ele>431.0</ele><time>2026-04-22T10:53:18.653Z</time></trkpt><trkpt lat="46.4702774" lon="13.0252649"><ele>431.0</ele><time>2026-04-22T10:53:19.652Z</time></trkpt><trkpt lat="46.470404" lon="13.025144"><ele>431.0</ele><time>2026-04-22T10:53:20.652Z</time></trkpt><trkpt lat="46.4705265" lon="13.0250248"><ele>431.75</ele><time>2026-04-22T10:53:21.653Z</time></trkpt><trkpt lat="46.4706457" lon="13.0249106"><ele>432.5</ele><time>2026-04-22T10:53:22.652Z</time></trkpt><trkpt lat="46.4707652" lon="13.0247989"><ele>433.25</ele><time>2026-04-22T10:53:23.652Z</time></trkpt><trkpt lat="46.4708805" lon="13.0246875"><ele>434.0</ele><time>2026-04-22T10:53:24.653Z</time></trkpt><trkpt lat="46.4709934" lon="13.0245815"><ele>434.0</ele><time>2026-04-22T10:53:25.652Z</time></trkpt><trkpt lat="46.4711056" lon="13.0244813"><ele>434.0</ele><time>2026-04-22T10:53:26.652Z</time></trkpt><trkpt lat="46.4712107" lon="13.0243794"><ele>434.0</ele><time>2026-04-22T10:53:27.652Z</time></trkpt><trkpt lat="46.4713111" lon="13.0242817"><ele>434.0</ele><time>2026-04-22T10:53:28.652Z</time></trkpt><trkpt lat="46.4714222" lon="13.0241762"><ele>434.5</ele><time>2026-04-22T10:53:29.652Z</time></trkpt><trkpt lat="46.4715459" lon="13.0240548"><ele>435.0</ele><time>2026-04-22T10:53:30.652Z</time></trkpt><trkpt lat="46.4716548" lon="13.0239509"><ele>435.5</ele><time>2026-04-22T10:53:31.652Z</time></trkpt><trkpt lat="46.4717555" lon="13.0238548"><ele>436.0</ele><time>2026-04-22T10:53:32.652Z</time></trkpt><trkpt lat="46.4718504" lon="13.0237613"><ele>436.0</ele><time>2026-04-22T10:53:33.653Z</time></trkpt><trkpt lat="46.4719404" lon="13.0236712"><ele>436.0</ele><time>2026-04-22T10:53:34.652Z</time></trkpt><trkpt lat="46.4720235" lon="13.0235909"><ele>436.0</ele><time>2026-04-22T10:53:35.652Z</time></trkpt><trkpt lat="46.4721076" lon="13.0235232"><ele>436.0</ele><time>2026-04-22T10:53:36.652Z</time></trkpt><trkpt lat="46.472196" lon="13.0234766"><ele>436.0</ele><time>2026-04-22T10:53:37.653Z</time></trkpt><trkpt lat="46.4722889" lon="13.0234259"><ele>435.75</ele><time>2026-04-22T10:53:38.652Z</time></trkpt><trkpt lat="46.4723845" lon="13.0233361"><ele>435.5</ele><time>2026-04-22T10:53:39.653Z</time></trkpt><trkpt lat="46.4724665" lon="13.0232354"><ele>435.25</ele><time>2026-04-22T10:53:40.652Z</time></trkpt><trkpt lat="46.4725641" lon="13.0231463"><ele>435.0</ele><time>2026-04-22T10:53:41.652Z</time></trkpt><trkpt lat="46.4726898" lon="13.023074"><ele>435.0</ele><time>2026-04-22T10:53:42.652Z</time></trkpt><trkpt lat="46.4728267" lon="13.0230051"><ele>435.0</ele><time>2026-04-22T10:53:43.652Z</time></trkpt><trkpt lat="46.4729578" lon="13.0229414"><ele>435.0</ele><time>2026-04-22T10:53:44.652Z</time></trkpt><trkpt lat="46.473078" lon="13.0228797"><ele>435.0</ele><time>2026-04-22T10:53:45.653Z</time></trkpt><trkpt lat="46.4731925" lon="13.0228211"><ele>435.25</ele><time>2026-04-22T10:53:46.652Z</time></trkpt><trkpt lat="46.4733053" lon="13.0227611"><ele>435.5</ele><time>2026-04-22T10:53:47.652Z</time></trkpt><trkpt lat="46.4734232" lon="13.0226986"><ele>435.75</ele><time>2026-04-22T10:53:48.652Z</time></trkpt><trkpt lat="46.4735369" lon="13.0226387"><ele>436.0</ele><time>2026-04-22T10:53:49.652Z</time></trkpt><trkpt lat="46.4736478" lon="13.0225839"><ele>436.0</ele><time>2026-04-22T10:53:50.652Z</time></trkpt><trkpt lat="46.4737513" lon="13.0225349"><ele>436.0</ele><time>2026-04-22T10:53:51.653Z</time></trkpt><trkpt lat="46.4738431" lon="13.0224934"><ele>436.0</ele><time>2026-04-22T10:53:52.653Z</time></trkpt><trkpt lat="46.4739318" lon="13.0224507"><ele>436.0</ele><time>2026-04-22T10:53:53.652Z</time></trkpt><trkpt lat="46.4740294" lon="13.0224047"><ele>436.0</ele><time>2026-04-22T10:53:54.652Z</time></trkpt><trkpt lat="46.4741346" lon="13.0223744"><ele>436.0</ele><time>2026-04-22T10:53:55.652Z</time></trkpt><trkpt lat="46.4742549" lon="13.0223589"><ele>436.0</ele><time>2026-04-22T10:53:56.653Z</time></trkpt><trkpt lat="46.4743945" lon="13.0223441"><ele>436.0</ele><time>2026-04-22T10:53:57.653Z</time></trkpt><trkpt lat="46.4745182" lon="13.0223309"><ele>436.0</ele><time>2026-04-22T10:53:58.653Z</time></trkpt><trkpt lat="46.4746419" lon="13.0223186"><ele>436.75</ele><time>2026-04-22T10:53:59.652Z</time></trkpt><trkpt lat="46.4747627" lon="13.0223077"><ele>437.5</ele><time>2026-04-22T10:54:00.653Z</time></trkpt><trkpt lat="46.4748822" lon="13.0222957"><ele>438.25</ele><time>2026-04-22T10:54:01.652Z</time></trkpt><trkpt lat="46.4749974" lon="13.0222824"><ele>439.0</ele><time>2026-04-22T10:54:02.652Z</time></trkpt><trkpt lat="46.4751056" lon="13.0222713"><ele>439.0</ele><time>2026-04-22T10:54:03.652Z</time></trkpt><trkpt lat="46.4752042" lon="13.0222628"><ele>439.0</ele><time>2026-04-22T10:54:04.652Z</time></trkpt><trkpt lat="46.4752964" lon="13.0222572"><ele>439.0</ele><time>2026-04-22T10:54:05.652Z</time></trkpt><trkpt lat="46.4753842" lon="13.0222491"><ele>439.0</ele><time>2026-04-22T10:54:06.653Z</time></trkpt><trkpt lat="46.4754726" lon="13.022242"><ele>439.0</ele><time>2026-04-22T10:54:07.652Z</time></trkpt><trkpt lat="46.4755659" lon="13.0222348"><ele>441.4</ele><time>2026-04-22T10:54:08.652Z</time></trkpt><trkpt lat="46.4756677" lon="13.0222265"><ele>443.79999999999995</ele><time>2026-04-22T10:54:09.652Z</time></trkpt><trkpt lat="46.4757773" lon="13.0222151"><ele>446.20000000000005</ele><time>2026-04-22T10:54:10.652Z</time></trkpt><trkpt lat="46.4758877" lon="13.0222039"><ele>448.6</ele><time>2026-04-22T10:54:11.653Z</time></trkpt><trkpt lat="46.4759961" lon="13.0221918"><ele>451.0</ele><time>2026-04-22T10:54:12.653Z</time></trkpt><trkpt lat="46.4761068" lon="13.0221826"><ele>451.0</ele><time>2026-04-22T10:54:13.652Z</time></trkpt><trkpt lat="46.4762122" lon="13.0221757"><ele>451.0</ele><time>2026-04-22T10:54:14.653Z</time></trkpt><trkpt lat="46.4763173" lon="13.02217"><ele>451.0</ele><time>2026-04-22T10:54:15.653Z</time></trkpt><trkpt lat="46.476421" lon="13.0221605"><ele>451.0</ele><time>2026-04-22T10:54:16.653Z</time></trkpt><trkpt lat="46.4765258" lon="13.0221502"><ele>451.0</ele><time>2026-04-22T10:54:17.652Z</time></trkpt><trkpt lat="46.4766292" lon="13.0221433"><ele>452.4</ele><time>2026-04-22T10:54:18.652Z</time></trkpt><trkpt lat="46.4767337" lon="13.0221336"><ele>453.8</ele><time>2026-04-22T10:54:19.653Z</time></trkpt><trkpt lat="46.4768384" lon="13.0221172"><ele>455.19999999999993</ele><time>2026-04-22T10:54:20.653Z</time></trkpt><trkpt lat="46.4769591" lon="13.0220894"><ele>456.59999999999997</ele><time>2026-04-22T10:54:21.653Z</time></trkpt><trkpt lat="46.4770736" lon="13.0220587"><ele>458.0</ele><time>2026-04-22T10:54:22.652Z</time></trkpt><trkpt lat="46.4771824" lon="13.022028"><ele>459.4</ele><time>2026-04-22T10:54:23.652Z</time></trkpt><trkpt lat="46.4772908" lon="13.0219927"><ele>460.79999999999995</ele><time>2026-04-22T10:54:24.652Z</time></trkpt><trkpt lat="46.4774001" lon="13.0219546"><ele>462.2</ele><time>2026-04-22T10:54:25.652Z</time></trkpt><trkpt lat="46.4775088" lon="13.0219147"><ele>463.6</ele><time>2026-04-22T10:54:26.653Z</time></trkpt><trkpt lat="46.477617" lon="13.021878"><ele>465.0</ele><time>2026-04-22T10:54:27.652Z</time></trkpt><trkpt lat="46.4777267" lon="13.0218397"><ele>465.0</ele><time>2026-04-22T10:54:28.652Z</time></trkpt><trkpt lat="46.4778353" lon="13.0218037"><ele>465.0</ele><time>2026-04-22T10:54:29.652Z</time></trkpt><trkpt lat="46.4779526" lon="13.0217649"><ele>465.0</ele><time>2026-04-22T10:54:30.653Z</time></trkpt><trkpt lat="46.4780662" lon="13.0217267"><ele>465.0</ele><time>2026-04-22T10:54:31.653Z</time></trkpt><trkpt lat="46.4781745" lon="13.0216908"><ele>466.0</ele><time>2026-04-22T10:54:32.652Z</time></trkpt><trkpt lat="46.4782786" lon="13.0216584"><ele>467.0</ele><time>2026-04-22T10:54:33.653Z</time></trkpt><trkpt lat="46.4783776" lon="13.0216249"><ele>468.0</ele><time>2026-04-22T10:54:34.653Z</time></trkpt><trkpt lat="46.4784733" lon="13.0215957"><ele>469.0</ele><time>2026-04-22T10:54:35.652Z</time></trkpt><trkpt lat="46.4785676" lon="13.0215608"><ele>470.0</ele><time>2026-04-22T10:54:36.653Z</time></trkpt><trkpt lat="46.4786635" lon="13.0215089"><ele>470.0</ele><time>2026-04-22T10:54:37.652Z</time></trkpt><trkpt lat="46.4787598" lon="13.0214481"><ele>470.0</ele><time>2026-04-22T10:54:38.653Z</time></trkpt><trkpt lat="46.4788598" lon="13.0213806"><ele>470.0</ele><time>2026-04-22T10:54:39.652Z</time></trkpt><trkpt lat="46.4789733" lon="13.0212988"><ele>470.0</ele><time>2026-04-22T10:54:40.652Z</time></trkpt><trkpt lat="46.4790803" lon="13.0212219"><ele>473.0</ele><time>2026-04-22T10:54:41.653Z</time></trkpt><trkpt lat="46.4791916" lon="13.021145"><ele>476.0</ele><time>2026-04-22T10:54:42.653Z</time></trkpt><trkpt lat="46.4793076" lon="13.0210625"><ele>479.0</ele><time>2026-04-22T10:54:43.653Z</time></trkpt><trkpt lat="46.4794242" lon="13.0209867"><ele>482.0</ele><time>2026-04-22T10:54:44.652Z</time></trkpt><trkpt lat="46.4795417" lon="13.020926"><ele>483.25</ele><time>2026-04-22T10:54:45.652Z</time></trkpt><trkpt lat="46.4796577" lon="13.0208819"><ele>484.5</ele><time>2026-04-22T10:54:46.652Z</time></trkpt><trkpt lat="46.4797695" lon="13.0208437"><ele>485.75</ele><time>2026-04-22T10:54:47.652Z</time></trkpt><trkpt lat="46.4798801" lon="13.0208071"><ele>487.0</ele><time>2026-04-22T10:54:48.652Z</time></trkpt><trkpt lat="46.4799892" lon="13.0207661"><ele>487.0</ele><time>2026-04-22T10:54:49.653Z</time></trkpt><trkpt lat="46.4800981" lon="13.020713"><ele>487.0</ele><time>2026-04-22T10:54:50.652Z</time></trkpt><trkpt lat="46.4802167" lon="13.0206461"><ele>487.0</ele><time>2026-04-22T10:54:51.652Z</time></trkpt><trkpt lat="46.4803214" lon="13.0205741"><ele>487.0</ele><time>2026-04-22T10:54:52.653Z</time></trkpt><trkpt lat="46.4804261" lon="13.0205012"><ele>488.20000000000005</ele><time>2026-04-22T10:54:53.652Z</time></trkpt><trkpt lat="46.4805261" lon="13.020418"><ele>489.40000000000003</ele><time>2026-04-22T10:54:54.653Z</time></trkpt><trkpt lat="46.4806251" lon="13.0203353"><ele>490.59999999999997</ele><time>2026-04-22T10:54:55.652Z</time></trkpt><trkpt lat="46.4807208" lon="13.0202558"><ele>491.79999999999995</ele><time>2026-04-22T10:54:56.653Z</time></trkpt><trkpt lat="46.4808138" lon="13.0201829"><ele>493.0</ele><time>2026-04-22T10:54:57.652Z</time></trkpt><trkpt lat="46.4809065" lon="13.0201327"><ele>493.0</ele><time>2026-04-22T10:54:58.652Z</time></trkpt><trkpt lat="46.4810053" lon="13.0201182"><ele>492.99999999999994</ele><time>2026-04-22T10:54:59.652Z</time></trkpt><trkpt lat="46.4811085" lon="13.0201489"><ele>492.99999999999994</ele><time>2026-04-22T10:55:00.652Z</time></trkpt><trkpt lat="46.4812123" lon="13.0202133"><ele>493.0</ele><time>2026-04-22T10:55:01.653Z</time></trkpt><trkpt lat="46.4813079" lon="13.0202816"><ele>493.0</ele><time>2026-04-22T10:55:02.652Z</time></trkpt><trkpt lat="46.4813977" lon="13.0203487"><ele>493.59999999999997</ele><time>2026-04-22T10:55:03.652Z</time></trkpt><trkpt lat="46.4814842" lon="13.0204112"><ele>494.19999999999993</ele><time>2026-04-22T10:55:04.652Z</time></trkpt><trkpt lat="46.4815735" lon="13.020451"><ele>494.8</ele><time>2026-04-22T10:55:05.654Z</time></trkpt><trkpt lat="46.4816751" lon="13.0204461"><ele>495.4</ele><time>2026-04-22T10:55:06.652Z</time></trkpt><trkpt lat="46.4817811" lon="13.0204027"><ele>496.0</ele><time>2026-04-22T10:55:07.652Z</time></trkpt><trkpt lat="46.4818996" lon="13.0203449"><ele>496.0</ele><time>2026-04-22T10:55:08.652Z</time></trkpt><trkpt lat="46.4820114" lon="13.0202897"><ele>496.0</ele><time>2026-04-22T10:55:09.652Z</time></trkpt><trkpt lat="46.4821179" lon="13.0202377"><ele>496.0</ele><time>2026-04-22T10:55:10.652Z</time></trkpt><trkpt lat="46.482218" lon="13.0201894"><ele>496.0</ele><time>2026-04-22T10:55:11.653Z</time></trkpt><trkpt lat="46.4823142" lon="13.0201431"><ele>496.0</ele><time>2026-04-22T10:55:12.652Z</time></trkpt><trkpt lat="46.4824047" lon="13.0200913"><ele>496.6</ele><time>2026-04-22T10:55:13.653Z</time></trkpt><trkpt lat="46.48249" lon="13.0200304"><ele>497.20000000000005</ele><time>2026-04-22T10:55:14.652Z</time></trkpt><trkpt lat="46.4825703" lon="13.0199599"><ele>497.79999999999995</ele><time>2026-04-22T10:55:15.653Z</time></trkpt><trkpt lat="46.4826485" lon="13.0198859"><ele>498.4</ele><time>2026-04-22T10:55:16.653Z</time></trkpt><trkpt lat="46.4827361" lon="13.0197882"><ele>499.0</ele><time>2026-04-22T10:55:17.652Z</time></trkpt><trkpt lat="46.482819" lon="13.0196906"><ele>499.0</ele><time>2026-04-22T10:55:18.652Z</time></trkpt><trkpt lat="46.4828989" lon="13.019604"><ele>499.0</ele><time>2026-04-22T10:55:19.653Z</time></trkpt><trkpt lat="46.4829768" lon="13.0195155"><ele>499.0</ele><time>2026-04-22T10:55:20.652Z</time></trkpt><trkpt lat="46.4830522" lon="13.0194315"><ele>499.0</ele><time>2026-04-22T10:55:21.652Z</time></trkpt><trkpt lat="46.4831242" lon="13.0193515"><ele>499.0</ele><time>2026-04-22T10:55:22.652Z</time></trkpt><trkpt lat="46.4831899" lon="13.0192714"><ele>500.0</ele><time>2026-04-22T10:55:23.652Z</time></trkpt><trkpt lat="46.4832548" lon="13.0192002"><ele>501.0</ele><time>2026-04-22T10:55:24.652Z</time></trkpt><trkpt lat="46.4833074" lon="13.0191163"><ele>502.0</ele><time>2026-04-22T10:55:25.653Z</time></trkpt><trkpt lat="46.4833337" lon="13.0190021"><ele>503.0</ele><time>2026-04-22T10:55:26.653Z</time></trkpt><trkpt lat="46.4833439" lon="13.0188509"><ele>504.0</ele><time>2026-04-22T10:55:27.652Z</time></trkpt><trkpt lat="46.483355" lon="13.0186692"><ele>504.0</ele><time>2026-04-22T10:55:28.653Z</time></trkpt><trkpt lat="46.4833731" lon="13.0185035"><ele>504.0</ele><time>2026-04-22T10:55:29.652Z</time></trkpt><trkpt lat="46.4833834" lon="13.0183351"><ele>504.0</ele><time>2026-04-22T10:55:30.652Z</time></trkpt><trkpt lat="46.4833977" lon="13.018175"><ele>504.0</ele><time>2026-04-22T10:55:31.652Z</time></trkpt><trkpt lat="46.4834181" lon="13.0180239"><ele>504.0</ele><time>2026-04-22T10:55:32.652Z</time></trkpt><trkpt lat="46.4834451" lon="13.0178732"><ele>504.25</ele><time>2026-04-22T10:55:33.652Z</time></trkpt><trkpt lat="46.4834868" lon="13.0177223"><ele>504.5</ele><time>2026-04-22T10:55:34.653Z</time></trkpt><trkpt lat="46.4835437" lon="13.0175657"><ele>504.75</ele><time>2026-04-22T10:55:35.654Z</time></trkpt><trkpt lat="46.4836134" lon="13.0173971"><ele>505.0</ele><time>2026-04-22T10:55:36.653Z</time></trkpt><trkpt lat="46.4836839" lon="13.0172254"><ele>506.0</ele><time>2026-04-22T10:55:37.652Z</time></trkpt><trkpt lat="46.4837531" lon="13.0170616"><ele>507.0</ele><time>2026-04-22T10:55:38.652Z</time></trkpt><trkpt lat="46.4838183" lon="13.0169042"><ele>508.0</ele><time>2026-04-22T10:55:39.652Z</time></trkpt><trkpt lat="46.483879" lon="13.0167555"><ele>509.0</ele><time>2026-04-22T10:55:40.653Z</time></trkpt><trkpt lat="46.4839388" lon="13.0166114"><ele>511.0</ele><time>2026-04-22T10:55:41.652Z</time></trkpt><trkpt lat="46.483994" lon="13.0164759"><ele>513.0</ele><time>2026-04-22T10:55:42.653Z</time></trkpt><trkpt lat="46.4840424" lon="13.0163507"><ele>515.0</ele><time>2026-04-22T10:55:43.652Z</time></trkpt><trkpt lat="46.4840846" lon="13.0162273"><ele>517.0</ele><time>2026-04-22T10:55:44.652Z</time></trkpt><trkpt lat="46.4841323" lon="13.0160989"><ele>519.0</ele><time>2026-04-22T10:55:45.652Z</time></trkpt><trkpt lat="46.4841832" lon="13.0159743"><ele>519.0</ele><time>2026-04-22T10:55:46.652Z</time></trkpt><trkpt lat="46.4842327" lon="13.0158568"><ele>519.0</ele><time>2026-04-22T10:55:47.652Z</time></trkpt><trkpt lat="46.484278" lon="13.015743"><ele>519.0</ele><time>2026-04-22T10:55:48.653Z</time></trkpt><trkpt lat="46.4843238" lon="13.0156367"><ele>519.0</ele><time>2026-04-22T10:55:49.652Z</time></trkpt><trkpt lat="46.4843721" lon="13.0155258"><ele>519.0</ele><time>2026-04-22T10:55:50.652Z</time></trkpt><trkpt lat="46.4844227" lon="13.01542"><ele>519.0</ele><time>2026-04-22T10:55:51.652Z</time></trkpt><trkpt lat="46.4844687" lon="13.0153183"><ele>519.0</ele><time>2026-04-22T10:55:52.653Z</time></trkpt><trkpt lat="46.4845152" lon="13.0152211"><ele>519.0</ele><time>2026-04-22T10:55:53.654Z</time></trkpt><trkpt lat="46.4845642" lon="13.0151186"><ele>519.0</ele><time>2026-04-22T10:55:54.653Z</time></trkpt><trkpt lat="46.4846119" lon="13.0150198"><ele>519.0</ele><time>2026-04-22T10:55:55.652Z</time></trkpt><trkpt lat="46.48466" lon="13.0149194"><ele>519.0</ele><time>2026-04-22T10:55:56.652Z</time></trkpt><trkpt lat="46.4847082" lon="13.0148238"><ele>520.7142857142857</ele><time>2026-04-22T10:55:57.653Z</time></trkpt><trkpt lat="46.4847543" lon="13.0147335"><ele>522.4285714285713</ele><time>2026-04-22T10:55:58.652Z</time></trkpt><trkpt lat="46.4848008" lon="13.0146427"><ele>524.1428571428571</ele><time>2026-04-22T10:55:59.652Z</time></trkpt><trkpt lat="46.4848476" lon="13.014556"><ele>525.8571428571429</ele><time>2026-04-22T10:56:00.653Z</time></trkpt><trkpt lat="46.4848921" lon="13.0144739"><ele>527.5714285714287</ele><time>2026-04-22T10:56:01.653Z</time></trkpt><trkpt lat="46.4849349" lon="13.0143888"><ele>529.2857142857143</ele><time>2026-04-22T10:56:02.653Z</time></trkpt><trkpt lat="46.4849743" lon="13.0143103"><ele>531.0</ele><time>2026-04-22T10:56:03.652Z</time></trkpt><trkpt lat="46.485012" lon="13.0142354"><ele>531.0</ele><time>2026-04-22T10:56:04.653Z</time></trkpt><trkpt lat="46.4850528" lon="13.0141621"><ele>531.0</ele><time>2026-04-22T10:56:05.653Z</time></trkpt><trkpt lat="46.4850925" lon="13.0140894"><ele>531.0</ele><time>2026-04-22T10:56:06.652Z</time></trkpt><trkpt lat="46.4851313" lon="13.014011"><ele>531.0</ele><time>2026-04-22T10:56:07.654Z</time></trkpt><trkpt lat="46.4851728" lon="13.013928"><ele>531.0</ele><time>2026-04-22T10:56:08.652Z</time></trkpt><trkpt lat="46.4852102" lon="13.0138436"><ele>531.0</ele><time>2026-04-22T10:56:09.652Z</time></trkpt><trkpt lat="46.4852601" lon="13.0137086"><ele>531.0</ele><time>2026-04-22T10:56:10.653Z</time></trkpt><trkpt lat="46.4853156" lon="13.0135614"><ele>531.0</ele><time>2026-04-22T10:56:11.653Z</time></trkpt><trkpt lat="46.4853854" lon="13.0134086"><ele>531.0</ele><time>2026-04-22T10:56:12.652Z</time></trkpt><trkpt lat="46.4854596" lon="13.0132291"><ele>531.0</ele><time>2026-04-22T10:56:13.652Z</time></trkpt><trkpt lat="46.4855313" lon="13.0130557"><ele>531.0</ele><time>2026-04-22T10:56:14.653Z</time></trkpt><trkpt lat="46.4856001" lon="13.0128852"><ele>533.5</ele><time>2026-04-22T10:56:15.652Z</time></trkpt><trkpt lat="46.4856627" lon="13.0127221"><ele>536.0</ele><time>2026-04-22T10:56:16.652Z</time></trkpt><trkpt lat="46.4857272" lon="13.0125556"><ele>538.5</ele><time>2026-04-22T10:56:17.652Z</time></trkpt><trkpt lat="46.485794" lon="13.0123792"><ele>541.0</ele><time>2026-04-22T10:56:18.653Z</time></trkpt><trkpt lat="46.4858561" lon="13.0122158"><ele>541.0</ele><time>2026-04-22T10:56:19.652Z</time></trkpt><trkpt lat="46.4859134" lon="13.0120593"><ele>541.0</ele><time>2026-04-22T10:56:20.653Z</time></trkpt><trkpt lat="46.4859657" lon="13.0119161"><ele>541.0</ele><time>2026-04-22T10:56:21.652Z</time></trkpt><trkpt lat="46.4860151" lon="13.0117825"><ele>541.0</ele><time>2026-04-22T10:56:22.653Z</time></trkpt><trkpt lat="46.4860697" lon="13.0116488"><ele>541.0</ele><time>2026-04-22T10:56:23.653Z</time></trkpt><trkpt lat="46.486128" lon="13.0115081"><ele>539.5</ele><time>2026-04-22T10:56:24.652Z</time></trkpt><trkpt lat="46.4862088" lon="13.0114033"><ele>538.0</ele><time>2026-04-22T10:56:25.652Z</time></trkpt><trkpt lat="46.4863029" lon="13.0113391"><ele>536.5</ele><time>2026-04-22T10:56:26.653Z</time></trkpt><trkpt lat="46.4864155" lon="13.0112972"><ele>535.0</ele><time>2026-04-22T10:56:27.652Z</time></trkpt><trkpt lat="46.4865377" lon="13.0112779"><ele>534.75</ele><time>2026-04-22T10:56:28.653Z</time></trkpt><trkpt lat="46.4866602" lon="13.0112684"><ele>534.5</ele><time>2026-04-22T10:56:29.652Z</time></trkpt><trkpt lat="46.4867802" lon="13.0112602"><ele>534.25</ele><time>2026-04-22T10:56:30.652Z</time></trkpt><trkpt lat="46.4868993" lon="13.0112569"><ele>534.0</ele><time>2026-04-22T10:56:31.653Z</time></trkpt><trkpt lat="46.4870157" lon="13.0112533"><ele>534.8</ele><time>2026-04-22T10:56:32.652Z</time></trkpt><trkpt lat="46.4871249" lon="13.0112481"><ele>535.5999999999999</ele><time>2026-04-22T10:56:33.652Z</time></trkpt><trkpt lat="46.4872325" lon="13.0112252"><ele>536.4</ele><time>2026-04-22T10:56:34.653Z</time></trkpt><trkpt lat="46.4873213" lon="13.0111552"><ele>537.1999999999999</ele><time>2026-04-22T10:56:35.654Z</time></trkpt><trkpt lat="46.4873926" lon="13.0110474"><ele>538.0</ele><time>2026-04-22T10:56:36.652Z</time></trkpt><trkpt lat="46.4874453" lon="13.0109038"><ele>536.75</ele><time>2026-04-22T10:56:37.652Z</time></trkpt><trkpt lat="46.487498" lon="13.0107333"><ele>535.5</ele><time>2026-04-22T10:56:38.652Z</time></trkpt><trkpt lat="46.4875498" lon="13.0105494"><ele>534.25</ele><time>2026-04-22T10:56:39.653Z</time></trkpt><trkpt lat="46.4876003" lon="13.0103803"><ele>533.0</ele><time>2026-04-22T10:56:40.653Z</time></trkpt><trkpt lat="46.4876462" lon="13.0102171"><ele>533.0</ele><time>2026-04-22T10:56:41.652Z</time></trkpt><trkpt lat="46.487683" lon="13.0100591"><ele>533.0</ele><time>2026-04-22T10:56:42.652Z</time></trkpt><trkpt lat="46.4877042" lon="13.0099138"><ele>533.0</ele><time>2026-04-22T10:56:43.653Z</time></trkpt><trkpt lat="46.4877144" lon="13.0097808"><ele>533.0</ele><time>2026-04-22T10:56:44.652Z</time></trkpt><trkpt lat="46.4877148" lon="13.0096564"><ele>533.0</ele><time>2026-04-22T10:56:45.652Z</time></trkpt><trkpt lat="46.4877125" lon="13.0095478"><ele>534.6</ele><time>2026-04-22T10:56:46.652Z</time></trkpt><trkpt lat="46.4876892" lon="13.0093825"><ele>536.1999999999999</ele><time>2026-04-22T10:56:48.652Z</time></trkpt><trkpt lat="46.4876035" lon="13.0092589"><ele>537.8</ele><time>2026-04-22T10:56:50.651Z</time></trkpt><trkpt lat="46.4875246" lon="13.009222"><ele>539.4</ele><time>2026-04-22T10:56:51.651Z</time></trkpt><trkpt lat="46.4874155" lon="13.0091881"><ele>541.0</ele><time>2026-04-22T10:56:52.651Z</time></trkpt><trkpt lat="46.4872997" lon="13.0091852"><ele>541.0</ele><time>2026-04-22T10:56:53.652Z</time></trkpt><trkpt lat="46.487162" lon="13.0091703"><ele>541.0</ele><time>2026-04-22T10:56:54.651Z</time></trkpt><trkpt lat="46.4870397" lon="13.0091372"><ele>541.0</ele><time>2026-04-22T10:56:55.651Z</time></trkpt><trkpt lat="46.4869178" lon="13.0090743"><ele>541.0</ele><time>2026-04-22T10:56:56.651Z</time></trkpt><trkpt lat="46.4867997" lon="13.0089956"><ele>540.75</ele><time>2026-04-22T10:56:57.652Z</time></trkpt><trkpt lat="46.4866903" lon="13.0089112"><ele>540.5</ele><time>2026-04-22T10:56:58.651Z</time></trkpt><trkpt lat="46.4865866" lon="13.0088217"><ele>540.25</ele><time>2026-04-22T10:56:59.652Z</time></trkpt><trkpt lat="46.4864901" lon="13.0087372"><ele>540.0</ele><time>2026-04-22T10:57:00.651Z</time></trkpt><trkpt lat="46.4864046" lon="13.0086526"><ele>540.0</ele><time>2026-04-22T10:57:01.651Z</time></trkpt><trkpt lat="46.48634" lon="13.008548"><ele>540.0</ele><time>2026-04-22T10:57:02.651Z</time></trkpt><trkpt lat="46.4863017" lon="13.0084286"><ele>540.0</ele><time>2026-04-22T10:57:03.652Z</time></trkpt><trkpt lat="46.4862996" lon="13.0083055"><ele>540.0</ele><time>2026-04-22T10:57:04.652Z</time></trkpt><trkpt lat="46.4863472" lon="13.0081771"><ele>540.0</ele><time>2026-04-22T10:57:05.651Z</time></trkpt><trkpt lat="46.486442" lon="13.008035"><ele>540.6666666666666</ele><time>2026-04-22T10:57:06.651Z</time></trkpt><trkpt lat="46.486559" lon="13.0078948"><ele>541.3333333333333</ele><time>2026-04-22T10:57:07.651Z</time></trkpt><trkpt lat="46.4866957" lon="13.0077671"><ele>542.0</ele><time>2026-04-22T10:57:08.652Z</time></trkpt><trkpt lat="46.4868381" lon="13.0076506"><ele>542.0</ele><time>2026-04-22T10:57:09.652Z</time></trkpt><trkpt lat="46.4869808" lon="13.0075414"><ele>542.0</ele><time>2026-04-22T10:57:10.651Z</time></trkpt><trkpt lat="46.487123" lon="13.0074384"><ele>542.0</ele><time>2026-04-22T10:57:11.652Z</time></trkpt><trkpt lat="46.487261" lon="13.0073386"><ele>543.3333333333333</ele><time>2026-04-22T10:57:12.651Z</time></trkpt><trkpt lat="46.4873946" lon="13.0072343"><ele>544.6666666666666</ele><time>2026-04-22T10:57:13.651Z</time></trkpt><trkpt lat="46.4875213" lon="13.0071176"><ele>546.0</ele><time>2026-04-22T10:57:14.651Z</time></trkpt><trkpt lat="46.4876354" lon="13.0069765"><ele>546.0</ele><time>2026-04-22T10:57:15.652Z</time></trkpt><trkpt lat="46.4877442" lon="13.0067995"><ele>546.0</ele><time>2026-04-22T10:57:16.651Z</time></trkpt><trkpt lat="46.4878451" lon="13.0065936"><ele>546.0</ele><time>2026-04-22T10:57:17.652Z</time></trkpt><trkpt lat="46.4879367" lon="13.006398"><ele>546.0</ele><time>2026-04-22T10:57:18.651Z</time></trkpt><trkpt lat="46.4880214" lon="13.0062132"><ele>546.0</ele><time>2026-04-22T10:57:19.651Z</time></trkpt><trkpt lat="46.4881007" lon="13.0060388"><ele>546.0</ele><time>2026-04-22T10:57:20.651Z</time></trkpt><trkpt lat="46.488181" lon="13.0058675"><ele>546.0</ele><time>2026-04-22T10:57:21.653Z</time></trkpt><trkpt lat="46.488257" lon="13.0057008"><ele>546.0</ele><time>2026-04-22T10:57:22.651Z</time></trkpt><trkpt lat="46.4883259" lon="13.0055489"><ele>546.0</ele><time>2026-04-22T10:57:23.651Z</time></trkpt><trkpt lat="46.4884162" lon="13.005422"><ele>546.0</ele><time>2026-04-22T10:57:24.651Z</time></trkpt><trkpt lat="46.4885298" lon="13.0053437"><ele>546.0</ele><time>2026-04-22T10:57:25.651Z</time></trkpt><trkpt lat="46.4886758" lon="13.0052838"><ele>548.0</ele><time>2026-04-22T10:57:26.651Z</time></trkpt><trkpt lat="46.4888478" lon="13.0052095"><ele>550.0</ele><time>2026-04-22T10:57:27.651Z</time></trkpt><trkpt lat="46.4890187" lon="13.005137"><ele>552.0</ele><time>2026-04-22T10:57:28.652Z</time></trkpt><trkpt lat="46.4891906" lon="13.0050722"><ele>552.0</ele><time>2026-04-22T10:57:29.651Z</time></trkpt><trkpt lat="46.489356" lon="13.0050079"><ele>552.0</ele><time>2026-04-22T10:57:30.652Z</time></trkpt><trkpt lat="46.4895124" lon="13.0049437"><ele>552.0</ele><time>2026-04-22T10:57:31.652Z</time></trkpt><trkpt lat="46.4896622" lon="13.0048816"><ele>549.0</ele><time>2026-04-22T10:57:32.651Z</time></trkpt><trkpt lat="46.4898114" lon="13.0048206"><ele>546.0</ele><time>2026-04-22T10:57:33.651Z</time></trkpt><trkpt lat="46.48996" lon="13.004761"><ele>543.0</ele><time>2026-04-22T10:57:34.651Z</time></trkpt><trkpt lat="46.4901084" lon="13.0046988"><ele>543.0</ele><time>2026-04-22T10:57:35.651Z</time></trkpt><trkpt lat="46.4902603" lon="13.0046371"><ele>543.0</ele><time>2026-04-22T10:57:36.651Z</time></trkpt><trkpt lat="46.4904133" lon="13.0045787"><ele>543.0</ele><time>2026-04-22T10:57:37.651Z</time></trkpt><trkpt lat="46.4905667" lon="13.0045118"><ele>546.3333333333334</ele><time>2026-04-22T10:57:38.651Z</time></trkpt><trkpt lat="46.490724" lon="13.0044434"><ele>549.6666666666667</ele><time>2026-04-22T10:57:39.652Z</time></trkpt><trkpt lat="46.4908796" lon="13.0043748"><ele>553.0</ele><time>2026-04-22T10:57:40.651Z</time></trkpt><trkpt lat="46.4910307" lon="13.0042975"><ele>553.0</ele><time>2026-04-22T10:57:41.651Z</time></trkpt><trkpt lat="46.4911824" lon="13.0042106"><ele>553.0</ele><time>2026-04-22T10:57:42.651Z</time></trkpt><trkpt lat="46.4913384" lon="13.004123"><ele>553.0</ele><time>2026-04-22T10:57:43.652Z</time></trkpt><trkpt lat="46.4914873" lon="13.004031"><ele>550.0</ele><time>2026-04-22T10:57:44.651Z</time></trkpt><trkpt lat="46.4916332" lon="13.0039345"><ele>547.0</ele><time>2026-04-22T10:57:45.651Z</time></trkpt><trkpt lat="46.4917773" lon="13.0038345"><ele>544.0</ele><time>2026-04-22T10:57:46.652Z</time></trkpt><trkpt lat="46.4919176" lon="13.0037334"><ele>544.0</ele><time>2026-04-22T10:57:47.652Z</time></trkpt><trkpt lat="46.4920559" lon="13.0036314"><ele>544.0</ele><time>2026-04-22T10:57:48.652Z</time></trkpt><trkpt lat="46.4921962" lon="13.0035309"><ele>544.0</ele><time>2026-04-22T10:57:49.651Z</time></trkpt><trkpt lat="46.4923363" lon="13.0034304"><ele>545.3333333333334</ele><time>2026-04-22T10:57:50.652Z</time></trkpt><trkpt lat="46.4924755" lon="13.0033337"><ele>546.6666666666666</ele><time>2026-04-22T10:57:51.651Z</time></trkpt><trkpt lat="46.4926124" lon="13.0032394"><ele>548.0</ele><time>2026-04-22T10:57:52.652Z</time></trkpt><trkpt lat="46.4927488" lon="13.003146"><ele>548.0</ele><time>2026-04-22T10:57:53.653Z</time></trkpt><trkpt lat="46.4928862" lon="13.0030534"><ele>548.0</ele><time>2026-04-22T10:57:54.652Z</time></trkpt><trkpt lat="46.4930221" lon="13.0029646"><ele>548.0</ele><time>2026-04-22T10:57:55.653Z</time></trkpt><trkpt lat="46.4931561" lon="13.002878"><ele>548.0</ele><time>2026-04-22T10:57:56.653Z</time></trkpt><trkpt lat="46.4932926" lon="13.0028009"><ele>550.3333333333333</ele><time>2026-04-22T10:57:57.652Z</time></trkpt><trkpt lat="46.4934358" lon="13.0027313"><ele>552.6666666666666</ele><time>2026-04-22T10:57:58.651Z</time></trkpt><trkpt lat="46.4935831" lon="13.0026666"><ele>555.0</ele><time>2026-04-22T10:57:59.651Z</time></trkpt><trkpt lat="46.4937346" lon="13.0026059"><ele>554.3333333333334</ele><time>2026-04-22T10:58:00.652Z</time></trkpt><trkpt lat="46.4938863" lon="13.002548"><ele>553.6666666666667</ele><time>2026-04-22T10:58:01.651Z</time></trkpt><trkpt lat="46.4940379" lon="13.0024885"><ele>553.0</ele><time>2026-04-22T10:58:02.652Z</time></trkpt><trkpt lat="46.4941854" lon="13.0024253"><ele>553.0</ele><time>2026-04-22T10:58:03.651Z</time></trkpt><trkpt lat="46.4943327" lon="13.002371"><ele>553.0</ele><time>2026-04-22T10:58:04.651Z</time></trkpt><trkpt lat="46.494496" lon="13.0023551"><ele>553.0</ele><time>2026-04-22T10:58:05.652Z</time></trkpt><trkpt lat="46.4946827" lon="13.0023817"><ele>554.3333333333334</ele><time>2026-04-22T10:58:06.651Z</time></trkpt><trkpt lat="46.4948797" lon="13.0024288"><ele>555.6666666666666</ele><time>2026-04-22T10:58:07.651Z</time></trkpt><trkpt lat="46.4950665" lon="13.0024777"><ele>557.0</ele><time>2026-04-22T10:58:08.651Z</time></trkpt><trkpt lat="46.4952684" lon="13.0025384"><ele>556.6666666666666</ele><time>2026-04-22T10:58:09.651Z</time></trkpt><trkpt lat="46.4954646" lon="13.0025979"><ele>556.3333333333334</ele><time>2026-04-22T10:58:10.651Z</time></trkpt><trkpt lat="46.4956545" lon="13.0026593"><ele>556.0</ele><time>2026-04-22T10:58:11.651Z</time></trkpt><trkpt lat="46.4958428" lon="13.002717"><ele>556.0</ele><time>2026-04-22T10:58:12.651Z</time></trkpt><trkpt lat="46.4960303" lon="13.0027745"><ele>556.0</ele><time>2026-04-22T10:58:13.652Z</time></trkpt><trkpt lat="46.4962172" lon="13.0028336"><ele>556.0</ele><time>2026-04-22T10:58:14.651Z</time></trkpt><trkpt lat="46.4964035" lon="13.0028915"><ele>554.6666666666667</ele><time>2026-04-22T10:58:15.651Z</time></trkpt><trkpt lat="46.4965885" lon="13.0029485"><ele>553.3333333333334</ele><time>2026-04-22T10:58:16.651Z</time></trkpt><trkpt lat="46.4967703" lon="13.0030035"><ele>552.0</ele><time>2026-04-22T10:58:17.652Z</time></trkpt><trkpt lat="46.4969493" lon="13.0030558"><ele>549.6666666666666</ele><time>2026-04-22T10:58:18.651Z</time></trkpt><trkpt lat="46.4971237" lon="13.0031075"><ele>547.3333333333333</ele><time>2026-04-22T10:58:19.651Z</time></trkpt><trkpt lat="46.4972947" lon="13.0031646"><ele>545.0</ele><time>2026-04-22T10:58:20.652Z</time></trkpt><trkpt lat="46.497464" lon="13.0032165"><ele>545.0</ele><time>2026-04-22T10:58:21.651Z</time></trkpt><trkpt lat="46.4976329" lon="13.0032647"><ele>545.0</ele><time>2026-04-22T10:58:22.652Z</time></trkpt><trkpt lat="46.4978018" lon="13.0033163"><ele>545.0</ele><time>2026-04-22T10:58:23.651Z</time></trkpt><trkpt lat="46.497971" lon="13.0033641"><ele>547.3333333333333</ele><time>2026-04-22T10:58:24.653Z</time></trkpt><trkpt lat="46.4981487" lon="13.0034004"><ele>549.6666666666666</ele><time>2026-04-22T10:58:25.651Z</time></trkpt><trkpt lat="46.4983406" lon="13.0034261"><ele>552.0</ele><time>2026-04-22T10:58:26.651Z</time></trkpt><trkpt lat="46.4985395" lon="13.0034491"><ele>552.0</ele><time>2026-04-22T10:58:27.652Z</time></trkpt><trkpt lat="46.4987391" lon="13.0034706"><ele>552.0</ele><time>2026-04-22T10:58:28.652Z</time></trkpt><trkpt lat="46.4989376" lon="13.0034901"><ele>552.0</ele><time>2026-04-22T10:58:29.651Z</time></trkpt><trkpt lat="46.4991335" lon="13.0035105"><ele>548.3333333333334</ele><time>2026-04-22T10:58:30.651Z</time></trkpt><trkpt lat="46.499329" lon="13.0035345"><ele>544.6666666666667</ele><time>2026-04-22T10:58:31.651Z</time></trkpt><trkpt lat="46.4995245" lon="13.0035588"><ele>541.0</ele><time>2026-04-22T10:58:32.651Z</time></trkpt><trkpt lat="46.4997167" lon="13.0035802"><ele>539.6666666666667</ele><time>2026-04-22T10:58:33.652Z</time></trkpt><trkpt lat="46.4999106" lon="13.0036083"><ele>538.3333333333334</ele><time>2026-04-22T10:58:34.651Z</time></trkpt><trkpt lat="46.5001053" lon="13.0036446"><ele>537.0</ele><time>2026-04-22T10:58:35.651Z</time></trkpt><trkpt lat="46.5003013" lon="13.0036919"><ele>533.6666666666666</ele><time>2026-04-22T10:58:36.651Z</time></trkpt><trkpt lat="46.5004882" lon="13.0037424"><ele>530.3333333333333</ele><time>2026-04-22T10:58:37.652Z</time></trkpt><trkpt lat="46.5006659" lon="13.0037938"><ele>527.0</ele><time>2026-04-22T10:58:38.653Z</time></trkpt><trkpt lat="46.5008353" lon="13.0038453"><ele>527.0</ele><time>2026-04-22T10:58:39.653Z</time></trkpt><trkpt lat="46.5010001" lon="13.0038973"><ele>527.0</ele><time>2026-04-22T10:58:40.651Z</time></trkpt><trkpt lat="46.5011617" lon="13.0039446"><ele>527.0</ele><time>2026-04-22T10:58:41.651Z</time></trkpt><trkpt lat="46.501329" lon="13.0039711"><ele>527.6666666666666</ele><time>2026-04-22T10:58:42.652Z</time></trkpt><trkpt lat="46.5015021" lon="13.0039757"><ele>528.3333333333334</ele><time>2026-04-22T10:58:43.652Z</time></trkpt><trkpt lat="46.5016672" lon="13.0039673"><ele>529.0</ele><time>2026-04-22T10:58:44.651Z</time></trkpt><trkpt lat="46.5018211" lon="13.003955"><ele>529.0</ele><time>2026-04-22T10:58:45.651Z</time></trkpt><trkpt lat="46.5019698" lon="13.0039108"><ele>529.0</ele><time>2026-04-22T10:58:46.651Z</time></trkpt><trkpt lat="46.5021128" lon="13.0038181"><ele>529.0</ele><time>2026-04-22T10:58:47.651Z</time></trkpt><trkpt lat="46.5022529" lon="13.0036723"><ele>526.0</ele><time>2026-04-22T10:58:48.651Z</time></trkpt><trkpt lat="46.5024067" lon="13.003527"><ele>523.0</ele><time>2026-04-22T10:58:49.651Z</time></trkpt><trkpt lat="46.5025763" lon="13.0034136"><ele>520.0</ele><time>2026-04-22T10:58:50.652Z</time></trkpt><trkpt lat="46.5027449" lon="13.0033212"><ele>523.6666666666667</ele><time>2026-04-22T10:58:51.651Z</time></trkpt><trkpt lat="46.5029155" lon="13.0032237"><ele>527.3333333333334</ele><time>2026-04-22T10:58:52.651Z</time></trkpt><trkpt lat="46.5030837" lon="13.0030879"><ele>531.0</ele><time>2026-04-22T10:58:53.651Z</time></trkpt><trkpt lat="46.5032356" lon="13.0029518"><ele>531.0</ele><time>2026-04-22T10:58:54.652Z</time></trkpt><trkpt lat="46.5033781" lon="13.0028214"><ele>531.0</ele><time>2026-04-22T10:58:55.652Z</time></trkpt><trkpt lat="46.5035157" lon="13.0026969"><ele>531.0</ele><time>2026-04-22T10:58:56.651Z</time></trkpt><trkpt lat="46.5036609" lon="13.0025939"><ele>532.3333333333334</ele><time>2026-04-22T10:58:57.652Z</time></trkpt><trkpt lat="46.5038258" lon="13.0025281"><ele>533.6666666666667</ele><time>2026-04-22T10:58:58.651Z</time></trkpt><trkpt lat="46.5039996" lon="13.0024967"><ele>535.0</ele><time>2026-04-22T10:58:59.651Z</time></trkpt><trkpt lat="46.5041746" lon="13.0024717"><ele>527.3333333333334</ele><time>2026-04-22T10:59:00.653Z</time></trkpt><trkpt lat="46.504351" lon="13.0024608"><ele>519.6666666666666</ele><time>2026-04-22T10:59:01.652Z</time></trkpt><trkpt lat="46.5045209" lon="13.002446"><ele>512.0</ele><time>2026-04-22T10:59:02.652Z</time></trkpt><trkpt lat="46.5046873" lon="13.0024115"><ele>512.0</ele><time>2026-04-22T10:59:03.651Z</time></trkpt><trkpt lat="46.5048474" lon="13.0023654"><ele>512.0</ele><time>2026-04-22T10:59:04.652Z</time></trkpt><trkpt lat="46.504999" lon="13.0023308"><ele>512.0</ele><time>2026-04-22T10:59:05.652Z</time></trkpt><trkpt lat="46.505147" lon="13.002323"><ele>512.0</ele><time>2026-04-22T10:59:06.651Z</time></trkpt><trkpt lat="46.5052866" lon="13.0023733"><ele>512.0</ele><time>2026-04-22T10:59:07.651Z</time></trkpt><trkpt lat="46.5054213" lon="13.0024828"><ele>512.0</ele><time>2026-04-22T10:59:08.652Z</time></trkpt><trkpt lat="46.5055637" lon="13.0026109"><ele>516.0</ele><time>2026-04-22T10:59:09.651Z</time></trkpt><trkpt lat="46.5056958" lon="13.0027295"><ele>520.0</ele><time>2026-04-22T10:59:10.651Z</time></trkpt><trkpt lat="46.5058462" lon="13.0028216"><ele>524.0</ele><time>2026-04-22T10:59:11.652Z</time></trkpt><trkpt lat="46.5060255" lon="13.002869"><ele>524.0</ele><time>2026-04-22T10:59:12.652Z</time></trkpt><trkpt lat="46.5062095" lon="13.0028883"><ele>524.0</ele><time>2026-04-22T10:59:13.652Z</time></trkpt><trkpt lat="46.5063965" lon="13.002901"><ele>524.0</ele><time>2026-04-22T10:59:14.652Z</time></trkpt><trkpt lat="46.5065769" lon="13.0029035"><ele>520.6666666666666</ele><time>2026-04-22T10:59:15.653Z</time></trkpt><trkpt lat="46.5067481" lon="13.0029041"><ele>517.3333333333334</ele><time>2026-04-22T10:59:16.651Z</time></trkpt><trkpt lat="46.5069098" lon="13.0029021"><ele>514.0</ele><time>2026-04-22T10:59:17.651Z</time></trkpt><trkpt lat="46.5070675" lon="13.002889"><ele>513.6666666666667</ele><time>2026-04-22T10:59:18.651Z</time></trkpt><trkpt lat="46.5072177" lon="13.0028628"><ele>513.3333333333334</ele><time>2026-04-22T10:59:19.651Z</time></trkpt><trkpt lat="46.5073643" lon="13.0028245"><ele>513.0</ele><time>2026-04-22T10:59:20.652Z</time></trkpt><trkpt lat="46.5075128" lon="13.002764"><ele>513.0</ele><time>2026-04-22T10:59:21.651Z</time></trkpt><trkpt lat="46.5076797" lon="13.0027038"><ele>513.0</ele><time>2026-04-22T10:59:22.651Z</time></trkpt><trkpt lat="46.5078677" lon="13.0026665"><ele>513.0</ele><time>2026-04-22T10:59:23.652Z</time></trkpt><trkpt lat="46.5080564" lon="13.0026486"><ele>514.3333333333334</ele><time>2026-04-22T10:59:24.651Z</time></trkpt><trkpt lat="46.5082407" lon="13.0026307"><ele>515.6666666666667</ele><time>2026-04-22T10:59:25.651Z</time></trkpt><trkpt lat="46.5084229" lon="13.0026143"><ele>517.0</ele><time>2026-04-22T10:59:26.651Z</time></trkpt><trkpt lat="46.5086014" lon="13.0026007"><ele>518.0</ele><time>2026-04-22T10:59:27.652Z</time></trkpt><trkpt lat="46.5087782" lon="13.0025836"><ele>519.0</ele><time>2026-04-22T10:59:28.651Z</time></trkpt><trkpt lat="46.5089519" lon="13.0025685"><ele>520.0</ele><time>2026-04-22T10:59:29.651Z</time></trkpt><trkpt lat="46.5091205" lon="13.0025542"><ele>520.0</ele><time>2026-04-22T10:59:30.652Z</time></trkpt><trkpt lat="46.5092841" lon="13.0025364"><ele>520.0</ele><time>2026-04-22T10:59:31.651Z</time></trkpt><trkpt lat="46.5094397" lon="13.0025245"><ele>520.0</ele><time>2026-04-22T10:59:32.651Z</time></trkpt><trkpt lat="46.5095937" lon="13.0025158"><ele>521.0</ele><time>2026-04-22T10:59:33.651Z</time></trkpt><trkpt lat="46.5097509" lon="13.0025049"><ele>522.0</ele><time>2026-04-22T10:59:34.652Z</time></trkpt><trkpt lat="46.5099072" lon="13.0024931"><ele>523.0</ele><time>2026-04-22T10:59:35.651Z</time></trkpt><trkpt lat="46.5100657" lon="13.0024787"><ele>522.3333333333334</ele><time>2026-04-22T10:59:36.653Z</time></trkpt><trkpt lat="46.5102206" lon="13.0024661"><ele>521.6666666666666</ele><time>2026-04-22T10:59:37.652Z</time></trkpt><trkpt lat="46.5103762" lon="13.002453"><ele>521.0</ele><time>2026-04-22T10:59:38.651Z</time></trkpt><trkpt lat="46.5105356" lon="13.0024385"><ele>521.0</ele><time>2026-04-22T10:59:39.651Z</time></trkpt><trkpt lat="46.5106763" lon="13.0024258"><ele>521.0</ele><time>2026-04-22T10:59:40.651Z</time></trkpt><trkpt lat="46.5108049" lon="13.0024116"><ele>521.0</ele><time>2026-04-22T10:59:41.651Z</time></trkpt><trkpt lat="46.510915" lon="13.0024048"><ele>521.0</ele><time>2026-04-22T10:59:42.651Z</time></trkpt><trkpt lat="46.5110106" lon="13.0024004"><ele>521.0</ele><time>2026-04-22T10:59:43.651Z</time></trkpt><trkpt lat="46.5110834" lon="13.0023978"><ele>521.0</ele><time>2026-04-22T10:59:44.653Z</time></trkpt><trkpt lat="46.5111757" lon="13.0023473"><ele>521.0</ele><time>2026-04-22T10:59:46.652Z</time></trkpt><trkpt lat="46.5111449" lon="13.0022123"><ele>521.0</ele><time>2026-04-22T10:59:49.651Z</time></trkpt><trkpt lat="46.5110845" lon="13.0021501"><ele>521.0</ele><time>2026-04-22T10:59:51.651Z</time></trkpt><trkpt lat="46.5110161" lon="13.0021265"><ele>521.0</ele><time>2026-04-22T10:59:54.652Z</time></trkpt><trkpt lat="46.5109057" lon="13.00218"><ele>521.0</ele><time>2026-04-22T11:03:14.65Z</time></trkpt><trkpt lat="46.510835" lon="13.0022562"><ele>521.0</ele><time>2026-04-22T11:03:16.651Z</time></trkpt><trkpt lat="46.5108229" lon="13.0023514"><ele>521.0</ele><time>2026-04-22T11:03:20.65Z</time></trkpt><trkpt lat="46.5108862" lon="13.0024064"><ele>521.0</ele><time>2026-04-22T11:03:22.65Z</time></trkpt><trkpt lat="46.5109648" lon="13.0024042"><ele>521.0</ele><time>2026-04-22T11:03:23.65Z</time></trkpt><trkpt lat="46.5110585" lon="13.002395"><ele>521.0</ele><time>2026-04-22T11:03:24.65Z</time></trkpt><trkpt lat="46.5111638" lon="13.0023925"><ele>523.3333333333333</ele><time>2026-04-22T11:03:25.651Z</time></trkpt><trkpt lat="46.5113033" lon="13.0023861"><ele>525.6666666666666</ele><time>2026-04-22T11:03:26.651Z</time></trkpt><trkpt lat="46.5114519" lon="13.0023745"><ele>528.0</ele><time>2026-04-22T11:03:27.651Z</time></trkpt><trkpt lat="46.5116218" lon="13.0023584"><ele>528.0</ele><time>2026-04-22T11:03:28.652Z</time></trkpt><trkpt lat="46.5117777" lon="13.002346"><ele>528.0</ele><time>2026-04-22T11:03:29.65Z</time></trkpt><trkpt lat="46.51193" lon="13.0023348"><ele>528.0</ele><time>2026-04-22T11:03:30.651Z</time></trkpt><trkpt lat="46.5120752" lon="13.0023205"><ele>528.5</ele><time>2026-04-22T11:03:31.65Z</time></trkpt><trkpt lat="46.5122146" lon="13.0022982"><ele>529.0</ele><time>2026-04-22T11:03:32.652Z</time></trkpt><trkpt lat="46.5123455" lon="13.0022666"><ele>529.5</ele><time>2026-04-22T11:03:33.65Z</time></trkpt><trkpt lat="46.5124724" lon="13.0022302"><ele>530.0</ele><time>2026-04-22T11:03:34.65Z</time></trkpt><trkpt lat="46.5125947" lon="13.0021908"><ele>530.0</ele><time>2026-04-22T11:03:35.65Z</time></trkpt><trkpt lat="46.512713" lon="13.0021457"><ele>530.0</ele><time>2026-04-22T11:03:36.65Z</time></trkpt><trkpt lat="46.5128318" lon="13.0020884"><ele>530.0</ele><time>2026-04-22T11:03:37.651Z</time></trkpt><trkpt lat="46.512936" lon="13.0020317"><ele>530.0</ele><time>2026-04-22T11:03:38.65Z</time></trkpt><trkpt lat="46.5130373" lon="13.0019775"><ele>530.0</ele><time>2026-04-22T11:03:39.65Z</time></trkpt><trkpt lat="46.5131307" lon="13.0019334"><ele>530.0</ele><time>2026-04-22T11:03:40.65Z</time></trkpt><trkpt lat="46.5132199" lon="13.0019007"><ele>530.0</ele><time>2026-04-22T11:03:41.65Z</time></trkpt><trkpt lat="46.5132995" lon="13.0018708"><ele>530.0</ele><time>2026-04-22T11:03:42.651Z</time></trkpt><trkpt lat="46.5133721" lon="13.0018167"><ele>530.0</ele><time>2026-04-22T11:03:43.65Z</time></trkpt><trkpt lat="46.5134269" lon="13.0017299"><ele>530.0</ele><time>2026-04-22T11:03:44.65Z</time></trkpt><trkpt lat="46.5134622" lon="13.0016183"><ele>530.0</ele><time>2026-04-22T11:03:45.651Z</time></trkpt><trkpt lat="46.5134575" lon="13.0014948"><ele>530.0</ele><time>2026-04-22T11:03:46.651Z</time></trkpt><trkpt lat="46.5134228" lon="13.0013593"><ele>530.0</ele><time>2026-04-22T11:03:47.65Z</time></trkpt><trkpt lat="46.5133851" lon="13.0011919"><ele>530.0</ele><time>2026-04-22T11:03:48.651Z</time></trkpt><trkpt lat="46.5133565" lon="13.0010044"><ele>530.0</ele><time>2026-04-22T11:03:49.651Z</time></trkpt><trkpt lat="46.5133308" lon="13.0008141"><ele>529.0</ele><time>2026-04-22T11:03:50.651Z</time></trkpt><trkpt lat="46.5132938" lon="13.000607"><ele>528.0</ele><time>2026-04-22T11:03:51.65Z</time></trkpt><trkpt lat="46.513262" lon="13.0003916"><ele>527.0</ele><time>2026-04-22T11:03:52.65Z</time></trkpt><trkpt lat="46.5132396" lon="13.0001706"><ele>527.0</ele><time>2026-04-22T11:03:53.65Z</time></trkpt><trkpt lat="46.5132225" lon="12.9999445"><ele>527.0</ele><time>2026-04-22T11:03:54.65Z</time></trkpt><trkpt lat="46.513214" lon="12.9997146"><ele>527.0</ele><time>2026-04-22T11:03:55.65Z</time></trkpt><trkpt lat="46.5132132" lon="12.9994852"><ele>527.0</ele><time>2026-04-22T11:03:56.65Z</time></trkpt><trkpt lat="46.5132179" lon="12.9992591"><ele>527.0</ele><time>2026-04-22T11:03:57.651Z</time></trkpt><trkpt lat="46.5132229" lon="12.9990346"><ele>527.0</ele><time>2026-04-22T11:03:58.651Z</time></trkpt><trkpt lat="46.5132281" lon="12.9988135"><ele>527.0</ele><time>2026-04-22T11:03:59.651Z</time></trkpt><trkpt lat="46.5132354" lon="12.9985992"><ele>527.0</ele><time>2026-04-22T11:04:00.65Z</time></trkpt><trkpt lat="46.5132428" lon="12.9983905"><ele>527.0</ele><time>2026-04-22T11:04:01.65Z</time></trkpt><trkpt lat="46.5132489" lon="12.9981892"><ele>527.0</ele><time>2026-04-22T11:04:02.65Z</time></trkpt><trkpt lat="46.5132549" lon="12.9979913"><ele>527.0</ele><time>2026-04-22T11:04:03.65Z</time></trkpt><trkpt lat="46.513261" lon="12.9977944"><ele>527.0</ele><time>2026-04-22T11:04:04.651Z</time></trkpt><trkpt lat="46.5132683" lon="12.9975964"><ele>527.0</ele><time>2026-04-22T11:04:05.65Z</time></trkpt><trkpt lat="46.5132791" lon="12.9973983"><ele>527.0</ele><time>2026-04-22T11:04:06.651Z</time></trkpt><trkpt lat="46.5132953" lon="12.9972004"><ele>527.75</ele><time>2026-04-22T11:04:07.65Z</time></trkpt><trkpt lat="46.5133155" lon="12.9969997"><ele>528.5</ele><time>2026-04-22T11:04:08.651Z</time></trkpt><trkpt lat="46.5133392" lon="12.9967968"><ele>529.25</ele><time>2026-04-22T11:04:09.65Z</time></trkpt><trkpt lat="46.5133656" lon="12.9965915"><ele>530.0</ele><time>2026-04-22T11:04:10.651Z</time></trkpt><trkpt lat="46.5133939" lon="12.9963873"><ele>530.0</ele><time>2026-04-22T11:04:11.651Z</time></trkpt><trkpt lat="46.5134203" lon="12.9961881"><ele>530.0</ele><time>2026-04-22T11:04:12.651Z</time></trkpt><trkpt lat="46.513448" lon="12.9959869"><ele>530.0</ele><time>2026-04-22T11:04:13.65Z</time></trkpt><trkpt lat="46.5134779" lon="12.9957854"><ele>530.0</ele><time>2026-04-22T11:04:14.65Z</time></trkpt><trkpt lat="46.513507" lon="12.9955889"><ele>530.0</ele><time>2026-04-22T11:04:15.651Z</time></trkpt><trkpt lat="46.5135378" lon="12.9953971"><ele>530.0</ele><time>2026-04-22T11:04:16.65Z</time></trkpt><trkpt lat="46.5135696" lon="12.9952151"><ele>530.0</ele><time>2026-04-22T11:04:17.65Z</time></trkpt><trkpt lat="46.5136022" lon="12.9950371"><ele>530.0</ele><time>2026-04-22T11:04:18.651Z</time></trkpt><trkpt lat="46.5136327" lon="12.9948654"><ele>530.0</ele><time>2026-04-22T11:04:19.65Z</time></trkpt><trkpt lat="46.5136606" lon="12.9947034"><ele>530.0</ele><time>2026-04-22T11:04:20.651Z</time></trkpt><trkpt lat="46.5136862" lon="12.9945562"><ele>530.0</ele><time>2026-04-22T11:04:21.651Z</time></trkpt><trkpt lat="46.5137096" lon="12.994423"><ele>530.0</ele><time>2026-04-22T11:04:22.65Z</time></trkpt><trkpt lat="46.5137281" lon="12.994307"><ele>530.0</ele><time>2026-04-22T11:04:23.65Z</time></trkpt><trkpt lat="46.5137598" lon="12.9941958"><ele>530.2</ele><time>2026-04-22T11:04:24.65Z</time></trkpt><trkpt lat="46.5138275" lon="12.994102"><ele>530.4</ele><time>2026-04-22T11:04:25.651Z</time></trkpt><trkpt lat="46.5139204" lon="12.9940384"><ele>530.6</ele><time>2026-04-22T11:04:26.65Z</time></trkpt><trkpt lat="46.5140295" lon="12.9940233"><ele>530.8</ele><time>2026-04-22T11:04:27.65Z</time></trkpt><trkpt lat="46.5141559" lon="12.9940716"><ele>531.0</ele><time>2026-04-22T11:04:28.651Z</time></trkpt><trkpt lat="46.5142968" lon="12.9941563"><ele>531.0</ele><time>2026-04-22T11:04:29.65Z</time></trkpt><trkpt lat="46.5144324" lon="12.994248"><ele>531.0</ele><time>2026-04-22T11:04:30.65Z</time></trkpt><trkpt lat="46.5145702" lon="12.9943402"><ele>531.0</ele><time>2026-04-22T11:04:31.651Z</time></trkpt><trkpt lat="46.5146975" lon="12.9944299"><ele>531.0</ele><time>2026-04-22T11:04:32.65Z</time></trkpt><trkpt lat="46.5148164" lon="12.9945125"><ele>532.0</ele><time>2026-04-22T11:04:33.65Z</time></trkpt><trkpt lat="46.5149246" lon="12.994591"><ele>533.0</ele><time>2026-04-22T11:04:34.652Z</time></trkpt><trkpt lat="46.5150284" lon="12.9946588"><ele>534.0</ele><time>2026-04-22T11:04:35.65Z</time></trkpt><trkpt lat="46.5151355" lon="12.9947225"><ele>535.0</ele><time>2026-04-22T11:04:36.65Z</time></trkpt><trkpt lat="46.5152796" lon="12.9947975"><ele>535.6666666666667</ele><time>2026-04-22T11:04:37.651Z</time></trkpt><trkpt lat="46.5154473" lon="12.9949135"><ele>536.3333333333334</ele><time>2026-04-22T11:04:38.65Z</time></trkpt><trkpt lat="46.5156071" lon="12.9950462"><ele>537.0</ele><time>2026-04-22T11:04:39.65Z</time></trkpt><trkpt lat="46.5157942" lon="12.9951906"><ele>537.0</ele><time>2026-04-22T11:04:40.651Z</time></trkpt><trkpt lat="46.5160112" lon="12.9953472"><ele>537.0</ele><time>2026-04-22T11:04:41.651Z</time></trkpt><trkpt lat="46.5162136" lon="12.9954875"><ele>538.0</ele><time>2026-04-22T11:04:42.65Z</time></trkpt><trkpt lat="46.5164149" lon="12.9956253"><ele>539.0</ele><time>2026-04-22T11:04:43.651Z</time></trkpt><trkpt lat="46.5166149" lon="12.9957639"><ele>540.0</ele><time>2026-04-22T11:04:44.65Z</time></trkpt><trkpt lat="46.516819" lon="12.9958776"><ele>539.3333333333334</ele><time>2026-04-22T11:04:45.65Z</time></trkpt><trkpt lat="46.5170328" lon="12.9959616"><ele>538.6666666666667</ele><time>2026-04-22T11:04:46.651Z</time></trkpt><trkpt lat="46.5172367" lon="12.9960283"><ele>538.0</ele><time>2026-04-22T11:04:47.65Z</time></trkpt><trkpt lat="46.5174276" lon="12.9961022"><ele>538.0</ele><time>2026-04-22T11:04:48.65Z</time></trkpt><trkpt lat="46.5176041" lon="12.9961963"><ele>538.0</ele><time>2026-04-22T11:04:49.65Z</time></trkpt><trkpt lat="46.5177776" lon="12.9963103"><ele>538.0</ele><time>2026-04-22T11:04:50.65Z</time></trkpt><trkpt lat="46.5179462" lon="12.9964263"><ele>537.3333333333334</ele><time>2026-04-22T11:04:51.651Z</time></trkpt><trkpt lat="46.5181082" lon="12.9965456"><ele>536.6666666666666</ele><time>2026-04-22T11:04:52.651Z</time></trkpt><trkpt lat="46.5182724" lon="12.9966596"><ele>536.0</ele><time>2026-04-22T11:04:53.651Z</time></trkpt><trkpt lat="46.5184347" lon="12.9967686"><ele>536.0</ele><time>2026-04-22T11:04:54.65Z</time></trkpt><trkpt lat="46.5186009" lon="12.9968645"><ele>536.0</ele><time>2026-04-22T11:04:55.65Z</time></trkpt><trkpt lat="46.5187715" lon="12.9969359"><ele>536.0</ele><time>2026-04-22T11:04:56.65Z</time></trkpt><trkpt lat="46.5189517" lon="12.9969715"><ele>537.6666666666666</ele><time>2026-04-22T11:04:57.651Z</time></trkpt><trkpt lat="46.5191374" lon="12.9969965"><ele>539.3333333333334</ele><time>2026-04-22T11:04:58.651Z</time></trkpt><trkpt lat="46.5193282" lon="12.9970122"><ele>541.0</ele><time>2026-04-22T11:04:59.65Z</time></trkpt><trkpt lat="46.519517" lon="12.9970208"><ele>542.0</ele><time>2026-04-22T11:05:00.65Z</time></trkpt><trkpt lat="46.519699" lon="12.9970257"><ele>543.0</ele><time>2026-04-22T11:05:01.65Z</time></trkpt><trkpt lat="46.5198751" lon="12.9970361"><ele>544.0</ele><time>2026-04-22T11:05:02.651Z</time></trkpt><trkpt lat="46.520043" lon="12.9970467"><ele>544.0</ele><time>2026-04-22T11:05:03.65Z</time></trkpt><trkpt lat="46.5202094" lon="12.9970455"><ele>544.0</ele><time>2026-04-22T11:05:04.651Z</time></trkpt><trkpt lat="46.5203741" lon="12.9970187"><ele>544.0</ele><time>2026-04-22T11:05:05.65Z</time></trkpt><trkpt lat="46.5205421" lon="12.9969378"><ele>544.6666666666667</ele><time>2026-04-22T11:05:06.65Z</time></trkpt><trkpt lat="46.5207128" lon="12.9968665"><ele>545.3333333333334</ele><time>2026-04-22T11:05:07.65Z</time></trkpt><trkpt lat="46.5208965" lon="12.9968303"><ele>546.0</ele><time>2026-04-22T11:05:08.651Z</time></trkpt><trkpt lat="46.5210815" lon="12.9968056"><ele>545.6666666666666</ele><time>2026-04-22T11:05:09.65Z</time></trkpt><trkpt lat="46.5212598" lon="12.9967876"><ele>545.3333333333333</ele><time>2026-04-22T11:05:10.65Z</time></trkpt><trkpt lat="46.5214297" lon="12.9967724"><ele>545.0</ele><time>2026-04-22T11:05:11.65Z</time></trkpt><trkpt lat="46.5215883" lon="12.9967648"><ele>545.0</ele><time>2026-04-22T11:05:12.65Z</time></trkpt><trkpt lat="46.5217384" lon="12.9967776"><ele>545.0</ele><time>2026-04-22T11:05:13.65Z</time></trkpt><trkpt lat="46.5218896" lon="12.996837"><ele>545.0</ele><time>2026-04-22T11:05:14.651Z</time></trkpt><trkpt lat="46.522053" lon="12.9969259"><ele>546.0</ele><time>2026-04-22T11:05:15.65Z</time></trkpt><trkpt lat="46.5222051" lon="12.9970271"><ele>547.0</ele><time>2026-04-22T11:05:16.65Z</time></trkpt><trkpt lat="46.5223561" lon="12.9971319"><ele>548.0</ele><time>2026-04-22T11:05:17.65Z</time></trkpt><trkpt lat="46.5225057" lon="12.9972337"><ele>548.0</ele><time>2026-04-22T11:05:18.651Z</time></trkpt><trkpt lat="46.5226546" lon="12.9973391"><ele>548.0</ele><time>2026-04-22T11:05:19.65Z</time></trkpt><trkpt lat="46.5228079" lon="12.9974317"><ele>548.0</ele><time>2026-04-22T11:05:20.651Z</time></trkpt><trkpt lat="46.52297" lon="12.99749"><ele>549.3333333333333</ele><time>2026-04-22T11:05:21.651Z</time></trkpt><trkpt lat="46.5231397" lon="12.9975121"><ele>550.6666666666666</ele><time>2026-04-22T11:05:22.651Z</time></trkpt><trkpt lat="46.5233119" lon="12.9975032"><ele>552.0</ele><time>2026-04-22T11:05:23.65Z</time></trkpt><trkpt lat="46.5234837" lon="12.99746"><ele>552.6666666666666</ele><time>2026-04-22T11:05:24.65Z</time></trkpt><trkpt lat="46.5236489" lon="12.9973725"><ele>553.3333333333333</ele><time>2026-04-22T11:05:25.651Z</time></trkpt><trkpt lat="46.5238062" lon="12.9972433"><ele>554.0</ele><time>2026-04-22T11:05:26.65Z</time></trkpt><trkpt lat="46.523956" lon="12.9970778"><ele>554.0</ele><time>2026-04-22T11:05:27.65Z</time></trkpt><trkpt lat="46.5240915" lon="12.9968767"><ele>554.0</ele><time>2026-04-22T11:05:28.651Z</time></trkpt><trkpt lat="46.5242021" lon="12.9966386"><ele>554.0</ele><time>2026-04-22T11:05:29.65Z</time></trkpt><trkpt lat="46.5242804" lon="12.9963686"><ele>555.0</ele><time>2026-04-22T11:05:30.65Z</time></trkpt><trkpt lat="46.5243359" lon="12.9960463"><ele>556.0</ele><time>2026-04-22T11:05:31.65Z</time></trkpt><trkpt lat="46.5243708" lon="12.995688"><ele>557.0</ele><time>2026-04-22T11:05:32.651Z</time></trkpt><trkpt lat="46.5243988" lon="12.995342"><ele>558.0</ele><time>2026-04-22T11:05:33.65Z</time></trkpt><trkpt lat="46.524426" lon="12.9949998"><ele>558.0</ele><time>2026-04-22T11:05:34.65Z</time></trkpt><trkpt lat="46.5244524" lon="12.9946573"><ele>558.0</ele><time>2026-04-22T11:05:35.651Z</time></trkpt><trkpt lat="46.5244792" lon="12.9943264"><ele>558.0</ele><time>2026-04-22T11:05:36.651Z</time></trkpt><trkpt lat="46.5245043" lon="12.9939899"><ele>558.0</ele><time>2026-04-22T11:05:37.651Z</time></trkpt><trkpt lat="46.5245291" lon="12.993663"><ele>558.0</ele><time>2026-04-22T11:05:38.65Z</time></trkpt><trkpt lat="46.524552" lon="12.9933389"><ele>558.0</ele><time>2026-04-22T11:05:39.65Z</time></trkpt><trkpt lat="46.5245774" lon="12.9930134"><ele>563.3333333333334</ele><time>2026-04-22T11:05:40.65Z</time></trkpt><trkpt lat="46.5246043" lon="12.9926937"><ele>568.6666666666667</ele><time>2026-04-22T11:05:41.65Z</time></trkpt><trkpt lat="46.5246307" lon="12.9923769"><ele>574.0</ele><time>2026-04-22T11:05:42.651Z</time></trkpt><trkpt lat="46.5246537" lon="12.9920638"><ele>574.6666666666667</ele><time>2026-04-22T11:05:43.65Z</time></trkpt><trkpt lat="46.5246778" lon="12.9917547"><ele>575.3333333333334</ele><time>2026-04-22T11:05:44.65Z</time></trkpt><trkpt lat="46.5247027" lon="12.991443"><ele>576.0</ele><time>2026-04-22T11:05:45.65Z</time></trkpt><trkpt lat="46.5247281" lon="12.991139"><ele>576.6666666666666</ele><time>2026-04-22T11:05:46.65Z</time></trkpt><trkpt lat="46.524753" lon="12.9908352"><ele>577.3333333333333</ele><time>2026-04-22T11:05:47.651Z</time></trkpt><trkpt lat="46.5247753" lon="12.9905331"><ele>578.0</ele><time>2026-04-22T11:05:48.651Z</time></trkpt><trkpt lat="46.524796" lon="12.9902338"><ele>579.6666666666666</ele><time>2026-04-22T11:05:49.65Z</time></trkpt><trkpt lat="46.5248165" lon="12.9899431"><ele>581.3333333333334</ele><time>2026-04-22T11:05:50.652Z</time></trkpt><trkpt lat="46.5248376" lon="12.9896605"><ele>583.0</ele><time>2026-04-22T11:05:51.65Z</time></trkpt><trkpt lat="46.5248566" lon="12.9893833"><ele>582.0</ele><time>2026-04-22T11:05:52.651Z</time></trkpt><trkpt lat="46.5248774" lon="12.9891128"><ele>581.0</ele><time>2026-04-22T11:05:53.65Z</time></trkpt><trkpt lat="46.5248991" lon="12.9888473"><ele>580.0</ele><time>2026-04-22T11:05:54.651Z</time></trkpt><trkpt lat="46.5249316" lon="12.988587"><ele>579.6666666666667</ele><time>2026-04-22T11:05:55.65Z</time></trkpt><trkpt lat="46.5249844" lon="12.988332"><ele>579.3333333333334</ele><time>2026-04-22T11:05:56.651Z</time></trkpt><trkpt lat="46.5250532" lon="12.9880841"><ele>579.0</ele><time>2026-04-22T11:05:57.651Z</time></trkpt><trkpt lat="46.5251345" lon="12.9878353"><ele>579.0</ele><time>2026-04-22T11:05:58.65Z</time></trkpt><trkpt lat="46.5252194" lon="12.9875837"><ele>579.0</ele><time>2026-04-22T11:05:59.65Z</time></trkpt><trkpt lat="46.5253066" lon="12.9873305"><ele>579.0</ele><time>2026-04-22T11:06:00.65Z</time></trkpt><trkpt lat="46.5253913" lon="12.9870769"><ele>583.6666666666666</ele><time>2026-04-22T11:06:01.65Z</time></trkpt><trkpt lat="46.5254779" lon="12.986822"><ele>588.3333333333333</ele><time>2026-04-22T11:06:02.65Z</time></trkpt><trkpt lat="46.5255628" lon="12.9865648"><ele>593.0</ele><time>2026-04-22T11:06:03.65Z</time></trkpt><trkpt lat="46.5256488" lon="12.9863082"><ele>593.0</ele><time>2026-04-22T11:06:04.65Z</time></trkpt><trkpt lat="46.5257349" lon="12.9860547"><ele>593.0</ele><time>2026-04-22T11:06:05.65Z</time></trkpt><trkpt lat="46.5258255" lon="12.9857933"><ele>593.0</ele><time>2026-04-22T11:06:06.65Z</time></trkpt><trkpt lat="46.5259221" lon="12.9855118"><ele>592.0</ele><time>2026-04-22T11:06:07.651Z</time></trkpt><trkpt lat="46.5260117" lon="12.9852374"><ele>591.0</ele><time>2026-04-22T11:06:08.651Z</time></trkpt><trkpt lat="46.5260886" lon="12.9849612"><ele>590.0</ele><time>2026-04-22T11:06:09.65Z</time></trkpt><trkpt lat="46.5261521" lon="12.9846821"><ele>589.3333333333333</ele><time>2026-04-22T11:06:10.65Z</time></trkpt><trkpt lat="46.5262061" lon="12.9844018"><ele>588.6666666666666</ele><time>2026-04-22T11:06:11.65Z</time></trkpt><trkpt lat="46.5262494" lon="12.9841223"><ele>588.0</ele><time>2026-04-22T11:06:12.65Z</time></trkpt><trkpt lat="46.5262988" lon="12.983841"><ele>593.6666666666666</ele><time>2026-04-22T11:06:13.65Z</time></trkpt><trkpt lat="46.5263643" lon="12.9835536"><ele>599.3333333333333</ele><time>2026-04-22T11:06:14.651Z</time></trkpt><trkpt lat="46.5264328" lon="12.9832539"><ele>605.0</ele><time>2026-04-22T11:06:15.65Z</time></trkpt><trkpt lat="46.526493" lon="12.9829535"><ele>604.3333333333333</ele><time>2026-04-22T11:06:16.65Z</time></trkpt><trkpt lat="46.5265541" lon="12.9826525"><ele>603.6666666666666</ele><time>2026-04-22T11:06:17.65Z</time></trkpt><trkpt lat="46.5266154" lon="12.9823606"><ele>603.0</ele><time>2026-04-22T11:06:18.65Z</time></trkpt><trkpt lat="46.5266682" lon="12.9820938"><ele>603.0</ele><time>2026-04-22T11:06:19.65Z</time></trkpt><trkpt lat="46.5267177" lon="12.9818438"><ele>603.0</ele><time>2026-04-22T11:06:20.65Z</time></trkpt><trkpt lat="46.5267657" lon="12.9816097"><ele>603.0</ele><time>2026-04-22T11:06:21.65Z</time></trkpt><trkpt lat="46.5268119" lon="12.9813837"><ele>602.5</ele><time>2026-04-22T11:06:22.651Z</time></trkpt><trkpt lat="46.5268544" lon="12.9811749"><ele>602.0</ele><time>2026-04-22T11:06:23.651Z</time></trkpt><trkpt lat="46.5268886" lon="12.9809931"><ele>601.5</ele><time>2026-04-22T11:06:24.651Z</time></trkpt><trkpt lat="46.5269162" lon="12.9808552"><ele>601.0</ele><time>2026-04-22T11:06:25.651Z</time></trkpt><trkpt lat="46.5269408" lon="12.9807337"><ele>600.75</ele><time>2026-04-22T11:06:26.65Z</time></trkpt><trkpt lat="46.5269621" lon="12.9806155"><ele>600.5</ele><time>2026-04-22T11:06:27.65Z</time></trkpt><trkpt lat="46.5269832" lon="12.9804758"><ele>600.25</ele><time>2026-04-22T11:06:28.651Z</time></trkpt><trkpt lat="46.5270209" lon="12.980303"><ele>600.0</ele><time>2026-04-22T11:06:29.652Z</time></trkpt><trkpt lat="46.5270643" lon="12.9800908"><ele>605.6666666666666</ele><time>2026-04-22T11:06:30.651Z</time></trkpt><trkpt lat="46.5271037" lon="12.9798776"><ele>611.3333333333333</ele><time>2026-04-22T11:06:31.65Z</time></trkpt><trkpt lat="46.5271196" lon="12.979632"><ele>617.0</ele><time>2026-04-22T11:06:32.65Z</time></trkpt><trkpt lat="46.5271167" lon="12.9793459"><ele>621.6666666666666</ele><time>2026-04-22T11:06:33.65Z</time></trkpt><trkpt lat="46.5271066" lon="12.9790707"><ele>626.3333333333334</ele><time>2026-04-22T11:06:34.65Z</time></trkpt><trkpt lat="46.5270951" lon="12.9787781"><ele>631.0</ele><time>2026-04-22T11:06:35.651Z</time></trkpt><trkpt lat="46.5270819" lon="12.9784727"><ele>632.6666666666667</ele><time>2026-04-22T11:06:36.65Z</time></trkpt><trkpt lat="46.5270689" lon="12.9781701"><ele>634.3333333333334</ele><time>2026-04-22T11:06:37.65Z</time></trkpt><trkpt lat="46.5270549" lon="12.9778696"><ele>636.0</ele><time>2026-04-22T11:06:38.651Z</time></trkpt><trkpt lat="46.5270352" lon="12.9775699"><ele>627.0</ele><time>2026-04-22T11:06:39.65Z</time></trkpt><trkpt lat="46.5270072" lon="12.9772737"><ele>618.0</ele><time>2026-04-22T11:06:40.65Z</time></trkpt><trkpt lat="46.5269779" lon="12.9769839"><ele>609.0</ele><time>2026-04-22T11:06:41.651Z</time></trkpt><trkpt lat="46.5269477" lon="12.9767042"><ele>611.6666666666666</ele><time>2026-04-22T11:06:42.65Z</time></trkpt><trkpt lat="46.5269188" lon="12.976436"><ele>614.3333333333333</ele><time>2026-04-22T11:06:43.65Z</time></trkpt><trkpt lat="46.5268909" lon="12.9761771"><ele>617.0</ele><time>2026-04-22T11:06:44.65Z</time></trkpt><trkpt lat="46.5268667" lon="12.9759267"><ele>618.3333333333333</ele><time>2026-04-22T11:06:45.65Z</time></trkpt><trkpt lat="46.5268403" lon="12.9756847"><ele>619.6666666666666</ele><time>2026-04-22T11:06:46.651Z</time></trkpt><trkpt lat="46.5268156" lon="12.975443"><ele>621.0</ele><time>2026-04-22T11:06:47.652Z</time></trkpt><trkpt lat="46.526795" lon="12.9751994"><ele>621.3333333333334</ele><time>2026-04-22T11:06:48.65Z</time></trkpt><trkpt lat="46.5267773" lon="12.9749463"><ele>621.6666666666667</ele><time>2026-04-22T11:06:49.65Z</time></trkpt><trkpt lat="46.5267613" lon="12.9746792"><ele>622.0</ele><time>2026-04-22T11:06:50.65Z</time></trkpt><trkpt lat="46.5267589" lon="12.9744332"><ele>622.0</ele><time>2026-04-22T11:06:51.65Z</time></trkpt><trkpt lat="46.5267869" lon="12.9742012"><ele>622.0</ele><time>2026-04-22T11:06:52.65Z</time></trkpt><trkpt lat="46.5268389" lon="12.9739697"><ele>622.0</ele><time>2026-04-22T11:06:53.652Z</time></trkpt><trkpt lat="46.5269035" lon="12.9737148"><ele>621.6666666666667</ele><time>2026-04-22T11:06:54.65Z</time></trkpt><trkpt lat="46.5269726" lon="12.9734467"><ele>621.3333333333334</ele><time>2026-04-22T11:06:55.65Z</time></trkpt><trkpt lat="46.527036" lon="12.9732028"><ele>621.0</ele><time>2026-04-22T11:06:56.65Z</time></trkpt><trkpt lat="46.5270966" lon="12.9729775"><ele>626.75</ele><time>2026-04-22T11:06:57.65Z</time></trkpt><trkpt lat="46.5271546" lon="12.9727699"><ele>632.5</ele><time>2026-04-22T11:06:58.65Z</time></trkpt><trkpt lat="46.527207" lon="12.9725744"><ele>638.25</ele><time>2026-04-22T11:06:59.65Z</time></trkpt><trkpt lat="46.5272573" lon="12.9724046"><ele>644.0</ele><time>2026-04-22T11:07:00.65Z</time></trkpt><trkpt lat="46.5273014" lon="12.9722447"><ele>644.0</ele><time>2026-04-22T11:07:01.65Z</time></trkpt><trkpt lat="46.5273389" lon="12.9720949"><ele>644.0</ele><time>2026-04-22T11:07:02.65Z</time></trkpt><trkpt lat="46.5273816" lon="12.9719528"><ele>644.0</ele><time>2026-04-22T11:07:03.65Z</time></trkpt><trkpt lat="46.5274202" lon="12.9718222"><ele>644.0</ele><time>2026-04-22T11:07:04.651Z</time></trkpt><trkpt lat="46.5274563" lon="12.9716955"><ele>644.0</ele><time>2026-04-22T11:07:05.65Z</time></trkpt><trkpt lat="46.527487" lon="12.9715775"><ele>643.1666666666666</ele><time>2026-04-22T11:07:06.65Z</time></trkpt><trkpt lat="46.5275156" lon="12.9714683"><ele>642.3333333333333</ele><time>2026-04-22T11:07:07.65Z</time></trkpt><trkpt lat="46.5275391" lon="12.9713667"><ele>641.5</ele><time>2026-04-22T11:07:08.65Z</time></trkpt><trkpt lat="46.5275533" lon="12.9712745"><ele>640.6666666666666</ele><time>2026-04-22T11:07:09.65Z</time></trkpt><trkpt lat="46.5275702" lon="12.9711297"><ele>639.8333333333334</ele><time>2026-04-22T11:07:11.65Z</time></trkpt><trkpt lat="46.5275755" lon="12.9710232"><ele>639.0</ele><time>2026-04-22T11:07:13.65Z</time></trkpt><trkpt lat="46.527582" lon="12.9709123"><ele>639.6</ele><time>2026-04-22T11:07:17.65Z</time></trkpt><trkpt lat="46.5275912" lon="12.970808"><ele>640.2</ele><time>2026-04-22T11:07:20.651Z</time></trkpt><trkpt lat="46.5275882" lon="12.970716"><ele>640.8000000000001</ele><time>2026-04-22T11:08:16.649Z</time></trkpt><trkpt lat="46.527589" lon="12.9705427"><ele>641.4</ele><time>2026-04-22T11:08:18.649Z</time></trkpt><trkpt lat="46.5276055" lon="12.9704188"><ele>642.0</ele><time>2026-04-22T11:08:19.649Z</time></trkpt><trkpt lat="46.5276205" lon="12.9702504"><ele>642.0</ele><time>2026-04-22T11:08:20.65Z</time></trkpt><trkpt lat="46.527631" lon="12.9700972"><ele>642.0</ele><time>2026-04-22T11:08:21.649Z</time></trkpt><trkpt lat="46.5276452" lon="12.9699054"><ele>642.0</ele><time>2026-04-22T11:08:22.649Z</time></trkpt><trkpt lat="46.5276571" lon="12.9697183"><ele>642.0</ele><time>2026-04-22T11:08:23.649Z</time></trkpt><trkpt lat="46.5276688" lon="12.9695412"><ele>645.75</ele><time>2026-04-22T11:08:24.649Z</time></trkpt><trkpt lat="46.5276797" lon="12.9693756"><ele>649.5</ele><time>2026-04-22T11:08:25.649Z</time></trkpt><trkpt lat="46.5276924" lon="12.9692167"><ele>653.25</ele><time>2026-04-22T11:08:26.649Z</time></trkpt><trkpt lat="46.5277142" lon="12.9690568"><ele>657.0</ele><time>2026-04-22T11:08:27.649Z</time></trkpt><trkpt lat="46.5277464" lon="12.9688912"><ele>661.0</ele><time>2026-04-22T11:08:28.649Z</time></trkpt><trkpt lat="46.5277948" lon="12.9687086"><ele>665.0</ele><time>2026-04-22T11:08:29.649Z</time></trkpt><trkpt lat="46.5278561" lon="12.9685152"><ele>669.0</ele><time>2026-04-22T11:08:30.65Z</time></trkpt><trkpt lat="46.5279176" lon="12.9683346"><ele>673.0</ele><time>2026-04-22T11:08:31.649Z</time></trkpt><trkpt lat="46.527989" lon="12.9681328"><ele>673.0</ele><time>2026-04-22T11:08:32.649Z</time></trkpt><trkpt lat="46.5280594" lon="12.9679345"><ele>673.0</ele><time>2026-04-22T11:08:33.65Z</time></trkpt><trkpt lat="46.5281258" lon="12.9677407"><ele>673.0</ele><time>2026-04-22T11:08:34.649Z</time></trkpt><trkpt lat="46.5281908" lon="12.9675601"><ele>673.0</ele><time>2026-04-22T11:08:35.649Z</time></trkpt><trkpt lat="46.5282491" lon="12.967384"><ele>667.3333333333334</ele><time>2026-04-22T11:08:36.65Z</time></trkpt><trkpt lat="46.5282751" lon="12.9671898"><ele>661.6666666666666</ele><time>2026-04-22T11:08:37.65Z</time></trkpt><trkpt lat="46.5282813" lon="12.9669641"><ele>656.0</ele><time>2026-04-22T11:08:38.65Z</time></trkpt><trkpt lat="46.5282517" lon="12.9667217"><ele>659.0</ele><time>2026-04-22T11:08:39.649Z</time></trkpt><trkpt lat="46.5281953" lon="12.9664619"><ele>662.0</ele><time>2026-04-22T11:08:40.649Z</time></trkpt><trkpt lat="46.5281167" lon="12.9662219"><ele>665.0</ele><time>2026-04-22T11:08:41.649Z</time></trkpt><trkpt lat="46.5280443" lon="12.9659761"><ele>663.6666666666666</ele><time>2026-04-22T11:08:42.65Z</time></trkpt><trkpt lat="46.5279861" lon="12.9657329"><ele>662.3333333333334</ele><time>2026-04-22T11:08:43.649Z</time></trkpt><trkpt lat="46.5279288" lon="12.9655012"><ele>661.0</ele><time>2026-04-22T11:08:44.649Z</time></trkpt><trkpt lat="46.5278663" lon="12.9652773"><ele>661.0</ele><time>2026-04-22T11:08:45.649Z</time></trkpt><trkpt lat="46.5278168" lon="12.9650562"><ele>661.0</ele><time>2026-04-22T11:08:46.649Z</time></trkpt><trkpt lat="46.5278009" lon="12.9648223"><ele>661.0</ele><time>2026-04-22T11:08:47.649Z</time></trkpt><trkpt lat="46.527812" lon="12.9645856"><ele>662.0</ele><time>2026-04-22T11:08:48.65Z</time></trkpt><trkpt lat="46.527849" lon="12.9643629"><ele>663.0</ele><time>2026-04-22T11:08:49.649Z</time></trkpt><trkpt lat="46.527907" lon="12.9641497"><ele>664.0</ele><time>2026-04-22T11:08:50.651Z</time></trkpt><trkpt lat="46.5279864" lon="12.9639549"><ele>669.75</ele><time>2026-04-22T11:08:51.649Z</time></trkpt><trkpt lat="46.5280955" lon="12.9637994"><ele>675.5</ele><time>2026-04-22T11:08:52.649Z</time></trkpt><trkpt lat="46.5282238" lon="12.9636848"><ele>681.25</ele><time>2026-04-22T11:08:53.65Z</time></trkpt><trkpt lat="46.5283384" lon="12.9635964"><ele>687.0</ele><time>2026-04-22T11:08:54.649Z</time></trkpt><trkpt lat="46.5284589" lon="12.9635197"><ele>687.0</ele><time>2026-04-22T11:08:55.649Z</time></trkpt><trkpt lat="46.5285544" lon="12.9633875"><ele>687.0</ele><time>2026-04-22T11:08:56.649Z</time></trkpt><trkpt lat="46.5286278" lon="12.9631893"><ele>687.0</ele><time>2026-04-22T11:08:57.649Z</time></trkpt><trkpt lat="46.5287215" lon="12.9630144"><ele>687.0</ele><time>2026-04-22T11:08:58.649Z</time></trkpt><trkpt lat="46.5288423" lon="12.9628495"><ele>687.6666666666666</ele><time>2026-04-22T11:08:59.649Z</time></trkpt><trkpt lat="46.5289715" lon="12.962715"><ele>688.3333333333333</ele><time>2026-04-22T11:09:00.649Z</time></trkpt><trkpt lat="46.529108" lon="12.9626217"><ele>689.0</ele><time>2026-04-22T11:09:01.649Z</time></trkpt><trkpt lat="46.5292413" lon="12.9625502"><ele>690.5</ele><time>2026-04-22T11:09:02.649Z</time></trkpt><trkpt lat="46.5293696" lon="12.9624866"><ele>692.0</ele><time>2026-04-22T11:09:03.65Z</time></trkpt><trkpt lat="46.5294842" lon="12.9624196"><ele>693.5</ele><time>2026-04-22T11:09:04.65Z</time></trkpt><trkpt lat="46.5295916" lon="12.9623717"><ele>695.0</ele><time>2026-04-22T11:09:05.649Z</time></trkpt><trkpt lat="46.5296825" lon="12.962334"><ele>695.0</ele><time>2026-04-22T11:09:06.649Z</time></trkpt><trkpt lat="46.5297497" lon="12.9622689"><ele>695.0</ele><time>2026-04-22T11:09:07.649Z</time></trkpt><trkpt lat="46.5297802" lon="12.962171"><ele>695.0</ele><time>2026-04-22T11:09:08.65Z</time></trkpt><trkpt lat="46.5297664" lon="12.9620634"><ele>695.0</ele><time>2026-04-22T11:09:09.65Z</time></trkpt><trkpt lat="46.529706" lon="12.9619625"><ele>695.0</ele><time>2026-04-22T11:09:10.649Z</time></trkpt><trkpt lat="46.5296245" lon="12.9618724"><ele>695.0</ele><time>2026-04-22T11:09:11.649Z</time></trkpt><trkpt lat="46.5295651" lon="12.9617601"><ele>693.0</ele><time>2026-04-22T11:09:12.649Z</time></trkpt><trkpt lat="46.5295256" lon="12.9616153"><ele>691.0</ele><time>2026-04-22T11:09:13.649Z</time></trkpt><trkpt lat="46.5295178" lon="12.9614406"><ele>689.0</ele><time>2026-04-22T11:09:14.649Z</time></trkpt><trkpt lat="46.5295452" lon="12.9612264"><ele>687.0</ele><time>2026-04-22T11:09:15.649Z</time></trkpt><trkpt lat="46.5295778" lon="12.9610119"><ele>693.0</ele><time>2026-04-22T11:09:16.649Z</time></trkpt><trkpt lat="46.5295833" lon="12.9607704"><ele>699.0</ele><time>2026-04-22T11:09:17.649Z</time></trkpt><trkpt lat="46.5295502" lon="12.9605171"><ele>705.0</ele><time>2026-04-22T11:09:18.649Z</time></trkpt><trkpt lat="46.5295073" lon="12.9603031"><ele>705.0</ele><time>2026-04-22T11:09:19.65Z</time></trkpt><trkpt lat="46.5294438" lon="12.9601114"><ele>705.0</ele><time>2026-04-22T11:09:20.649Z</time></trkpt><trkpt lat="46.5293487" lon="12.9599661"><ele>705.0</ele><time>2026-04-22T11:09:21.65Z</time></trkpt><trkpt lat="46.5292256" lon="12.95984"><ele>705.0</ele><time>2026-04-22T11:09:22.649Z</time></trkpt><trkpt lat="46.5291193" lon="12.959722"><ele>705.5</ele><time>2026-04-22T11:09:23.65Z</time></trkpt><trkpt lat="46.5290451" lon="12.9595781"><ele>706.0</ele><time>2026-04-22T11:09:24.65Z</time></trkpt><trkpt lat="46.5290169" lon="12.9594124"><ele>706.5</ele><time>2026-04-22T11:09:25.649Z</time></trkpt><trkpt lat="46.5290295" lon="12.9592337"><ele>707.0</ele><time>2026-04-22T11:09:26.649Z</time></trkpt><trkpt lat="46.5290735" lon="12.9590432"><ele>708.5</ele><time>2026-04-22T11:09:27.649Z</time></trkpt><trkpt lat="46.529096" lon="12.95887"><ele>710.0</ele><time>2026-04-22T11:09:28.649Z</time></trkpt><trkpt lat="46.5290766" lon="12.9586786"><ele>711.5</ele><time>2026-04-22T11:09:29.65Z</time></trkpt><trkpt lat="46.5290107" lon="12.9584696"><ele>713.0</ele><time>2026-04-22T11:09:30.649Z</time></trkpt><trkpt lat="46.5289223" lon="12.9582361"><ele>716.3333333333333</ele><time>2026-04-22T11:09:31.649Z</time></trkpt><trkpt lat="46.5288288" lon="12.9580004"><ele>719.6666666666666</ele><time>2026-04-22T11:09:32.649Z</time></trkpt><trkpt lat="46.5287393" lon="12.9577732"><ele>723.0</ele><time>2026-04-22T11:09:33.651Z</time></trkpt><trkpt lat="46.5286481" lon="12.9575534"><ele>725.75</ele><time>2026-04-22T11:09:34.649Z</time></trkpt><trkpt lat="46.5285682" lon="12.9573578"><ele>728.5</ele><time>2026-04-22T11:09:35.649Z</time></trkpt><trkpt lat="46.528508" lon="12.9571649"><ele>731.25</ele><time>2026-04-22T11:09:36.649Z</time></trkpt><trkpt lat="46.528471" lon="12.9569673"><ele>734.0</ele><time>2026-04-22T11:09:37.649Z</time></trkpt><trkpt lat="46.5284254" lon="12.9567741"><ele>735.0</ele><time>2026-04-22T11:09:38.649Z</time></trkpt><trkpt lat="46.5283387" lon="12.9566"><ele>736.0</ele><time>2026-04-22T11:09:39.65Z</time></trkpt><trkpt lat="46.5282228" lon="12.956424"><ele>737.0</ele><time>2026-04-22T11:09:40.649Z</time></trkpt><trkpt lat="46.5280852" lon="12.9562659"><ele>737.0</ele><time>2026-04-22T11:09:41.65Z</time></trkpt><trkpt lat="46.527914" lon="12.9561339"><ele>737.0</ele><time>2026-04-22T11:09:42.65Z</time></trkpt><trkpt lat="46.5277445" lon="12.9560085"><ele>737.0</ele><time>2026-04-22T11:09:43.651Z</time></trkpt><trkpt lat="46.5276016" lon="12.9558793"><ele>740.0</ele><time>2026-04-22T11:09:44.649Z</time></trkpt><trkpt lat="46.5274767" lon="12.9557556"><ele>743.0</ele><time>2026-04-22T11:09:45.649Z</time></trkpt><trkpt lat="46.5273575" lon="12.9556414"><ele>746.0</ele><time>2026-04-22T11:09:46.649Z</time></trkpt><trkpt lat="46.5272491" lon="12.9555335"><ele>749.0</ele><time>2026-04-22T11:09:47.649Z</time></trkpt><trkpt lat="46.5271744" lon="12.9554047"><ele>749.0</ele><time>2026-04-22T11:09:48.649Z</time></trkpt><trkpt lat="46.5271162" lon="12.9552156"><ele>749.0</ele><time>2026-04-22T11:09:49.649Z</time></trkpt><trkpt lat="46.5270614" lon="12.9549878"><ele>749.0</ele><time>2026-04-22T11:09:50.651Z</time></trkpt><trkpt lat="46.5270059" lon="12.9547531"><ele>755.3333333333333</ele><time>2026-04-22T11:09:51.649Z</time></trkpt><trkpt lat="46.5269519" lon="12.954519"><ele>761.6666666666666</ele><time>2026-04-22T11:09:52.649Z</time></trkpt><trkpt lat="46.5269004" lon="12.9542964"><ele>768.0</ele><time>2026-04-22T11:09:53.649Z</time></trkpt><trkpt lat="46.5268538" lon="12.9540787"><ele>768.3333333333333</ele><time>2026-04-22T11:09:54.649Z</time></trkpt><trkpt lat="46.5268316" lon="12.95385"><ele>768.6666666666666</ele><time>2026-04-22T11:09:55.649Z</time></trkpt><trkpt lat="46.5268209" lon="12.9536173"><ele>769.0</ele><time>2026-04-22T11:09:56.651Z</time></trkpt><trkpt lat="46.5267908" lon="12.9533814"><ele>770.5</ele><time>2026-04-22T11:09:57.649Z</time></trkpt><trkpt lat="46.5267616" lon="12.9531753"><ele>772.0</ele><time>2026-04-22T11:09:58.649Z</time></trkpt><trkpt lat="46.526757" lon="12.9529661"><ele>773.5</ele><time>2026-04-22T11:09:59.649Z</time></trkpt><trkpt lat="46.5267793" lon="12.952745"><ele>775.0</ele><time>2026-04-22T11:10:00.649Z</time></trkpt><trkpt lat="46.5268057" lon="12.9525054"><ele>775.6666666666666</ele><time>2026-04-22T11:10:01.65Z</time></trkpt><trkpt lat="46.5268169" lon="12.9522372"><ele>776.3333333333333</ele><time>2026-04-22T11:10:02.649Z</time></trkpt><trkpt lat="46.5268183" lon="12.9519838"><ele>777.0</ele><time>2026-04-22T11:10:03.649Z</time></trkpt><trkpt lat="46.5268146" lon="12.9517544"><ele>778.0</ele><time>2026-04-22T11:10:04.651Z</time></trkpt><trkpt lat="46.5268204" lon="12.9515396"><ele>779.0</ele><time>2026-04-22T11:10:05.649Z</time></trkpt><trkpt lat="46.5268525" lon="12.9513508"><ele>780.0</ele><time>2026-04-22T11:10:06.649Z</time></trkpt><trkpt lat="46.5269152" lon="12.9511721"><ele>781.0</ele><time>2026-04-22T11:10:07.649Z</time></trkpt><trkpt lat="46.5270028" lon="12.9510063"><ele>786.6666666666666</ele><time>2026-04-22T11:10:08.649Z</time></trkpt><trkpt lat="46.5271018" lon="12.9508322"><ele>792.3333333333333</ele><time>2026-04-22T11:10:09.649Z</time></trkpt><trkpt lat="46.5271927" lon="12.950649"><ele>798.0</ele><time>2026-04-22T11:10:10.649Z</time></trkpt><trkpt lat="46.5272589" lon="12.9504618"><ele>798.0</ele><time>2026-04-22T11:10:11.65Z</time></trkpt><trkpt lat="46.5273083" lon="12.950256"><ele>798.0</ele><time>2026-04-22T11:10:12.649Z</time></trkpt><trkpt lat="46.5273429" lon="12.9500563"><ele>798.0</ele><time>2026-04-22T11:10:13.649Z</time></trkpt><trkpt lat="46.5273669" lon="12.949875"><ele>798.0</ele><time>2026-04-22T11:10:14.65Z</time></trkpt><trkpt lat="46.5273704" lon="12.9496942"><ele>797.6666666666667</ele><time>2026-04-22T11:10:15.649Z</time></trkpt><trkpt lat="46.5273367" lon="12.9495098"><ele>797.3333333333334</ele><time>2026-04-22T11:10:16.649Z</time></trkpt><trkpt lat="46.527271" lon="12.9493098"><ele>797.0</ele><time>2026-04-22T11:10:17.65Z</time></trkpt><trkpt lat="46.527189" lon="12.9490896"><ele>799.6666666666667</ele><time>2026-04-22T11:10:18.649Z</time></trkpt><trkpt lat="46.5271001" lon="12.9488727"><ele>802.3333333333333</ele><time>2026-04-22T11:10:19.649Z</time></trkpt><trkpt lat="46.5270004" lon="12.9486717"><ele>805.0</ele><time>2026-04-22T11:10:20.649Z</time></trkpt><trkpt lat="46.5268881" lon="12.9484758"><ele>806.3333333333333</ele><time>2026-04-22T11:10:21.649Z</time></trkpt><trkpt lat="46.5267778" lon="12.9482875"><ele>807.6666666666667</ele><time>2026-04-22T11:10:22.65Z</time></trkpt><trkpt lat="46.5266786" lon="12.9481094"><ele>809.0</ele><time>2026-04-22T11:10:23.649Z</time></trkpt><trkpt lat="46.5265951" lon="12.9479476"><ele>809.0</ele><time>2026-04-22T11:10:24.649Z</time></trkpt><trkpt lat="46.526517" lon="12.9478139"><ele>809.0</ele><time>2026-04-22T11:10:25.649Z</time></trkpt><trkpt lat="46.5264293" lon="12.9477109"><ele>809.0</ele><time>2026-04-22T11:10:26.65Z</time></trkpt><trkpt lat="46.5263117" lon="12.9476109"><ele>809.0</ele><time>2026-04-22T11:10:27.65Z</time></trkpt><trkpt lat="46.5261759" lon="12.9475077"><ele>812.5</ele><time>2026-04-22T11:10:28.649Z</time></trkpt><trkpt lat="46.5260468" lon="12.9473934"><ele>816.0</ele><time>2026-04-22T11:10:29.65Z</time></trkpt><trkpt lat="46.5259315" lon="12.9472616"><ele>819.5</ele><time>2026-04-22T11:10:30.649Z</time></trkpt><trkpt lat="46.5258275" lon="12.9471075"><ele>823.0</ele><time>2026-04-22T11:10:31.649Z</time></trkpt><trkpt lat="46.5257292" lon="12.9469352"><ele>823.0</ele><time>2026-04-22T11:10:32.649Z</time></trkpt><trkpt lat="46.5256413" lon="12.9467655"><ele>823.0</ele><time>2026-04-22T11:10:33.649Z</time></trkpt><trkpt lat="46.5255672" lon="12.9465801"><ele>823.0</ele><time>2026-04-22T11:10:34.649Z</time></trkpt><trkpt lat="46.5255109" lon="12.9463674"><ele>822.3333333333333</ele><time>2026-04-22T11:10:35.649Z</time></trkpt><trkpt lat="46.5254709" lon="12.9461315"><ele>821.6666666666667</ele><time>2026-04-22T11:10:36.649Z</time></trkpt><trkpt lat="46.5254423" lon="12.9458915"><ele>821.0</ele><time>2026-04-22T11:10:37.649Z</time></trkpt><trkpt lat="46.5254237" lon="12.9456609"><ele>822.5</ele><time>2026-04-22T11:10:38.649Z</time></trkpt><trkpt lat="46.5254026" lon="12.9454449"><ele>824.0</ele><time>2026-04-22T11:10:39.649Z</time></trkpt><trkpt lat="46.5253836" lon="12.945226"><ele>825.5</ele><time>2026-04-22T11:10:40.649Z</time></trkpt><trkpt lat="46.5253636" lon="12.9450137"><ele>827.0</ele><time>2026-04-22T11:10:41.649Z</time></trkpt><trkpt lat="46.5253524" lon="12.9447895"><ele>828.75</ele><time>2026-04-22T11:10:42.649Z</time></trkpt><trkpt lat="46.5253653" lon="12.9445838"><ele>830.5</ele><time>2026-04-22T11:10:43.649Z</time></trkpt><trkpt lat="46.5254097" lon="12.9443881"><ele>832.25</ele><time>2026-04-22T11:10:44.65Z</time></trkpt><trkpt lat="46.5254794" lon="12.9441906"><ele>834.0</ele><time>2026-04-22T11:10:45.649Z</time></trkpt><trkpt lat="46.5255497" lon="12.944026"><ele>835.5</ele><time>2026-04-22T11:10:46.65Z</time></trkpt><trkpt lat="46.525614" lon="12.9438827"><ele>837.0</ele><time>2026-04-22T11:10:47.649Z</time></trkpt><trkpt lat="46.5256659" lon="12.9437683"><ele>838.5</ele><time>2026-04-22T11:10:48.649Z</time></trkpt><trkpt lat="46.5257279" lon="12.9436937"><ele>840.0</ele><time>2026-04-22T11:10:49.65Z</time></trkpt><trkpt lat="46.5258035" lon="12.9436719"><ele>841.5</ele><time>2026-04-22T11:10:50.649Z</time></trkpt><trkpt lat="46.5258762" lon="12.943713"><ele>843.0</ele><time>2026-04-22T11:10:51.65Z</time></trkpt><trkpt lat="46.5259406" lon="12.9438036"><ele>843.0</ele><time>2026-04-22T11:10:52.649Z</time></trkpt><trkpt lat="46.526" lon="12.9439365"><ele>843.0</ele><time>2026-04-22T11:10:53.649Z</time></trkpt><trkpt lat="46.5260573" lon="12.9440832"><ele>843.0</ele><time>2026-04-22T11:10:54.65Z</time></trkpt><trkpt lat="46.5261283" lon="12.9442473"><ele>843.0</ele><time>2026-04-22T11:10:55.649Z</time></trkpt><trkpt lat="46.5262123" lon="12.9443934"><ele>844.25</ele><time>2026-04-22T11:10:56.649Z</time></trkpt><trkpt lat="46.5263049" lon="12.9445164"><ele>845.5</ele><time>2026-04-22T11:10:57.65Z</time></trkpt><trkpt lat="46.5264191" lon="12.9446183"><ele>846.75</ele><time>2026-04-22T11:10:58.649Z</time></trkpt><trkpt lat="46.5265573" lon="12.9447016"><ele>848.0</ele><time>2026-04-22T11:10:59.651Z</time></trkpt><trkpt lat="46.5266966" lon="12.9447662"><ele>848.0</ele><time>2026-04-22T11:11:00.649Z</time></trkpt><trkpt lat="46.5268458" lon="12.9448465"><ele>848.0</ele><time>2026-04-22T11:11:01.649Z</time></trkpt><trkpt lat="46.526979" lon="12.9449516"><ele>848.0</ele><time>2026-04-22T11:11:02.649Z</time></trkpt><trkpt lat="46.5271091" lon="12.9450943"><ele>851.0</ele><time>2026-04-22T11:11:03.651Z</time></trkpt><trkpt lat="46.5272175" lon="12.945237"><ele>854.0</ele><time>2026-04-22T11:11:04.649Z</time></trkpt><trkpt lat="46.5273194" lon="12.9453738"><ele>857.0</ele><time>2026-04-22T11:11:05.649Z</time></trkpt><trkpt lat="46.5273993" lon="12.9455343"><ele>860.0</ele><time>2026-04-22T11:11:06.65Z</time></trkpt><trkpt lat="46.5274523" lon="12.9457201"><ele>858.5</ele><time>2026-04-22T11:11:07.649Z</time></trkpt><trkpt lat="46.5274823" lon="12.9459165"><ele>857.0</ele><time>2026-04-22T11:11:08.649Z</time></trkpt><trkpt lat="46.5275049" lon="12.9460945"><ele>855.5</ele><time>2026-04-22T11:11:09.649Z</time></trkpt><trkpt lat="46.5275403" lon="12.9462483"><ele>854.0</ele><time>2026-04-22T11:11:10.65Z</time></trkpt><trkpt lat="46.5275978" lon="12.9463833"><ele>854.0</ele><time>2026-04-22T11:11:11.65Z</time></trkpt><trkpt lat="46.5276832" lon="12.9465135"><ele>854.0000000000001</ele><time>2026-04-22T11:11:12.649Z</time></trkpt><trkpt lat="46.5277594" lon="12.9466055"><ele>854.0000000000001</ele><time>2026-04-22T11:11:13.649Z</time></trkpt><trkpt lat="46.5278303" lon="12.9466836"><ele>854.0</ele><time>2026-04-22T11:11:14.65Z</time></trkpt><trkpt lat="46.5278973" lon="12.946729"><ele>854.0</ele><time>2026-04-22T11:11:15.649Z</time></trkpt><trkpt lat="46.5279621" lon="12.9467362"><ele>854.0</ele><time>2026-04-22T11:11:16.649Z</time></trkpt><trkpt lat="46.5280174" lon="12.9466362"><ele>854.0000000000001</ele><time>2026-04-22T11:11:18.651Z</time></trkpt><trkpt lat="46.5280006" lon="12.946532"><ele>854.0000000000001</ele><time>2026-04-22T11:11:19.649Z</time></trkpt><trkpt lat="46.5279564" lon="12.9463976"><ele>854.0</ele><time>2026-04-22T11:11:20.649Z</time></trkpt><trkpt lat="46.5279208" lon="12.9462449"><ele>854.0</ele><time>2026-04-22T11:11:21.65Z</time></trkpt><trkpt lat="46.5278921" lon="12.9460686"><ele>856.0</ele><time>2026-04-22T11:11:22.649Z</time></trkpt><trkpt lat="46.5278535" lon="12.9458497"><ele>858.0</ele><time>2026-04-22T11:11:23.649Z</time></trkpt><trkpt lat="46.5278224" lon="12.9456249"><ele>860.0</ele><time>2026-04-22T11:11:24.649Z</time></trkpt><trkpt lat="46.5278124" lon="12.9454051"><ele>860.0</ele><time>2026-04-22T11:11:25.649Z</time></trkpt><trkpt lat="46.5278292" lon="12.945154"><ele>860.0</ele><time>2026-04-22T11:11:26.649Z</time></trkpt><trkpt lat="46.527863" lon="12.944896"><ele>860.0</ele><time>2026-04-22T11:11:27.649Z</time></trkpt><trkpt lat="46.5278863" lon="12.9446101"><ele>861.6666666666667</ele><time>2026-04-22T11:11:28.649Z</time></trkpt><trkpt lat="46.5278888" lon="12.9443079"><ele>863.3333333333333</ele><time>2026-04-22T11:11:29.649Z</time></trkpt><trkpt lat="46.5278859" lon="12.9440457"><ele>865.0</ele><time>2026-04-22T11:11:30.65Z</time></trkpt><trkpt lat="46.5278917" lon="12.9438044"><ele>870.25</ele><time>2026-04-22T11:11:31.649Z</time></trkpt><trkpt lat="46.5279053" lon="12.9435792"><ele>875.5</ele><time>2026-04-22T11:11:32.649Z</time></trkpt><trkpt lat="46.5279144" lon="12.9433725"><ele>880.75</ele><time>2026-04-22T11:11:33.65Z</time></trkpt><trkpt lat="46.5278892" lon="12.9431776"><ele>886.0</ele><time>2026-04-22T11:11:34.649Z</time></trkpt><trkpt lat="46.5278267" lon="12.9429796"><ele>886.0</ele><time>2026-04-22T11:11:35.649Z</time></trkpt><trkpt lat="46.5277371" lon="12.9427681"><ele>886.0</ele><time>2026-04-22T11:11:36.651Z</time></trkpt><trkpt lat="46.5276464" lon="12.942573"><ele>886.0</ele><time>2026-04-22T11:11:37.649Z</time></trkpt><trkpt lat="46.5275354" lon="12.9423886"><ele>890.6666666666666</ele><time>2026-04-22T11:11:38.649Z</time></trkpt><trkpt lat="46.5274112" lon="12.942221"><ele>895.3333333333333</ele><time>2026-04-22T11:11:39.649Z</time></trkpt><trkpt lat="46.5273069" lon="12.9420433"><ele>900.0</ele><time>2026-04-22T11:11:40.65Z</time></trkpt><trkpt lat="46.5272241" lon="12.9418294"><ele>895.0</ele><time>2026-04-22T11:11:41.649Z</time></trkpt><trkpt lat="46.5271467" lon="12.9415753"><ele>890.0</ele><time>2026-04-22T11:11:42.649Z</time></trkpt><trkpt lat="46.5270972" lon="12.9413166"><ele>885.0</ele><time>2026-04-22T11:11:43.65Z</time></trkpt><trkpt lat="46.5270487" lon="12.9410673"><ele>887.6666666666667</ele><time>2026-04-22T11:11:44.649Z</time></trkpt><trkpt lat="46.5269998" lon="12.9408211"><ele>890.3333333333334</ele><time>2026-04-22T11:11:45.649Z</time></trkpt><trkpt lat="46.5269533" lon="12.9405889"><ele>893.0</ele><time>2026-04-22T11:11:46.649Z</time></trkpt><trkpt lat="46.5269102" lon="12.9403647"><ele>893.0</ele><time>2026-04-22T11:11:47.649Z</time></trkpt><trkpt lat="46.5268671" lon="12.9401515"><ele>893.0</ele><time>2026-04-22T11:11:48.649Z</time></trkpt><trkpt lat="46.5268247" lon="12.9399543"><ele>893.0</ele><time>2026-04-22T11:11:49.649Z</time></trkpt><trkpt lat="46.5267766" lon="12.9397691"><ele>893.0</ele><time>2026-04-22T11:11:50.649Z</time></trkpt><trkpt lat="46.5267109" lon="12.9395979"><ele>896.25</ele><time>2026-04-22T11:11:51.65Z</time></trkpt><trkpt lat="46.526633" lon="12.9394564"><ele>899.5</ele><time>2026-04-22T11:11:52.651Z</time></trkpt><trkpt lat="46.5265645" lon="12.9393246"><ele>902.75</ele><time>2026-04-22T11:11:53.65Z</time></trkpt><trkpt lat="46.526533" lon="12.939177"><ele>906.0</ele><time>2026-04-22T11:11:54.649Z</time></trkpt><trkpt lat="46.5265228" lon="12.939001"><ele>909.0</ele><time>2026-04-22T11:11:55.651Z</time></trkpt><trkpt lat="46.5265168" lon="12.9387989"><ele>912.0</ele><time>2026-04-22T11:11:56.651Z</time></trkpt><trkpt lat="46.5265055" lon="12.9385998"><ele>915.0</ele><time>2026-04-22T11:11:57.649Z</time></trkpt><trkpt lat="46.5264938" lon="12.938421"><ele>918.0</ele><time>2026-04-22T11:11:58.649Z</time></trkpt><trkpt lat="46.526451" lon="12.9382545"><ele>919.0</ele><time>2026-04-22T11:11:59.649Z</time></trkpt><trkpt lat="46.5263754" lon="12.9381065"><ele>920.0</ele><time>2026-04-22T11:12:00.651Z</time></trkpt><trkpt lat="46.5262883" lon="12.9379666"><ele>921.0</ele><time>2026-04-22T11:12:01.649Z</time></trkpt><trkpt lat="46.5262223" lon="12.937824"><ele>922.0</ele><time>2026-04-22T11:12:02.649Z</time></trkpt><trkpt lat="46.5261667" lon="12.9376694"><ele>923.5</ele><time>2026-04-22T11:12:03.65Z</time></trkpt><trkpt lat="46.5261187" lon="12.9375056"><ele>925.0</ele><time>2026-04-22T11:12:04.649Z</time></trkpt><trkpt lat="46.5260695" lon="12.9373141"><ele>926.5</ele><time>2026-04-22T11:12:05.649Z</time></trkpt><trkpt lat="46.5260197" lon="12.9371106"><ele>928.0</ele><time>2026-04-22T11:12:06.649Z</time></trkpt><trkpt lat="46.5259762" lon="12.9369095"><ele>928.0</ele><time>2026-04-22T11:12:07.649Z</time></trkpt><trkpt lat="46.525931" lon="12.9366918"><ele>928.0</ele><time>2026-04-22T11:12:08.651Z</time></trkpt><trkpt lat="46.5258955" lon="12.9364667"><ele>928.0</ele><time>2026-04-22T11:12:09.649Z</time></trkpt><trkpt lat="46.5258669" lon="12.9362427"><ele>928.0</ele><time>2026-04-22T11:12:10.649Z</time></trkpt><trkpt lat="46.5258397" lon="12.9360158"><ele>928.0</ele><time>2026-04-22T11:12:11.649Z</time></trkpt><trkpt lat="46.5258122" lon="12.9357898"><ele>928.0</ele><time>2026-04-22T11:12:12.65Z</time></trkpt><trkpt lat="46.5257826" lon="12.9355628"><ele>930.3333333333333</ele><time>2026-04-22T11:12:13.649Z</time></trkpt><trkpt lat="46.5257429" lon="12.935336"><ele>932.6666666666667</ele><time>2026-04-22T11:12:14.649Z</time></trkpt><trkpt lat="46.5256941" lon="12.9351132"><ele>935.0</ele><time>2026-04-22T11:12:15.649Z</time></trkpt><trkpt lat="46.5256355" lon="12.9348923"><ele>938.0</ele><time>2026-04-22T11:12:16.65Z</time></trkpt><trkpt lat="46.5255677" lon="12.9346767"><ele>941.0</ele><time>2026-04-22T11:12:17.649Z</time></trkpt><trkpt lat="46.5254915" lon="12.9344638"><ele>944.0</ele><time>2026-04-22T11:12:18.649Z</time></trkpt><trkpt lat="46.5254031" lon="12.9342592"><ele>942.6666666666667</ele><time>2026-04-22T11:12:19.649Z</time></trkpt><trkpt lat="46.5253022" lon="12.9340708"><ele>941.3333333333333</ele><time>2026-04-22T11:12:20.65Z</time></trkpt><trkpt lat="46.5251913" lon="12.9338908"><ele>940.0</ele><time>2026-04-22T11:12:21.649Z</time></trkpt><trkpt lat="46.5250752" lon="12.9337215"><ele>940.0</ele><time>2026-04-22T11:12:22.649Z</time></trkpt><trkpt lat="46.5249593" lon="12.9335593"><ele>940.0</ele><time>2026-04-22T11:12:23.649Z</time></trkpt><trkpt lat="46.5248436" lon="12.9333975"><ele>940.0</ele><time>2026-04-22T11:12:24.65Z</time></trkpt><trkpt lat="46.524733" lon="12.9332268"><ele>941.6666666666666</ele><time>2026-04-22T11:12:25.65Z</time></trkpt><trkpt lat="46.5246278" lon="12.9330289"><ele>943.3333333333333</ele><time>2026-04-22T11:12:26.649Z</time></trkpt><trkpt lat="46.5245149" lon="12.9327919"><ele>945.0</ele><time>2026-04-22T11:12:27.649Z</time></trkpt><trkpt lat="46.524414" lon="12.9325551"><ele>946.6666666666667</ele><time>2026-04-22T11:12:28.649Z</time></trkpt><trkpt lat="46.5243267" lon="12.9323325"><ele>948.3333333333334</ele><time>2026-04-22T11:12:29.649Z</time></trkpt><trkpt lat="46.5242564" lon="12.9321177"><ele>950.0</ele><time>2026-04-22T11:12:30.651Z</time></trkpt><trkpt lat="46.5241994" lon="12.9318996"><ele>951.0</ele><time>2026-04-22T11:12:31.649Z</time></trkpt><trkpt lat="46.5241505" lon="12.9316826"><ele>952.0</ele><time>2026-04-22T11:12:32.649Z</time></trkpt><trkpt lat="46.5241107" lon="12.9314689"><ele>953.0</ele><time>2026-04-22T11:12:33.649Z</time></trkpt><trkpt lat="46.524079" lon="12.9312487"><ele>953.0</ele><time>2026-04-22T11:12:34.649Z</time></trkpt><trkpt lat="46.524047" lon="12.9310243"><ele>953.0</ele><time>2026-04-22T11:12:35.649Z</time></trkpt><trkpt lat="46.5240073" lon="12.9307947"><ele>953.0</ele><time>2026-04-22T11:12:36.65Z</time></trkpt><trkpt lat="46.5239676" lon="12.9305615"><ele>954.0</ele><time>2026-04-22T11:12:37.649Z</time></trkpt><trkpt lat="46.5239284" lon="12.9303263"><ele>955.0</ele><time>2026-04-22T11:12:38.65Z</time></trkpt><trkpt lat="46.5238909" lon="12.9300886"><ele>956.0</ele><time>2026-04-22T11:12:39.65Z</time></trkpt><trkpt lat="46.5238553" lon="12.9298524"><ele>956.6666666666667</ele><time>2026-04-22T11:12:40.649Z</time></trkpt><trkpt lat="46.5238179" lon="12.9296194"><ele>957.3333333333333</ele><time>2026-04-22T11:12:41.649Z</time></trkpt><trkpt lat="46.5237824" lon="12.9293932"><ele>958.0</ele><time>2026-04-22T11:12:42.649Z</time></trkpt><trkpt lat="46.5237476" lon="12.9291661"><ele>955.3333333333333</ele><time>2026-04-22T11:12:43.649Z</time></trkpt><trkpt lat="46.5237153" lon="12.928941"><ele>952.6666666666667</ele><time>2026-04-22T11:12:44.65Z</time></trkpt><trkpt lat="46.5236803" lon="12.9287201"><ele>950.0</ele><time>2026-04-22T11:12:45.65Z</time></trkpt><trkpt lat="46.523647" lon="12.9284988"><ele>950.3333333333334</ele><time>2026-04-22T11:12:46.649Z</time></trkpt><trkpt lat="46.5236159" lon="12.9282734"><ele>950.6666666666667</ele><time>2026-04-22T11:12:47.649Z</time></trkpt><trkpt lat="46.5235812" lon="12.9280492"><ele>951.0</ele><time>2026-04-22T11:12:48.651Z</time></trkpt><trkpt lat="46.523546" lon="12.9278291"><ele>951.0</ele><time>2026-04-22T11:12:49.65Z</time></trkpt><trkpt lat="46.5235107" lon="12.9276087"><ele>951.0</ele><time>2026-04-22T11:12:50.65Z</time></trkpt><trkpt lat="46.5234786" lon="12.9273946"><ele>951.0</ele><time>2026-04-22T11:12:51.649Z</time></trkpt><trkpt lat="46.5234463" lon="12.9271781"><ele>947.3333333333333</ele><time>2026-04-22T11:12:52.649Z</time></trkpt><trkpt lat="46.5234097" lon="12.9269628"><ele>943.6666666666666</ele><time>2026-04-22T11:12:53.649Z</time></trkpt><trkpt lat="46.5233751" lon="12.9267451"><ele>940.0</ele><time>2026-04-22T11:12:54.649Z</time></trkpt><trkpt lat="46.523341" lon="12.9265278"><ele>939.3333333333333</ele><time>2026-04-22T11:12:55.649Z</time></trkpt><trkpt lat="46.5233028" lon="12.9263083"><ele>938.6666666666667</ele><time>2026-04-22T11:12:56.65Z</time></trkpt><trkpt lat="46.5232549" lon="12.9260853"><ele>938.0</ele><time>2026-04-22T11:12:57.649Z</time></trkpt><trkpt lat="46.5231993" lon="12.9258646"><ele>936.3333333333334</ele><time>2026-04-22T11:12:58.65Z</time></trkpt><trkpt lat="46.523135" lon="12.9256471"><ele>934.6666666666667</ele><time>2026-04-22T11:12:59.65Z</time></trkpt><trkpt lat="46.5230695" lon="12.9254334"><ele>933.0</ele><time>2026-04-22T11:13:00.649Z</time></trkpt><trkpt lat="46.5230033" lon="12.9252218"><ele>932.0</ele><time>2026-04-22T11:13:01.65Z</time></trkpt><trkpt lat="46.5229377" lon="12.9250099"><ele>931.0</ele><time>2026-04-22T11:13:02.649Z</time></trkpt><trkpt lat="46.5228723" lon="12.9247998"><ele>930.0</ele><time>2026-04-22T11:13:03.649Z</time></trkpt><trkpt lat="46.5228095" lon="12.9245891"><ele>930.0</ele><time>2026-04-22T11:13:04.649Z</time></trkpt><trkpt lat="46.5227435" lon="12.9243772"><ele>930.0</ele><time>2026-04-22T11:13:05.649Z</time></trkpt><trkpt lat="46.5226812" lon="12.9241704"><ele>930.0</ele><time>2026-04-22T11:13:06.65Z</time></trkpt><trkpt lat="46.52262" lon="12.9239691"><ele>928.0</ele><time>2026-04-22T11:13:07.65Z</time></trkpt><trkpt lat="46.5225579" lon="12.9237657"><ele>926.0</ele><time>2026-04-22T11:13:08.649Z</time></trkpt><trkpt lat="46.5224964" lon="12.9235636"><ele>924.0</ele><time>2026-04-22T11:13:09.649Z</time></trkpt><trkpt lat="46.522428" lon="12.9233665"><ele>921.0</ele><time>2026-04-22T11:13:10.65Z</time></trkpt><trkpt lat="46.5223529" lon="12.923174"><ele>918.0</ele><time>2026-04-22T11:13:11.65Z</time></trkpt><trkpt lat="46.522273" lon="12.9229839"><ele>915.0</ele><time>2026-04-22T11:13:12.65Z</time></trkpt><trkpt lat="46.5221944" lon="12.9227999"><ele>915.0</ele><time>2026-04-22T11:13:13.649Z</time></trkpt><trkpt lat="46.522114" lon="12.9226157"><ele>915.0</ele><time>2026-04-22T11:13:14.648Z</time></trkpt><trkpt lat="46.5220322" lon="12.9224348"><ele>915.0</ele><time>2026-04-22T11:13:15.649Z</time></trkpt><trkpt lat="46.5219512" lon="12.9222579"><ele>915.0</ele><time>2026-04-22T11:13:16.648Z</time></trkpt><trkpt lat="46.5218748" lon="12.9220849"><ele>914.5</ele><time>2026-04-22T11:13:17.648Z</time></trkpt><trkpt lat="46.5217993" lon="12.9219117"><ele>914.0</ele><time>2026-04-22T11:13:18.648Z</time></trkpt><trkpt lat="46.5217213" lon="12.9217395"><ele>913.5</ele><time>2026-04-22T11:13:19.649Z</time></trkpt><trkpt lat="46.5216447" lon="12.9215688"><ele>913.0</ele><time>2026-04-22T11:13:20.649Z</time></trkpt><trkpt lat="46.5215711" lon="12.921403"><ele>910.25</ele><time>2026-04-22T11:13:21.648Z</time></trkpt><trkpt lat="46.5214952" lon="12.9212454"><ele>907.5</ele><time>2026-04-22T11:13:22.649Z</time></trkpt><trkpt lat="46.5214207" lon="12.9210892"><ele>904.75</ele><time>2026-04-22T11:13:23.648Z</time></trkpt><trkpt lat="46.5213492" lon="12.9209318"><ele>902.0</ele><time>2026-04-22T11:13:24.648Z</time></trkpt><trkpt lat="46.5212762" lon="12.9207726"><ele>900.5</ele><time>2026-04-22T11:13:25.648Z</time></trkpt><trkpt lat="46.5212049" lon="12.9206156"><ele>899.0</ele><time>2026-04-22T11:13:26.648Z</time></trkpt><trkpt lat="46.5211314" lon="12.9204563"><ele>897.5</ele><time>2026-04-22T11:13:27.648Z</time></trkpt><trkpt lat="46.521063" lon="12.9202954"><ele>896.0</ele><time>2026-04-22T11:13:28.648Z</time></trkpt><trkpt lat="46.5210016" lon="12.9201317"><ele>894.5</ele><time>2026-04-22T11:13:29.648Z</time></trkpt><trkpt lat="46.5209493" lon="12.919956"><ele>893.0</ele><time>2026-04-22T11:13:30.648Z</time></trkpt><trkpt lat="46.5209039" lon="12.91978"><ele>891.5</ele><time>2026-04-22T11:13:31.648Z</time></trkpt><trkpt lat="46.5208651" lon="12.9195929"><ele>890.0</ele><time>2026-04-22T11:13:32.648Z</time></trkpt><trkpt lat="46.5208345" lon="12.9193898"><ele>889.0</ele><time>2026-04-22T11:13:33.649Z</time></trkpt><trkpt lat="46.5208117" lon="12.919163"><ele>888.0</ele><time>2026-04-22T11:13:34.648Z</time></trkpt><trkpt lat="46.5208038" lon="12.9189223"><ele>887.0</ele><time>2026-04-22T11:13:35.649Z</time></trkpt><trkpt lat="46.5208083" lon="12.9186572"><ele>888.0</ele><time>2026-04-22T11:13:36.65Z</time></trkpt><trkpt lat="46.5208225" lon="12.9183979"><ele>889.0</ele><time>2026-04-22T11:13:37.649Z</time></trkpt><trkpt lat="46.5208338" lon="12.9181439"><ele>890.0</ele><time>2026-04-22T11:13:38.649Z</time></trkpt><trkpt lat="46.5208541" lon="12.9178977"><ele>890.0</ele><time>2026-04-22T11:13:39.648Z</time></trkpt><trkpt lat="46.5208996" lon="12.9176585"><ele>890.0</ele><time>2026-04-22T11:13:40.648Z</time></trkpt><trkpt lat="46.5209517" lon="12.9174209"><ele>890.0</ele><time>2026-04-22T11:13:41.649Z</time></trkpt><trkpt lat="46.5209969" lon="12.9171787"><ele>890.0</ele><time>2026-04-22T11:13:42.648Z</time></trkpt><trkpt lat="46.521028" lon="12.9169307"><ele>890.0</ele><time>2026-04-22T11:13:43.648Z</time></trkpt><trkpt lat="46.521045" lon="12.9166602"><ele>890.0</ele><time>2026-04-22T11:13:44.648Z</time></trkpt><trkpt lat="46.5210445" lon="12.9163633"><ele>891.0</ele><time>2026-04-22T11:13:45.648Z</time></trkpt><trkpt lat="46.5210376" lon="12.9160788"><ele>892.0</ele><time>2026-04-22T11:13:46.649Z</time></trkpt><trkpt lat="46.5210283" lon="12.9158014"><ele>893.0</ele><time>2026-04-22T11:13:47.648Z</time></trkpt><trkpt lat="46.5210163" lon="12.9155344"><ele>894.3333333333334</ele><time>2026-04-22T11:13:48.649Z</time></trkpt><trkpt lat="46.5210054" lon="12.9152692"><ele>895.6666666666667</ele><time>2026-04-22T11:13:49.648Z</time></trkpt><trkpt lat="46.5209941" lon="12.915007"><ele>897.0</ele><time>2026-04-22T11:13:50.648Z</time></trkpt><trkpt lat="46.5209841" lon="12.9147492"><ele>897.0</ele><time>2026-04-22T11:13:51.649Z</time></trkpt><trkpt lat="46.5209731" lon="12.9144953"><ele>897.0</ele><time>2026-04-22T11:13:52.649Z</time></trkpt><trkpt lat="46.5209628" lon="12.9142429"><ele>897.0</ele><time>2026-04-22T11:13:53.648Z</time></trkpt><trkpt lat="46.5209531" lon="12.9139922"><ele>896.3333333333333</ele><time>2026-04-22T11:13:54.65Z</time></trkpt><trkpt lat="46.5209407" lon="12.9137417"><ele>895.6666666666666</ele><time>2026-04-22T11:13:55.649Z</time></trkpt><trkpt lat="46.5209259" lon="12.9134895"><ele>895.0</ele><time>2026-04-22T11:13:56.648Z</time></trkpt><trkpt lat="46.520909" lon="12.9132368"><ele>894.0</ele><time>2026-04-22T11:13:57.648Z</time></trkpt><trkpt lat="46.5208885" lon="12.9129854"><ele>893.0</ele><time>2026-04-22T11:13:58.648Z</time></trkpt><trkpt lat="46.5208634" lon="12.9127343"><ele>892.0</ele><time>2026-04-22T11:13:59.648Z</time></trkpt><trkpt lat="46.5208332" lon="12.9124849"><ele>891.0</ele><time>2026-04-22T11:14:00.648Z</time></trkpt><trkpt lat="46.5208006" lon="12.912241"><ele>890.0</ele><time>2026-04-22T11:14:01.648Z</time></trkpt><trkpt lat="46.5207681" lon="12.9120024"><ele>889.0</ele><time>2026-04-22T11:14:02.648Z</time></trkpt><trkpt lat="46.5207359" lon="12.9117716"><ele>887.6666666666666</ele><time>2026-04-22T11:14:03.65Z</time></trkpt><trkpt lat="46.5207076" lon="12.911534"><ele>886.3333333333333</ele><time>2026-04-22T11:14:04.648Z</time></trkpt><trkpt lat="46.5206819" lon="12.9112989"><ele>885.0</ele><time>2026-04-22T11:14:05.648Z</time></trkpt><trkpt lat="46.5206506" lon="12.9110627"><ele>883.3333333333333</ele><time>2026-04-22T11:14:06.648Z</time></trkpt><trkpt lat="46.5206172" lon="12.9108329"><ele>881.6666666666666</ele><time>2026-04-22T11:14:07.648Z</time></trkpt><trkpt lat="46.520583" lon="12.9106118"><ele>880.0</ele><time>2026-04-22T11:14:08.648Z</time></trkpt><trkpt lat="46.5205508" lon="12.9103912"><ele>880.0</ele><time>2026-04-22T11:14:09.649Z</time></trkpt><trkpt lat="46.5205224" lon="12.9101732"><ele>880.0</ele><time>2026-04-22T11:14:10.648Z</time></trkpt><trkpt lat="46.520492" lon="12.9099598"><ele>880.0</ele><time>2026-04-22T11:14:11.648Z</time></trkpt><trkpt lat="46.5204618" lon="12.9097427"><ele>878.6666666666666</ele><time>2026-04-22T11:14:12.648Z</time></trkpt><trkpt lat="46.5204295" lon="12.9095246"><ele>877.3333333333333</ele><time>2026-04-22T11:14:13.648Z</time></trkpt><trkpt lat="46.5203902" lon="12.9093083"><ele>876.0</ele><time>2026-04-22T11:14:14.648Z</time></trkpt><trkpt lat="46.5203304" lon="12.9090971"><ele>876.0</ele><time>2026-04-22T11:14:15.648Z</time></trkpt><trkpt lat="46.5202487" lon="12.908905"><ele>876.0</ele><time>2026-04-22T11:14:16.648Z</time></trkpt><trkpt lat="46.5201609" lon="12.9087374"><ele>876.0</ele><time>2026-04-22T11:14:17.649Z</time></trkpt><trkpt lat="46.5200699" lon="12.9085934"><ele>876.0</ele><time>2026-04-22T11:14:18.648Z</time></trkpt><trkpt lat="46.5199781" lon="12.908462"><ele>874.75</ele><time>2026-04-22T11:14:19.649Z</time></trkpt><trkpt lat="46.5198823" lon="12.9083654"><ele>873.5</ele><time>2026-04-22T11:14:20.648Z</time></trkpt><trkpt lat="46.5197739" lon="12.9083215"><ele>872.25</ele><time>2026-04-22T11:14:21.65Z</time></trkpt><trkpt lat="46.5196515" lon="12.9083374"><ele>871.0</ele><time>2026-04-22T11:14:22.649Z</time></trkpt><trkpt lat="46.5195247" lon="12.9083845"><ele>872.0</ele><time>2026-04-22T11:14:23.649Z</time></trkpt><trkpt lat="46.5193986" lon="12.9084339"><ele>873.0</ele><time>2026-04-22T11:14:24.648Z</time></trkpt><trkpt lat="46.5192694" lon="12.9084761"><ele>874.0</ele><time>2026-04-22T11:14:25.648Z</time></trkpt><trkpt lat="46.5191708" lon="12.9085706"><ele>875.0</ele><time>2026-04-22T11:14:26.649Z</time></trkpt><trkpt lat="46.519067" lon="12.9086419"><ele>875.0</ele><time>2026-04-22T11:14:27.648Z</time></trkpt><trkpt lat="46.5189693" lon="12.9086941"><ele>875.0</ele><time>2026-04-22T11:14:28.648Z</time></trkpt><trkpt lat="46.5188695" lon="12.9086824"><ele>875.0</ele><time>2026-04-22T11:14:29.648Z</time></trkpt><trkpt lat="46.5187814" lon="12.9086415"><ele>875.0</ele><time>2026-04-22T11:14:30.648Z</time></trkpt><trkpt lat="46.5187048" lon="12.908576"><ele>875.0</ele><time>2026-04-22T11:14:31.649Z</time></trkpt><trkpt lat="46.5186732" lon="12.9084671"><ele>878.0</ele><time>2026-04-22T11:14:32.648Z</time></trkpt><trkpt lat="46.5186769" lon="12.9083161"><ele>881.0</ele><time>2026-04-22T11:14:33.648Z</time></trkpt><trkpt lat="46.5187017" lon="12.9081303"><ele>884.0</ele><time>2026-04-22T11:14:34.648Z</time></trkpt><trkpt lat="46.5187327" lon="12.9079292"><ele>887.0</ele><time>2026-04-22T11:14:35.648Z</time></trkpt><trkpt lat="46.5187602" lon="12.9077532"><ele>887.0</ele><time>2026-04-22T11:14:36.648Z</time></trkpt><trkpt lat="46.5187884" lon="12.9075897"><ele>887.0</ele><time>2026-04-22T11:14:37.649Z</time></trkpt><trkpt lat="46.5188107" lon="12.9074357"><ele>887.0</ele><time>2026-04-22T11:14:38.648Z</time></trkpt><trkpt lat="46.5188011" lon="12.9072952"><ele>887.0</ele><time>2026-04-22T11:14:39.648Z</time></trkpt><trkpt lat="46.5187471" lon="12.9071585"><ele>887.0</ele><time>2026-04-22T11:14:40.648Z</time></trkpt><trkpt lat="46.5186591" lon="12.9070218"><ele>887.0</ele><time>2026-04-22T11:14:41.649Z</time></trkpt><trkpt lat="46.5185713" lon="12.9068829"><ele>887.0</ele><time>2026-04-22T11:14:42.649Z</time></trkpt><trkpt lat="46.5184927" lon="12.906738"><ele>887.0</ele><time>2026-04-22T11:14:43.649Z</time></trkpt><trkpt lat="46.51842" lon="12.9065851"><ele>887.0</ele><time>2026-04-22T11:14:44.648Z</time></trkpt><trkpt lat="46.5183743" lon="12.9064052"><ele>883.3333333333334</ele><time>2026-04-22T11:14:45.649Z</time></trkpt><trkpt lat="46.5183669" lon="12.9062014"><ele>879.6666666666667</ele><time>2026-04-22T11:14:46.649Z</time></trkpt><trkpt lat="46.518375" lon="12.9059541"><ele>876.0</ele><time>2026-04-22T11:14:47.649Z</time></trkpt><trkpt lat="46.518392" lon="12.9057073"><ele>874.3333333333333</ele><time>2026-04-22T11:14:48.648Z</time></trkpt><trkpt lat="46.5184112" lon="12.9054676"><ele>872.6666666666666</ele><time>2026-04-22T11:14:49.649Z</time></trkpt><trkpt lat="46.5184305" lon="12.9052348"><ele>871.0</ele><time>2026-04-22T11:14:50.649Z</time></trkpt><trkpt lat="46.518449" lon="12.9050092"><ele>869.5</ele><time>2026-04-22T11:14:51.649Z</time></trkpt><trkpt lat="46.5184688" lon="12.9047951"><ele>868.0</ele><time>2026-04-22T11:14:52.649Z</time></trkpt><trkpt lat="46.5184859" lon="12.9045914"><ele>866.5</ele><time>2026-04-22T11:14:53.648Z</time></trkpt><trkpt lat="46.518494" lon="12.9044053"><ele>865.0</ele><time>2026-04-22T11:14:54.648Z</time></trkpt><trkpt lat="46.518473" lon="12.9042286"><ele>863.75</ele><time>2026-04-22T11:14:55.648Z</time></trkpt><trkpt lat="46.5184146" lon="12.9040636"><ele>862.5</ele><time>2026-04-22T11:14:56.649Z</time></trkpt><trkpt lat="46.5183197" lon="12.9039177"><ele>861.25</ele><time>2026-04-22T11:14:57.648Z</time></trkpt><trkpt lat="46.5182177" lon="12.9038044"><ele>860.0</ele><time>2026-04-22T11:14:58.648Z</time></trkpt><trkpt lat="46.5181135" lon="12.9037023"><ele>860.0</ele><time>2026-04-22T11:14:59.648Z</time></trkpt><trkpt lat="46.5180248" lon="12.9036055"><ele>860.0</ele><time>2026-04-22T11:15:00.649Z</time></trkpt><trkpt lat="46.5179711" lon="12.9034827"><ele>860.0</ele><time>2026-04-22T11:15:01.648Z</time></trkpt><trkpt lat="46.5179333" lon="12.9033335"><ele>860.0</ele><time>2026-04-22T11:15:02.649Z</time></trkpt><trkpt lat="46.5179502" lon="12.9031527"><ele>860.0</ele><time>2026-04-22T11:15:03.65Z</time></trkpt><trkpt lat="46.5179924" lon="12.9029874"><ele>857.6666666666667</ele><time>2026-04-22T11:15:04.648Z</time></trkpt><trkpt lat="46.5180468" lon="12.9028005"><ele>855.3333333333333</ele><time>2026-04-22T11:15:05.648Z</time></trkpt><trkpt lat="46.5181679" lon="12.9026453"><ele>853.0</ele><time>2026-04-22T11:15:06.649Z</time></trkpt><trkpt lat="46.5182759" lon="12.9024436"><ele>853.0</ele><time>2026-04-22T11:15:07.648Z</time></trkpt><trkpt lat="46.5183833" lon="12.9022553"><ele>853.0</ele><time>2026-04-22T11:15:08.649Z</time></trkpt><trkpt lat="46.518491" lon="12.9020637"><ele>853.0</ele><time>2026-04-22T11:15:09.649Z</time></trkpt><trkpt lat="46.5185992" lon="12.9018712"><ele>855.3333333333333</ele><time>2026-04-22T11:15:10.648Z</time></trkpt><trkpt lat="46.5187055" lon="12.9016904"><ele>857.6666666666667</ele><time>2026-04-22T11:15:11.648Z</time></trkpt><trkpt lat="46.5188116" lon="12.9015129"><ele>860.0</ele><time>2026-04-22T11:15:12.648Z</time></trkpt><trkpt lat="46.5189104" lon="12.9013376"><ele>851.3333333333334</ele><time>2026-04-22T11:15:13.648Z</time></trkpt><trkpt lat="46.5190049" lon="12.9011617"><ele>842.6666666666667</ele><time>2026-04-22T11:15:14.648Z</time></trkpt><trkpt lat="46.5190919" lon="12.9009703"><ele>834.0</ele><time>2026-04-22T11:15:15.648Z</time></trkpt><trkpt lat="46.5191693" lon="12.9007567"><ele>834.0</ele><time>2026-04-22T11:15:16.649Z</time></trkpt><trkpt lat="46.5192313" lon="12.9005428"><ele>834.0</ele><time>2026-04-22T11:15:17.649Z</time></trkpt><trkpt lat="46.5192863" lon="12.9003292"><ele>834.0</ele><time>2026-04-22T11:15:18.648Z</time></trkpt><trkpt lat="46.519325" lon="12.9001057"><ele>835.0</ele><time>2026-04-22T11:15:19.648Z</time></trkpt><trkpt lat="46.5193476" lon="12.8998722"><ele>836.0</ele><time>2026-04-22T11:15:20.648Z</time></trkpt><trkpt lat="46.519359" lon="12.8996447"><ele>837.0</ele><time>2026-04-22T11:15:21.648Z</time></trkpt><trkpt lat="46.5193619" lon="12.899426"><ele>836.25</ele><time>2026-04-22T11:15:22.648Z</time></trkpt><trkpt lat="46.5193563" lon="12.8992161"><ele>835.5</ele><time>2026-04-22T11:15:23.649Z</time></trkpt><trkpt lat="46.5193494" lon="12.8990141"><ele>834.75</ele><time>2026-04-22T11:15:24.648Z</time></trkpt><trkpt lat="46.5193299" lon="12.8988282"><ele>834.0</ele><time>2026-04-22T11:15:25.649Z</time></trkpt><trkpt lat="46.5192764" lon="12.8986547"><ele>834.0</ele><time>2026-04-22T11:15:26.648Z</time></trkpt><trkpt lat="46.5192005" lon="12.8985019"><ele>834.0</ele><time>2026-04-22T11:15:27.649Z</time></trkpt><trkpt lat="46.5190901" lon="12.8983672"><ele>834.0</ele><time>2026-04-22T11:15:28.648Z</time></trkpt><trkpt lat="46.5189698" lon="12.8982798"><ele>834.0</ele><time>2026-04-22T11:15:29.648Z</time></trkpt><trkpt lat="46.518849" lon="12.8982224"><ele>836.2</ele><time>2026-04-22T11:15:30.65Z</time></trkpt><trkpt lat="46.5187314" lon="12.8981821"><ele>838.4000000000001</ele><time>2026-04-22T11:15:31.649Z</time></trkpt><trkpt lat="46.518625" lon="12.8981417"><ele>840.6</ele><time>2026-04-22T11:15:32.648Z</time></trkpt><trkpt lat="46.5185359" lon="12.8980756"><ele>842.8</ele><time>2026-04-22T11:15:33.648Z</time></trkpt><trkpt lat="46.5184698" lon="12.8979783"><ele>845.0</ele><time>2026-04-22T11:15:34.649Z</time></trkpt><trkpt lat="46.5184491" lon="12.8978477"><ele>845.0</ele><time>2026-04-22T11:15:35.649Z</time></trkpt><trkpt lat="46.5184758" lon="12.8977233"><ele>845.0</ele><time>2026-04-22T11:15:36.648Z</time></trkpt><trkpt lat="46.5185076" lon="12.8976008"><ele>845.0</ele><time>2026-04-22T11:15:37.648Z</time></trkpt><trkpt lat="46.5185715" lon="12.8974782"><ele>845.0</ele><time>2026-04-22T11:15:38.648Z</time></trkpt><trkpt lat="46.518783" lon="12.8975404"><ele>838.75</ele><time>2026-04-22T11:15:39.648Z</time></trkpt><trkpt lat="46.5189204" lon="12.8975013"><ele>832.5</ele><time>2026-04-22T11:15:40.648Z</time></trkpt><trkpt lat="46.5190403" lon="12.8974166"><ele>826.25</ele><time>2026-04-22T11:15:41.649Z</time></trkpt><trkpt lat="46.5191677" lon="12.8973365"><ele>820.0</ele><time>2026-04-22T11:15:42.649Z</time></trkpt><trkpt lat="46.5192922" lon="12.8972029"><ele>820.0</ele><time>2026-04-22T11:15:43.648Z</time></trkpt><trkpt lat="46.5193665" lon="12.8969077"><ele>820.0</ele><time>2026-04-22T11:15:44.649Z</time></trkpt><trkpt lat="46.5194557" lon="12.8967135"><ele>820.0</ele><time>2026-04-22T11:15:45.648Z</time></trkpt><trkpt lat="46.5195496" lon="12.8965366"><ele>814.75</ele><time>2026-04-22T11:15:46.648Z</time></trkpt><trkpt lat="46.5196371" lon="12.896364"><ele>809.5</ele><time>2026-04-22T11:15:47.649Z</time></trkpt><trkpt lat="46.5197269" lon="12.8961916"><ele>804.25</ele><time>2026-04-22T11:15:48.649Z</time></trkpt><trkpt lat="46.5198109" lon="12.8960193"><ele>799.0</ele><time>2026-04-22T11:15:49.648Z</time></trkpt><trkpt lat="46.5198235" lon="12.8957801"><ele>798.6666666666666</ele><time>2026-04-22T11:15:50.649Z</time></trkpt><trkpt lat="46.5198541" lon="12.8955592"><ele>798.3333333333333</ele><time>2026-04-22T11:15:51.65Z</time></trkpt><trkpt lat="46.519764" lon="12.8953079"><ele>798.0</ele><time>2026-04-22T11:15:52.648Z</time></trkpt><trkpt lat="46.5197231" lon="12.895066"><ele>794.3333333333333</ele><time>2026-04-22T11:15:53.649Z</time></trkpt><trkpt lat="46.519678" lon="12.894835"><ele>790.6666666666666</ele><time>2026-04-22T11:15:54.648Z</time></trkpt><trkpt lat="46.5196303" lon="12.8946034"><ele>787.0</ele><time>2026-04-22T11:15:55.648Z</time></trkpt><trkpt lat="46.5195817" lon="12.89438"><ele>789.6666666666666</ele><time>2026-04-22T11:15:56.648Z</time></trkpt><trkpt lat="46.519538" lon="12.8941612"><ele>792.3333333333333</ele><time>2026-04-22T11:15:57.648Z</time></trkpt><trkpt lat="46.5194974" lon="12.8939512"><ele>795.0</ele><time>2026-04-22T11:15:58.649Z</time></trkpt><trkpt lat="46.5194548" lon="12.893744"><ele>795.0</ele><time>2026-04-22T11:15:59.648Z</time></trkpt><trkpt lat="46.5194164" lon="12.8935518"><ele>795.0</ele><time>2026-04-22T11:16:00.649Z</time></trkpt><trkpt lat="46.5193809" lon="12.8933686"><ele>795.0</ele><time>2026-04-22T11:16:01.649Z</time></trkpt><trkpt lat="46.5193491" lon="12.893195"><ele>795.0</ele><time>2026-04-22T11:16:02.649Z</time></trkpt><trkpt lat="46.5193074" lon="12.8930251"><ele>793.0</ele><time>2026-04-22T11:16:03.648Z</time></trkpt><trkpt lat="46.5192474" lon="12.8928767"><ele>791.0</ele><time>2026-04-22T11:16:04.648Z</time></trkpt><trkpt lat="46.5191727" lon="12.8927532"><ele>789.0</ele><time>2026-04-22T11:16:05.649Z</time></trkpt><trkpt lat="46.5190946" lon="12.8926455"><ele>787.0</ele><time>2026-04-22T11:16:06.648Z</time></trkpt><trkpt lat="46.5190187" lon="12.8925482"><ele>785.0</ele><time>2026-04-22T11:16:07.648Z</time></trkpt><trkpt lat="46.5189533" lon="12.8924626"><ele>783.4</ele><time>2026-04-22T11:16:08.648Z</time></trkpt><trkpt lat="46.5189016" lon="12.8923883"><ele>781.8</ele><time>2026-04-22T11:16:09.649Z</time></trkpt><trkpt lat="46.5188561" lon="12.8922367"><ele>780.2</ele><time>2026-04-22T11:16:11.649Z</time></trkpt><trkpt lat="46.5188521" lon="12.8921045"><ele>778.6</ele><time>2026-04-22T11:16:13.648Z</time></trkpt><trkpt lat="46.5188904" lon="12.8919805"><ele>777.0</ele><time>2026-04-22T11:16:15.649Z</time></trkpt><trkpt lat="46.518953" lon="12.8919009"><ele>777.0</ele><time>2026-04-22T11:16:16.648Z</time></trkpt><trkpt lat="46.519038" lon="12.8918468"><ele>777.0</ele><time>2026-04-22T11:16:17.649Z</time></trkpt><trkpt lat="46.5191626" lon="12.8918685"><ele>777.0</ele><time>2026-04-22T11:16:18.648Z</time></trkpt><trkpt lat="46.5192927" lon="12.8919097"><ele>777.0</ele><time>2026-04-22T11:16:19.648Z</time></trkpt><trkpt lat="46.5194189" lon="12.8919465"><ele>777.0</ele><time>2026-04-22T11:16:20.648Z</time></trkpt><trkpt lat="46.51955" lon="12.8919911"><ele>777.0</ele><time>2026-04-22T11:16:21.648Z</time></trkpt><trkpt lat="46.5196689" lon="12.8920692"><ele>777.0</ele><time>2026-04-22T11:16:22.648Z</time></trkpt><trkpt lat="46.5197692" lon="12.8921716"><ele>777.0</ele><time>2026-04-22T11:16:23.648Z</time></trkpt><trkpt lat="46.5198502" lon="12.892286"><ele>774.6</ele><time>2026-04-22T11:16:24.649Z</time></trkpt><trkpt lat="46.5199261" lon="12.8923858"><ele>772.2</ele><time>2026-04-22T11:16:25.648Z</time></trkpt><trkpt lat="46.5200192" lon="12.8924419"><ele>769.8</ele><time>2026-04-22T11:16:26.648Z</time></trkpt><trkpt lat="46.5201122" lon="12.892433"><ele>767.4</ele><time>2026-04-22T11:16:27.65Z</time></trkpt><trkpt lat="46.5201886" lon="12.8923608"><ele>765.0</ele><time>2026-04-22T11:16:28.648Z</time></trkpt><trkpt lat="46.5202591" lon="12.8922149"><ele>765.0</ele><time>2026-04-22T11:16:29.648Z</time></trkpt><trkpt lat="46.5203191" lon="12.8920424"><ele>765.0</ele><time>2026-04-22T11:16:30.65Z</time></trkpt><trkpt lat="46.5203742" lon="12.8918612"><ele>765.0</ele><time>2026-04-22T11:16:31.648Z</time></trkpt><trkpt lat="46.5204164" lon="12.891657"><ele>765.0</ele><time>2026-04-22T11:16:32.648Z</time></trkpt><trkpt lat="46.5204302" lon="12.8914542"><ele>761.5</ele><time>2026-04-22T11:16:33.648Z</time></trkpt><trkpt lat="46.5204298" lon="12.8912389"><ele>758.0</ele><time>2026-04-22T11:16:34.649Z</time></trkpt><trkpt lat="46.5204124" lon="12.8910212"><ele>754.5</ele><time>2026-04-22T11:16:35.648Z</time></trkpt><trkpt lat="46.5203589" lon="12.890821"><ele>751.0</ele><time>2026-04-22T11:16:36.648Z</time></trkpt><trkpt lat="46.5202756" lon="12.8906258"><ele>751.0</ele><time>2026-04-22T11:16:37.648Z</time></trkpt><trkpt lat="46.5201829" lon="12.8904586"><ele>751.0</ele><time>2026-04-22T11:16:38.648Z</time></trkpt><trkpt lat="46.5200883" lon="12.8902955"><ele>751.0</ele><time>2026-04-22T11:16:39.649Z</time></trkpt><trkpt lat="46.5199909" lon="12.8901389"><ele>751.0</ele><time>2026-04-22T11:16:40.649Z</time></trkpt><trkpt lat="46.5198742" lon="12.89001"><ele>751.0</ele><time>2026-04-22T11:16:41.648Z</time></trkpt><trkpt lat="46.5197546" lon="12.8899052"><ele>751.0</ele><time>2026-04-22T11:16:42.648Z</time></trkpt><trkpt lat="46.5196331" lon="12.8898109"><ele>751.0</ele><time>2026-04-22T11:16:43.648Z</time></trkpt><trkpt lat="46.5195126" lon="12.8897193"><ele>751.0</ele><time>2026-04-22T11:16:44.648Z</time></trkpt><trkpt lat="46.5193893" lon="12.8896486"><ele>751.0</ele><time>2026-04-22T11:16:45.648Z</time></trkpt><trkpt lat="46.5192666" lon="12.8896067"><ele>751.0</ele><time>2026-04-22T11:16:46.649Z</time></trkpt><trkpt lat="46.519152" lon="12.8895796"><ele>751.0</ele><time>2026-04-22T11:16:47.649Z</time></trkpt><trkpt lat="46.5190501" lon="12.8895316"><ele>751.0</ele><time>2026-04-22T11:16:48.648Z</time></trkpt><trkpt lat="46.5189709" lon="12.889437"><ele>751.0</ele><time>2026-04-22T11:16:49.648Z</time></trkpt><trkpt lat="46.5189131" lon="12.8893131"><ele>751.0</ele><time>2026-04-22T11:16:50.649Z</time></trkpt><trkpt lat="46.5188972" lon="12.8891706"><ele>751.0</ele><time>2026-04-22T11:16:51.648Z</time></trkpt><trkpt lat="46.5188786" lon="12.8890183"><ele>751.0</ele><time>2026-04-22T11:16:52.648Z</time></trkpt><trkpt lat="46.5189665" lon="12.8888285"><ele>748.0</ele><time>2026-04-22T11:16:53.649Z</time></trkpt><trkpt lat="46.519005" lon="12.888646"><ele>745.0</ele><time>2026-04-22T11:16:54.648Z</time></trkpt><trkpt lat="46.5190376" lon="12.8884101"><ele>742.0</ele><time>2026-04-22T11:16:55.649Z</time></trkpt><trkpt lat="46.5190437" lon="12.8881394"><ele>741.6666666666667</ele><time>2026-04-22T11:16:56.648Z</time></trkpt><trkpt lat="46.519051" lon="12.8878777"><ele>741.3333333333334</ele><time>2026-04-22T11:16:57.648Z</time></trkpt><trkpt lat="46.5190546" lon="12.8876169"><ele>741.0</ele><time>2026-04-22T11:16:58.648Z</time></trkpt><trkpt lat="46.5190627" lon="12.8873659"><ele>740.3333333333334</ele><time>2026-04-22T11:16:59.648Z</time></trkpt><trkpt lat="46.5190789" lon="12.8871226"><ele>739.6666666666667</ele><time>2026-04-22T11:17:00.648Z</time></trkpt><trkpt lat="46.5190821" lon="12.8868825"><ele>739.0</ele><time>2026-04-22T11:17:01.648Z</time></trkpt><trkpt lat="46.5190639" lon="12.8866398"><ele>736.0</ele><time>2026-04-22T11:17:02.648Z</time></trkpt><trkpt lat="46.5190549" lon="12.8864012"><ele>733.0</ele><time>2026-04-22T11:17:03.649Z</time></trkpt><trkpt lat="46.5190707" lon="12.8861585"><ele>730.0</ele><time>2026-04-22T11:17:04.648Z</time></trkpt><trkpt lat="46.5191065" lon="12.8859212"><ele>730.0</ele><time>2026-04-22T11:17:05.648Z</time></trkpt><trkpt lat="46.519148" lon="12.8856959"><ele>730.0</ele><time>2026-04-22T11:17:06.65Z</time></trkpt><trkpt lat="46.5191895" lon="12.8854768"><ele>730.0</ele><time>2026-04-22T11:17:07.649Z</time></trkpt><trkpt lat="46.5192205" lon="12.885252"><ele>726.0</ele><time>2026-04-22T11:17:08.648Z</time></trkpt><trkpt lat="46.5192291" lon="12.8850122"><ele>722.0</ele><time>2026-04-22T11:17:09.649Z</time></trkpt><trkpt lat="46.5192225" lon="12.884783"><ele>718.0</ele><time>2026-04-22T11:17:10.648Z</time></trkpt><trkpt lat="46.5192016" lon="12.8845577"><ele>718.0</ele><time>2026-04-22T11:17:11.648Z</time></trkpt><trkpt lat="46.5191607" lon="12.8843412"><ele>718.0</ele><time>2026-04-22T11:17:12.648Z</time></trkpt><trkpt lat="46.5191094" lon="12.8841337"><ele>718.0</ele><time>2026-04-22T11:17:13.648Z</time></trkpt><trkpt lat="46.519064" lon="12.8839286"><ele>716.3333333333334</ele><time>2026-04-22T11:17:14.649Z</time></trkpt><trkpt lat="46.519046" lon="12.8837074"><ele>714.6666666666666</ele><time>2026-04-22T11:17:15.648Z</time></trkpt><trkpt lat="46.519069" lon="12.8834882"><ele>713.0</ele><time>2026-04-22T11:17:16.649Z</time></trkpt><trkpt lat="46.5191034" lon="12.8832675"><ele>711.3333333333333</ele><time>2026-04-22T11:17:17.649Z</time></trkpt><trkpt lat="46.5191222" lon="12.8830301"><ele>709.6666666666666</ele><time>2026-04-22T11:17:18.648Z</time></trkpt><trkpt lat="46.5191315" lon="12.8827995"><ele>708.0</ele><time>2026-04-22T11:17:19.649Z</time></trkpt><trkpt lat="46.5191429" lon="12.8825756"><ele>706.75</ele><time>2026-04-22T11:17:20.648Z</time></trkpt><trkpt lat="46.519149" lon="12.8823584"><ele>705.5</ele><time>2026-04-22T11:17:21.648Z</time></trkpt><trkpt lat="46.5191478" lon="12.8821449"><ele>704.25</ele><time>2026-04-22T11:17:22.648Z</time></trkpt><trkpt lat="46.519123" lon="12.8819393"><ele>703.0</ele><time>2026-04-22T11:17:23.649Z</time></trkpt><trkpt lat="46.5190751" lon="12.8817401"><ele>702.5</ele><time>2026-04-22T11:17:24.648Z</time></trkpt><trkpt lat="46.5190192" lon="12.88155"><ele>702.0</ele><time>2026-04-22T11:17:25.649Z</time></trkpt><trkpt lat="46.5189535" lon="12.8813673"><ele>701.5</ele><time>2026-04-22T11:17:26.649Z</time></trkpt><trkpt lat="46.5188804" lon="12.8812014"><ele>701.0</ele><time>2026-04-22T11:17:27.649Z</time></trkpt><trkpt lat="46.5188033" lon="12.8810575"><ele>703.4</ele><time>2026-04-22T11:17:28.649Z</time></trkpt><trkpt lat="46.518727" lon="12.8809378"><ele>705.8</ele><time>2026-04-22T11:17:29.648Z</time></trkpt><trkpt lat="46.5186534" lon="12.8808305"><ele>708.1999999999999</ele><time>2026-04-22T11:17:30.648Z</time></trkpt><trkpt lat="46.5185884" lon="12.8807314"><ele>710.5999999999999</ele><time>2026-04-22T11:17:31.648Z</time></trkpt><trkpt lat="46.5185288" lon="12.8806483"><ele>713.0</ele><time>2026-04-22T11:17:32.648Z</time></trkpt><trkpt lat="46.5184719" lon="12.8805813"><ele>713.0</ele><time>2026-04-22T11:17:33.649Z</time></trkpt><trkpt lat="46.518412" lon="12.8804819"><ele>713.0</ele><time>2026-04-22T11:17:35.648Z</time></trkpt><trkpt lat="46.5184862" lon="12.8804533"><ele>713.0</ele><time>2026-04-22T11:17:40.649Z</time></trkpt><trkpt lat="46.5185449" lon="12.8805394"><ele>713.0</ele><time>2026-04-22T11:17:42.648Z</time></trkpt><trkpt lat="46.5185884" lon="12.8806241"><ele>713.0</ele><time>2026-04-22T11:17:43.648Z</time></trkpt><trkpt lat="46.5186464" lon="12.8807208"><ele>713.0</ele><time>2026-04-22T11:17:44.649Z</time></trkpt><trkpt lat="46.5187037" lon="12.8808016"><ele>711.0</ele><time>2026-04-22T11:17:45.648Z</time></trkpt><trkpt lat="46.5187662" lon="12.8808953"><ele>709.0</ele><time>2026-04-22T11:17:46.648Z</time></trkpt><trkpt lat="46.5188282" lon="12.880964"><ele>707.0</ele><time>2026-04-22T11:17:47.649Z</time></trkpt><trkpt lat="46.5188668" lon="12.8810409"><ele>705.0</ele><time>2026-04-22T11:17:48.648Z</time></trkpt><trkpt lat="46.5189247" lon="12.8811299"><ele>703.0</ele><time>2026-04-22T11:17:49.648Z</time></trkpt><trkpt lat="46.518993" lon="12.8812485"><ele>701.0</ele><time>2026-04-22T11:17:50.648Z</time></trkpt><trkpt lat="46.5190411" lon="12.8813489"><ele>701.0</ele><time>2026-04-22T11:17:51.648Z</time></trkpt><trkpt lat="46.5190793" lon="12.8814453"><ele>701.0</ele><time>2026-04-22T11:17:52.649Z</time></trkpt><trkpt lat="46.5191138" lon="12.8815425"><ele>701.0</ele><time>2026-04-22T11:17:53.648Z</time></trkpt><trkpt lat="46.5191602" lon="12.8816637"><ele>701.0</ele><time>2026-04-22T11:17:54.648Z</time></trkpt><trkpt lat="46.5191893" lon="12.8817789"><ele>701.0</ele><time>2026-04-22T11:17:55.648Z</time></trkpt><trkpt lat="46.5192126" lon="12.8818724"><ele>701.0</ele><time>2026-04-22T11:17:56.649Z</time></trkpt><trkpt lat="46.5192416" lon="12.8820511"><ele>701.3333333333333</ele><time>2026-04-22T11:17:58.648Z</time></trkpt><trkpt lat="46.5192445" lon="12.8821649"><ele>701.6666666666666</ele><time>2026-04-22T11:17:59.648Z</time></trkpt><trkpt lat="46.5192508" lon="12.8822936"><ele>702.0</ele><time>2026-04-22T11:18:00.649Z</time></trkpt><trkpt lat="46.5192524" lon="12.8823987"><ele>702.3333333333334</ele><time>2026-04-22T11:18:01.649Z</time></trkpt><trkpt lat="46.519252" lon="12.8824993"><ele>702.6666666666667</ele><time>2026-04-22T11:18:02.648Z</time></trkpt><trkpt lat="46.5192694" lon="12.8826039"><ele>703.0</ele><time>2026-04-22T11:18:03.648Z</time></trkpt><trkpt lat="46.5192991" lon="12.8827193"><ele>704.0</ele><time>2026-04-22T11:18:04.648Z</time></trkpt><trkpt lat="46.5193225" lon="12.882825"><ele>705.0</ele><time>2026-04-22T11:18:05.649Z</time></trkpt><trkpt lat="46.519327" lon="12.8829187"><ele>706.0</ele><time>2026-04-22T11:18:06.648Z</time></trkpt><trkpt lat="46.5192996" lon="12.8831368"><ele>707.0</ele><time>2026-04-22T11:18:08.648Z</time></trkpt><trkpt lat="46.5192943" lon="12.8832666"><ele>708.0</ele><time>2026-04-22T11:18:09.648Z</time></trkpt><trkpt lat="46.519296" lon="12.8833814"><ele>708.8333333333334</ele><time>2026-04-22T11:18:10.649Z</time></trkpt><trkpt lat="46.5193046" lon="12.8834937"><ele>709.6666666666666</ele><time>2026-04-22T11:18:11.648Z</time></trkpt><trkpt lat="46.5193261" lon="12.883615"><ele>710.5</ele><time>2026-04-22T11:18:12.648Z</time></trkpt><trkpt lat="46.5193604" lon="12.8837214"><ele>711.3333333333333</ele><time>2026-04-22T11:18:13.648Z</time></trkpt><trkpt lat="46.5194057" lon="12.8838298"><ele>712.1666666666666</ele><time>2026-04-22T11:18:14.648Z</time></trkpt><trkpt lat="46.5194485" lon="12.883916"><ele>713.0</ele><time>2026-04-22T11:18:15.648Z</time></trkpt><trkpt lat="46.519489" lon="12.884004"><ele>713.0</ele><time>2026-04-22T11:18:16.648Z</time></trkpt><trkpt lat="46.5195271" lon="12.8841248"><ele>713.0</ele><time>2026-04-22T11:18:17.648Z</time></trkpt><trkpt lat="46.5195636" lon="12.8842647"><ele>713.0</ele><time>2026-04-22T11:18:18.649Z</time></trkpt><trkpt lat="46.5196011" lon="12.8843959"><ele>713.0</ele><time>2026-04-22T11:18:19.649Z</time></trkpt><trkpt lat="46.5196291" lon="12.8844937"><ele>713.0</ele><time>2026-04-22T11:18:20.648Z</time></trkpt><trkpt lat="46.519651" lon="12.884587"><ele>713.0</ele><time>2026-04-22T11:18:21.649Z</time></trkpt><trkpt lat="46.5196597" lon="12.8847307"><ele>708.5</ele><time>2026-04-22T11:18:23.648Z</time></trkpt><trkpt lat="46.5196979" lon="12.8848038"><ele>704.0</ele><time>2026-04-22T11:18:25.648Z</time></trkpt><trkpt lat="46.5197185" lon="12.8849057"><ele>699.5</ele><time>2026-04-22T11:18:28.648Z</time></trkpt><trkpt lat="46.5196775" lon="12.8848196"><ele>695.0</ele><time>2026-04-22T11:33:43.646Z</time></trkpt><trkpt lat="46.5196726" lon="12.884676"><ele>690.5</ele><time>2026-04-22T11:33:46.646Z</time></trkpt><trkpt lat="46.519652" lon="12.8845225"><ele>686.0</ele><time>2026-04-22T11:33:48.645Z</time></trkpt><trkpt lat="46.5196147" lon="12.8844139"><ele>686.0</ele><time>2026-04-22T11:33:49.645Z</time></trkpt><trkpt lat="46.5195823" lon="12.8843228"><ele>686.0</ele><time>2026-04-22T11:33:50.645Z</time></trkpt><trkpt lat="46.5195553" lon="12.8842331"><ele>686.0</ele><time>2026-04-22T11:33:51.645Z</time></trkpt><trkpt lat="46.519528" lon="12.8841307"><ele>686.0</ele><time>2026-04-22T11:33:52.645Z</time></trkpt><trkpt lat="46.5194987" lon="12.8840417"><ele>686.0</ele><time>2026-04-22T11:33:53.646Z</time></trkpt><trkpt lat="46.5194611" lon="12.8839508"><ele>686.0</ele><time>2026-04-22T11:33:54.647Z</time></trkpt><trkpt lat="46.5194217" lon="12.8838766"><ele>686.0</ele><time>2026-04-22T11:33:55.645Z</time></trkpt><trkpt lat="46.5193867" lon="12.8837986"><ele>689.6666666666666</ele><time>2026-04-22T11:33:56.645Z</time></trkpt><trkpt lat="46.5193548" lon="12.8837197"><ele>693.3333333333333</ele><time>2026-04-22T11:33:57.645Z</time></trkpt><trkpt lat="46.5193147" lon="12.8835522"><ele>697.0</ele><time>2026-04-22T11:33:59.645Z</time></trkpt><trkpt lat="46.519304" lon="12.8834347"><ele>700.6666666666666</ele><time>2026-04-22T11:34:00.645Z</time></trkpt><trkpt lat="46.5193003" lon="12.8833314"><ele>704.3333333333334</ele><time>2026-04-22T11:34:01.645Z</time></trkpt><trkpt lat="46.5193015" lon="12.8832008"><ele>708.0</ele><time>2026-04-22T11:34:02.645Z</time></trkpt><trkpt lat="46.5193161" lon="12.8831053"><ele>708.0</ele><time>2026-04-22T11:34:03.646Z</time></trkpt><trkpt lat="46.5193367" lon="12.8829214"><ele>708.0</ele><time>2026-04-22T11:34:05.646Z</time></trkpt><trkpt lat="46.5193306" lon="12.8828231"><ele>708.0</ele><time>2026-04-22T11:34:06.645Z</time></trkpt><trkpt lat="46.5193109" lon="12.8827316"><ele>708.0</ele><time>2026-04-22T11:34:07.645Z</time></trkpt><trkpt lat="46.5192783" lon="12.8825701"><ele>708.0</ele><time>2026-04-22T11:34:09.646Z</time></trkpt><trkpt lat="46.5192731" lon="12.8824534"><ele>707.1666666666666</ele><time>2026-04-22T11:34:10.645Z</time></trkpt><trkpt lat="46.5192697" lon="12.8823342"><ele>706.3333333333334</ele><time>2026-04-22T11:34:11.645Z</time></trkpt><trkpt lat="46.5192614" lon="12.8822369"><ele>705.5</ele><time>2026-04-22T11:34:12.646Z</time></trkpt><trkpt lat="46.5192558" lon="12.8821224"><ele>704.6666666666667</ele><time>2026-04-22T11:34:13.646Z</time></trkpt><trkpt lat="46.519253" lon="12.882022"><ele>703.8333333333334</ele><time>2026-04-22T11:34:14.645Z</time></trkpt><trkpt lat="46.5192366" lon="12.8819155"><ele>703.0</ele><time>2026-04-22T11:34:15.645Z</time></trkpt><trkpt lat="46.5192069" lon="12.8817891"><ele>702.6666666666667</ele><time>2026-04-22T11:34:16.645Z</time></trkpt><trkpt lat="46.5191794" lon="12.8816861"><ele>702.3333333333334</ele><time>2026-04-22T11:34:17.645Z</time></trkpt><trkpt lat="46.5191507" lon="12.8815898"><ele>702.0</ele><time>2026-04-22T11:34:18.645Z</time></trkpt><trkpt lat="46.519111" lon="12.8814882"><ele>701.6666666666666</ele><time>2026-04-22T11:34:19.646Z</time></trkpt><trkpt lat="46.5190808" lon="12.8813959"><ele>701.3333333333333</ele><time>2026-04-22T11:34:20.645Z</time></trkpt><trkpt lat="46.5190378" lon="12.8812954"><ele>701.0</ele><time>2026-04-22T11:34:21.645Z</time></trkpt><trkpt lat="46.5189773" lon="12.881179"><ele>701.0</ele><time>2026-04-22T11:34:22.646Z</time></trkpt><trkpt lat="46.5189206" lon="12.8810913"><ele>701.0</ele><time>2026-04-22T11:34:23.646Z</time></trkpt><trkpt lat="46.5188632" lon="12.880992"><ele>701.0</ele><time>2026-04-22T11:34:24.645Z</time></trkpt><trkpt lat="46.5187939" lon="12.8809064"><ele>701.0</ele><time>2026-04-22T11:34:25.645Z</time></trkpt><trkpt lat="46.5187311" lon="12.8808269"><ele>701.0</ele><time>2026-04-22T11:34:26.647Z</time></trkpt><trkpt lat="46.5186661" lon="12.8807397"><ele>701.0</ele><time>2026-04-22T11:34:27.646Z</time></trkpt><trkpt lat="46.5186031" lon="12.8806448"><ele>703.4</ele><time>2026-04-22T11:34:28.645Z</time></trkpt><trkpt lat="46.5185471" lon="12.8805353"><ele>705.8</ele><time>2026-04-22T11:34:29.646Z</time></trkpt><trkpt lat="46.5184732" lon="12.8804333"><ele>708.1999999999999</ele><time>2026-04-22T11:34:31.645Z</time></trkpt><trkpt lat="46.5183872" lon="12.8803844"><ele>710.5999999999999</ele><time>2026-04-22T11:34:46.646Z</time></trkpt><trkpt lat="46.51832" lon="12.8803284"><ele>713.0</ele><time>2026-04-22T11:34:47.645Z</time></trkpt><trkpt lat="46.5182617" lon="12.8802348"><ele>713.0</ele><time>2026-04-22T11:34:48.645Z</time></trkpt><trkpt lat="46.5181847" lon="12.8801092"><ele>713.0</ele><time>2026-04-22T11:34:49.645Z</time></trkpt><trkpt lat="46.5181147" lon="12.879983"><ele>713.0</ele><time>2026-04-22T11:34:50.646Z</time></trkpt><trkpt lat="46.5180476" lon="12.8798464"><ele>713.0</ele><time>2026-04-22T11:34:51.645Z</time></trkpt><trkpt lat="46.5179833" lon="12.8797215"><ele>711.6666666666666</ele><time>2026-04-22T11:34:52.645Z</time></trkpt><trkpt lat="46.5179268" lon="12.8796021"><ele>710.3333333333333</ele><time>2026-04-22T11:34:53.645Z</time></trkpt><trkpt lat="46.5178862" lon="12.879483"><ele>709.0</ele><time>2026-04-22T11:34:54.646Z</time></trkpt><trkpt lat="46.5178805" lon="12.8793742"><ele>707.6666666666666</ele><time>2026-04-22T11:34:55.645Z</time></trkpt><trkpt lat="46.5179181" lon="12.8792817"><ele>706.3333333333334</ele><time>2026-04-22T11:34:56.645Z</time></trkpt><trkpt lat="46.5179894" lon="12.8792346"><ele>705.0</ele><time>2026-04-22T11:34:57.645Z</time></trkpt><trkpt lat="46.5180711" lon="12.8792593"><ele>699.2</ele><time>2026-04-22T11:34:58.645Z</time></trkpt><trkpt lat="46.5181485" lon="12.8793311"><ele>693.4</ele><time>2026-04-22T11:34:59.646Z</time></trkpt><trkpt lat="46.5182405" lon="12.8794103"><ele>687.5999999999999</ele><time>2026-04-22T11:35:00.645Z</time></trkpt><trkpt lat="46.5183284" lon="12.8794954"><ele>681.8</ele><time>2026-04-22T11:35:01.645Z</time></trkpt><trkpt lat="46.5184227" lon="12.8795677"><ele>676.0</ele><time>2026-04-22T11:35:02.646Z</time></trkpt><trkpt lat="46.5185277" lon="12.8795961"><ele>676.0</ele><time>2026-04-22T11:35:03.645Z</time></trkpt><trkpt lat="46.5186346" lon="12.8795685"><ele>676.0</ele><time>2026-04-22T11:35:04.646Z</time></trkpt><trkpt lat="46.5187337" lon="12.8795029"><ele>676.0</ele><time>2026-04-22T11:35:05.645Z</time></trkpt><trkpt lat="46.5188202" lon="12.8794164"><ele>676.0</ele><time>2026-04-22T11:35:06.645Z</time></trkpt><trkpt lat="46.5189001" lon="12.8793244"><ele>676.0</ele><time>2026-04-22T11:35:07.645Z</time></trkpt><trkpt lat="46.5189645" lon="12.8792131"><ele>669.5</ele><time>2026-04-22T11:35:08.645Z</time></trkpt><trkpt lat="46.5189907" lon="12.8790664"><ele>663.0</ele><time>2026-04-22T11:35:09.645Z</time></trkpt><trkpt lat="46.5189789" lon="12.8789015"><ele>656.5</ele><time>2026-04-22T11:35:10.646Z</time></trkpt><trkpt lat="46.5189459" lon="12.8787306"><ele>650.0</ele><time>2026-04-22T11:35:11.645Z</time></trkpt><trkpt lat="46.5189019" lon="12.878547"><ele>649.0</ele><time>2026-04-22T11:35:12.645Z</time></trkpt><trkpt lat="46.5188631" lon="12.8783672"><ele>648.0</ele><time>2026-04-22T11:35:13.645Z</time></trkpt><trkpt lat="46.5188347" lon="12.8781852"><ele>647.0</ele><time>2026-04-22T11:35:14.645Z</time></trkpt><trkpt lat="46.5188115" lon="12.8779805"><ele>646.0</ele><time>2026-04-22T11:35:15.645Z</time></trkpt><trkpt lat="46.5187971" lon="12.8777804"><ele>645.25</ele><time>2026-04-22T11:35:16.645Z</time></trkpt><trkpt lat="46.5187848" lon="12.8775849"><ele>644.5</ele><time>2026-04-22T11:35:17.646Z</time></trkpt><trkpt lat="46.5187729" lon="12.877397"><ele>643.75</ele><time>2026-04-22T11:35:18.645Z</time></trkpt><trkpt lat="46.5187508" lon="12.8772227"><ele>643.0</ele><time>2026-04-22T11:35:19.646Z</time></trkpt><trkpt lat="46.5186967" lon="12.8770904"><ele>643.0</ele><time>2026-04-22T11:35:20.645Z</time></trkpt><trkpt lat="46.5186047" lon="12.8770096"><ele>643.0</ele><time>2026-04-22T11:35:21.647Z</time></trkpt><trkpt lat="46.5184987" lon="12.8769979"><ele>643.0</ele><time>2026-04-22T11:35:22.645Z</time></trkpt><trkpt lat="46.5183931" lon="12.8770624"><ele>643.0</ele><time>2026-04-22T11:35:23.645Z</time></trkpt><trkpt lat="46.5182871" lon="12.8771792"><ele>643.0</ele><time>2026-04-22T11:35:24.645Z</time></trkpt><trkpt lat="46.5181798" lon="12.8773117"><ele>643.0</ele><time>2026-04-22T11:35:25.645Z</time></trkpt><trkpt lat="46.5180614" lon="12.8774178"><ele>643.0</ele><time>2026-04-22T11:35:26.645Z</time></trkpt><trkpt lat="46.517935" lon="12.877486"><ele>643.0</ele><time>2026-04-22T11:35:27.646Z</time></trkpt><trkpt lat="46.5178175" lon="12.877532"><ele>642.5999999999999</ele><time>2026-04-22T11:35:28.645Z</time></trkpt><trkpt lat="46.5177103" lon="12.8775686"><ele>642.1999999999999</ele><time>2026-04-22T11:35:29.646Z</time></trkpt><trkpt lat="46.5176071" lon="12.8775971"><ele>641.8</ele><time>2026-04-22T11:35:30.645Z</time></trkpt><trkpt lat="46.5175191" lon="12.877566"><ele>641.4</ele><time>2026-04-22T11:35:31.645Z</time></trkpt><trkpt lat="46.517449" lon="12.877479"><ele>641.0</ele><time>2026-04-22T11:35:32.645Z</time></trkpt><trkpt lat="46.517423" lon="12.8773515"><ele>641.0</ele><time>2026-04-22T11:35:33.645Z</time></trkpt><trkpt lat="46.5174324" lon="12.8771793"><ele>641.0</ele><time>2026-04-22T11:35:34.645Z</time></trkpt><trkpt lat="46.5174326" lon="12.8770018"><ele>641.0</ele><time>2026-04-22T11:35:35.645Z</time></trkpt><trkpt lat="46.5173932" lon="12.8768242"><ele>641.0</ele><time>2026-04-22T11:35:36.646Z</time></trkpt><trkpt lat="46.5172981" lon="12.8766538"><ele>641.3333333333333</ele><time>2026-04-22T11:35:37.645Z</time></trkpt><trkpt lat="46.517178" lon="12.8764642"><ele>641.6666666666666</ele><time>2026-04-22T11:35:38.645Z</time></trkpt><trkpt lat="46.5170681" lon="12.8762962"><ele>642.0</ele><time>2026-04-22T11:35:39.646Z</time></trkpt><trkpt lat="46.5169678" lon="12.8761492"><ele>642.0</ele><time>2026-04-22T11:35:40.646Z</time></trkpt><trkpt lat="46.516881" lon="12.8760243"><ele>642.0</ele><time>2026-04-22T11:35:41.645Z</time></trkpt><trkpt lat="46.5168085" lon="12.8759238"><ele>642.0</ele><time>2026-04-22T11:35:42.646Z</time></trkpt><trkpt lat="46.516751" lon="12.8758406"><ele>642.0</ele><time>2026-04-22T11:35:43.645Z</time></trkpt><trkpt lat="46.516747" lon="12.8756719"><ele>642.0</ele><time>2026-04-22T11:35:45.645Z</time></trkpt><trkpt lat="46.5168853" lon="12.8756936"><ele>637.75</ele><time>2026-04-22T11:35:47.645Z</time></trkpt><trkpt lat="46.5169847" lon="12.8757884"><ele>633.5</ele><time>2026-04-22T11:35:48.646Z</time></trkpt><trkpt lat="46.5170773" lon="12.8758929"><ele>629.25</ele><time>2026-04-22T11:35:49.645Z</time></trkpt><trkpt lat="46.5171611" lon="12.8759925"><ele>625.0</ele><time>2026-04-22T11:35:50.645Z</time></trkpt><trkpt lat="46.5172456" lon="12.8760851"><ele>625.0</ele><time>2026-04-22T11:35:51.645Z</time></trkpt><trkpt lat="46.5173236" lon="12.8761795"><ele>625.0</ele><time>2026-04-22T11:35:52.645Z</time></trkpt><trkpt lat="46.5174048" lon="12.8762426"><ele>625.0</ele><time>2026-04-22T11:35:53.646Z</time></trkpt><trkpt lat="46.5174989" lon="12.8762711"><ele>625.0</ele><time>2026-04-22T11:35:54.645Z</time></trkpt><trkpt lat="46.517613" lon="12.8762641"><ele>625.0</ele><time>2026-04-22T11:35:55.645Z</time></trkpt><trkpt lat="46.5177135" lon="12.8762228"><ele>625.0</ele><time>2026-04-22T11:35:56.645Z</time></trkpt><trkpt lat="46.517812" lon="12.8761793"><ele>625.0</ele><time>2026-04-22T11:35:57.647Z</time></trkpt><trkpt lat="46.5179053" lon="12.8761415"><ele>625.0</ele><time>2026-04-22T11:35:58.646Z</time></trkpt><trkpt lat="46.5179895" lon="12.8760754"><ele>625.0</ele><time>2026-04-22T11:35:59.645Z</time></trkpt><trkpt lat="46.5180469" lon="12.8760109"><ele>625.0</ele><time>2026-04-22T11:36:00.645Z</time></trkpt><trkpt lat="46.518099" lon="12.8759576"><ele>625.0</ele><time>2026-04-22T11:36:01.645Z</time></trkpt><trkpt lat="46.5181584" lon="12.8758095"><ele>622.5</ele><time>2026-04-22T11:36:03.645Z</time></trkpt><trkpt lat="46.5181746" lon="12.8756907"><ele>620.0</ele><time>2026-04-22T11:36:04.645Z</time></trkpt><trkpt lat="46.518186" lon="12.8755635"><ele>617.5</ele><time>2026-04-22T11:36:05.645Z</time></trkpt><trkpt lat="46.518199" lon="12.8754389"><ele>615.0</ele><time>2026-04-22T11:36:06.646Z</time></trkpt><trkpt lat="46.5181792" lon="12.8753032"><ele>612.5</ele><time>2026-04-22T11:36:07.646Z</time></trkpt><trkpt lat="46.518171" lon="12.8751657"><ele>610.0</ele><time>2026-04-22T11:36:08.645Z</time></trkpt><trkpt lat="46.5181714" lon="12.8750355"><ele>609.2</ele><time>2026-04-22T11:36:09.645Z</time></trkpt><trkpt lat="46.518169" lon="12.8749019"><ele>608.4</ele><time>2026-04-22T11:36:10.645Z</time></trkpt><trkpt lat="46.5181429" lon="12.8747584"><ele>607.6</ele><time>2026-04-22T11:36:11.645Z</time></trkpt><trkpt lat="46.5180967" lon="12.8746051"><ele>606.8</ele><time>2026-04-22T11:36:12.645Z</time></trkpt><trkpt lat="46.5180443" lon="12.8744698"><ele>606.0</ele><time>2026-04-22T11:36:13.645Z</time></trkpt><trkpt lat="46.517986" lon="12.8743309"><ele>605.25</ele><time>2026-04-22T11:36:14.645Z</time></trkpt><trkpt lat="46.5179259" lon="12.8741908"><ele>604.5</ele><time>2026-04-22T11:36:15.645Z</time></trkpt><trkpt lat="46.5178668" lon="12.8740501"><ele>603.75</ele><time>2026-04-22T11:36:16.645Z</time></trkpt><trkpt lat="46.5178084" lon="12.8739076"><ele>603.0</ele><time>2026-04-22T11:36:17.646Z</time></trkpt><trkpt lat="46.5177478" lon="12.8737646"><ele>603.0</ele><time>2026-04-22T11:36:18.646Z</time></trkpt><trkpt lat="46.5176917" lon="12.8736155"><ele>603.0</ele><time>2026-04-22T11:36:19.645Z</time></trkpt><trkpt lat="46.5176417" lon="12.8734621"><ele>603.0</ele><time>2026-04-22T11:36:20.645Z</time></trkpt><trkpt lat="46.5175988" lon="12.873304"><ele>603.0</ele><time>2026-04-22T11:36:21.646Z</time></trkpt><trkpt lat="46.517562" lon="12.8731436"><ele>602.25</ele><time>2026-04-22T11:36:22.645Z</time></trkpt><trkpt lat="46.5175299" lon="12.8729823"><ele>601.5</ele><time>2026-04-22T11:36:23.645Z</time></trkpt><trkpt lat="46.5174988" lon="12.872819"><ele>600.75</ele><time>2026-04-22T11:36:24.645Z</time></trkpt><trkpt lat="46.5174639" lon="12.8726566"><ele>600.0</ele><time>2026-04-22T11:36:25.646Z</time></trkpt><trkpt lat="46.5174243" lon="12.8724959"><ele>599.0</ele><time>2026-04-22T11:36:26.645Z</time></trkpt><trkpt lat="46.5173748" lon="12.8723408"><ele>598.0</ele><time>2026-04-22T11:36:27.645Z</time></trkpt><trkpt lat="46.5173055" lon="12.8722007"><ele>597.0</ele><time>2026-04-22T11:36:28.645Z</time></trkpt><trkpt lat="46.5172312" lon="12.87207"><ele>596.0</ele><time>2026-04-22T11:36:29.647Z</time></trkpt><trkpt lat="46.5171595" lon="12.8719432"><ele>596.0</ele><time>2026-04-22T11:36:30.646Z</time></trkpt><trkpt lat="46.5170954" lon="12.8717958"><ele>596.0</ele><time>2026-04-22T11:36:31.645Z</time></trkpt><trkpt lat="46.5170452" lon="12.8716301"><ele>596.0</ele><time>2026-04-22T11:36:32.646Z</time></trkpt><trkpt lat="46.5170074" lon="12.8714457"><ele>596.0</ele><time>2026-04-22T11:36:33.645Z</time></trkpt><trkpt lat="46.5169659" lon="12.8712469"><ele>595.25</ele><time>2026-04-22T11:36:34.645Z</time></trkpt><trkpt lat="46.5169269" lon="12.8710369"><ele>594.5</ele><time>2026-04-22T11:36:35.646Z</time></trkpt><trkpt lat="46.5168913" lon="12.8708396"><ele>593.75</ele><time>2026-04-22T11:36:36.645Z</time></trkpt><trkpt lat="46.516855" lon="12.8706437"><ele>593.0</ele><time>2026-04-22T11:36:37.645Z</time></trkpt><trkpt lat="46.5168179" lon="12.8704562"><ele>591.25</ele><time>2026-04-22T11:36:38.646Z</time></trkpt><trkpt lat="46.5167832" lon="12.8702647"><ele>589.5</ele><time>2026-04-22T11:36:39.645Z</time></trkpt><trkpt lat="46.5167499" lon="12.8700804"><ele>587.75</ele><time>2026-04-22T11:36:40.646Z</time></trkpt><trkpt lat="46.5167192" lon="12.8698996"><ele>586.0</ele><time>2026-04-22T11:36:41.645Z</time></trkpt><trkpt lat="46.5166869" lon="12.869724"><ele>584.75</ele><time>2026-04-22T11:36:42.645Z</time></trkpt><trkpt lat="46.5166503" lon="12.8695453"><ele>583.5</ele><time>2026-04-22T11:36:43.645Z</time></trkpt><trkpt lat="46.5166154" lon="12.8693684"><ele>582.25</ele><time>2026-04-22T11:36:44.645Z</time></trkpt><trkpt lat="46.5165717" lon="12.8691902"><ele>581.0</ele><time>2026-04-22T11:36:45.646Z</time></trkpt><trkpt lat="46.5165345" lon="12.8690083"><ele>581.0</ele><time>2026-04-22T11:36:46.646Z</time></trkpt><trkpt lat="46.5165085" lon="12.8688231"><ele>581.0</ele><time>2026-04-22T11:36:47.645Z</time></trkpt><trkpt lat="46.5164862" lon="12.8686431"><ele>581.0</ele><time>2026-04-22T11:36:48.645Z</time></trkpt><trkpt lat="46.5164659" lon="12.8684665"><ele>581.0</ele><time>2026-04-22T11:36:49.646Z</time></trkpt><trkpt lat="46.5164472" lon="12.8682869"><ele>581.5</ele><time>2026-04-22T11:36:50.645Z</time></trkpt><trkpt lat="46.5164336" lon="12.8681061"><ele>582.0</ele><time>2026-04-22T11:36:51.645Z</time></trkpt><trkpt lat="46.5164198" lon="12.8679277"><ele>582.5</ele><time>2026-04-22T11:36:52.645Z</time></trkpt><trkpt lat="46.516424" lon="12.8677486"><ele>583.0</ele><time>2026-04-22T11:36:53.646Z</time></trkpt><trkpt lat="46.5164404" lon="12.8675776"><ele>581.3333333333334</ele><time>2026-04-22T11:36:54.645Z</time></trkpt><trkpt lat="46.5164549" lon="12.8674204"><ele>579.6666666666667</ele><time>2026-04-22T11:36:55.645Z</time></trkpt><trkpt lat="46.5164691" lon="12.8672748"><ele>578.0</ele><time>2026-04-22T11:36:56.645Z</time></trkpt><trkpt lat="46.5164847" lon="12.8671469"><ele>576.3333333333334</ele><time>2026-04-22T11:36:57.645Z</time></trkpt><trkpt lat="46.5164974" lon="12.8670339"><ele>574.6666666666666</ele><time>2026-04-22T11:36:58.645Z</time></trkpt><trkpt lat="46.5165107" lon="12.8669372"><ele>573.0</ele><time>2026-04-22T11:36:59.645Z</time></trkpt><trkpt lat="46.5165204" lon="12.8668459"><ele>571.8</ele><time>2026-04-22T11:37:00.646Z</time></trkpt><trkpt lat="46.5164524" lon="12.8667361"><ele>570.5999999999999</ele><time>2026-04-22T11:37:02.645Z</time></trkpt><trkpt lat="46.5163857" lon="12.8667208"><ele>569.4000000000001</ele><time>2026-04-22T11:37:03.645Z</time></trkpt><trkpt lat="46.5162934" lon="12.8667156"><ele>568.2</ele><time>2026-04-22T11:37:04.645Z</time></trkpt><trkpt lat="46.5161956" lon="12.8667149"><ele>567.0</ele><time>2026-04-22T11:37:05.646Z</time></trkpt><trkpt lat="46.5160877" lon="12.866715"><ele>563.4</ele><time>2026-04-22T11:37:06.645Z</time></trkpt><trkpt lat="46.5159843" lon="12.8667088"><ele>559.8000000000001</ele><time>2026-04-22T11:37:07.646Z</time></trkpt><trkpt lat="46.5158775" lon="12.8667046"><ele>556.2</ele><time>2026-04-22T11:37:08.645Z</time></trkpt><trkpt lat="46.5157793" lon="12.866718"><ele>552.6</ele><time>2026-04-22T11:37:09.645Z</time></trkpt><trkpt lat="46.5156817" lon="12.8667401"><ele>549.0</ele><time>2026-04-22T11:37:10.645Z</time></trkpt><trkpt lat="46.5155899" lon="12.8667648"><ele>549.6</ele><time>2026-04-22T11:37:11.645Z</time></trkpt><trkpt lat="46.5155009" lon="12.8668047"><ele>550.2</ele><time>2026-04-22T11:37:12.646Z</time></trkpt><trkpt lat="46.5154148" lon="12.866875"><ele>550.8000000000001</ele><time>2026-04-22T11:37:13.646Z</time></trkpt><trkpt lat="46.5153331" lon="12.8669642"><ele>551.4</ele><time>2026-04-22T11:37:14.645Z</time></trkpt><trkpt lat="46.5152634" lon="12.8670519"><ele>552.0</ele><time>2026-04-22T11:37:15.645Z</time></trkpt><trkpt lat="46.5151971" lon="12.8671369"><ele>552.0</ele><time>2026-04-22T11:37:16.645Z</time></trkpt><trkpt lat="46.5151281" lon="12.8672189"><ele>552.0</ele><time>2026-04-22T11:37:17.646Z</time></trkpt><trkpt lat="46.5150622" lon="12.8672824"><ele>552.0</ele><time>2026-04-22T11:37:18.645Z</time></trkpt><trkpt lat="46.5149627" lon="12.8673596"><ele>552.0</ele><time>2026-04-22T11:37:20.646Z</time></trkpt><trkpt lat="46.51484" lon="12.8674032"><ele>552.0</ele><time>2026-04-22T11:37:22.645Z</time></trkpt><trkpt lat="46.5147616" lon="12.8674035"><ele>552.0</ele><time>2026-04-22T11:37:23.646Z</time></trkpt><trkpt lat="46.5146803" lon="12.8674041"><ele>552.0</ele><time>2026-04-22T11:37:24.646Z</time></trkpt><trkpt lat="46.514516" lon="12.8674262"><ele>552.0</ele><time>2026-04-22T11:37:25.645Z</time></trkpt><trkpt lat="46.5143988" lon="12.8674792"><ele>552.0</ele><time>2026-04-22T11:37:26.645Z</time></trkpt><trkpt lat="46.5142731" lon="12.8675478"><ele>553.25</ele><time>2026-04-22T11:37:27.645Z</time></trkpt><trkpt lat="46.5141532" lon="12.867625"><ele>554.5</ele><time>2026-04-22T11:37:28.646Z</time></trkpt><trkpt lat="46.514035" lon="12.8677009"><ele>555.75</ele><time>2026-04-22T11:37:29.645Z</time></trkpt><trkpt lat="46.5139176" lon="12.867784"><ele>557.0</ele><time>2026-04-22T11:37:30.645Z</time></trkpt><trkpt lat="46.5137966" lon="12.86786"><ele>556.25</ele><time>2026-04-22T11:37:31.645Z</time></trkpt><trkpt lat="46.5136685" lon="12.8679131"><ele>555.5</ele><time>2026-04-22T11:37:32.645Z</time></trkpt><trkpt lat="46.5135359" lon="12.8679383"><ele>554.75</ele><time>2026-04-22T11:37:33.645Z</time></trkpt><trkpt lat="46.5133976" lon="12.8679371"><ele>554.0</ele><time>2026-04-22T11:37:34.646Z</time></trkpt><trkpt lat="46.5132523" lon="12.8679161"><ele>554.0</ele><time>2026-04-22T11:37:35.646Z</time></trkpt><trkpt lat="46.5131125" lon="12.8678926"><ele>554.0</ele><time>2026-04-22T11:37:36.646Z</time></trkpt><trkpt lat="46.5129801" lon="12.8678673"><ele>554.0</ele><time>2026-04-22T11:37:37.645Z</time></trkpt><trkpt lat="46.512847" lon="12.8678414"><ele>554.0</ele><time>2026-04-22T11:37:38.645Z</time></trkpt><trkpt lat="46.5127138" lon="12.8678188"><ele>556.75</ele><time>2026-04-22T11:37:39.645Z</time></trkpt><trkpt lat="46.5125838" lon="12.8677948"><ele>559.5</ele><time>2026-04-22T11:37:40.645Z</time></trkpt><trkpt lat="46.5124547" lon="12.867765"><ele>562.25</ele><time>2026-04-22T11:37:41.645Z</time></trkpt><trkpt lat="46.5123169" lon="12.867717"><ele>565.0</ele><time>2026-04-22T11:37:42.646Z</time></trkpt><trkpt lat="46.5121748" lon="12.867641"><ele>565.6666666666667</ele><time>2026-04-22T11:37:43.645Z</time></trkpt><trkpt lat="46.512036" lon="12.8675389"><ele>566.3333333333334</ele><time>2026-04-22T11:37:44.645Z</time></trkpt><trkpt lat="46.5118911" lon="12.8674479"><ele>567.0</ele><time>2026-04-22T11:37:45.645Z</time></trkpt><trkpt lat="46.5117452" lon="12.8673716"><ele>567.0</ele><time>2026-04-22T11:37:46.646Z</time></trkpt><trkpt lat="46.5116051" lon="12.8672999"><ele>567.0</ele><time>2026-04-22T11:37:47.646Z</time></trkpt><trkpt lat="46.5114728" lon="12.8672253"><ele>567.0</ele><time>2026-04-22T11:37:48.645Z</time></trkpt><trkpt lat="46.5113425" lon="12.8671542"><ele>567.0</ele><time>2026-04-22T11:37:49.645Z</time></trkpt><trkpt lat="46.5112051" lon="12.8670818"><ele>573.5</ele><time>2026-04-22T11:37:50.645Z</time></trkpt><trkpt lat="46.5110663" lon="12.8670162"><ele>580.0</ele><time>2026-04-22T11:37:51.645Z</time></trkpt><trkpt lat="46.5109304" lon="12.8669498"><ele>586.5</ele><time>2026-04-22T11:37:52.645Z</time></trkpt><trkpt lat="46.5107888" lon="12.8668853"><ele>593.0</ele><time>2026-04-22T11:37:53.645Z</time></trkpt><trkpt lat="46.5106293" lon="12.8668113"><ele>581.6666666666666</ele><time>2026-04-22T11:37:54.647Z</time></trkpt><trkpt lat="46.5104725" lon="12.8667355"><ele>570.3333333333334</ele><time>2026-04-22T11:37:55.646Z</time></trkpt><trkpt lat="46.5103015" lon="12.8666293"><ele>559.0</ele><time>2026-04-22T11:37:56.646Z</time></trkpt><trkpt lat="46.5101303" lon="12.8665018"><ele>559.0</ele><time>2026-04-22T11:37:57.646Z</time></trkpt><trkpt lat="46.509955" lon="12.8663824"><ele>559.0</ele><time>2026-04-22T11:37:58.646Z</time></trkpt><trkpt lat="46.5097812" lon="12.8662752"><ele>559.0</ele><time>2026-04-22T11:37:59.645Z</time></trkpt><trkpt lat="46.5096131" lon="12.8661609"><ele>554.0</ele><time>2026-04-22T11:38:00.645Z</time></trkpt><trkpt lat="46.50945" lon="12.8660419"><ele>549.0</ele><time>2026-04-22T11:38:01.645Z</time></trkpt><trkpt lat="46.5092836" lon="12.8659409"><ele>544.0</ele><time>2026-04-22T11:38:02.646Z</time></trkpt><trkpt lat="46.5091021" lon="12.8658581"><ele>544.0</ele><time>2026-04-22T11:38:03.647Z</time></trkpt><trkpt lat="46.5089133" lon="12.8657989"><ele>544.0</ele><time>2026-04-22T11:38:04.645Z</time></trkpt><trkpt lat="46.5087298" lon="12.8657584"><ele>544.0</ele><time>2026-04-22T11:38:05.645Z</time></trkpt><trkpt lat="46.5085483" lon="12.865737"><ele>546.6666666666667</ele><time>2026-04-22T11:38:06.645Z</time></trkpt><trkpt lat="46.5083619" lon="12.8657505"><ele>549.3333333333334</ele><time>2026-04-22T11:38:07.646Z</time></trkpt><trkpt lat="46.5081789" lon="12.8657745"><ele>552.0</ele><time>2026-04-22T11:38:08.645Z</time></trkpt><trkpt lat="46.5080047" lon="12.8657743"><ele>549.6666666666666</ele><time>2026-04-22T11:38:09.645Z</time></trkpt><trkpt lat="46.5078349" lon="12.8657585"><ele>547.3333333333333</ele><time>2026-04-22T11:38:10.645Z</time></trkpt><trkpt lat="46.5076696" lon="12.8657341"><ele>545.0</ele><time>2026-04-22T11:38:11.645Z</time></trkpt><trkpt lat="46.5075061" lon="12.8657093"><ele>545.0</ele><time>2026-04-22T11:38:12.645Z</time></trkpt><trkpt lat="46.5073465" lon="12.8656829"><ele>545.0</ele><time>2026-04-22T11:38:13.645Z</time></trkpt><trkpt lat="46.5071905" lon="12.8656572"><ele>545.0</ele><time>2026-04-22T11:38:14.645Z</time></trkpt><trkpt lat="46.5070408" lon="12.865625"><ele>550.0</ele><time>2026-04-22T11:38:15.645Z</time></trkpt><trkpt lat="46.506892" lon="12.8655805"><ele>555.0</ele><time>2026-04-22T11:38:16.645Z</time></trkpt><trkpt lat="46.5067469" lon="12.86553"><ele>560.0</ele><time>2026-04-22T11:38:17.646Z</time></trkpt><trkpt lat="46.5066096" lon="12.8654673"><ele>565.0</ele><time>2026-04-22T11:38:18.645Z</time></trkpt><trkpt lat="46.5064772" lon="12.8653894"><ele>565.0</ele><time>2026-04-22T11:38:19.645Z</time></trkpt><trkpt lat="46.5063449" lon="12.8653009"><ele>565.0</ele><time>2026-04-22T11:38:20.645Z</time></trkpt><trkpt lat="46.5062144" lon="12.8652109"><ele>565.0</ele><time>2026-04-22T11:38:21.645Z</time></trkpt><trkpt lat="46.5060849" lon="12.8651204"><ele>565.0</ele><time>2026-04-22T11:38:22.645Z</time></trkpt><trkpt lat="46.5059566" lon="12.8650311"><ele>557.75</ele><time>2026-04-22T11:38:23.645Z</time></trkpt><trkpt lat="46.5058224" lon="12.8649642"><ele>550.5</ele><time>2026-04-22T11:38:24.645Z</time></trkpt><trkpt lat="46.5056817" lon="12.8649253"><ele>543.25</ele><time>2026-04-22T11:38:25.646Z</time></trkpt><trkpt lat="46.5055297" lon="12.8649084"><ele>536.0</ele><time>2026-04-22T11:38:26.645Z</time></trkpt><trkpt lat="46.5053788" lon="12.864913"><ele>533.0</ele><time>2026-04-22T11:38:27.645Z</time></trkpt><trkpt lat="46.5052252" lon="12.8649311"><ele>530.0</ele><time>2026-04-22T11:38:28.645Z</time></trkpt><trkpt lat="46.5050719" lon="12.8649677"><ele>527.0</ele><time>2026-04-22T11:38:29.646Z</time></trkpt><trkpt lat="46.5049212" lon="12.8650266"><ele>527.0</ele><time>2026-04-22T11:38:30.645Z</time></trkpt><trkpt lat="46.5047741" lon="12.8651026"><ele>527.0</ele><time>2026-04-22T11:38:31.645Z</time></trkpt><trkpt lat="46.5046314" lon="12.8651811"><ele>527.0</ele><time>2026-04-22T11:38:32.645Z</time></trkpt><trkpt lat="46.5044891" lon="12.8652576"><ele>533.0</ele><time>2026-04-22T11:38:33.645Z</time></trkpt><trkpt lat="46.5043439" lon="12.8653368"><ele>539.0</ele><time>2026-04-22T11:38:34.645Z</time></trkpt><trkpt lat="46.5041962" lon="12.8654159"><ele>545.0</ele><time>2026-04-22T11:38:35.645Z</time></trkpt><trkpt lat="46.5040466" lon="12.8654891"><ele>545.0</ele><time>2026-04-22T11:38:36.645Z</time></trkpt><trkpt lat="46.5038904" lon="12.8655426"><ele>545.0</ele><time>2026-04-22T11:38:37.646Z</time></trkpt><trkpt lat="46.5037254" lon="12.8655849"><ele>545.0</ele><time>2026-04-22T11:38:38.646Z</time></trkpt><trkpt lat="46.5035298" lon="12.8656374"><ele>541.3333333333333</ele><time>2026-04-22T11:38:39.644Z</time></trkpt><trkpt lat="46.5033101" lon="12.8656623"><ele>537.6666666666666</ele><time>2026-04-22T11:38:40.644Z</time></trkpt><trkpt lat="46.5030957" lon="12.8656547"><ele>534.0</ele><time>2026-04-22T11:38:41.645Z</time></trkpt><trkpt lat="46.5028861" lon="12.8656372"><ele>531.0</ele><time>2026-04-22T11:38:42.644Z</time></trkpt><trkpt lat="46.5026848" lon="12.8656184"><ele>528.0</ele><time>2026-04-22T11:38:43.644Z</time></trkpt><trkpt lat="46.5024916" lon="12.8656044"><ele>525.0</ele><time>2026-04-22T11:38:44.644Z</time></trkpt><trkpt lat="46.5023044" lon="12.8655924"><ele>525.0</ele><time>2026-04-22T11:38:45.645Z</time></trkpt><trkpt lat="46.502121" lon="12.8655757"><ele>525.0</ele><time>2026-04-22T11:38:46.644Z</time></trkpt><trkpt lat="46.5019434" lon="12.8655416"><ele>525.0</ele><time>2026-04-22T11:38:47.644Z</time></trkpt><trkpt lat="46.5017589" lon="12.8654943"><ele>525.3333333333334</ele><time>2026-04-22T11:38:48.646Z</time></trkpt><trkpt lat="46.5015835" lon="12.8654518"><ele>525.6666666666667</ele><time>2026-04-22T11:38:49.644Z</time></trkpt><trkpt lat="46.501405" lon="12.8654184"><ele>526.0</ele><time>2026-04-22T11:38:50.645Z</time></trkpt><trkpt lat="46.5012251" lon="12.8653987"><ele>526.0</ele><time>2026-04-22T11:38:51.644Z</time></trkpt><trkpt lat="46.5010419" lon="12.8653984"><ele>526.0</ele><time>2026-04-22T11:38:52.644Z</time></trkpt><trkpt lat="46.5008728" lon="12.8654027"><ele>526.0</ele><time>2026-04-22T11:38:53.644Z</time></trkpt><trkpt lat="46.5007076" lon="12.8654005"><ele>526.0</ele><time>2026-04-22T11:38:54.644Z</time></trkpt><trkpt lat="46.5005509" lon="12.8653956"><ele>526.0</ele><time>2026-04-22T11:38:55.645Z</time></trkpt><trkpt lat="46.5003998" lon="12.8653885"><ele>526.0</ele><time>2026-04-22T11:38:56.644Z</time></trkpt><trkpt lat="46.5002558" lon="12.8653731"><ele>525.5</ele><time>2026-04-22T11:38:57.644Z</time></trkpt><trkpt lat="46.5001204" lon="12.8653485"><ele>525.0</ele><time>2026-04-22T11:38:58.644Z</time></trkpt><trkpt lat="46.4999832" lon="12.8653377"><ele>524.5</ele><time>2026-04-22T11:38:59.644Z</time></trkpt><trkpt lat="46.4998474" lon="12.8653639"><ele>524.0</ele><time>2026-04-22T11:39:00.644Z</time></trkpt><trkpt lat="46.4997147" lon="12.8654432"><ele>521.3333333333333</ele><time>2026-04-22T11:39:01.644Z</time></trkpt><trkpt lat="46.4995763" lon="12.8655784"><ele>518.6666666666666</ele><time>2026-04-22T11:39:02.644Z</time></trkpt><trkpt lat="46.4994527" lon="12.8657421"><ele>516.0</ele><time>2026-04-22T11:39:03.644Z</time></trkpt><trkpt lat="46.499324" lon="12.8658923"><ele>524.6666666666666</ele><time>2026-04-22T11:39:04.645Z</time></trkpt><trkpt lat="46.4991713" lon="12.8660316"><ele>533.3333333333333</ele><time>2026-04-22T11:39:05.644Z</time></trkpt><trkpt lat="46.4990103" lon="12.8661543"><ele>542.0</ele><time>2026-04-22T11:39:06.644Z</time></trkpt><trkpt lat="46.4988478" lon="12.8662455"><ele>534.6666666666666</ele><time>2026-04-22T11:39:07.644Z</time></trkpt><trkpt lat="46.4986752" lon="12.8663035"><ele>527.3333333333334</ele><time>2026-04-22T11:39:08.644Z</time></trkpt><trkpt lat="46.4984976" lon="12.8663429"><ele>520.0</ele><time>2026-04-22T11:39:09.644Z</time></trkpt><trkpt lat="46.49832" lon="12.866372"><ele>520.0</ele><time>2026-04-22T11:39:10.644Z</time></trkpt><trkpt lat="46.4981444" lon="12.8664004"><ele>520.0</ele><time>2026-04-22T11:39:11.645Z</time></trkpt><trkpt lat="46.4979705" lon="12.8664253"><ele>520.0</ele><time>2026-04-22T11:39:12.645Z</time></trkpt><trkpt lat="46.4977979" lon="12.8664558"><ele>518.6666666666667</ele><time>2026-04-22T11:39:13.644Z</time></trkpt><trkpt lat="46.4976274" lon="12.8664859"><ele>517.3333333333334</ele><time>2026-04-22T11:39:14.644Z</time></trkpt><trkpt lat="46.4974542" lon="12.8665243"><ele>516.0</ele><time>2026-04-22T11:39:15.644Z</time></trkpt><trkpt lat="46.4972928" lon="12.866581"><ele>516.0</ele><time>2026-04-22T11:39:16.645Z</time></trkpt><trkpt lat="46.4971406" lon="12.8666543"><ele>516.0</ele><time>2026-04-22T11:39:17.644Z</time></trkpt><trkpt lat="46.4969923" lon="12.8667311"><ele>516.0</ele><time>2026-04-22T11:39:18.644Z</time></trkpt><trkpt lat="46.4968389" lon="12.8667879"><ele>529.6666666666666</ele><time>2026-04-22T11:39:19.644Z</time></trkpt><trkpt lat="46.4966784" lon="12.8668102"><ele>543.3333333333333</ele><time>2026-04-22T11:39:20.644Z</time></trkpt><trkpt lat="46.4965145" lon="12.8668108"><ele>557.0</ele><time>2026-04-22T11:39:21.644Z</time></trkpt><trkpt lat="46.4963492" lon="12.8667842"><ele>544.6666666666666</ele><time>2026-04-22T11:39:22.644Z</time></trkpt><trkpt lat="46.4961856" lon="12.8667212"><ele>532.3333333333334</ele><time>2026-04-22T11:39:23.644Z</time></trkpt><trkpt lat="46.4960208" lon="12.866634"><ele>520.0</ele><time>2026-04-22T11:39:24.644Z</time></trkpt><trkpt lat="46.4958621" lon="12.8665571"><ele>520.0</ele><time>2026-04-22T11:39:25.644Z</time></trkpt><trkpt lat="46.4956953" lon="12.8665088"><ele>520.0</ele><time>2026-04-22T11:39:26.644Z</time></trkpt><trkpt lat="46.4955194" lon="12.8664766"><ele>520.0</ele><time>2026-04-22T11:39:27.644Z</time></trkpt><trkpt lat="46.4953404" lon="12.866461"><ele>521.6666666666667</ele><time>2026-04-22T11:39:28.644Z</time></trkpt><trkpt lat="46.4951609" lon="12.8664551"><ele>523.3333333333334</ele><time>2026-04-22T11:39:29.644Z</time></trkpt><trkpt lat="46.4949829" lon="12.866446"><ele>525.0</ele><time>2026-04-22T11:39:30.644Z</time></trkpt><trkpt lat="46.4948056" lon="12.8664306"><ele>525.0</ele><time>2026-04-22T11:39:31.646Z</time></trkpt><trkpt lat="46.4946312" lon="12.8664097"><ele>525.0</ele><time>2026-04-22T11:39:32.645Z</time></trkpt><trkpt lat="46.4944583" lon="12.866377"><ele>525.0</ele><time>2026-04-22T11:39:33.644Z</time></trkpt><trkpt lat="46.4942875" lon="12.866336"><ele>528.3333333333334</ele><time>2026-04-22T11:39:34.645Z</time></trkpt><trkpt lat="46.4941088" lon="12.8662822"><ele>531.6666666666667</ele><time>2026-04-22T11:39:35.645Z</time></trkpt><trkpt lat="46.4939294" lon="12.8662254"><ele>535.0</ele><time>2026-04-22T11:39:36.644Z</time></trkpt><trkpt lat="46.4937574" lon="12.8661684"><ele>533.6666666666667</ele><time>2026-04-22T11:39:37.644Z</time></trkpt><trkpt lat="46.4935904" lon="12.8661181"><ele>532.3333333333334</ele><time>2026-04-22T11:39:38.644Z</time></trkpt><trkpt lat="46.4934255" lon="12.8660704"><ele>531.0</ele><time>2026-04-22T11:39:39.644Z</time></trkpt><trkpt lat="46.4932665" lon="12.8660213"><ele>531.0</ele><time>2026-04-22T11:39:40.644Z</time></trkpt><trkpt lat="46.4931094" lon="12.8659786"><ele>531.0</ele><time>2026-04-22T11:39:41.645Z</time></trkpt><trkpt lat="46.4929539" lon="12.8659309"><ele>531.0</ele><time>2026-04-22T11:39:42.644Z</time></trkpt><trkpt lat="46.4927974" lon="12.8658854"><ele>527.0</ele><time>2026-04-22T11:39:43.645Z</time></trkpt><trkpt lat="46.4926366" lon="12.8658423"><ele>523.0</ele><time>2026-04-22T11:39:44.644Z</time></trkpt><trkpt lat="46.4924679" lon="12.8658101"><ele>519.0</ele><time>2026-04-22T11:39:45.644Z</time></trkpt><trkpt lat="46.4922932" lon="12.8657841"><ele>519.0</ele><time>2026-04-22T11:39:46.644Z</time></trkpt><trkpt lat="46.492116" lon="12.8657604"><ele>519.0</ele><time>2026-04-22T11:39:47.644Z</time></trkpt><trkpt lat="46.4919373" lon="12.865743"><ele>519.0</ele><time>2026-04-22T11:39:48.644Z</time></trkpt><trkpt lat="46.4917612" lon="12.8657241"><ele>520.0</ele><time>2026-04-22T11:39:49.644Z</time></trkpt><trkpt lat="46.4915818" lon="12.8656984"><ele>521.0</ele><time>2026-04-22T11:39:50.644Z</time></trkpt><trkpt lat="46.4914015" lon="12.8656626"><ele>522.0</ele><time>2026-04-22T11:39:51.644Z</time></trkpt><trkpt lat="46.4912105" lon="12.8656162"><ele>525.0</ele><time>2026-04-22T11:39:52.645Z</time></trkpt><trkpt lat="46.4910246" lon="12.8655623"><ele>528.0</ele><time>2026-04-22T11:39:53.644Z</time></trkpt><trkpt lat="46.4908316" lon="12.8655076"><ele>531.0</ele><time>2026-04-22T11:39:54.644Z</time></trkpt><trkpt lat="46.490639" lon="12.8654505"><ele>531.0</ele><time>2026-04-22T11:39:55.644Z</time></trkpt><trkpt lat="46.4904467" lon="12.8654008"><ele>531.0</ele><time>2026-04-22T11:39:56.646Z</time></trkpt><trkpt lat="46.490256" lon="12.8653536"><ele>531.0</ele><time>2026-04-22T11:39:57.645Z</time></trkpt><trkpt lat="46.4900703" lon="12.8653123"><ele>532.0</ele><time>2026-04-22T11:39:58.644Z</time></trkpt><trkpt lat="46.4898807" lon="12.8652786"><ele>533.0</ele><time>2026-04-22T11:39:59.644Z</time></trkpt><trkpt lat="46.4897002" lon="12.8652494"><ele>534.0</ele><time>2026-04-22T11:40:00.644Z</time></trkpt><trkpt lat="46.4895272" lon="12.8652211"><ele>536.0</ele><time>2026-04-22T11:40:01.645Z</time></trkpt><trkpt lat="46.48936" lon="12.8651968"><ele>538.0</ele><time>2026-04-22T11:40:02.644Z</time></trkpt><trkpt lat="46.4891902" lon="12.8651722"><ele>540.0</ele><time>2026-04-22T11:40:03.644Z</time></trkpt><trkpt lat="46.4890276" lon="12.8651492"><ele>540.0</ele><time>2026-04-22T11:40:04.645Z</time></trkpt><trkpt lat="46.4888656" lon="12.8651252"><ele>540.0</ele><time>2026-04-22T11:40:05.644Z</time></trkpt><trkpt lat="46.4887057" lon="12.8651017"><ele>540.0</ele><time>2026-04-22T11:40:06.644Z</time></trkpt><trkpt lat="46.488548" lon="12.865078"><ele>539.0</ele><time>2026-04-22T11:40:07.644Z</time></trkpt><trkpt lat="46.4883938" lon="12.8650556"><ele>538.0</ele><time>2026-04-22T11:40:08.645Z</time></trkpt><trkpt lat="46.4882471" lon="12.8650339"><ele>537.0</ele><time>2026-04-22T11:40:09.644Z</time></trkpt><trkpt lat="46.4881068" lon="12.8650113"><ele>536.0</ele><time>2026-04-22T11:40:10.644Z</time></trkpt><trkpt lat="46.4879654" lon="12.8649868"><ele>537.0</ele><time>2026-04-22T11:40:11.644Z</time></trkpt><trkpt lat="46.4878241" lon="12.8649621"><ele>538.0</ele><time>2026-04-22T11:40:12.644Z</time></trkpt><trkpt lat="46.4876831" lon="12.8649405"><ele>539.0</ele><time>2026-04-22T11:40:13.644Z</time></trkpt><trkpt lat="46.4875436" lon="12.8649203"><ele>540.0</ele><time>2026-04-22T11:40:14.644Z</time></trkpt><trkpt lat="46.4874059" lon="12.8648993"><ele>540.0</ele><time>2026-04-22T11:40:15.645Z</time></trkpt><trkpt lat="46.4872681" lon="12.8648768"><ele>540.0</ele><time>2026-04-22T11:40:16.644Z</time></trkpt><trkpt lat="46.4871299" lon="12.8648515"><ele>540.0</ele><time>2026-04-22T11:40:17.645Z</time></trkpt><trkpt lat="46.4869898" lon="12.8648334"><ele>540.0</ele><time>2026-04-22T11:40:18.645Z</time></trkpt><trkpt lat="46.486846" lon="12.8648165"><ele>539.3333333333334</ele><time>2026-04-22T11:40:19.644Z</time></trkpt><trkpt lat="46.4867032" lon="12.8648038"><ele>538.6666666666667</ele><time>2026-04-22T11:40:20.644Z</time></trkpt><trkpt lat="46.4865532" lon="12.8648118"><ele>538.0</ele><time>2026-04-22T11:40:21.644Z</time></trkpt><trkpt lat="46.486382" lon="12.8648307"><ele>536.0</ele><time>2026-04-22T11:40:22.645Z</time></trkpt><trkpt lat="46.4862043" lon="12.8648577"><ele>534.0</ele><time>2026-04-22T11:40:23.644Z</time></trkpt><trkpt lat="46.4860295" lon="12.8648807"><ele>532.0</ele><time>2026-04-22T11:40:24.644Z</time></trkpt><trkpt lat="46.4858603" lon="12.8649048"><ele>532.0</ele><time>2026-04-22T11:40:25.644Z</time></trkpt><trkpt lat="46.4856903" lon="12.8649314"><ele>532.0</ele><time>2026-04-22T11:40:26.644Z</time></trkpt><trkpt lat="46.4855093" lon="12.864958"><ele>532.0</ele><time>2026-04-22T11:40:27.644Z</time></trkpt><trkpt lat="46.4853404" lon="12.8649823"><ele>531.3333333333334</ele><time>2026-04-22T11:40:28.644Z</time></trkpt><trkpt lat="46.4851792" lon="12.8650042"><ele>530.6666666666666</ele><time>2026-04-22T11:40:29.644Z</time></trkpt><trkpt lat="46.4850171" lon="12.8650274"><ele>530.0</ele><time>2026-04-22T11:40:30.644Z</time></trkpt><trkpt lat="46.4848592" lon="12.8650488"><ele>530.0</ele><time>2026-04-22T11:40:31.644Z</time></trkpt><trkpt lat="46.4847084" lon="12.8650723"><ele>530.0</ele><time>2026-04-22T11:40:32.645Z</time></trkpt><trkpt lat="46.4845593" lon="12.8650972"><ele>530.0</ele><time>2026-04-22T11:40:33.645Z</time></trkpt><trkpt lat="46.4844048" lon="12.8651217"><ele>532.0</ele><time>2026-04-22T11:40:34.644Z</time></trkpt><trkpt lat="46.4842623" lon="12.865144"><ele>534.0</ele><time>2026-04-22T11:40:35.644Z</time></trkpt><trkpt lat="46.4841282" lon="12.8651663"><ele>536.0</ele><time>2026-04-22T11:40:36.644Z</time></trkpt><trkpt lat="46.484" lon="12.865183"><ele>538.0</ele><time>2026-04-22T11:40:37.646Z</time></trkpt><trkpt lat="46.4838791" lon="12.8651975"><ele>538.0</ele><time>2026-04-22T11:40:38.645Z</time></trkpt><trkpt lat="46.4837732" lon="12.8652151"><ele>538.0</ele><time>2026-04-22T11:40:39.644Z</time></trkpt><trkpt lat="46.4836843" lon="12.8652288"><ele>538.0</ele><time>2026-04-22T11:40:40.644Z</time></trkpt><trkpt lat="46.4836068" lon="12.8652478"><ele>538.0</ele><time>2026-04-22T11:40:41.644Z</time></trkpt><trkpt lat="46.4835422" lon="12.8652591"><ele>538.0</ele><time>2026-04-22T11:40:42.644Z</time></trkpt><trkpt lat="46.483467" lon="12.8653592"><ele>538.0</ele><time>2026-04-22T11:40:44.644Z</time></trkpt><trkpt lat="46.4834744" lon="12.865487"><ele>537.4285714285714</ele><time>2026-04-22T11:40:46.644Z</time></trkpt><trkpt lat="46.4835469" lon="12.865528"><ele>536.8571428571429</ele><time>2026-04-22T11:40:48.644Z</time></trkpt><trkpt lat="46.4836193" lon="12.8655151"><ele>536.2857142857143</ele><time>2026-04-22T11:40:51.645Z</time></trkpt><trkpt lat="46.4836817" lon="12.8655301"><ele>535.7142857142858</ele><time>2026-04-22T11:40:56.644Z</time></trkpt><trkpt lat="46.483731" lon="12.8654224"><ele>535.1428571428571</ele><time>2026-04-22T11:41:48.644Z</time></trkpt><trkpt lat="46.4837036" lon="12.8653369"><ele>534.5714285714287</ele><time>2026-04-22T11:41:54.644Z</time></trkpt><trkpt lat="46.4836394" lon="12.8653371"><ele>534.0</ele><time>2026-04-22T11:41:58.644Z</time></trkpt><trkpt lat="46.4836076" lon="12.8654246"><ele>534.0</ele><time>2026-04-22T11:49:59.644Z</time></trkpt><trkpt lat="46.4836293" lon="12.8656234"><ele>534.0</ele><time>2026-04-22T11:50:15.649Z</time></trkpt><trkpt lat="46.4836252" lon="12.8657347"><ele>534.0</ele><time>2026-04-22T11:50:16.643Z</time></trkpt><trkpt lat="46.4836196" lon="12.865598"><ele>534.0</ele><time>2026-04-22T11:50:21.641Z</time></trkpt><trkpt lat="46.4836308" lon="12.8654957"><ele>534.0</ele><time>2026-04-22T11:51:05.594Z</time></trkpt><trkpt lat="46.4836374" lon="12.8653971"><ele>534.0</ele><time>2026-04-22T11:52:30.637Z</time></trkpt><trkpt lat="46.4836297" lon="12.8654928"><ele>534.0000000000001</ele><time>2026-04-22T11:53:55.637Z</time></trkpt><trkpt lat="46.4836497" lon="12.8654"><ele>534.0</ele><time>2026-04-22T11:54:15.475Z</time></trkpt><trkpt lat="46.4835838" lon="12.8654323"><ele>534.0</ele><time>2026-04-22T11:57:11.557Z</time></trkpt><trkpt lat="46.4836655" lon="12.8654436"><ele>534.0</ele><time>2026-04-22T11:57:32.642Z</time></trkpt><trkpt lat="46.4836794" lon="12.8653489"><ele>534.0</ele><time>2026-04-22T12:00:07.642Z</time></trkpt><trkpt lat="46.4837228" lon="12.8654157"><ele>534.0000000000001</ele><time>2026-04-22T12:07:48.642Z</time></trkpt><trkpt lat="46.4837657" lon="12.8655055"><ele>534.0</ele><time>2026-04-22T12:07:51.642Z</time></trkpt><trkpt lat="46.4836904" lon="12.8655302"><ele>534.0000000000001</ele><time>2026-04-22T12:07:57.642Z</time></trkpt><trkpt lat="46.483757" lon="12.8655662"><ele>534.0</ele><time>2026-04-22T12:08:05.642Z</time></trkpt><trkpt lat="46.4837692" lon="12.8654527"><ele>534.0</ele><time>2026-04-22T12:08:13.642Z</time></trkpt><trkpt lat="46.4837107" lon="12.8654021"><ele>534.0</ele><time>2026-04-22T12:08:18.642Z</time></trkpt><trkpt lat="46.4836406" lon="12.8653731"><ele>534.0</ele><time>2026-04-22T12:08:53.642Z</time></trkpt><trkpt lat="46.4837073" lon="12.8653913"><ele>534.0000000000001</ele><time>2026-04-22T12:17:52.642Z</time></trkpt><trkpt lat="46.483762" lon="12.8654557"><ele>534.0</ele><time>2026-04-22T12:17:56.643Z</time></trkpt><trkpt lat="46.4837138" lon="12.8655231"><ele>534.0000000000001</ele><time>2026-04-22T12:18:12.643Z</time></trkpt><trkpt lat="46.4836438" lon="12.865519"><ele>534.0</ele><time>2026-04-22T12:18:16.642Z</time></trkpt><trkpt lat="46.4836946" lon="12.8654559"><ele>534.0</ele><time>2026-04-22T12:18:35.642Z</time></trkpt><trkpt lat="46.4836632" lon="12.8653673"><ele>534.0</ele><time>2026-04-22T12:18:41.643Z</time></trkpt><trkpt lat="46.4836106" lon="12.8654202"><ele>534.0</ele><time>2026-04-22T12:19:24.642Z</time></trkpt><trkpt lat="46.4836721" lon="12.8654626"><ele>534.0000000000001</ele><time>2026-04-22T12:19:33.642Z</time></trkpt><trkpt lat="46.4836433" lon="12.8653785"><ele>534.0</ele><time>2026-04-22T12:20:15.642Z</time></trkpt><trkpt lat="46.483711" lon="12.8653853"><ele>534.0000000000001</ele><time>2026-04-22T12:20:31.642Z</time></trkpt><trkpt lat="46.4837177" lon="12.8654916"><ele>534.0</ele><time>2026-04-22T12:25:55.642Z</time></trkpt><trkpt lat="46.4836617" lon="12.8654467"><ele>534.0</ele><time>2026-04-22T12:26:01.642Z</time></trkpt><trkpt lat="46.483688" lon="12.8653402"><ele>534.0</ele><time>2026-04-22T12:27:25.642Z</time></trkpt><trkpt lat="46.4836184" lon="12.8652964"><ele>534.0</ele><time>2026-04-22T12:31:48.642Z</time></trkpt><trkpt lat="46.4836418" lon="12.8653883"><ele>534.0000000000001</ele><time>2026-04-22T12:32:03.625Z</time></trkpt><trkpt lat="46.4837048" lon="12.8653953"><ele>534.0</ele><time>2026-04-22T12:32:32.642Z</time></trkpt><trkpt lat="46.4836382" lon="12.8653665"><ele>534.0000000000001</ele><time>2026-04-22T12:33:33.642Z</time></trkpt><trkpt lat="46.4837014" lon="12.8653536"><ele>534.0</ele><time>2026-04-22T12:33:40.642Z</time></trkpt><trkpt lat="46.483638" lon="12.8653472"><ele>534.0</ele><time>2026-04-22T12:35:01.642Z</time></trkpt><trkpt lat="46.4836067" lon="12.8654333"><ele>534.0</ele><time>2026-04-22T12:35:25.53Z</time></trkpt><trkpt lat="46.4836644" lon="12.8654759"><ele>534.0</ele><time>2026-04-22T12:35:28.648Z</time></trkpt><trkpt lat="46.4836898" lon="12.8653858"><ele>534.0000000000001</ele><time>2026-04-22T12:36:09.934Z</time></trkpt><trkpt lat="46.4836114" lon="12.8653656"><ele>534.0</ele><time>2026-04-22T12:38:35.642Z</time></trkpt><trkpt lat="46.4836802" lon="12.8653826"><ele>534.0000000000001</ele><time>2026-04-22T12:38:49.642Z</time></trkpt><trkpt lat="46.4837028" lon="12.8654782"><ele>534.0</ele><time>2026-04-22T12:39:13.645Z</time></trkpt><trkpt lat="46.4836326" lon="12.8654996"><ele>534.0</ele><time>2026-04-22T12:39:33.642Z</time></trkpt><trkpt lat="46.4836797" lon="12.86557"><ele>534.0</ele><time>2026-04-22T12:39:56.642Z</time></trkpt><trkpt lat="46.4836553" lon="12.8654703"><ele>534.0</ele><time>2026-04-22T12:40:35.642Z</time></trkpt><trkpt lat="46.4837149" lon="12.865412"><ele>534.0000000000001</ele><time>2026-04-22T12:40:42.642Z</time></trkpt><trkpt lat="46.4837267" lon="12.8653138"><ele>534.0</ele><time>2026-04-22T12:40:53.642Z</time></trkpt><trkpt lat="46.4836571" lon="12.8652831"><ele>534.0000000000001</ele><time>2026-04-22T12:40:59.642Z</time></trkpt><trkpt lat="46.4836025" lon="12.8653445"><ele>534.0</ele><time>2026-04-22T12:41:06.643Z</time></trkpt><trkpt lat="46.4835853" lon="12.8654357"><ele>534.0</ele><time>2026-04-22T12:41:33.642Z</time></trkpt><trkpt lat="46.4836481" lon="12.8653931"><ele>534.0</ele><time>2026-04-22T12:41:45.642Z</time></trkpt><trkpt lat="46.4836978" lon="12.8654507"><ele>534.0</ele><time>2026-04-22T12:41:51.642Z</time></trkpt><trkpt lat="46.483639" lon="12.8654095"><ele>534.0000000000001</ele><time>2026-04-22T12:42:55.642Z</time></trkpt><trkpt lat="46.4836966" lon="12.865364"><ele>534.0</ele><time>2026-04-22T12:45:42.642Z</time></trkpt><trkpt lat="46.4837266" lon="12.8654503"><ele>534.0000000000001</ele><time>2026-04-22T12:45:58.642Z</time></trkpt><trkpt lat="46.4836631" lon="12.8654749"><ele>534.0</ele><time>2026-04-22T12:46:20.567Z</time></trkpt><trkpt lat="46.4835969" lon="12.8654891"><ele>534.0</ele><time>2026-04-22T12:46:27.642Z</time></trkpt><trkpt lat="46.4835243" lon="12.8655176"><ele>534.0</ele><time>2026-04-22T12:47:53.642Z</time></trkpt><trkpt lat="46.4835153" lon="12.8654155"><ele>534.0</ele><time>2026-04-22T12:47:59.642Z</time></trkpt><trkpt lat="46.4834861" lon="12.8653249"><ele>534.0000000000001</ele><time>2026-04-22T12:48:05.642Z</time></trkpt><trkpt lat="46.4834317" lon="12.8652717"><ele>534.0</ele><time>2026-04-22T12:48:07.642Z</time></trkpt><trkpt lat="46.4832422" lon="12.8652879"><ele>534.0</ele><time>2026-04-22T12:48:10.643Z</time></trkpt><trkpt lat="46.4831218" lon="12.8653205"><ele>534.0</ele><time>2026-04-22T12:48:12.643Z</time></trkpt><trkpt lat="46.4830507" lon="12.8653418"><ele>534.0</ele><time>2026-04-22T12:48:13.642Z</time></trkpt><trkpt lat="46.4829766" lon="12.8653681"><ele>534.0</ele><time>2026-04-22T12:48:14.642Z</time></trkpt><trkpt lat="46.482899" lon="12.8654032"><ele>534.0</ele><time>2026-04-22T12:48:15.642Z</time></trkpt><trkpt lat="46.4828142" lon="12.8654321"><ele>534.0</ele><time>2026-04-22T12:48:16.643Z</time></trkpt><trkpt lat="46.4827339" lon="12.8654582"><ele>533.3333333333334</ele><time>2026-04-22T12:48:17.642Z</time></trkpt><trkpt lat="46.4826539" lon="12.8654926"><ele>532.6666666666666</ele><time>2026-04-22T12:48:18.642Z</time></trkpt><trkpt lat="46.4825714" lon="12.8655301"><ele>532.0</ele><time>2026-04-22T12:48:19.642Z</time></trkpt><trkpt lat="46.4824901" lon="12.8655804"><ele>531.3333333333333</ele><time>2026-04-22T12:48:20.643Z</time></trkpt><trkpt lat="46.4824173" lon="12.8656532"><ele>530.6666666666666</ele><time>2026-04-22T12:48:21.643Z</time></trkpt><trkpt lat="46.4823473" lon="12.8657297"><ele>530.0</ele><time>2026-04-22T12:48:22.642Z</time></trkpt><trkpt lat="46.4822815" lon="12.8658132"><ele>530.0</ele><time>2026-04-22T12:48:23.642Z</time></trkpt><trkpt lat="46.482216" lon="12.8658917"><ele>530.0</ele><time>2026-04-22T12:48:24.643Z</time></trkpt><trkpt lat="46.4821473" lon="12.865972"><ele>530.0</ele><time>2026-04-22T12:48:25.642Z</time></trkpt><trkpt lat="46.4820753" lon="12.8660498"><ele>530.0</ele><time>2026-04-22T12:48:26.642Z</time></trkpt><trkpt lat="46.4820014" lon="12.8661312"><ele>530.0</ele><time>2026-04-22T12:48:27.642Z</time></trkpt><trkpt lat="46.4819315" lon="12.8662138"><ele>530.0</ele><time>2026-04-22T12:48:28.642Z</time></trkpt><trkpt lat="46.4818637" lon="12.8663027"><ele>528.6</ele><time>2026-04-22T12:48:29.642Z</time></trkpt><trkpt lat="46.4817937" lon="12.8663921"><ele>527.2</ele><time>2026-04-22T12:48:30.642Z</time></trkpt><trkpt lat="46.4817261" lon="12.8664777"><ele>525.8</ele><time>2026-04-22T12:48:31.642Z</time></trkpt><trkpt lat="46.4816566" lon="12.8665678"><ele>524.4</ele><time>2026-04-22T12:48:32.642Z</time></trkpt><trkpt lat="46.4815853" lon="12.8666715"><ele>523.0</ele><time>2026-04-22T12:48:33.642Z</time></trkpt><trkpt lat="46.4815247" lon="12.8667678"><ele>524.1999999999999</ele><time>2026-04-22T12:48:34.643Z</time></trkpt><trkpt lat="46.4814693" lon="12.8668582"><ele>525.4</ele><time>2026-04-22T12:48:35.643Z</time></trkpt><trkpt lat="46.4813968" lon="12.8669322"><ele>526.5999999999999</ele><time>2026-04-22T12:48:36.642Z</time></trkpt><trkpt lat="46.4813179" lon="12.8670003"><ele>527.8</ele><time>2026-04-22T12:48:37.642Z</time></trkpt><trkpt lat="46.4812395" lon="12.8670619"><ele>529.0</ele><time>2026-04-22T12:48:38.642Z</time></trkpt><trkpt lat="46.4811446" lon="12.8671172"><ele>529.0</ele><time>2026-04-22T12:48:39.642Z</time></trkpt><trkpt lat="46.4810635" lon="12.8671546"><ele>529.0</ele><time>2026-04-22T12:48:40.642Z</time></trkpt><trkpt lat="46.4809864" lon="12.8671861"><ele>529.0</ele><time>2026-04-22T12:48:41.642Z</time></trkpt><trkpt lat="46.4809059" lon="12.8672006"><ele>529.0</ele><time>2026-04-22T12:48:42.642Z</time></trkpt><trkpt lat="46.4808071" lon="12.8671994"><ele>529.0</ele><time>2026-04-22T12:48:43.642Z</time></trkpt><trkpt lat="46.4807099" lon="12.8671938"><ele>529.0</ele><time>2026-04-22T12:48:44.643Z</time></trkpt><trkpt lat="46.4806114" lon="12.8671989"><ele>529.0</ele><time>2026-04-22T12:48:45.642Z</time></trkpt><trkpt lat="46.4805049" lon="12.8672019"><ele>529.0</ele><time>2026-04-22T12:48:46.642Z</time></trkpt><trkpt lat="46.4804091" lon="12.8671909"><ele>529.0</ele><time>2026-04-22T12:48:47.642Z</time></trkpt><trkpt lat="46.4803059" lon="12.8671855"><ele>529.0</ele><time>2026-04-22T12:48:48.642Z</time></trkpt><trkpt lat="46.4802002" lon="12.867196"><ele>529.0</ele><time>2026-04-22T12:48:49.642Z</time></trkpt><trkpt lat="46.4800937" lon="12.8672177"><ele>527.4</ele><time>2026-04-22T12:48:50.642Z</time></trkpt><trkpt lat="46.4799997" lon="12.8672411"><ele>525.8</ele><time>2026-04-22T12:48:51.642Z</time></trkpt><trkpt lat="46.4799037" lon="12.8672685"><ele>524.2</ele><time>2026-04-22T12:48:52.642Z</time></trkpt><trkpt lat="46.4798073" lon="12.867292"><ele>522.6</ele><time>2026-04-22T12:48:53.643Z</time></trkpt><trkpt lat="46.4797181" lon="12.8673219"><ele>521.0</ele><time>2026-04-22T12:48:54.642Z</time></trkpt><trkpt lat="46.4796373" lon="12.867354"><ele>520.1666666666666</ele><time>2026-04-22T12:48:55.642Z</time></trkpt><trkpt lat="46.4795642" lon="12.8673867"><ele>519.3333333333333</ele><time>2026-04-22T12:48:56.642Z</time></trkpt><trkpt lat="46.4794999" lon="12.8674221"><ele>518.5</ele><time>2026-04-22T12:48:57.642Z</time></trkpt><trkpt lat="46.4794069" lon="12.8674681"><ele>517.6666666666666</ele><time>2026-04-22T12:48:59.642Z</time></trkpt><trkpt lat="46.4793299" lon="12.8675078"><ele>516.8333333333334</ele><time>2026-04-22T12:49:02.642Z</time></trkpt><trkpt lat="46.4792709" lon="12.8675614"><ele>516.0</ele><time>2026-04-22T12:50:03.642Z</time></trkpt><trkpt lat="46.4792128" lon="12.867601"><ele>516.5</ele><time>2026-04-22T12:50:08.643Z</time></trkpt><trkpt lat="46.4791366" lon="12.8676522"><ele>517.0</ele><time>2026-04-22T12:50:12.642Z</time></trkpt><trkpt lat="46.4790621" lon="12.8676985"><ele>517.5</ele><time>2026-04-22T12:50:15.643Z</time></trkpt><trkpt lat="46.4789977" lon="12.8677424"><ele>518.0</ele><time>2026-04-22T12:50:17.642Z</time></trkpt><trkpt lat="46.4789137" lon="12.8677982"><ele>518.5</ele><time>2026-04-22T12:50:19.642Z</time></trkpt><trkpt lat="46.4788132" lon="12.8678694"><ele>519.0</ele><time>2026-04-22T12:50:21.642Z</time></trkpt><trkpt lat="46.4787105" lon="12.8679525"><ele>517.3333333333334</ele><time>2026-04-22T12:50:23.642Z</time></trkpt><trkpt lat="46.4786041" lon="12.8680594"><ele>515.6666666666666</ele><time>2026-04-22T12:50:25.642Z</time></trkpt><trkpt lat="46.4785483" lon="12.8681206"><ele>514.0</ele><time>2026-04-22T12:50:26.642Z</time></trkpt><trkpt lat="46.4784967" lon="12.868185"><ele>512.3333333333333</ele><time>2026-04-22T12:50:27.642Z</time></trkpt><trkpt lat="46.4784414" lon="12.8682559"><ele>510.66666666666663</ele><time>2026-04-22T12:50:28.642Z</time></trkpt><trkpt lat="46.4783872" lon="12.8683275"><ele>509.0</ele><time>2026-04-22T12:50:29.642Z</time></trkpt><trkpt lat="46.4783313" lon="12.8684026"><ele>508.99999999999994</ele><time>2026-04-22T12:50:30.642Z</time></trkpt><trkpt lat="46.4782785" lon="12.8684777"><ele>509.0</ele><time>2026-04-22T12:50:31.642Z</time></trkpt><trkpt lat="46.4782236" lon="12.8685494"><ele>509.0</ele><time>2026-04-22T12:50:32.642Z</time></trkpt><trkpt lat="46.4781677" lon="12.8686251"><ele>509.0</ele><time>2026-04-22T12:50:33.642Z</time></trkpt><trkpt lat="46.4781122" lon="12.8687014"><ele>508.99999999999994</ele><time>2026-04-22T12:50:34.642Z</time></trkpt><trkpt lat="46.4780584" lon="12.8687765"><ele>509.0</ele><time>2026-04-22T12:50:35.643Z</time></trkpt><trkpt lat="46.4780038" lon="12.8688508"><ele>508.99999999999994</ele><time>2026-04-22T12:50:36.642Z</time></trkpt><trkpt lat="46.4779474" lon="12.8689228"><ele>509.0</ele><time>2026-04-22T12:50:37.642Z</time></trkpt><trkpt lat="46.4778927" lon="12.8689972"><ele>509.0</ele><time>2026-04-22T12:50:38.642Z</time></trkpt><trkpt lat="46.4778381" lon="12.8690765"><ele>509.0</ele><time>2026-04-22T12:50:39.643Z</time></trkpt><trkpt lat="46.477784" lon="12.8691526"><ele>508.99999999999994</ele><time>2026-04-22T12:50:40.642Z</time></trkpt><trkpt lat="46.4777283" lon="12.8692348"><ele>509.0</ele><time>2026-04-22T12:50:41.643Z</time></trkpt><trkpt lat="46.4776712" lon="12.869316"><ele>508.79999999999995</ele><time>2026-04-22T12:50:42.642Z</time></trkpt><trkpt lat="46.477612" lon="12.869399"><ele>508.59999999999997</ele><time>2026-04-22T12:50:43.642Z</time></trkpt><trkpt lat="46.4775496" lon="12.8694852"><ele>508.4</ele><time>2026-04-22T12:50:44.642Z</time></trkpt><trkpt lat="46.4774842" lon="12.8695729"><ele>508.2</ele><time>2026-04-22T12:50:45.642Z</time></trkpt><trkpt lat="46.4774154" lon="12.8696654"><ele>508.0</ele><time>2026-04-22T12:50:46.642Z</time></trkpt><trkpt lat="46.477345" lon="12.8697654"><ele>508.0</ele><time>2026-04-22T12:50:47.642Z</time></trkpt><trkpt lat="46.477272" lon="12.8698635"><ele>507.99999999999994</ele><time>2026-04-22T12:50:48.642Z</time></trkpt><trkpt lat="46.4772072" lon="12.8699761"><ele>507.99999999999994</ele><time>2026-04-22T12:50:49.642Z</time></trkpt><trkpt lat="46.4771348" lon="12.8700772"><ele>508.0</ele><time>2026-04-22T12:50:50.642Z</time></trkpt><trkpt lat="46.4770626" lon="12.8701711"><ele>508.0</ele><time>2026-04-22T12:50:51.642Z</time></trkpt><trkpt lat="46.4769907" lon="12.8702604"><ele>508.00000000000006</ele><time>2026-04-22T12:50:52.642Z</time></trkpt><trkpt lat="46.4769182" lon="12.8703403"><ele>508.0</ele><time>2026-04-22T12:50:53.642Z</time></trkpt><trkpt lat="46.476841" lon="12.870419"><ele>508.0</ele><time>2026-04-22T12:50:54.642Z</time></trkpt><trkpt lat="46.4767708" lon="12.8704856"><ele>508.0</ele><time>2026-04-22T12:50:55.643Z</time></trkpt><trkpt lat="46.476692" lon="12.870524"><ele>508.00000000000006</ele><time>2026-04-22T12:50:56.642Z</time></trkpt><trkpt lat="46.4766246" lon="12.8705402"><ele>508.0</ele><time>2026-04-22T12:50:57.642Z</time></trkpt><trkpt lat="46.4765549" lon="12.8705306"><ele>508.0</ele><time>2026-04-22T12:50:58.642Z</time></trkpt><trkpt lat="46.4764908" lon="12.8704973"><ele>507.99999999999994</ele><time>2026-04-22T12:50:59.643Z</time></trkpt><trkpt lat="46.4763906" lon="12.8704189"><ele>507.99999999999994</ele><time>2026-04-22T12:51:01.642Z</time></trkpt><trkpt lat="46.4763007" lon="12.8703813"><ele>508.0</ele><time>2026-04-22T12:51:03.642Z</time></trkpt><trkpt lat="46.4762201" lon="12.8704211"><ele>508.0</ele><time>2026-04-22T12:51:05.642Z</time></trkpt><trkpt lat="46.4761425" lon="12.8705133"><ele>506.2</ele><time>2026-04-22T12:51:07.642Z</time></trkpt><trkpt lat="46.4760419" lon="12.8706157"><ele>504.4</ele><time>2026-04-22T12:51:09.642Z</time></trkpt><trkpt lat="46.4759783" lon="12.8706575"><ele>502.59999999999997</ele><time>2026-04-22T12:51:10.643Z</time></trkpt><trkpt lat="46.4758995" lon="12.8707013"><ele>500.79999999999995</ele><time>2026-04-22T12:51:11.642Z</time></trkpt><trkpt lat="46.4758197" lon="12.8707402"><ele>499.0</ele><time>2026-04-22T12:51:12.642Z</time></trkpt><trkpt lat="46.4757267" lon="12.8707947"><ele>499.0</ele><time>2026-04-22T12:51:13.643Z</time></trkpt><trkpt lat="46.4756331" lon="12.8708633"><ele>499.0</ele><time>2026-04-22T12:51:14.643Z</time></trkpt><trkpt lat="46.4755403" lon="12.8709401"><ele>499.0</ele><time>2026-04-22T12:51:15.642Z</time></trkpt><trkpt lat="46.4754441" lon="12.8710215"><ele>499.0</ele><time>2026-04-22T12:51:16.642Z</time></trkpt><trkpt lat="46.4753479" lon="12.8711073"><ele>499.0</ele><time>2026-04-22T12:51:17.643Z</time></trkpt><trkpt lat="46.4752499" lon="12.8711951"><ele>503.25</ele><time>2026-04-22T12:51:18.642Z</time></trkpt><trkpt lat="46.4751538" lon="12.871285"><ele>507.5</ele><time>2026-04-22T12:51:19.642Z</time></trkpt><trkpt lat="46.4750503" lon="12.8713786"><ele>511.75</ele><time>2026-04-22T12:51:20.642Z</time></trkpt><trkpt lat="46.4749439" lon="12.8714691"><ele>516.0</ele><time>2026-04-22T12:51:21.642Z</time></trkpt><trkpt lat="46.4748393" lon="12.8715589"><ele>516.0</ele><time>2026-04-22T12:51:22.642Z</time></trkpt><trkpt lat="46.4747297" lon="12.8716405"><ele>516.0</ele><time>2026-04-22T12:51:23.642Z</time></trkpt><trkpt lat="46.4746161" lon="12.8717172"><ele>516.0</ele><time>2026-04-22T12:51:24.642Z</time></trkpt><trkpt lat="46.4744998" lon="12.8717909"><ele>516.0</ele><time>2026-04-22T12:51:25.642Z</time></trkpt><trkpt lat="46.4743776" lon="12.8718699"><ele>517.5</ele><time>2026-04-22T12:51:26.643Z</time></trkpt><trkpt lat="46.4742589" lon="12.87194"><ele>519.0</ele><time>2026-04-22T12:51:27.642Z</time></trkpt><trkpt lat="46.4741329" lon="12.8720212"><ele>520.5</ele><time>2026-04-22T12:51:28.642Z</time></trkpt><trkpt lat="46.4740049" lon="12.8721012"><ele>522.0</ele><time>2026-04-22T12:51:29.642Z</time></trkpt><trkpt lat="46.4738771" lon="12.8721837"><ele>516.5</ele><time>2026-04-22T12:51:30.643Z</time></trkpt><trkpt lat="46.4737469" lon="12.8722758"><ele>511.0</ele><time>2026-04-22T12:51:31.642Z</time></trkpt><trkpt lat="46.4736145" lon="12.8723725"><ele>505.5</ele><time>2026-04-22T12:51:32.643Z</time></trkpt><trkpt lat="46.4734875" lon="12.8724737"><ele>500.0</ele><time>2026-04-22T12:51:33.642Z</time></trkpt><trkpt lat="46.473363" lon="12.8725683"><ele>502.25</ele><time>2026-04-22T12:51:34.642Z</time></trkpt><trkpt lat="46.4732427" lon="12.8726774"><ele>504.5</ele><time>2026-04-22T12:51:35.642Z</time></trkpt><trkpt lat="46.4731293" lon="12.8727659"><ele>506.75</ele><time>2026-04-22T12:51:36.642Z</time></trkpt><trkpt lat="46.473012" lon="12.8728534"><ele>509.0</ele><time>2026-04-22T12:51:37.642Z</time></trkpt><trkpt lat="46.4728888" lon="12.8729367"><ele>509.0</ele><time>2026-04-22T12:51:38.643Z</time></trkpt><trkpt lat="46.4727673" lon="12.8730186"><ele>509.0</ele><time>2026-04-22T12:51:39.642Z</time></trkpt><trkpt lat="46.4726482" lon="12.8730961"><ele>509.0</ele><time>2026-04-22T12:51:40.642Z</time></trkpt><trkpt lat="46.4725286" lon="12.8731714"><ele>509.0</ele><time>2026-04-22T12:51:41.642Z</time></trkpt><trkpt lat="46.4724107" lon="12.8732473"><ele>509.0</ele><time>2026-04-22T12:51:42.643Z</time></trkpt><trkpt lat="46.4722949" lon="12.8733289"><ele>509.0</ele><time>2026-04-22T12:51:43.642Z</time></trkpt><trkpt lat="46.4721716" lon="12.8734074"><ele>509.0</ele><time>2026-04-22T12:51:44.642Z</time></trkpt><trkpt lat="46.4720495" lon="12.8734802"><ele>509.0</ele><time>2026-04-22T12:51:45.642Z</time></trkpt><trkpt lat="46.471931" lon="12.8735607"><ele>514.5</ele><time>2026-04-22T12:51:46.642Z</time></trkpt><trkpt lat="46.4718131" lon="12.8736339"><ele>520.0</ele><time>2026-04-22T12:51:47.642Z</time></trkpt><trkpt lat="46.4716935" lon="12.8737129"><ele>525.5</ele><time>2026-04-22T12:51:48.642Z</time></trkpt><trkpt lat="46.4715736" lon="12.8737869"><ele>531.0</ele><time>2026-04-22T12:51:49.642Z</time></trkpt><trkpt lat="46.4714589" lon="12.8738687"><ele>531.0</ele><time>2026-04-22T12:51:50.642Z</time></trkpt><trkpt lat="46.4713384" lon="12.8739441"><ele>531.0</ele><time>2026-04-22T12:51:51.642Z</time></trkpt><trkpt lat="46.4712112" lon="12.8740178"><ele>531.0</ele><time>2026-04-22T12:51:52.642Z</time></trkpt><trkpt lat="46.4710845" lon="12.8740756"><ele>531.0</ele><time>2026-04-22T12:51:53.642Z</time></trkpt><trkpt lat="46.4709569" lon="12.8741276"><ele>538.25</ele><time>2026-04-22T12:51:54.642Z</time></trkpt><trkpt lat="46.4708331" lon="12.8741736"><ele>545.5</ele><time>2026-04-22T12:51:55.642Z</time></trkpt><trkpt lat="46.4707177" lon="12.8742236"><ele>552.75</ele><time>2026-04-22T12:51:56.642Z</time></trkpt><trkpt lat="46.4705925" lon="12.8742689"><ele>560.0</ele><time>2026-04-22T12:51:57.641Z</time></trkpt><trkpt lat="46.4704757" lon="12.874313"><ele>554.0</ele><time>2026-04-22T12:51:58.642Z</time></trkpt><trkpt lat="46.4703582" lon="12.8743638"><ele>548.0</ele><time>2026-04-22T12:51:59.642Z</time></trkpt><trkpt lat="46.4702306" lon="12.8744029"><ele>542.0</ele><time>2026-04-22T12:52:00.642Z</time></trkpt><trkpt lat="46.4701066" lon="12.8744494"><ele>536.0</ele><time>2026-04-22T12:52:01.642Z</time></trkpt><trkpt lat="46.4699828" lon="12.8744942"><ele>536.0</ele><time>2026-04-22T12:52:02.642Z</time></trkpt><trkpt lat="46.4698584" lon="12.8745398"><ele>536.0</ele><time>2026-04-22T12:52:03.642Z</time></trkpt><trkpt lat="46.4697333" lon="12.8745914"><ele>536.0</ele><time>2026-04-22T12:52:04.643Z</time></trkpt><trkpt lat="46.4696046" lon="12.8746351"><ele>536.0</ele><time>2026-04-22T12:52:05.642Z</time></trkpt><trkpt lat="46.4694908" lon="12.8746719"><ele>529.5</ele><time>2026-04-22T12:52:06.642Z</time></trkpt><trkpt lat="46.4693651" lon="12.8746991"><ele>523.0</ele><time>2026-04-22T12:52:07.642Z</time></trkpt><trkpt lat="46.4692412" lon="12.8747049"><ele>516.5</ele><time>2026-04-22T12:52:08.642Z</time></trkpt><trkpt lat="46.4691123" lon="12.8746966"><ele>510.0</ele><time>2026-04-22T12:52:09.642Z</time></trkpt><trkpt lat="46.468988" lon="12.8746746"><ele>510.0</ele><time>2026-04-22T12:52:10.642Z</time></trkpt><trkpt lat="46.4688675" lon="12.8746624"><ele>510.0</ele><time>2026-04-22T12:52:11.642Z</time></trkpt><trkpt lat="46.4687553" lon="12.8746433"><ele>510.0</ele><time>2026-04-22T12:52:12.642Z</time></trkpt><trkpt lat="46.4686473" lon="12.8746335"><ele>510.0</ele><time>2026-04-22T12:52:13.642Z</time></trkpt><trkpt lat="46.4685539" lon="12.8746264"><ele>510.0</ele><time>2026-04-22T12:52:14.642Z</time></trkpt><trkpt lat="46.4684762" lon="12.87461"><ele>509.1666666666667</ele><time>2026-04-22T12:52:15.642Z</time></trkpt><trkpt lat="46.4684052" lon="12.8745932"><ele>508.33333333333337</ele><time>2026-04-22T12:52:16.642Z</time></trkpt><trkpt lat="46.4683325" lon="12.8745796"><ele>507.5</ele><time>2026-04-22T12:52:17.642Z</time></trkpt><trkpt lat="46.4682586" lon="12.8745605"><ele>506.6666666666667</ele><time>2026-04-22T12:52:18.642Z</time></trkpt><trkpt lat="46.4681813" lon="12.8745523"><ele>505.83333333333337</ele><time>2026-04-22T12:52:19.642Z</time></trkpt><trkpt lat="46.4681027" lon="12.8745363"><ele>505.0</ele><time>2026-04-22T12:52:20.642Z</time></trkpt><trkpt lat="46.4680226" lon="12.8745186"><ele>505.33333333333337</ele><time>2026-04-22T12:52:21.642Z</time></trkpt><trkpt lat="46.4679416" lon="12.8744916"><ele>505.6666666666667</ele><time>2026-04-22T12:52:22.642Z</time></trkpt><trkpt lat="46.46786" lon="12.8744609"><ele>506.0</ele><time>2026-04-22T12:52:23.642Z</time></trkpt><trkpt lat="46.4677795" lon="12.8744208"><ele>506.33333333333337</ele><time>2026-04-22T12:52:24.642Z</time></trkpt><trkpt lat="46.4677022" lon="12.8743758"><ele>506.6666666666667</ele><time>2026-04-22T12:52:25.642Z</time></trkpt><trkpt lat="46.4676212" lon="12.8743289"><ele>507.0</ele><time>2026-04-22T12:52:26.642Z</time></trkpt><trkpt lat="46.4675358" lon="12.8742763"><ele>503.0</ele><time>2026-04-22T12:52:27.642Z</time></trkpt><trkpt lat="46.4674496" lon="12.8742257"><ele>499.00000000000006</ele><time>2026-04-22T12:52:28.643Z</time></trkpt><trkpt lat="46.4673603" lon="12.874177"><ele>495.00000000000006</ele><time>2026-04-22T12:52:29.642Z</time></trkpt><trkpt lat="46.4672693" lon="12.8741307"><ele>491.0</ele><time>2026-04-22T12:52:30.642Z</time></trkpt><trkpt lat="46.4671776" lon="12.8740968"><ele>487.0</ele><time>2026-04-22T12:52:31.642Z</time></trkpt><trkpt lat="46.4670717" lon="12.8740679"><ele>487.0</ele><time>2026-04-22T12:52:32.642Z</time></trkpt><trkpt lat="46.4669283" lon="12.8740645"><ele>487.0</ele><time>2026-04-22T12:52:33.642Z</time></trkpt><trkpt lat="46.4667624" lon="12.8740811"><ele>487.0</ele><time>2026-04-22T12:52:34.642Z</time></trkpt><trkpt lat="46.4665802" lon="12.8741016"><ele>487.0</ele><time>2026-04-22T12:52:35.642Z</time></trkpt><trkpt lat="46.4663975" lon="12.8741244"><ele>487.0</ele><time>2026-04-22T12:52:36.642Z</time></trkpt><trkpt lat="46.4662185" lon="12.8741549"><ele>487.0</ele><time>2026-04-22T12:52:37.642Z</time></trkpt><trkpt lat="46.4660406" lon="12.8741906"><ele>484.6666666666667</ele><time>2026-04-22T12:52:38.642Z</time></trkpt><trkpt lat="46.4658621" lon="12.8742259"><ele>482.33333333333337</ele><time>2026-04-22T12:52:39.643Z</time></trkpt><trkpt lat="46.4656826" lon="12.8742405"><ele>480.0</ele><time>2026-04-22T12:52:40.642Z</time></trkpt><trkpt lat="46.4655048" lon="12.8742234"><ele>480.0</ele><time>2026-04-22T12:52:41.642Z</time></trkpt><trkpt lat="46.4653311" lon="12.8741628"><ele>480.0</ele><time>2026-04-22T12:52:42.642Z</time></trkpt><trkpt lat="46.465165" lon="12.8740687"><ele>480.0</ele><time>2026-04-22T12:52:43.642Z</time></trkpt><trkpt lat="46.4650027" lon="12.8739628"><ele>480.0</ele><time>2026-04-22T12:52:44.642Z</time></trkpt><trkpt lat="46.4648511" lon="12.8738419"><ele>480.0</ele><time>2026-04-22T12:52:45.642Z</time></trkpt><trkpt lat="46.464712" lon="12.8737302"><ele>480.0</ele><time>2026-04-22T12:52:46.642Z</time></trkpt><trkpt lat="46.4645785" lon="12.8736014"><ele>482.0</ele><time>2026-04-22T12:52:47.642Z</time></trkpt><trkpt lat="46.464463" lon="12.8734441"><ele>484.0</ele><time>2026-04-22T12:52:48.642Z</time></trkpt><trkpt lat="46.4643649" lon="12.8732593"><ele>486.0</ele><time>2026-04-22T12:52:49.642Z</time></trkpt><trkpt lat="46.4642834" lon="12.8730552"><ele>486.0</ele><time>2026-04-22T12:52:50.642Z</time></trkpt><trkpt lat="46.4642122" lon="12.8728477"><ele>486.0</ele><time>2026-04-22T12:52:51.642Z</time></trkpt><trkpt lat="46.4641435" lon="12.8726431"><ele>486.0</ele><time>2026-04-22T12:52:52.642Z</time></trkpt><trkpt lat="46.4640811" lon="12.8724499"><ele>482.5</ele><time>2026-04-22T12:52:53.642Z</time></trkpt><trkpt lat="46.4640295" lon="12.8722701"><ele>479.0</ele><time>2026-04-22T12:52:54.642Z</time></trkpt><trkpt lat="46.4639786" lon="12.8721069"><ele>475.5</ele><time>2026-04-22T12:52:55.642Z</time></trkpt><trkpt lat="46.463918" lon="12.8719627"><ele>472.0</ele><time>2026-04-22T12:52:56.643Z</time></trkpt><trkpt lat="46.4638503" lon="12.8718258"><ele>469.25</ele><time>2026-04-22T12:52:57.643Z</time></trkpt><trkpt lat="46.4637658" lon="12.871709"><ele>466.5</ele><time>2026-04-22T12:52:58.642Z</time></trkpt><trkpt lat="46.4636656" lon="12.8716339"><ele>463.75</ele><time>2026-04-22T12:52:59.642Z</time></trkpt><trkpt lat="46.4635568" lon="12.8715971"><ele>461.0</ele><time>2026-04-22T12:53:00.642Z</time></trkpt><trkpt lat="46.4634443" lon="12.8716102"><ele>461.0</ele><time>2026-04-22T12:53:01.642Z</time></trkpt><trkpt lat="46.4633316" lon="12.8716532"><ele>461.0</ele><time>2026-04-22T12:53:02.642Z</time></trkpt><trkpt lat="46.4632092" lon="12.8717254"><ele>461.0</ele><time>2026-04-22T12:53:03.642Z</time></trkpt><trkpt lat="46.4630794" lon="12.8718095"><ele>461.0</ele><time>2026-04-22T12:53:04.643Z</time></trkpt><trkpt lat="46.462942" lon="12.871895"><ele>470.66666666666663</ele><time>2026-04-22T12:53:05.642Z</time></trkpt><trkpt lat="46.4628031" lon="12.8719895"><ele>480.33333333333337</ele><time>2026-04-22T12:53:06.643Z</time></trkpt><trkpt lat="46.4626591" lon="12.872084"><ele>490.0</ele><time>2026-04-22T12:53:07.643Z</time></trkpt><trkpt lat="46.4625066" lon="12.8721675"><ele>490.0</ele><time>2026-04-22T12:53:08.643Z</time></trkpt><trkpt lat="46.4623489" lon="12.8722348"><ele>490.0</ele><time>2026-04-22T12:53:09.642Z</time></trkpt><trkpt lat="46.4621873" lon="12.8722831"><ele>490.0</ele><time>2026-04-22T12:53:10.642Z</time></trkpt><trkpt lat="46.4620294" lon="12.8723162"><ele>485.0</ele><time>2026-04-22T12:53:11.642Z</time></trkpt><trkpt lat="46.4618752" lon="12.8723464"><ele>480.0</ele><time>2026-04-22T12:53:12.642Z</time></trkpt><trkpt lat="46.4617202" lon="12.8723732"><ele>475.0</ele><time>2026-04-22T12:53:13.642Z</time></trkpt><trkpt lat="46.461569" lon="12.872399"><ele>475.0</ele><time>2026-04-22T12:53:14.642Z</time></trkpt><trkpt lat="46.4614211" lon="12.8724274"><ele>475.0</ele><time>2026-04-22T12:53:15.642Z</time></trkpt><trkpt lat="46.4612778" lon="12.8724563"><ele>475.0</ele><time>2026-04-22T12:53:16.642Z</time></trkpt><trkpt lat="46.4611345" lon="12.8724799"><ele>475.0</ele><time>2026-04-22T12:53:17.642Z</time></trkpt><trkpt lat="46.4609917" lon="12.8725029"><ele>475.0</ele><time>2026-04-22T12:53:18.643Z</time></trkpt><trkpt lat="46.4608596" lon="12.8725214"><ele>475.0</ele><time>2026-04-22T12:53:19.642Z</time></trkpt><trkpt lat="46.4607214" lon="12.872532"><ele>475.0</ele><time>2026-04-22T12:53:20.642Z</time></trkpt><trkpt lat="46.4605818" lon="12.8725312"><ele>475.0</ele><time>2026-04-22T12:53:21.642Z</time></trkpt><trkpt lat="46.4604446" lon="12.8725199"><ele>474.25</ele><time>2026-04-22T12:53:22.642Z</time></trkpt><trkpt lat="46.4603078" lon="12.8725057"><ele>473.5</ele><time>2026-04-22T12:53:23.642Z</time></trkpt><trkpt lat="46.4601684" lon="12.8724927"><ele>472.75</ele><time>2026-04-22T12:53:24.643Z</time></trkpt><trkpt lat="46.4600285" lon="12.8724826"><ele>472.0</ele><time>2026-04-22T12:53:25.642Z</time></trkpt><trkpt lat="46.4598878" lon="12.8724741"><ele>472.0</ele><time>2026-04-22T12:53:26.642Z</time></trkpt><trkpt lat="46.4597488" lon="12.8724702"><ele>472.0</ele><time>2026-04-22T12:53:27.643Z</time></trkpt><trkpt lat="46.4596113" lon="12.8724608"><ele>472.0</ele><time>2026-04-22T12:53:28.642Z</time></trkpt><trkpt lat="46.4594739" lon="12.8724363"><ele>472.0</ele><time>2026-04-22T12:53:29.643Z</time></trkpt><trkpt lat="46.4593344" lon="12.8723985"><ele>471.75</ele><time>2026-04-22T12:53:30.642Z</time></trkpt><trkpt lat="46.459197" lon="12.8723461"><ele>471.5</ele><time>2026-04-22T12:53:31.642Z</time></trkpt><trkpt lat="46.4590541" lon="12.8723106"><ele>471.25</ele><time>2026-04-22T12:53:32.642Z</time></trkpt><trkpt lat="46.4589033" lon="12.8722804"><ele>471.0</ele><time>2026-04-22T12:53:33.642Z</time></trkpt><trkpt lat="46.458748" lon="12.872267"><ele>464.66666666666663</ele><time>2026-04-22T12:53:34.642Z</time></trkpt><trkpt lat="46.4585948" lon="12.872272"><ele>458.3333333333333</ele><time>2026-04-22T12:53:35.642Z</time></trkpt><trkpt lat="46.4584391" lon="12.8722896"><ele>452.0</ele><time>2026-04-22T12:53:36.643Z</time></trkpt><trkpt lat="46.4582788" lon="12.872325"><ele>452.0</ele><time>2026-04-22T12:53:37.642Z</time></trkpt><trkpt lat="46.458114" lon="12.872363"><ele>452.0</ele><time>2026-04-22T12:53:38.642Z</time></trkpt><trkpt lat="46.4579473" lon="12.8724218"><ele>452.0</ele><time>2026-04-22T12:53:39.642Z</time></trkpt><trkpt lat="46.45778" lon="12.8724879"><ele>451.3333333333333</ele><time>2026-04-22T12:53:40.642Z</time></trkpt><trkpt lat="46.4576135" lon="12.8725657"><ele>450.66666666666663</ele><time>2026-04-22T12:53:41.642Z</time></trkpt><trkpt lat="46.4574469" lon="12.8726625"><ele>450.0</ele><time>2026-04-22T12:53:42.642Z</time></trkpt><trkpt lat="46.457281" lon="12.8727625"><ele>450.0</ele><time>2026-04-22T12:53:43.642Z</time></trkpt><trkpt lat="46.4571226" lon="12.8728829"><ele>450.0</ele><time>2026-04-22T12:53:44.642Z</time></trkpt><trkpt lat="46.4569619" lon="12.8730163"><ele>450.0</ele><time>2026-04-22T12:53:45.642Z</time></trkpt><trkpt lat="46.4567987" lon="12.8731606"><ele>450.33333333333337</ele><time>2026-04-22T12:53:46.642Z</time></trkpt><trkpt lat="46.4566381" lon="12.8733051"><ele>450.6666666666667</ele><time>2026-04-22T12:53:47.642Z</time></trkpt><trkpt lat="46.4564761" lon="12.8734498"><ele>451.0</ele><time>2026-04-22T12:53:48.642Z</time></trkpt><trkpt lat="46.4563116" lon="12.873601"><ele>450.0</ele><time>2026-04-22T12:53:49.642Z</time></trkpt><trkpt lat="46.4561438" lon="12.8737526"><ele>449.0</ele><time>2026-04-22T12:53:50.642Z</time></trkpt><trkpt lat="46.4559795" lon="12.8739009"><ele>448.0</ele><time>2026-04-22T12:53:51.643Z</time></trkpt><trkpt lat="46.45581" lon="12.8740462"><ele>448.0</ele><time>2026-04-22T12:53:52.642Z</time></trkpt><trkpt lat="46.455641" lon="12.8741969"><ele>448.0</ele><time>2026-04-22T12:53:53.643Z</time></trkpt><trkpt lat="46.4554693" lon="12.8743466"><ele>448.0</ele><time>2026-04-22T12:53:54.642Z</time></trkpt><trkpt lat="46.4552985" lon="12.8744964"><ele>447.6666666666667</ele><time>2026-04-22T12:53:55.643Z</time></trkpt><trkpt lat="46.4551248" lon="12.8746482"><ele>447.33333333333337</ele><time>2026-04-22T12:53:56.642Z</time></trkpt><trkpt lat="46.4549528" lon="12.8748019"><ele>447.0</ele><time>2026-04-22T12:53:57.642Z</time></trkpt><trkpt lat="46.4547859" lon="12.874955"><ele>447.0</ele><time>2026-04-22T12:53:58.642Z</time></trkpt><trkpt lat="46.4546148" lon="12.8751093"><ele>447.0</ele><time>2026-04-22T12:53:59.642Z</time></trkpt><trkpt lat="46.4544427" lon="12.8752622"><ele>447.0</ele><time>2026-04-22T12:54:00.642Z</time></trkpt><trkpt lat="46.4542721" lon="12.875417"><ele>447.0</ele><time>2026-04-22T12:54:01.642Z</time></trkpt><trkpt lat="46.4541001" lon="12.8755666"><ele>447.0</ele><time>2026-04-22T12:54:02.642Z</time></trkpt><trkpt lat="46.4539267" lon="12.8757219"><ele>447.0</ele><time>2026-04-22T12:54:03.642Z</time></trkpt><trkpt lat="46.4537535" lon="12.8758775"><ele>447.33333333333337</ele><time>2026-04-22T12:54:04.642Z</time></trkpt><trkpt lat="46.4535802" lon="12.8760338"><ele>447.6666666666667</ele><time>2026-04-22T12:54:05.642Z</time></trkpt><trkpt lat="46.4534068" lon="12.8761898"><ele>448.0</ele><time>2026-04-22T12:54:06.643Z</time></trkpt><trkpt lat="46.4532342" lon="12.8763424"><ele>448.0</ele><time>2026-04-22T12:54:07.643Z</time></trkpt><trkpt lat="46.4530615" lon="12.87649"><ele>448.0</ele><time>2026-04-22T12:54:08.642Z</time></trkpt><trkpt lat="46.4528909" lon="12.8766442"><ele>448.0</ele><time>2026-04-22T12:54:09.642Z</time></trkpt><trkpt lat="46.4527251" lon="12.8767905"><ele>451.0</ele><time>2026-04-22T12:54:10.642Z</time></trkpt><trkpt lat="46.4525733" lon="12.8769329"><ele>454.0</ele><time>2026-04-22T12:54:11.642Z</time></trkpt><trkpt lat="46.4524113" lon="12.8770723"><ele>457.0</ele><time>2026-04-22T12:54:12.642Z</time></trkpt><trkpt lat="46.452253" lon="12.8772123"><ele>454.33333333333337</ele><time>2026-04-22T12:54:13.642Z</time></trkpt><trkpt lat="46.4520939" lon="12.8773404"><ele>451.66666666666663</ele><time>2026-04-22T12:54:14.643Z</time></trkpt><trkpt lat="46.4519299" lon="12.8774491"><ele>449.0</ele><time>2026-04-22T12:54:15.642Z</time></trkpt><trkpt lat="46.4517662" lon="12.8775383"><ele>462.0</ele><time>2026-04-22T12:54:16.642Z</time></trkpt><trkpt lat="46.451604" lon="12.8776172"><ele>475.0</ele><time>2026-04-22T12:54:17.642Z</time></trkpt><trkpt lat="46.4514398" lon="12.8776795"><ele>488.0</ele><time>2026-04-22T12:54:18.643Z</time></trkpt><trkpt lat="46.4512724" lon="12.8777184"><ele>488.0</ele><time>2026-04-22T12:54:19.642Z</time></trkpt><trkpt lat="46.4511055" lon="12.8777539"><ele>488.0</ele><time>2026-04-22T12:54:20.642Z</time></trkpt><trkpt lat="46.4509394" lon="12.8777871"><ele>488.0</ele><time>2026-04-22T12:54:21.643Z</time></trkpt><trkpt lat="46.4507785" lon="12.8778245"><ele>488.0</ele><time>2026-04-22T12:54:22.643Z</time></trkpt><trkpt lat="46.4506159" lon="12.8778502"><ele>488.0</ele><time>2026-04-22T12:54:23.642Z</time></trkpt><trkpt lat="46.4504541" lon="12.8778644"><ele>488.0</ele><time>2026-04-22T12:54:24.642Z</time></trkpt><trkpt lat="46.4502911" lon="12.8778663"><ele>479.3333333333333</ele><time>2026-04-22T12:54:25.643Z</time></trkpt><trkpt lat="46.4501363" lon="12.8778603"><ele>470.66666666666663</ele><time>2026-04-22T12:54:26.642Z</time></trkpt><trkpt lat="46.4499885" lon="12.8778571"><ele>462.0</ele><time>2026-04-22T12:54:27.643Z</time></trkpt><trkpt lat="46.4498338" lon="12.8778702"><ele>462.0</ele><time>2026-04-22T12:54:28.642Z</time></trkpt><trkpt lat="46.4496898" lon="12.8779278"><ele>462.0</ele><time>2026-04-22T12:54:29.642Z</time></trkpt><trkpt lat="46.4495559" lon="12.878031"><ele>462.0</ele><time>2026-04-22T12:54:30.643Z</time></trkpt><trkpt lat="46.4494328" lon="12.8781595"><ele>458.33333333333337</ele><time>2026-04-22T12:54:31.642Z</time></trkpt><trkpt lat="46.449308" lon="12.8782953"><ele>454.6666666666667</ele><time>2026-04-22T12:54:32.642Z</time></trkpt><trkpt lat="46.4491783" lon="12.8784355"><ele>451.0</ele><time>2026-04-22T12:54:33.642Z</time></trkpt><trkpt lat="46.4490435" lon="12.8785543"><ele>463.6666666666667</ele><time>2026-04-22T12:54:34.642Z</time></trkpt><trkpt lat="46.4488972" lon="12.8786497"><ele>476.33333333333337</ele><time>2026-04-22T12:54:35.642Z</time></trkpt><trkpt lat="46.4487379" lon="12.8787147"><ele>489.0</ele><time>2026-04-22T12:54:36.642Z</time></trkpt><trkpt lat="46.4485778" lon="12.878763"><ele>489.0</ele><time>2026-04-22T12:54:37.642Z</time></trkpt><trkpt lat="46.4484169" lon="12.8788129"><ele>489.0</ele><time>2026-04-22T12:54:38.642Z</time></trkpt><trkpt lat="46.4482449" lon="12.8788491"><ele>489.0</ele><time>2026-04-22T12:54:39.642Z</time></trkpt><trkpt lat="46.4480743" lon="12.8788857"><ele>484.0</ele><time>2026-04-22T12:54:40.642Z</time></trkpt><trkpt lat="46.4479094" lon="12.8789351"><ele>479.0</ele><time>2026-04-22T12:54:41.642Z</time></trkpt><trkpt lat="46.4477545" lon="12.8789641"><ele>474.0</ele><time>2026-04-22T12:54:42.642Z</time></trkpt><trkpt lat="46.4475865" lon="12.8789615"><ele>474.0</ele><time>2026-04-22T12:54:43.642Z</time></trkpt><trkpt lat="46.4474207" lon="12.8789334"><ele>474.0</ele><time>2026-04-22T12:54:44.642Z</time></trkpt><trkpt lat="46.4472564" lon="12.8788906"><ele>474.0</ele><time>2026-04-22T12:54:45.642Z</time></trkpt><trkpt lat="46.4470941" lon="12.8788221"><ele>475.33333333333337</ele><time>2026-04-22T12:54:46.642Z</time></trkpt><trkpt lat="46.4469349" lon="12.8787468"><ele>476.6666666666667</ele><time>2026-04-22T12:54:47.643Z</time></trkpt><trkpt lat="46.4467711" lon="12.8786868"><ele>478.0</ele><time>2026-04-22T12:54:48.642Z</time></trkpt><trkpt lat="46.4466072" lon="12.8786479"><ele>478.0</ele><time>2026-04-22T12:54:49.642Z</time></trkpt><trkpt lat="46.4464379" lon="12.8786472"><ele>478.0</ele><time>2026-04-22T12:54:50.642Z</time></trkpt><trkpt lat="46.4462695" lon="12.87867"><ele>478.0</ele><time>2026-04-22T12:54:51.643Z</time></trkpt><trkpt lat="46.4461006" lon="12.8787072"><ele>475.0</ele><time>2026-04-22T12:54:52.642Z</time></trkpt><trkpt lat="46.445928" lon="12.8787418"><ele>472.0</ele><time>2026-04-22T12:54:53.642Z</time></trkpt><trkpt lat="46.4457502" lon="12.8787821"><ele>469.0</ele><time>2026-04-22T12:54:54.642Z</time></trkpt><trkpt lat="46.445569" lon="12.8788213"><ele>466.6666666666667</ele><time>2026-04-22T12:54:55.642Z</time></trkpt><trkpt lat="46.4453861" lon="12.8788636"><ele>464.33333333333337</ele><time>2026-04-22T12:54:56.642Z</time></trkpt><trkpt lat="46.4452007" lon="12.8789049"><ele>462.0</ele><time>2026-04-22T12:54:57.642Z</time></trkpt><trkpt lat="46.4450186" lon="12.8789446"><ele>462.0</ele><time>2026-04-22T12:54:58.643Z</time></trkpt><trkpt lat="46.4448329" lon="12.8789856"><ele>462.0</ele><time>2026-04-22T12:54:59.642Z</time></trkpt><trkpt lat="46.4446482" lon="12.8790421"><ele>462.0</ele><time>2026-04-22T12:55:00.643Z</time></trkpt><trkpt lat="46.4444676" lon="12.8791163"><ele>459.66666666666663</ele><time>2026-04-22T12:55:01.642Z</time></trkpt><trkpt lat="46.4442913" lon="12.8792252"><ele>457.3333333333333</ele><time>2026-04-22T12:55:02.642Z</time></trkpt><trkpt lat="46.4441276" lon="12.8793565"><ele>455.0</ele><time>2026-04-22T12:55:03.642Z</time></trkpt><trkpt lat="46.4439722" lon="12.8795057"><ele>455.66666666666663</ele><time>2026-04-22T12:55:04.642Z</time></trkpt><trkpt lat="46.4438172" lon="12.8796551"><ele>456.33333333333337</ele><time>2026-04-22T12:55:05.642Z</time></trkpt><trkpt lat="46.4436657" lon="12.8797995"><ele>457.0</ele><time>2026-04-22T12:55:06.642Z</time></trkpt><trkpt lat="46.443517" lon="12.8799428"><ele>457.0</ele><time>2026-04-22T12:55:07.642Z</time></trkpt><trkpt lat="46.4433678" lon="12.8800925"><ele>457.0</ele><time>2026-04-22T12:55:08.642Z</time></trkpt><trkpt lat="46.4432138" lon="12.8802239"><ele>457.0</ele><time>2026-04-22T12:55:09.642Z</time></trkpt><trkpt lat="46.4430655" lon="12.8803625"><ele>457.33333333333337</ele><time>2026-04-22T12:55:10.642Z</time></trkpt><trkpt lat="46.4429179" lon="12.8805"><ele>457.66666666666663</ele><time>2026-04-22T12:55:11.642Z</time></trkpt><trkpt lat="46.4427722" lon="12.8806361"><ele>458.0</ele><time>2026-04-22T12:55:12.643Z</time></trkpt><trkpt lat="46.4426256" lon="12.8807682"><ele>458.0</ele><time>2026-04-22T12:55:13.642Z</time></trkpt><trkpt lat="46.4424793" lon="12.8809001"><ele>458.0</ele><time>2026-04-22T12:55:14.643Z</time></trkpt><trkpt lat="46.4423367" lon="12.8810339"><ele>458.0</ele><time>2026-04-22T12:55:15.642Z</time></trkpt><trkpt lat="46.4421949" lon="12.8811714"><ele>458.0</ele><time>2026-04-22T12:55:16.643Z</time></trkpt><trkpt lat="46.4420468" lon="12.8813032"><ele>458.0</ele><time>2026-04-22T12:55:17.642Z</time></trkpt><trkpt lat="46.4418976" lon="12.881432"><ele>458.0</ele><time>2026-04-22T12:55:18.642Z</time></trkpt><trkpt lat="46.4417537" lon="12.8815681"><ele>458.0</ele><time>2026-04-22T12:55:19.643Z</time></trkpt><trkpt lat="46.4416118" lon="12.8816993"><ele>458.0</ele><time>2026-04-22T12:55:20.642Z</time></trkpt><trkpt lat="46.4414745" lon="12.8818322"><ele>458.0</ele><time>2026-04-22T12:55:21.643Z</time></trkpt><trkpt lat="46.4413387" lon="12.881964"><ele>459.66666666666663</ele><time>2026-04-22T12:55:22.643Z</time></trkpt><trkpt lat="46.4411982" lon="12.8820865"><ele>461.33333333333337</ele><time>2026-04-22T12:55:23.642Z</time></trkpt><trkpt lat="46.4410512" lon="12.8821741"><ele>463.0</ele><time>2026-04-22T12:55:24.643Z</time></trkpt><trkpt lat="46.4408946" lon="12.8822303"><ele>463.0</ele><time>2026-04-22T12:55:25.643Z</time></trkpt><trkpt lat="46.4407352" lon="12.8822651"><ele>463.0</ele><time>2026-04-22T12:55:26.642Z</time></trkpt><trkpt lat="46.4405777" lon="12.8822896"><ele>463.0</ele><time>2026-04-22T12:55:27.642Z</time></trkpt><trkpt lat="46.4404108" lon="12.8823165"><ele>458.0</ele><time>2026-04-22T12:55:28.642Z</time></trkpt><trkpt lat="46.4402476" lon="12.882355"><ele>453.0</ele><time>2026-04-22T12:55:29.642Z</time></trkpt><trkpt lat="46.4400853" lon="12.8824034"><ele>448.0</ele><time>2026-04-22T12:55:30.642Z</time></trkpt><trkpt lat="46.4399238" lon="12.88247"><ele>448.0</ele><time>2026-04-22T12:55:31.642Z</time></trkpt><trkpt lat="46.4397623" lon="12.8825361"><ele>448.0</ele><time>2026-04-22T12:55:32.642Z</time></trkpt><trkpt lat="46.4396017" lon="12.882584"><ele>448.0</ele><time>2026-04-22T12:55:33.642Z</time></trkpt><trkpt lat="46.4394362" lon="12.8826024"><ele>456.33333333333337</ele><time>2026-04-22T12:55:34.642Z</time></trkpt><trkpt lat="46.439269" lon="12.8826125"><ele>464.66666666666663</ele><time>2026-04-22T12:55:35.642Z</time></trkpt><trkpt lat="46.4390991" lon="12.8826263"><ele>473.0</ele><time>2026-04-22T12:55:36.642Z</time></trkpt><trkpt lat="46.4389347" lon="12.882669"><ele>465.3333333333333</ele><time>2026-04-22T12:55:37.642Z</time></trkpt><trkpt lat="46.4387748" lon="12.882743"><ele>457.66666666666663</ele><time>2026-04-22T12:55:38.643Z</time></trkpt><trkpt lat="46.4386205" lon="12.8828457"><ele>450.0</ele><time>2026-04-22T12:55:39.642Z</time></trkpt><trkpt lat="46.4384733" lon="12.8829733"><ele>450.0</ele><time>2026-04-22T12:55:40.642Z</time></trkpt><trkpt lat="46.4383268" lon="12.8831078"><ele>450.0</ele><time>2026-04-22T12:55:41.642Z</time></trkpt><trkpt lat="46.4381817" lon="12.8832498"><ele>450.0</ele><time>2026-04-22T12:55:42.642Z</time></trkpt><trkpt lat="46.4380342" lon="12.8833861"><ele>446.0</ele><time>2026-04-22T12:55:43.642Z</time></trkpt><trkpt lat="46.4378873" lon="12.8835224"><ele>442.0</ele><time>2026-04-22T12:55:44.642Z</time></trkpt><trkpt lat="46.4377439" lon="12.8836653"><ele>438.0</ele><time>2026-04-22T12:55:45.642Z</time></trkpt><trkpt lat="46.4376043" lon="12.8838179"><ele>438.0</ele><time>2026-04-22T12:55:46.642Z</time></trkpt><trkpt lat="46.4374741" lon="12.8839804"><ele>438.0</ele><time>2026-04-22T12:55:47.642Z</time></trkpt><trkpt lat="46.4373485" lon="12.8841563"><ele>438.0</ele><time>2026-04-22T12:55:48.642Z</time></trkpt><trkpt lat="46.4372239" lon="12.8843374"><ele>435.66666666666663</ele><time>2026-04-22T12:55:49.642Z</time></trkpt><trkpt lat="46.4371028" lon="12.8845191"><ele>433.3333333333333</ele><time>2026-04-22T12:55:50.642Z</time></trkpt><trkpt lat="46.4369854" lon="12.8847014"><ele>431.0</ele><time>2026-04-22T12:55:51.642Z</time></trkpt><trkpt lat="46.4368723" lon="12.8848892"><ele>431.0</ele><time>2026-04-22T12:55:52.642Z</time></trkpt><trkpt lat="46.4367639" lon="12.8850852"><ele>431.0</ele><time>2026-04-22T12:55:53.643Z</time></trkpt><trkpt lat="46.4366636" lon="12.8852895"><ele>431.0</ele><time>2026-04-22T12:55:54.642Z</time></trkpt><trkpt lat="46.436564" lon="12.8854903"><ele>434.0</ele><time>2026-04-22T12:55:55.643Z</time></trkpt><trkpt lat="46.4364635" lon="12.8856899"><ele>437.0</ele><time>2026-04-22T12:55:56.642Z</time></trkpt><trkpt lat="46.4363663" lon="12.8858832"><ele>440.0</ele><time>2026-04-22T12:55:57.642Z</time></trkpt><trkpt lat="46.4362638" lon="12.8860647"><ele>440.0</ele><time>2026-04-22T12:55:58.642Z</time></trkpt><trkpt lat="46.4361491" lon="12.8862286"><ele>440.0</ele><time>2026-04-22T12:55:59.642Z</time></trkpt><trkpt lat="46.4360253" lon="12.8863699"><ele>440.0</ele><time>2026-04-22T12:56:00.642Z</time></trkpt><trkpt lat="46.4358976" lon="12.8865003"><ele>440.0</ele><time>2026-04-22T12:56:01.642Z</time></trkpt><trkpt lat="46.4357708" lon="12.886621"><ele>440.0</ele><time>2026-04-22T12:56:02.642Z</time></trkpt><trkpt lat="46.4356434" lon="12.8867444"><ele>440.0</ele><time>2026-04-22T12:56:03.642Z</time></trkpt><trkpt lat="46.4355193" lon="12.8868656"><ele>440.75</ele><time>2026-04-22T12:56:04.642Z</time></trkpt><trkpt lat="46.4353975" lon="12.8869887"><ele>441.5</ele><time>2026-04-22T12:56:05.643Z</time></trkpt><trkpt lat="46.4352776" lon="12.8871129"><ele>442.25</ele><time>2026-04-22T12:56:06.643Z</time></trkpt><trkpt lat="46.4351567" lon="12.8872248"><ele>443.0</ele><time>2026-04-22T12:56:07.642Z</time></trkpt><trkpt lat="46.4350279" lon="12.8873067"><ele>443.0</ele><time>2026-04-22T12:56:08.642Z</time></trkpt><trkpt lat="46.4348958" lon="12.8873584"><ele>443.0</ele><time>2026-04-22T12:56:09.642Z</time></trkpt><trkpt lat="46.4347565" lon="12.8873691"><ele>443.0</ele><time>2026-04-22T12:56:10.643Z</time></trkpt><trkpt lat="46.4346179" lon="12.8873524"><ele>443.0</ele><time>2026-04-22T12:56:11.642Z</time></trkpt><trkpt lat="46.4344804" lon="12.8873199"><ele>441.25</ele><time>2026-04-22T12:56:12.642Z</time></trkpt><trkpt lat="46.4343441" lon="12.8872987"><ele>439.5</ele><time>2026-04-22T12:56:13.642Z</time></trkpt><trkpt lat="46.4342121" lon="12.8873039"><ele>437.75</ele><time>2026-04-22T12:56:14.642Z</time></trkpt><trkpt lat="46.4340791" lon="12.8873271"><ele>436.0</ele><time>2026-04-22T12:56:15.642Z</time></trkpt><trkpt lat="46.4339536" lon="12.8873856"><ele>436.0</ele><time>2026-04-22T12:56:16.642Z</time></trkpt><trkpt lat="46.4338336" lon="12.8874672"><ele>436.0</ele><time>2026-04-22T12:56:17.643Z</time></trkpt><trkpt lat="46.4337155" lon="12.8875587"><ele>436.0</ele><time>2026-04-22T12:56:18.642Z</time></trkpt><trkpt lat="46.4336005" lon="12.8876569"><ele>436.0</ele><time>2026-04-22T12:56:19.642Z</time></trkpt><trkpt lat="46.4334875" lon="12.8877495"><ele>435.75</ele><time>2026-04-22T12:56:20.642Z</time></trkpt><trkpt lat="46.4333767" lon="12.8878414"><ele>435.5</ele><time>2026-04-22T12:56:21.643Z</time></trkpt><trkpt lat="46.4332748" lon="12.8879502"><ele>435.25</ele><time>2026-04-22T12:56:22.642Z</time></trkpt><trkpt lat="46.4331864" lon="12.8880753"><ele>435.0</ele><time>2026-04-22T12:56:23.642Z</time></trkpt><trkpt lat="46.4331184" lon="12.8882158"><ele>435.0</ele><time>2026-04-22T12:56:24.643Z</time></trkpt><trkpt lat="46.4330817" lon="12.8883843"><ele>435.0</ele><time>2026-04-22T12:56:25.642Z</time></trkpt><trkpt lat="46.4330633" lon="12.8885569"><ele>435.0</ele><time>2026-04-22T12:56:26.642Z</time></trkpt><trkpt lat="46.4330879" lon="12.8887405"><ele>435.0</ele><time>2026-04-22T12:56:27.643Z</time></trkpt><trkpt lat="46.4331246" lon="12.8889126"><ele>434.25</ele><time>2026-04-22T12:56:28.642Z</time></trkpt><trkpt lat="46.4331649" lon="12.8891012"><ele>433.5</ele><time>2026-04-22T12:56:29.642Z</time></trkpt><trkpt lat="46.4332049" lon="12.8892933"><ele>432.75</ele><time>2026-04-22T12:56:30.642Z</time></trkpt><trkpt lat="46.4332469" lon="12.8894877"><ele>432.0</ele><time>2026-04-22T12:56:31.642Z</time></trkpt><trkpt lat="46.4332844" lon="12.8896807"><ele>431.0</ele><time>2026-04-22T12:56:32.643Z</time></trkpt><trkpt lat="46.4333161" lon="12.8898765"><ele>430.0</ele><time>2026-04-22T12:56:33.642Z</time></trkpt><trkpt lat="46.4333218" lon="12.8900757"><ele>429.0</ele><time>2026-04-22T12:56:34.642Z</time></trkpt><trkpt lat="46.4333124" lon="12.8902769"><ele>428.0</ele><time>2026-04-22T12:56:35.642Z</time></trkpt><trkpt lat="46.4332873" lon="12.890476"><ele>427.75</ele><time>2026-04-22T12:56:36.642Z</time></trkpt><trkpt lat="46.433252" lon="12.8906779"><ele>427.5</ele><time>2026-04-22T12:56:37.642Z</time></trkpt><trkpt lat="46.4332089" lon="12.8908758"><ele>427.25</ele><time>2026-04-22T12:56:38.642Z</time></trkpt><trkpt lat="46.4331634" lon="12.8910779"><ele>427.0</ele><time>2026-04-22T12:56:39.642Z</time></trkpt><trkpt lat="46.4331151" lon="12.8912843"><ele>428.0</ele><time>2026-04-22T12:56:40.642Z</time></trkpt><trkpt lat="46.4330687" lon="12.8914917"><ele>429.0</ele><time>2026-04-22T12:56:41.642Z</time></trkpt><trkpt lat="46.43302" lon="12.8916992"><ele>430.0</ele><time>2026-04-22T12:56:42.642Z</time></trkpt><trkpt lat="46.432969" lon="12.8919118"><ele>423.33333333333337</ele><time>2026-04-22T12:56:43.642Z</time></trkpt><trkpt lat="46.4329193" lon="12.8921296"><ele>416.66666666666663</ele><time>2026-04-22T12:56:44.642Z</time></trkpt><trkpt lat="46.4328725" lon="12.892347"><ele>410.0</ele><time>2026-04-22T12:56:45.642Z</time></trkpt><trkpt lat="46.4328243" lon="12.8925585"><ele>411.0</ele><time>2026-04-22T12:56:46.642Z</time></trkpt><trkpt lat="46.4327671" lon="12.8927723"><ele>412.0</ele><time>2026-04-22T12:56:47.642Z</time></trkpt><trkpt lat="46.4327052" lon="12.8929795"><ele>413.0</ele><time>2026-04-22T12:56:48.642Z</time></trkpt><trkpt lat="46.4326353" lon="12.8931861"><ele>413.0</ele><time>2026-04-22T12:56:49.642Z</time></trkpt><trkpt lat="46.4325583" lon="12.8933799"><ele>413.0</ele><time>2026-04-22T12:56:50.642Z</time></trkpt><trkpt lat="46.4324736" lon="12.8935688"><ele>413.0</ele><time>2026-04-22T12:56:51.642Z</time></trkpt><trkpt lat="46.432385" lon="12.8937433"><ele>413.0</ele><time>2026-04-22T12:56:52.642Z</time></trkpt><trkpt lat="46.4322971" lon="12.8939158"><ele>413.0</ele><time>2026-04-22T12:56:53.643Z</time></trkpt><trkpt lat="46.4322091" lon="12.8940747"><ele>413.0</ele><time>2026-04-22T12:56:54.643Z</time></trkpt><trkpt lat="46.4321232" lon="12.8942363"><ele>413.0</ele><time>2026-04-22T12:56:55.642Z</time></trkpt><trkpt lat="46.4320446" lon="12.8944064"><ele>413.0</ele><time>2026-04-22T12:56:56.642Z</time></trkpt><trkpt lat="46.4319864" lon="12.894587"><ele>413.0</ele><time>2026-04-22T12:56:57.642Z</time></trkpt><trkpt lat="46.4319501" lon="12.8947732"><ele>413.0</ele><time>2026-04-22T12:56:58.642Z</time></trkpt><trkpt lat="46.4319288" lon="12.8949618"><ele>413.0</ele><time>2026-04-22T12:56:59.642Z</time></trkpt><trkpt lat="46.431901" lon="12.8951544"><ele>416.5</ele><time>2026-04-22T12:57:00.642Z</time></trkpt><trkpt lat="46.4318532" lon="12.8953425"><ele>420.0</ele><time>2026-04-22T12:57:01.643Z</time></trkpt><trkpt lat="46.4317886" lon="12.8955205"><ele>423.5</ele><time>2026-04-22T12:57:02.642Z</time></trkpt><trkpt lat="46.4317017" lon="12.8956772"><ele>427.0</ele><time>2026-04-22T12:57:03.642Z</time></trkpt><trkpt lat="46.4315955" lon="12.8958082"><ele>428.0</ele><time>2026-04-22T12:57:04.643Z</time></trkpt><trkpt lat="46.4314805" lon="12.8959293"><ele>429.0</ele><time>2026-04-22T12:57:05.642Z</time></trkpt><trkpt lat="46.4313623" lon="12.89606"><ele>430.0</ele><time>2026-04-22T12:57:06.642Z</time></trkpt><trkpt lat="46.4312427" lon="12.8961763"><ele>431.0</ele><time>2026-04-22T12:57:07.641Z</time></trkpt><trkpt lat="46.4311236" lon="12.8963039"><ele>431.0</ele><time>2026-04-22T12:57:08.643Z</time></trkpt><trkpt lat="46.4309993" lon="12.8964102"><ele>431.0</ele><time>2026-04-22T12:57:09.641Z</time></trkpt><trkpt lat="46.4308747" lon="12.8965073"><ele>431.0</ele><time>2026-04-22T12:57:10.641Z</time></trkpt><trkpt lat="46.4307483" lon="12.8965841"><ele>431.0</ele><time>2026-04-22T12:57:11.643Z</time></trkpt><trkpt lat="46.4306186" lon="12.8966496"><ele>431.0</ele><time>2026-04-22T12:57:12.643Z</time></trkpt><trkpt lat="46.4304931" lon="12.8966961"><ele>431.0</ele><time>2026-04-22T12:57:13.642Z</time></trkpt><trkpt lat="46.430368" lon="12.8967619"><ele>431.0</ele><time>2026-04-22T12:57:14.643Z</time></trkpt><trkpt lat="46.4302486" lon="12.896845"><ele>431.0</ele><time>2026-04-22T12:57:15.642Z</time></trkpt><trkpt lat="46.4301415" lon="12.896958"><ele>429.0</ele><time>2026-04-22T12:57:16.642Z</time></trkpt><trkpt lat="46.4300514" lon="12.897091"><ele>427.0</ele><time>2026-04-22T12:57:17.642Z</time></trkpt><trkpt lat="46.4299771" lon="12.8972367"><ele>425.0</ele><time>2026-04-22T12:57:18.643Z</time></trkpt><trkpt lat="46.4299172" lon="12.8973887"><ele>423.0</ele><time>2026-04-22T12:57:19.642Z</time></trkpt><trkpt lat="46.4298815" lon="12.8975508"><ele>427.5</ele><time>2026-04-22T12:57:20.642Z</time></trkpt><trkpt lat="46.4298345" lon="12.8977053"><ele>432.0</ele><time>2026-04-22T12:57:21.642Z</time></trkpt><trkpt lat="46.4297641" lon="12.8978431"><ele>436.5</ele><time>2026-04-22T12:57:22.642Z</time></trkpt><trkpt lat="46.4296798" lon="12.8979628"><ele>441.0</ele><time>2026-04-22T12:57:23.642Z</time></trkpt><trkpt lat="46.4295937" lon="12.8980843"><ele>432.5</ele><time>2026-04-22T12:57:24.641Z</time></trkpt><trkpt lat="46.4295166" lon="12.8982231"><ele>424.0</ele><time>2026-04-22T12:57:25.642Z</time></trkpt><trkpt lat="46.4294636" lon="12.8983737"><ele>415.5</ele><time>2026-04-22T12:57:26.642Z</time></trkpt><trkpt lat="46.42943" lon="12.8985411"><ele>407.0</ele><time>2026-04-22T12:57:27.642Z</time></trkpt><trkpt lat="46.429421" lon="12.8987096"><ele>407.0</ele><time>2026-04-22T12:57:28.641Z</time></trkpt><trkpt lat="46.4294349" lon="12.8988723"><ele>407.0</ele><time>2026-04-22T12:57:29.642Z</time></trkpt><trkpt lat="46.4294527" lon="12.8990335"><ele>407.0</ele><time>2026-04-22T12:57:30.642Z</time></trkpt><trkpt lat="46.4294489" lon="12.8992004"><ele>407.0</ele><time>2026-04-22T12:57:31.643Z</time></trkpt><trkpt lat="46.4294183" lon="12.8993671"><ele>408.75</ele><time>2026-04-22T12:57:32.642Z</time></trkpt><trkpt lat="46.4293801" lon="12.8995366"><ele>410.5</ele><time>2026-04-22T12:57:33.642Z</time></trkpt><trkpt lat="46.4293371" lon="12.8997112"><ele>412.25</ele><time>2026-04-22T12:57:34.642Z</time></trkpt><trkpt lat="46.4292967" lon="12.8998867"><ele>414.0</ele><time>2026-04-22T12:57:35.642Z</time></trkpt><trkpt lat="46.429251" lon="12.9000671"><ele>418.0</ele><time>2026-04-22T12:57:36.642Z</time></trkpt><trkpt lat="46.4291903" lon="12.9002363"><ele>422.0</ele><time>2026-04-22T12:57:37.643Z</time></trkpt><trkpt lat="46.4291139" lon="12.9003995"><ele>426.0</ele><time>2026-04-22T12:57:38.642Z</time></trkpt><trkpt lat="46.4290344" lon="12.9005663"><ele>430.0</ele><time>2026-04-22T12:57:39.643Z</time></trkpt><trkpt lat="46.4289503" lon="12.9007326"><ele>430.0</ele><time>2026-04-22T12:57:40.642Z</time></trkpt><trkpt lat="46.4288683" lon="12.9008922"><ele>430.0</ele><time>2026-04-22T12:57:41.643Z</time></trkpt><trkpt lat="46.4287813" lon="12.9010367"><ele>430.0</ele><time>2026-04-22T12:57:42.642Z</time></trkpt><trkpt lat="46.4286861" lon="12.901173"><ele>430.0</ele><time>2026-04-22T12:57:43.642Z</time></trkpt><trkpt lat="46.4285824" lon="12.901303"><ele>427.5</ele><time>2026-04-22T12:57:44.642Z</time></trkpt><trkpt lat="46.4284802" lon="12.9014233"><ele>425.0</ele><time>2026-04-22T12:57:45.642Z</time></trkpt><trkpt lat="46.42837" lon="12.9015493"><ele>422.5</ele><time>2026-04-22T12:57:46.642Z</time></trkpt><trkpt lat="46.4282594" lon="12.9016751"><ele>420.0</ele><time>2026-04-22T12:57:47.642Z</time></trkpt><trkpt lat="46.4281486" lon="12.9018028"><ele>418.75</ele><time>2026-04-22T12:57:48.642Z</time></trkpt><trkpt lat="46.4280413" lon="12.9019254"><ele>417.5</ele><time>2026-04-22T12:57:49.641Z</time></trkpt><trkpt lat="46.4279323" lon="12.9020483"><ele>416.25</ele><time>2026-04-22T12:57:50.642Z</time></trkpt><trkpt lat="46.4278245" lon="12.9021709"><ele>415.0</ele><time>2026-04-22T12:57:51.643Z</time></trkpt><trkpt lat="46.4277189" lon="12.9022893"><ele>415.0</ele><time>2026-04-22T12:57:52.642Z</time></trkpt><trkpt lat="46.4276116" lon="12.9024097"><ele>415.0</ele><time>2026-04-22T12:57:53.642Z</time></trkpt><trkpt lat="46.4275158" lon="12.9025386"><ele>415.0</ele><time>2026-04-22T12:57:54.642Z</time></trkpt><trkpt lat="46.4274376" lon="12.9027052"><ele>415.0</ele><time>2026-04-22T12:57:55.642Z</time></trkpt><trkpt lat="46.4273749" lon="12.9028727"><ele>417.75</ele><time>2026-04-22T12:57:56.643Z</time></trkpt><trkpt lat="46.4273347" lon="12.9030633"><ele>420.5</ele><time>2026-04-22T12:57:57.642Z</time></trkpt><trkpt lat="46.4272995" lon="12.9032565"><ele>423.25</ele><time>2026-04-22T12:57:58.642Z</time></trkpt><trkpt lat="46.4272655" lon="12.9034497"><ele>426.0</ele><time>2026-04-22T12:57:59.641Z</time></trkpt><trkpt lat="46.4272157" lon="12.9036346"><ele>430.25</ele><time>2026-04-22T12:58:00.642Z</time></trkpt><trkpt lat="46.4271503" lon="12.9038044"><ele>434.5</ele><time>2026-04-22T12:58:01.642Z</time></trkpt><trkpt lat="46.4270655" lon="12.9039618"><ele>438.75</ele><time>2026-04-22T12:58:02.642Z</time></trkpt><trkpt lat="46.4269694" lon="12.9040954"><ele>443.0</ele><time>2026-04-22T12:58:03.642Z</time></trkpt><trkpt lat="46.4268549" lon="12.9042129"><ele>446.5</ele><time>2026-04-22T12:58:04.641Z</time></trkpt><trkpt lat="46.4267347" lon="12.9043004"><ele>450.0</ele><time>2026-04-22T12:58:05.643Z</time></trkpt><trkpt lat="46.4266036" lon="12.9043954"><ele>453.5</ele><time>2026-04-22T12:58:06.643Z</time></trkpt><trkpt lat="46.4264756" lon="12.9044663"><ele>457.0</ele><time>2026-04-22T12:58:07.642Z</time></trkpt><trkpt lat="46.4263468" lon="12.9045224"><ele>451.25</ele><time>2026-04-22T12:58:08.643Z</time></trkpt><trkpt lat="46.426222" lon="12.9045714"><ele>445.5</ele><time>2026-04-22T12:58:09.642Z</time></trkpt><trkpt lat="46.4260925" lon="12.904628"><ele>439.75</ele><time>2026-04-22T12:58:10.642Z</time></trkpt><trkpt lat="46.4259641" lon="12.9046729"><ele>434.0</ele><time>2026-04-22T12:58:11.642Z</time></trkpt><trkpt lat="46.4258468" lon="12.9047039"><ele>434.0</ele><time>2026-04-22T12:58:12.642Z</time></trkpt><trkpt lat="46.4257235" lon="12.9047132"><ele>434.0</ele><time>2026-04-22T12:58:13.642Z</time></trkpt><trkpt lat="46.4256053" lon="12.904697"><ele>434.0</ele><time>2026-04-22T12:58:14.642Z</time></trkpt><trkpt lat="46.4254779" lon="12.9046564"><ele>434.0</ele><time>2026-04-22T12:58:15.642Z</time></trkpt><trkpt lat="46.4253409" lon="12.9046144"><ele>429.75</ele><time>2026-04-22T12:58:16.642Z</time></trkpt><trkpt lat="46.4251987" lon="12.9045875"><ele>425.5</ele><time>2026-04-22T12:58:17.642Z</time></trkpt><trkpt lat="46.4250669" lon="12.9045907"><ele>421.25</ele><time>2026-04-22T12:58:18.643Z</time></trkpt><trkpt lat="46.4249489" lon="12.9046099"><ele>417.0</ele><time>2026-04-22T12:58:19.642Z</time></trkpt><trkpt lat="46.4248181" lon="12.9046641"><ele>417.0</ele><time>2026-04-22T12:58:20.643Z</time></trkpt><trkpt lat="46.4246867" lon="12.9047608"><ele>417.0</ele><time>2026-04-22T12:58:21.642Z</time></trkpt><trkpt lat="46.4245631" lon="12.9048584"><ele>417.0</ele><time>2026-04-22T12:58:22.642Z</time></trkpt><trkpt lat="46.4244378" lon="12.9049724"><ele>417.0</ele><time>2026-04-22T12:58:23.642Z</time></trkpt><trkpt lat="46.4243043" lon="12.9050705"><ele>420.0</ele><time>2026-04-22T12:58:24.643Z</time></trkpt><trkpt lat="46.4241819" lon="12.9051716"><ele>423.0</ele><time>2026-04-22T12:58:25.642Z</time></trkpt><trkpt lat="46.4240535" lon="12.9052555"><ele>426.0</ele><time>2026-04-22T12:58:26.642Z</time></trkpt><trkpt lat="46.4239218" lon="12.905389"><ele>429.0</ele><time>2026-04-22T12:58:27.641Z</time></trkpt><trkpt lat="46.4237799" lon="12.905458"><ele>422.0</ele><time>2026-04-22T12:58:28.642Z</time></trkpt><trkpt lat="46.4236422" lon="12.9055244"><ele>415.0</ele><time>2026-04-22T12:58:29.642Z</time></trkpt><trkpt lat="46.4235046" lon="12.9055932"><ele>408.0</ele><time>2026-04-22T12:58:30.642Z</time></trkpt><trkpt lat="46.4233537" lon="12.9056494"><ele>401.0</ele><time>2026-04-22T12:58:31.642Z</time></trkpt><trkpt lat="46.4232094" lon="12.9057137"><ele>401.0</ele><time>2026-04-22T12:58:32.643Z</time></trkpt><trkpt lat="46.4230861" lon="12.9058153"><ele>401.0</ele><time>2026-04-22T12:58:33.642Z</time></trkpt><trkpt lat="46.4229623" lon="12.9059214"><ele>401.0</ele><time>2026-04-22T12:58:34.642Z</time></trkpt><trkpt lat="46.4228366" lon="12.9060017"><ele>401.0</ele><time>2026-04-22T12:58:35.642Z</time></trkpt><trkpt lat="46.4227094" lon="12.9060715"><ele>402.25</ele><time>2026-04-22T12:58:36.642Z</time></trkpt><trkpt lat="46.4225861" lon="12.9061419"><ele>403.5</ele><time>2026-04-22T12:58:37.642Z</time></trkpt><trkpt lat="46.4224727" lon="12.9062356"><ele>404.75</ele><time>2026-04-22T12:58:38.642Z</time></trkpt><trkpt lat="46.4223824" lon="12.9063664"><ele>406.0</ele><time>2026-04-22T12:58:39.642Z</time></trkpt><trkpt lat="46.4223129" lon="12.9065215"><ele>406.0</ele><time>2026-04-22T12:58:40.642Z</time></trkpt><trkpt lat="46.4222661" lon="12.9066951"><ele>406.0</ele><time>2026-04-22T12:58:41.642Z</time></trkpt><trkpt lat="46.4222397" lon="12.9068816"><ele>406.0</ele><time>2026-04-22T12:58:42.642Z</time></trkpt><trkpt lat="46.4222197" lon="12.9070717"><ele>406.0</ele><time>2026-04-22T12:58:43.642Z</time></trkpt><trkpt lat="46.4221997" lon="12.9072577"><ele>407.5</ele><time>2026-04-22T12:58:44.642Z</time></trkpt><trkpt lat="46.4221797" lon="12.907441"><ele>409.0</ele><time>2026-04-22T12:58:45.642Z</time></trkpt><trkpt lat="46.4221705" lon="12.9076185"><ele>410.5</ele><time>2026-04-22T12:58:46.642Z</time></trkpt><trkpt lat="46.4221799" lon="12.9077986"><ele>412.0</ele><time>2026-04-22T12:58:47.642Z</time></trkpt><trkpt lat="46.4221964" lon="12.9079758"><ele>412.0</ele><time>2026-04-22T12:58:48.642Z</time></trkpt><trkpt lat="46.422203" lon="12.9081557"><ele>412.0</ele><time>2026-04-22T12:58:49.642Z</time></trkpt><trkpt lat="46.422189" lon="12.908339"><ele>412.0</ele><time>2026-04-22T12:58:50.642Z</time></trkpt><trkpt lat="46.4221481" lon="12.9085132"><ele>412.0</ele><time>2026-04-22T12:58:51.642Z</time></trkpt><trkpt lat="46.4220835" lon="12.9086807"><ele>408.5</ele><time>2026-04-22T12:58:52.642Z</time></trkpt><trkpt lat="46.4220058" lon="12.9088451"><ele>405.0</ele><time>2026-04-22T12:58:53.642Z</time></trkpt><trkpt lat="46.4219271" lon="12.9090077"><ele>401.5</ele><time>2026-04-22T12:58:54.641Z</time></trkpt><trkpt lat="46.4218454" lon="12.9091708"><ele>398.0</ele><time>2026-04-22T12:58:55.642Z</time></trkpt><trkpt lat="46.4217678" lon="12.9093328"><ele>398.0</ele><time>2026-04-22T12:58:56.642Z</time></trkpt><trkpt lat="46.4216881" lon="12.9094934"><ele>398.0</ele><time>2026-04-22T12:58:57.642Z</time></trkpt><trkpt lat="46.421594" lon="12.9096448"><ele>398.0</ele><time>2026-04-22T12:58:58.642Z</time></trkpt><trkpt lat="46.4214872" lon="12.9097772"><ele>398.0</ele><time>2026-04-22T12:58:59.642Z</time></trkpt><trkpt lat="46.4213727" lon="12.9098899"><ele>395.5</ele><time>2026-04-22T12:59:00.642Z</time></trkpt><trkpt lat="46.4212552" lon="12.9099918"><ele>393.0</ele><time>2026-04-22T12:59:01.642Z</time></trkpt><trkpt lat="46.4211378" lon="12.9100867"><ele>390.5</ele><time>2026-04-22T12:59:02.642Z</time></trkpt><trkpt lat="46.4210189" lon="12.9101845"><ele>388.0</ele><time>2026-04-22T12:59:03.642Z</time></trkpt><trkpt lat="46.4209021" lon="12.9102789"><ele>388.0</ele><time>2026-04-22T12:59:04.642Z</time></trkpt><trkpt lat="46.4207841" lon="12.9103747"><ele>388.0</ele><time>2026-04-22T12:59:05.642Z</time></trkpt><trkpt lat="46.420669" lon="12.910463"><ele>388.0</ele><time>2026-04-22T12:59:06.642Z</time></trkpt><trkpt lat="46.4205581" lon="12.9105569"><ele>388.0</ele><time>2026-04-22T12:59:07.642Z</time></trkpt><trkpt lat="46.4204502" lon="12.9106434"><ele>388.0</ele><time>2026-04-22T12:59:08.642Z</time></trkpt><trkpt lat="46.4203437" lon="12.9107331"><ele>388.0</ele><time>2026-04-22T12:59:09.642Z</time></trkpt><trkpt lat="46.4202394" lon="12.9108187"><ele>388.0</ele><time>2026-04-22T12:59:10.643Z</time></trkpt><trkpt lat="46.4201328" lon="12.9109018"><ele>388.0</ele><time>2026-04-22T12:59:11.642Z</time></trkpt><trkpt lat="46.4200267" lon="12.910992"><ele>388.0</ele><time>2026-04-22T12:59:12.643Z</time></trkpt><trkpt lat="46.419922" lon="12.911078"><ele>388.0</ele><time>2026-04-22T12:59:13.642Z</time></trkpt><trkpt lat="46.4198207" lon="12.9111678"><ele>388.0</ele><time>2026-04-22T12:59:14.642Z</time></trkpt><trkpt lat="46.4197182" lon="12.9112583"><ele>388.0</ele><time>2026-04-22T12:59:15.642Z</time></trkpt><trkpt lat="46.4196294" lon="12.911363"><ele>387.0</ele><time>2026-04-22T12:59:16.641Z</time></trkpt><trkpt lat="46.4195447" lon="12.91148"><ele>386.0</ele><time>2026-04-22T12:59:17.642Z</time></trkpt><trkpt lat="46.4194659" lon="12.9116022"><ele>385.0</ele><time>2026-04-22T12:59:18.642Z</time></trkpt><trkpt lat="46.4193879" lon="12.9117309"><ele>384.0</ele><time>2026-04-22T12:59:19.642Z</time></trkpt><trkpt lat="46.4193096" lon="12.9118594"><ele>383.5</ele><time>2026-04-22T12:59:20.642Z</time></trkpt><trkpt lat="46.4192274" lon="12.9119907"><ele>383.0</ele><time>2026-04-22T12:59:21.642Z</time></trkpt><trkpt lat="46.4191466" lon="12.9121228"><ele>382.5</ele><time>2026-04-22T12:59:22.642Z</time></trkpt><trkpt lat="46.4190635" lon="12.9122546"><ele>382.0</ele><time>2026-04-22T12:59:23.642Z</time></trkpt><trkpt lat="46.418979" lon="12.9123868"><ele>382.0</ele><time>2026-04-22T12:59:24.642Z</time></trkpt><trkpt lat="46.418896" lon="12.9125154"><ele>382.0</ele><time>2026-04-22T12:59:25.642Z</time></trkpt><trkpt lat="46.4188123" lon="12.9126479"><ele>382.0</ele><time>2026-04-22T12:59:26.642Z</time></trkpt><trkpt lat="46.4187288" lon="12.9127812"><ele>382.0</ele><time>2026-04-22T12:59:27.642Z</time></trkpt><trkpt lat="46.4186408" lon="12.912909"><ele>381.0</ele><time>2026-04-22T12:59:28.642Z</time></trkpt><trkpt lat="46.4185578" lon="12.9130419"><ele>380.0</ele><time>2026-04-22T12:59:29.642Z</time></trkpt><trkpt lat="46.4184825" lon="12.9131777"><ele>379.0</ele><time>2026-04-22T12:59:30.642Z</time></trkpt><trkpt lat="46.4184175" lon="12.9133121"><ele>378.0</ele><time>2026-04-22T12:59:31.642Z</time></trkpt><trkpt lat="46.4183611" lon="12.9134452"><ele>377.79999999999995</ele><time>2026-04-22T12:59:32.643Z</time></trkpt><trkpt lat="46.4183156" lon="12.9135799"><ele>377.6</ele><time>2026-04-22T12:59:33.642Z</time></trkpt><trkpt lat="46.4182776" lon="12.9137193"><ele>377.4</ele><time>2026-04-22T12:59:34.642Z</time></trkpt><trkpt lat="46.4182463" lon="12.9138594"><ele>377.20000000000005</ele><time>2026-04-22T12:59:35.642Z</time></trkpt><trkpt lat="46.4182185" lon="12.9139982"><ele>377.0</ele><time>2026-04-22T12:59:36.642Z</time></trkpt><trkpt lat="46.4181897" lon="12.9141351"><ele>376.6</ele><time>2026-04-22T12:59:37.642Z</time></trkpt><trkpt lat="46.4181639" lon="12.9142755"><ele>376.20000000000005</ele><time>2026-04-22T12:59:38.642Z</time></trkpt><trkpt lat="46.4181359" lon="12.914411"><ele>375.8</ele><time>2026-04-22T12:59:39.642Z</time></trkpt><trkpt lat="46.4181097" lon="12.9145493"><ele>375.4</ele><time>2026-04-22T12:59:40.642Z</time></trkpt><trkpt lat="46.4180812" lon="12.9146839"><ele>375.0</ele><time>2026-04-22T12:59:41.643Z</time></trkpt><trkpt lat="46.4180569" lon="12.9148116"><ele>375.0</ele><time>2026-04-22T12:59:42.642Z</time></trkpt><trkpt lat="46.4180288" lon="12.9149372"><ele>375.0</ele><time>2026-04-22T12:59:43.642Z</time></trkpt><trkpt lat="46.4180033" lon="12.9150655"><ele>375.0</ele><time>2026-04-22T12:59:44.642Z</time></trkpt><trkpt lat="46.41798" lon="12.9151924"><ele>375.0</ele><time>2026-04-22T12:59:45.642Z</time></trkpt><trkpt lat="46.4179586" lon="12.915319"><ele>375.0</ele><time>2026-04-22T12:59:46.642Z</time></trkpt><trkpt lat="46.4179297" lon="12.9154445"><ele>374.8</ele><time>2026-04-22T12:59:47.642Z</time></trkpt><trkpt lat="46.4179031" lon="12.9155811"><ele>374.6</ele><time>2026-04-22T12:59:48.642Z</time></trkpt><trkpt lat="46.4178758" lon="12.9157225"><ele>374.4</ele><time>2026-04-22T12:59:49.642Z</time></trkpt><trkpt lat="46.4178454" lon="12.9158687"><ele>374.2</ele><time>2026-04-22T12:59:50.642Z</time></trkpt><trkpt lat="46.4178132" lon="12.9160185"><ele>374.0</ele><time>2026-04-22T12:59:51.642Z</time></trkpt><trkpt lat="46.4177823" lon="12.9161752"><ele>373.5</ele><time>2026-04-22T12:59:52.642Z</time></trkpt><trkpt lat="46.4177492" lon="12.9163352"><ele>373.0</ele><time>2026-04-22T12:59:53.642Z</time></trkpt><trkpt lat="46.4177157" lon="12.9165021"><ele>372.5</ele><time>2026-04-22T12:59:54.643Z</time></trkpt><trkpt lat="46.4176809" lon="12.9166639"><ele>372.0</ele><time>2026-04-22T12:59:55.642Z</time></trkpt><trkpt lat="46.4176458" lon="12.916825"><ele>371.75</ele><time>2026-04-22T12:59:56.643Z</time></trkpt><trkpt lat="46.4176108" lon="12.9169875"><ele>371.5</ele><time>2026-04-22T12:59:57.642Z</time></trkpt><trkpt lat="46.4175796" lon="12.9171445"><ele>371.25</ele><time>2026-04-22T12:59:58.642Z</time></trkpt><trkpt lat="46.4175498" lon="12.9173056"><ele>371.0</ele><time>2026-04-22T12:59:59.642Z</time></trkpt><trkpt lat="46.4175188" lon="12.9174659"><ele>371.25</ele><time>2026-04-22T13:00:00.641Z</time></trkpt><trkpt lat="46.4174866" lon="12.9176246"><ele>371.5</ele><time>2026-04-22T13:00:01.642Z</time></trkpt><trkpt lat="46.4174536" lon="12.9177823"><ele>371.75</ele><time>2026-04-22T13:00:02.641Z</time></trkpt><trkpt lat="46.4174193" lon="12.9179384"><ele>372.0</ele><time>2026-04-22T13:00:03.642Z</time></trkpt><trkpt lat="46.4173875" lon="12.9180968"><ele>372.0</ele><time>2026-04-22T13:00:04.643Z</time></trkpt><trkpt lat="46.4173591" lon="12.9182501"><ele>372.0</ele><time>2026-04-22T13:00:05.642Z</time></trkpt><trkpt lat="46.417329" lon="12.9184051"><ele>372.0</ele><time>2026-04-22T13:00:06.641Z</time></trkpt><trkpt lat="46.417298" lon="12.9185535"><ele>372.0</ele><time>2026-04-22T13:00:07.642Z</time></trkpt><trkpt lat="46.417272" lon="12.9186868"><ele>372.0</ele><time>2026-04-22T13:00:08.643Z</time></trkpt><trkpt lat="46.4172486" lon="12.9188067"><ele>372.0</ele><time>2026-04-22T13:00:09.642Z</time></trkpt><trkpt lat="46.4172275" lon="12.9189115"><ele>372.0</ele><time>2026-04-22T13:00:10.643Z</time></trkpt><trkpt lat="46.4171984" lon="12.9190735"><ele>372.0</ele><time>2026-04-22T13:00:12.642Z</time></trkpt><trkpt lat="46.4171792" lon="12.9191807"><ele>372.0</ele><time>2026-04-22T13:00:14.642Z</time></trkpt><trkpt lat="46.4171596" lon="12.9192987"><ele>372.0</ele><time>2026-04-22T13:00:21.642Z</time></trkpt><trkpt lat="46.4171366" lon="12.9194051"><ele>372.0</ele><time>2026-04-22T13:00:23.642Z</time></trkpt><trkpt lat="46.4171115" lon="12.919525"><ele>371.1666666666667</ele><time>2026-04-22T13:00:25.642Z</time></trkpt><trkpt lat="46.4170822" lon="12.9196177"><ele>370.3333333333333</ele><time>2026-04-22T13:00:27.642Z</time></trkpt><trkpt lat="46.4170242" lon="12.9197011"><ele>369.5</ele><time>2026-04-22T13:00:31.642Z</time></trkpt><trkpt lat="46.4169671" lon="12.9197463"><ele>368.66666666666663</ele><time>2026-04-22T13:00:33.642Z</time></trkpt><trkpt lat="46.4168715" lon="12.9197629"><ele>367.8333333333333</ele><time>2026-04-22T13:00:35.642Z</time></trkpt><trkpt lat="46.416754" lon="12.9196974"><ele>367.0</ele><time>2026-04-22T13:00:37.642Z</time></trkpt><trkpt lat="46.4167015" lon="12.9196335"><ele>367.0</ele><time>2026-04-22T13:00:38.643Z</time></trkpt><trkpt lat="46.4166526" lon="12.919556"><ele>367.0</ele><time>2026-04-22T13:00:39.643Z</time></trkpt><trkpt lat="46.4165941" lon="12.9194729"><ele>367.0</ele><time>2026-04-22T13:00:40.642Z</time></trkpt><trkpt lat="46.4165347" lon="12.9193806"><ele>367.0</ele><time>2026-04-22T13:00:41.643Z</time></trkpt><trkpt lat="46.4164736" lon="12.9192817"><ele>367.0</ele><time>2026-04-22T13:00:42.642Z</time></trkpt><trkpt lat="46.4164086" lon="12.9191827"><ele>367.0</ele><time>2026-04-22T13:00:43.642Z</time></trkpt><trkpt lat="46.4163413" lon="12.9190844"><ele>367.20000000000005</ele><time>2026-04-22T13:00:44.642Z</time></trkpt><trkpt lat="46.4162662" lon="12.9189802"><ele>367.4</ele><time>2026-04-22T13:00:45.642Z</time></trkpt><trkpt lat="46.4161896" lon="12.9188721"><ele>367.6</ele><time>2026-04-22T13:00:46.642Z</time></trkpt><trkpt lat="46.4161144" lon="12.918762"><ele>367.79999999999995</ele><time>2026-04-22T13:00:47.641Z</time></trkpt><trkpt lat="46.4160346" lon="12.9186418"><ele>368.0</ele><time>2026-04-22T13:00:48.642Z</time></trkpt><trkpt lat="46.4159523" lon="12.9185179"><ele>368.0</ele><time>2026-04-22T13:00:49.642Z</time></trkpt><trkpt lat="46.4158706" lon="12.9183894"><ele>368.0</ele><time>2026-04-22T13:00:50.643Z</time></trkpt><trkpt lat="46.4157928" lon="12.9182609"><ele>368.0</ele><time>2026-04-22T13:00:51.642Z</time></trkpt><trkpt lat="46.4157046" lon="12.9181311"><ele>368.0</ele><time>2026-04-22T13:00:52.642Z</time></trkpt><trkpt lat="46.4156151" lon="12.9180016"><ele>368.0</ele><time>2026-04-22T13:00:53.643Z</time></trkpt><trkpt lat="46.4155228" lon="12.9178714"><ele>368.0</ele><time>2026-04-22T13:00:54.642Z</time></trkpt><trkpt lat="46.4154311" lon="12.9177381"><ele>368.0</ele><time>2026-04-22T13:00:55.642Z</time></trkpt><trkpt lat="46.4153407" lon="12.9175973"><ele>368.0</ele><time>2026-04-22T13:00:56.642Z</time></trkpt><trkpt lat="46.4152441" lon="12.9174596"><ele>367.75</ele><time>2026-04-22T13:00:57.642Z</time></trkpt><trkpt lat="46.4151497" lon="12.9173207"><ele>367.5</ele><time>2026-04-22T13:00:58.641Z</time></trkpt><trkpt lat="46.4150531" lon="12.9171744"><ele>367.25</ele><time>2026-04-22T13:00:59.642Z</time></trkpt><trkpt lat="46.4149646" lon="12.9170152"><ele>367.0</ele><time>2026-04-22T13:01:00.642Z</time></trkpt><trkpt lat="46.4148828" lon="12.9168495"><ele>367.0</ele><time>2026-04-22T13:01:01.642Z</time></trkpt><trkpt lat="46.4148074" lon="12.91667"><ele>367.0</ele><time>2026-04-22T13:01:02.642Z</time></trkpt><trkpt lat="46.4147388" lon="12.9164834"><ele>367.0</ele><time>2026-04-22T13:01:03.642Z</time></trkpt><trkpt lat="46.4146713" lon="12.9162878"><ele>367.0</ele><time>2026-04-22T13:01:04.642Z</time></trkpt><trkpt lat="46.4146038" lon="12.9160954"><ele>367.0</ele><time>2026-04-22T13:01:05.642Z</time></trkpt><trkpt lat="46.4145308" lon="12.9159005"><ele>367.0</ele><time>2026-04-22T13:01:06.642Z</time></trkpt><trkpt lat="46.4144616" lon="12.9157025"><ele>367.0</ele><time>2026-04-22T13:01:07.643Z</time></trkpt><trkpt lat="46.4143916" lon="12.9155051"><ele>367.0</ele><time>2026-04-22T13:01:08.642Z</time></trkpt><trkpt lat="46.414322" lon="12.9153043"><ele>367.0</ele><time>2026-04-22T13:01:09.642Z</time></trkpt><trkpt lat="46.4142539" lon="12.9151011"><ele>367.0</ele><time>2026-04-22T13:01:10.642Z</time></trkpt><trkpt lat="46.4141837" lon="12.9148955"><ele>367.66666666666663</ele><time>2026-04-22T13:01:11.642Z</time></trkpt><trkpt lat="46.4141127" lon="12.9146869"><ele>368.3333333333333</ele><time>2026-04-22T13:01:12.642Z</time></trkpt><trkpt lat="46.4140396" lon="12.9144803"><ele>369.0</ele><time>2026-04-22T13:01:13.642Z</time></trkpt><trkpt lat="46.4139662" lon="12.9142689"><ele>369.0</ele><time>2026-04-22T13:01:14.643Z</time></trkpt><trkpt lat="46.4138912" lon="12.9140634"><ele>369.0</ele><time>2026-04-22T13:01:15.642Z</time></trkpt><trkpt lat="46.4138147" lon="12.9138508"><ele>369.0</ele><time>2026-04-22T13:01:16.642Z</time></trkpt><trkpt lat="46.4137401" lon="12.9136387"><ele>369.0</ele><time>2026-04-22T13:01:17.643Z</time></trkpt><trkpt lat="46.4136639" lon="12.9134197"><ele>369.0</ele><time>2026-04-22T13:01:18.641Z</time></trkpt><trkpt lat="46.4135909" lon="12.9132037"><ele>369.0</ele><time>2026-04-22T13:01:19.643Z</time></trkpt><trkpt lat="46.4135156" lon="12.9129857"><ele>369.6666666666667</ele><time>2026-04-22T13:01:20.642Z</time></trkpt><trkpt lat="46.4134382" lon="12.912767"><ele>370.33333333333337</ele><time>2026-04-22T13:01:21.642Z</time></trkpt><trkpt lat="46.4133635" lon="12.9125449"><ele>371.0</ele><time>2026-04-22T13:01:22.642Z</time></trkpt><trkpt lat="46.4132879" lon="12.9123248"><ele>372.0</ele><time>2026-04-22T13:01:23.642Z</time></trkpt><trkpt lat="46.4132109" lon="12.9121023"><ele>373.0</ele><time>2026-04-22T13:01:24.642Z</time></trkpt><trkpt lat="46.4131308" lon="12.9118775"><ele>374.0</ele><time>2026-04-22T13:01:25.642Z</time></trkpt><trkpt lat="46.4130522" lon="12.9116465"><ele>374.0</ele><time>2026-04-22T13:01:26.642Z</time></trkpt><trkpt lat="46.4129708" lon="12.9114116"><ele>374.0</ele><time>2026-04-22T13:01:27.642Z</time></trkpt><trkpt lat="46.4128876" lon="12.9111742"><ele>374.0</ele><time>2026-04-22T13:01:28.642Z</time></trkpt><trkpt lat="46.4128047" lon="12.9109358"><ele>374.0</ele><time>2026-04-22T13:01:29.642Z</time></trkpt><trkpt lat="46.4127215" lon="12.9106922"><ele>374.0</ele><time>2026-04-22T13:01:30.642Z</time></trkpt><trkpt lat="46.4126381" lon="12.9104461"><ele>374.0</ele><time>2026-04-22T13:01:31.642Z</time></trkpt><trkpt lat="46.4125545" lon="12.9101987"><ele>374.33333333333337</ele><time>2026-04-22T13:01:32.642Z</time></trkpt><trkpt lat="46.4124684" lon="12.9099514"><ele>374.6666666666667</ele><time>2026-04-22T13:01:33.642Z</time></trkpt><trkpt lat="46.4123818" lon="12.9097036"><ele>375.0</ele><time>2026-04-22T13:01:34.641Z</time></trkpt><trkpt lat="46.4122982" lon="12.909459"><ele>374.6666666666667</ele><time>2026-04-22T13:01:35.643Z</time></trkpt><trkpt lat="46.412211" lon="12.9092179"><ele>374.33333333333337</ele><time>2026-04-22T13:01:36.643Z</time></trkpt><trkpt lat="46.412122" lon="12.9089717"><ele>374.0</ele><time>2026-04-22T13:01:37.642Z</time></trkpt><trkpt lat="46.4120385" lon="12.9087234"><ele>372.0</ele><time>2026-04-22T13:01:38.642Z</time></trkpt><trkpt lat="46.4119532" lon="12.9084765"><ele>370.0</ele><time>2026-04-22T13:01:39.642Z</time></trkpt><trkpt lat="46.4118666" lon="12.908229"><ele>368.0</ele><time>2026-04-22T13:01:40.642Z</time></trkpt><trkpt lat="46.411779" lon="12.90798"><ele>367.6666666666667</ele><time>2026-04-22T13:01:41.642Z</time></trkpt><trkpt lat="46.411693" lon="12.9077307"><ele>367.3333333333333</ele><time>2026-04-22T13:01:42.642Z</time></trkpt><trkpt lat="46.4116069" lon="12.9074801"><ele>367.0</ele><time>2026-04-22T13:01:43.642Z</time></trkpt><trkpt lat="46.4115146" lon="12.9072301"><ele>367.0</ele><time>2026-04-22T13:01:44.642Z</time></trkpt><trkpt lat="46.411427" lon="12.9069786"><ele>367.0</ele><time>2026-04-22T13:01:45.642Z</time></trkpt><trkpt lat="46.4113408" lon="12.9067275"><ele>367.0</ele><time>2026-04-22T13:01:46.642Z</time></trkpt><trkpt lat="46.4112536" lon="12.9064762"><ele>367.66666666666663</ele><time>2026-04-22T13:01:47.642Z</time></trkpt><trkpt lat="46.4111675" lon="12.9062235"><ele>368.3333333333333</ele><time>2026-04-22T13:01:48.642Z</time></trkpt><trkpt lat="46.4110807" lon="12.9059688"><ele>369.0</ele><time>2026-04-22T13:01:49.643Z</time></trkpt><trkpt lat="46.410997" lon="12.9057175"><ele>369.0</ele><time>2026-04-22T13:01:50.642Z</time></trkpt><trkpt lat="46.4109123" lon="12.9054656"><ele>369.0</ele><time>2026-04-22T13:01:51.642Z</time></trkpt><trkpt lat="46.4108262" lon="12.9052146"><ele>369.0</ele><time>2026-04-22T13:01:52.642Z</time></trkpt><trkpt lat="46.4107401" lon="12.9049666"><ele>369.0</ele><time>2026-04-22T13:01:53.642Z</time></trkpt><trkpt lat="46.4106562" lon="12.9047184"><ele>369.0</ele><time>2026-04-22T13:01:54.642Z</time></trkpt><trkpt lat="46.4105693" lon="12.9044723"><ele>369.0</ele><time>2026-04-22T13:01:55.643Z</time></trkpt><trkpt lat="46.4104855" lon="12.9042227"><ele>368.6666666666667</ele><time>2026-04-22T13:01:56.643Z</time></trkpt><trkpt lat="46.4104088" lon="12.9039724"><ele>368.33333333333337</ele><time>2026-04-22T13:01:57.642Z</time></trkpt><trkpt lat="46.4103402" lon="12.9037139"><ele>368.0</ele><time>2026-04-22T13:01:58.642Z</time></trkpt><trkpt lat="46.4102813" lon="12.9034566"><ele>368.0</ele><time>2026-04-22T13:01:59.642Z</time></trkpt><trkpt lat="46.4102361" lon="12.90319"><ele>368.0</ele><time>2026-04-22T13:02:00.642Z</time></trkpt><trkpt lat="46.4101966" lon="12.9029183"><ele>368.0</ele><time>2026-04-22T13:02:01.642Z</time></trkpt><trkpt lat="46.4101566" lon="12.9026451"><ele>368.6666666666667</ele><time>2026-04-22T13:02:02.642Z</time></trkpt><trkpt lat="46.4101167" lon="12.902369"><ele>369.3333333333333</ele><time>2026-04-22T13:02:03.642Z</time></trkpt><trkpt lat="46.4100781" lon="12.9020893"><ele>370.0</ele><time>2026-04-22T13:02:04.642Z</time></trkpt><trkpt lat="46.4100388" lon="12.9018109"><ele>370.0</ele><time>2026-04-22T13:02:05.642Z</time></trkpt><trkpt lat="46.4100027" lon="12.901531"><ele>370.0</ele><time>2026-04-22T13:02:06.642Z</time></trkpt><trkpt lat="46.4099663" lon="12.9012519"><ele>370.0</ele><time>2026-04-22T13:02:07.642Z</time></trkpt><trkpt lat="46.4099272" lon="12.9009742"><ele>370.66666666666663</ele><time>2026-04-22T13:02:08.642Z</time></trkpt><trkpt lat="46.4098876" lon="12.9007013"><ele>371.3333333333333</ele><time>2026-04-22T13:02:09.642Z</time></trkpt><trkpt lat="46.4098468" lon="12.9004348"><ele>372.0</ele><time>2026-04-22T13:02:10.642Z</time></trkpt><trkpt lat="46.409805" lon="12.9001736"><ele>372.6666666666667</ele><time>2026-04-22T13:02:11.642Z</time></trkpt><trkpt lat="46.4097672" lon="12.8999112"><ele>373.33333333333337</ele><time>2026-04-22T13:02:12.643Z</time></trkpt><trkpt lat="46.4097382" lon="12.899651"><ele>374.0</ele><time>2026-04-22T13:02:13.642Z</time></trkpt><trkpt lat="46.4097198" lon="12.89939"><ele>374.0</ele><time>2026-04-22T13:02:14.642Z</time></trkpt><trkpt lat="46.4097035" lon="12.8991243"><ele>374.0</ele><time>2026-04-22T13:02:15.642Z</time></trkpt><trkpt lat="46.4096894" lon="12.8988629"><ele>374.0</ele><time>2026-04-22T13:02:16.642Z</time></trkpt><trkpt lat="46.4096758" lon="12.8986037"><ele>374.33333333333337</ele><time>2026-04-22T13:02:17.642Z</time></trkpt><trkpt lat="46.4096635" lon="12.8983495"><ele>374.6666666666667</ele><time>2026-04-22T13:02:18.639Z</time></trkpt><trkpt lat="46.4096517" lon="12.8981"><ele>375.0</ele><time>2026-04-22T13:02:19.642Z</time></trkpt><trkpt lat="46.4096378" lon="12.8978514"><ele>373.6666666666667</ele><time>2026-04-22T13:02:20.642Z</time></trkpt><trkpt lat="46.4096255" lon="12.8975997"><ele>372.33333333333337</ele><time>2026-04-22T13:02:21.642Z</time></trkpt><trkpt lat="46.4096113" lon="12.8973492"><ele>371.0</ele><time>2026-04-22T13:02:22.641Z</time></trkpt><trkpt lat="46.4096002" lon="12.8970974"><ele>371.0</ele><time>2026-04-22T13:02:23.642Z</time></trkpt><trkpt lat="46.409587" lon="12.8968467"><ele>371.0</ele><time>2026-04-22T13:02:24.642Z</time></trkpt><trkpt lat="46.4095742" lon="12.8966005"><ele>371.0</ele><time>2026-04-22T13:02:25.64Z</time></trkpt><trkpt lat="46.4095649" lon="12.896354"><ele>371.0</ele><time>2026-04-22T13:02:26.643Z</time></trkpt><trkpt lat="46.4095502" lon="12.896111"><ele>371.0</ele><time>2026-04-22T13:02:27.643Z</time></trkpt><trkpt lat="46.4095392" lon="12.8958682"><ele>371.0</ele><time>2026-04-22T13:02:28.642Z</time></trkpt><trkpt lat="46.4095333" lon="12.89563"><ele>372.0</ele><time>2026-04-22T13:02:29.638Z</time></trkpt><trkpt lat="46.409521" lon="12.8953948"><ele>373.0</ele><time>2026-04-22T13:02:30.642Z</time></trkpt><trkpt lat="46.40951" lon="12.8951696"><ele>374.0</ele><time>2026-04-22T13:02:31.642Z</time></trkpt><trkpt lat="46.4094997" lon="12.8949469"><ele>374.0</ele><time>2026-04-22T13:02:32.641Z</time></trkpt><trkpt lat="46.4094901" lon="12.8947239"><ele>374.0</ele><time>2026-04-22T13:02:33.64Z</time></trkpt><trkpt lat="46.409478" lon="12.8945022"><ele>374.0</ele><time>2026-04-22T13:02:34.641Z</time></trkpt><trkpt lat="46.4094654" lon="12.8942827"><ele>374.0</ele><time>2026-04-22T13:02:35.641Z</time></trkpt><trkpt lat="46.4094527" lon="12.8940671"><ele>374.0</ele><time>2026-04-22T13:02:36.642Z</time></trkpt><trkpt lat="46.4094425" lon="12.8938567"><ele>374.0</ele><time>2026-04-22T13:02:37.64Z</time></trkpt><trkpt lat="46.4094337" lon="12.8936471"><ele>374.0</ele><time>2026-04-22T13:02:38.64Z</time></trkpt><trkpt lat="46.409433" lon="12.8934482"><ele>374.25</ele><time>2026-04-22T13:02:39.639Z</time></trkpt><trkpt lat="46.409434" lon="12.8932584"><ele>374.5</ele><time>2026-04-22T13:02:40.641Z</time></trkpt><trkpt lat="46.4094511" lon="12.8930611"><ele>374.75</ele><time>2026-04-22T13:02:41.64Z</time></trkpt><trkpt lat="46.4094777" lon="12.8928595"><ele>375.0</ele><time>2026-04-22T13:02:42.64Z</time></trkpt><trkpt lat="46.4095147" lon="12.8926603"><ele>375.0</ele><time>2026-04-22T13:02:43.641Z</time></trkpt><trkpt lat="46.4095645" lon="12.8924639"><ele>375.0</ele><time>2026-04-22T13:02:44.641Z</time></trkpt><trkpt lat="46.4096264" lon="12.8922682"><ele>375.0</ele><time>2026-04-22T13:02:45.64Z</time></trkpt><trkpt lat="46.4096981" lon="12.8920754"><ele>375.0</ele><time>2026-04-22T13:02:46.639Z</time></trkpt><trkpt lat="46.409771" lon="12.8918775"><ele>374.6666666666667</ele><time>2026-04-22T13:02:47.64Z</time></trkpt><trkpt lat="46.4098484" lon="12.8916809"><ele>374.33333333333337</ele><time>2026-04-22T13:02:48.642Z</time></trkpt><trkpt lat="46.4099267" lon="12.8914873"><ele>374.0</ele><time>2026-04-22T13:02:49.64Z</time></trkpt><trkpt lat="46.4100042" lon="12.8912941"><ele>374.0</ele><time>2026-04-22T13:02:50.641Z</time></trkpt><trkpt lat="46.4100734" lon="12.8911008"><ele>374.0</ele><time>2026-04-22T13:02:51.642Z</time></trkpt><trkpt lat="46.4101261" lon="12.890895"><ele>374.0</ele><time>2026-04-22T13:02:52.642Z</time></trkpt><trkpt lat="46.4101583" lon="12.8906802"><ele>374.75</ele><time>2026-04-22T13:02:53.641Z</time></trkpt><trkpt lat="46.41017" lon="12.8904651"><ele>375.5</ele><time>2026-04-22T13:02:54.641Z</time></trkpt><trkpt lat="46.4101654" lon="12.8902472"><ele>376.25</ele><time>2026-04-22T13:02:55.641Z</time></trkpt><trkpt lat="46.4101423" lon="12.8900326"><ele>377.0</ele><time>2026-04-22T13:02:56.642Z</time></trkpt><trkpt lat="46.4101089" lon="12.8898122"><ele>377.6666666666667</ele><time>2026-04-22T13:02:57.641Z</time></trkpt><trkpt lat="46.41007" lon="12.8895881"><ele>378.3333333333333</ele><time>2026-04-22T13:02:58.639Z</time></trkpt><trkpt lat="46.4100293" lon="12.8893693"><ele>379.0</ele><time>2026-04-22T13:02:59.641Z</time></trkpt><trkpt lat="46.4099892" lon="12.889154"><ele>379.5</ele><time>2026-04-22T13:03:00.642Z</time></trkpt><trkpt lat="46.4099492" lon="12.8889481"><ele>380.0</ele><time>2026-04-22T13:03:01.642Z</time></trkpt><trkpt lat="46.4099167" lon="12.8887418"><ele>380.5</ele><time>2026-04-22T13:03:02.642Z</time></trkpt><trkpt lat="46.4098948" lon="12.888533"><ele>381.0</ele><time>2026-04-22T13:03:03.642Z</time></trkpt><trkpt lat="46.4098927" lon="12.8883212"><ele>381.3333333333333</ele><time>2026-04-22T13:03:04.642Z</time></trkpt><trkpt lat="46.4099108" lon="12.8881049"><ele>381.66666666666663</ele><time>2026-04-22T13:03:05.642Z</time></trkpt><trkpt lat="46.4099315" lon="12.8878836"><ele>382.0</ele><time>2026-04-22T13:03:06.642Z</time></trkpt><trkpt lat="46.4099545" lon="12.8876535"><ele>382.0</ele><time>2026-04-22T13:03:07.643Z</time></trkpt><trkpt lat="46.4099715" lon="12.8874217"><ele>382.0</ele><time>2026-04-22T13:03:08.643Z</time></trkpt><trkpt lat="46.4099894" lon="12.8871873"><ele>382.0</ele><time>2026-04-22T13:03:09.642Z</time></trkpt><trkpt lat="46.4100013" lon="12.8869498"><ele>381.0</ele><time>2026-04-22T13:03:10.642Z</time></trkpt><trkpt lat="46.4100067" lon="12.8867131"><ele>380.0</ele><time>2026-04-22T13:03:11.642Z</time></trkpt><trkpt lat="46.4100078" lon="12.8864771"><ele>379.0</ele><time>2026-04-22T13:03:12.642Z</time></trkpt><trkpt lat="46.4100088" lon="12.8862377"><ele>379.0</ele><time>2026-04-22T13:03:13.643Z</time></trkpt><trkpt lat="46.4100073" lon="12.8859962"><ele>379.0</ele><time>2026-04-22T13:03:14.642Z</time></trkpt><trkpt lat="46.4100074" lon="12.8857587"><ele>379.0</ele><time>2026-04-22T13:03:15.642Z</time></trkpt><trkpt lat="46.4100054" lon="12.8855195"><ele>379.3333333333333</ele><time>2026-04-22T13:03:16.642Z</time></trkpt><trkpt lat="46.4100079" lon="12.8852837"><ele>379.6666666666667</ele><time>2026-04-22T13:03:17.642Z</time></trkpt><trkpt lat="46.4100113" lon="12.8850534"><ele>380.0</ele><time>2026-04-22T13:03:18.64Z</time></trkpt><trkpt lat="46.410015" lon="12.8848272"><ele>380.6666666666667</ele><time>2026-04-22T13:03:19.64Z</time></trkpt><trkpt lat="46.4100168" lon="12.8846018"><ele>381.3333333333333</ele><time>2026-04-22T13:03:20.642Z</time></trkpt><trkpt lat="46.4100191" lon="12.8843825"><ele>382.0</ele><time>2026-04-22T13:03:21.642Z</time></trkpt><trkpt lat="46.4100181" lon="12.8841706"><ele>382.75</ele><time>2026-04-22T13:03:22.643Z</time></trkpt><trkpt lat="46.4100195" lon="12.8839599"><ele>383.5</ele><time>2026-04-22T13:03:23.642Z</time></trkpt><trkpt lat="46.4100199" lon="12.8837531"><ele>384.25</ele><time>2026-04-22T13:03:24.642Z</time></trkpt><trkpt lat="46.4100109" lon="12.8835517"><ele>385.0</ele><time>2026-04-22T13:03:25.642Z</time></trkpt><trkpt lat="46.4099878" lon="12.8833557"><ele>385.25</ele><time>2026-04-22T13:03:26.642Z</time></trkpt><trkpt lat="46.4099576" lon="12.8831643"><ele>385.5</ele><time>2026-04-22T13:03:27.642Z</time></trkpt><trkpt lat="46.4099213" lon="12.8829802"><ele>385.75</ele><time>2026-04-22T13:03:28.642Z</time></trkpt><trkpt lat="46.4098898" lon="12.8827949"><ele>386.0</ele><time>2026-04-22T13:03:29.642Z</time></trkpt><trkpt lat="46.4098682" lon="12.8826048"><ele>387.25</ele><time>2026-04-22T13:03:30.642Z</time></trkpt><trkpt lat="46.409856" lon="12.8824145"><ele>388.5</ele><time>2026-04-22T13:03:31.642Z</time></trkpt><trkpt lat="46.4098603" lon="12.8822204"><ele>389.75</ele><time>2026-04-22T13:03:32.642Z</time></trkpt><trkpt lat="46.4098732" lon="12.8820259"><ele>391.0</ele><time>2026-04-22T13:03:33.642Z</time></trkpt><trkpt lat="46.4098884" lon="12.8818299"><ele>391.5</ele><time>2026-04-22T13:03:34.642Z</time></trkpt><trkpt lat="46.4099013" lon="12.8816411"><ele>392.0</ele><time>2026-04-22T13:03:35.642Z</time></trkpt><trkpt lat="46.4099086" lon="12.8814451"><ele>392.5</ele><time>2026-04-22T13:03:36.642Z</time></trkpt><trkpt lat="46.4099173" lon="12.8812505"><ele>393.0</ele><time>2026-04-22T13:03:37.642Z</time></trkpt><trkpt lat="46.409918" lon="12.8810574"><ele>392.5</ele><time>2026-04-22T13:03:38.642Z</time></trkpt><trkpt lat="46.4099173" lon="12.8808661"><ele>392.0</ele><time>2026-04-22T13:03:39.642Z</time></trkpt><trkpt lat="46.4099173" lon="12.8806805"><ele>391.5</ele><time>2026-04-22T13:03:40.642Z</time></trkpt><trkpt lat="46.4099176" lon="12.8805044"><ele>391.0</ele><time>2026-04-22T13:03:41.643Z</time></trkpt><trkpt lat="46.4099174" lon="12.8803338"><ele>391.0</ele><time>2026-04-22T13:03:42.642Z</time></trkpt><trkpt lat="46.4099181" lon="12.8801698"><ele>391.0</ele><time>2026-04-22T13:03:43.642Z</time></trkpt><trkpt lat="46.4099187" lon="12.8800155"><ele>391.0</ele><time>2026-04-22T13:03:44.643Z</time></trkpt><trkpt lat="46.409919" lon="12.8798707"><ele>391.0</ele><time>2026-04-22T13:03:45.642Z</time></trkpt><trkpt lat="46.4099182" lon="12.8797247"><ele>391.0</ele><time>2026-04-22T13:03:46.642Z</time></trkpt><trkpt lat="46.409911" lon="12.8795804"><ele>391.6</ele><time>2026-04-22T13:03:47.642Z</time></trkpt><trkpt lat="46.4098905" lon="12.8794399"><ele>392.20000000000005</ele><time>2026-04-22T13:03:48.642Z</time></trkpt><trkpt lat="46.409859" lon="12.8793023"><ele>392.79999999999995</ele><time>2026-04-22T13:03:49.642Z</time></trkpt><trkpt lat="46.4098236" lon="12.8791697"><ele>393.4</ele><time>2026-04-22T13:03:50.642Z</time></trkpt><trkpt lat="46.4097859" lon="12.8790415"><ele>394.0</ele><time>2026-04-22T13:03:51.642Z</time></trkpt><trkpt lat="46.4097468" lon="12.87891"><ele>394.4</ele><time>2026-04-22T13:03:52.642Z</time></trkpt><trkpt lat="46.4097094" lon="12.8787824"><ele>394.79999999999995</ele><time>2026-04-22T13:03:53.642Z</time></trkpt><trkpt lat="46.4096869" lon="12.8786499"><ele>395.20000000000005</ele><time>2026-04-22T13:03:54.642Z</time></trkpt><trkpt lat="46.4096701" lon="12.8785064"><ele>395.6</ele><time>2026-04-22T13:03:55.642Z</time></trkpt><trkpt lat="46.4096645" lon="12.8783568"><ele>396.0</ele><time>2026-04-22T13:03:56.642Z</time></trkpt><trkpt lat="46.409676" lon="12.8782053"><ele>396.0</ele><time>2026-04-22T13:03:57.642Z</time></trkpt><trkpt lat="46.4096946" lon="12.8780502"><ele>396.0</ele><time>2026-04-22T13:03:58.642Z</time></trkpt><trkpt lat="46.4097148" lon="12.8778903"><ele>396.0</ele><time>2026-04-22T13:03:59.642Z</time></trkpt><trkpt lat="46.4097409" lon="12.8777218"><ele>396.0</ele><time>2026-04-22T13:04:00.642Z</time></trkpt><trkpt lat="46.4097615" lon="12.8775494"><ele>395.75</ele><time>2026-04-22T13:04:01.642Z</time></trkpt><trkpt lat="46.4097842" lon="12.8773764"><ele>395.5</ele><time>2026-04-22T13:04:02.643Z</time></trkpt><trkpt lat="46.4098014" lon="12.8771963"><ele>395.25</ele><time>2026-04-22T13:04:03.643Z</time></trkpt><trkpt lat="46.4098187" lon="12.8770174"><ele>395.0</ele><time>2026-04-22T13:04:04.642Z</time></trkpt><trkpt lat="46.4098328" lon="12.8768413"><ele>394.75</ele><time>2026-04-22T13:04:05.642Z</time></trkpt><trkpt lat="46.4098502" lon="12.8766717"><ele>394.5</ele><time>2026-04-22T13:04:06.641Z</time></trkpt><trkpt lat="46.4098663" lon="12.8765103"><ele>394.25</ele><time>2026-04-22T13:04:07.642Z</time></trkpt><trkpt lat="46.4098733" lon="12.8763514"><ele>394.0</ele><time>2026-04-22T13:04:08.642Z</time></trkpt><trkpt lat="46.4098641" lon="12.8761876"><ele>394.0</ele><time>2026-04-22T13:04:09.642Z</time></trkpt><trkpt lat="46.4098392" lon="12.8760354"><ele>394.0</ele><time>2026-04-22T13:04:10.642Z</time></trkpt><trkpt lat="46.4097804" lon="12.875891"><ele>394.0</ele><time>2026-04-22T13:04:11.642Z</time></trkpt><trkpt lat="46.4097047" lon="12.8757639"><ele>394.0</ele><time>2026-04-22T13:04:12.642Z</time></trkpt><trkpt lat="46.4096183" lon="12.8756426"><ele>393.5</ele><time>2026-04-22T13:04:13.64Z</time></trkpt><trkpt lat="46.4095249" lon="12.8755158"><ele>393.0</ele><time>2026-04-22T13:04:14.642Z</time></trkpt><trkpt lat="46.4094268" lon="12.8753808"><ele>392.5</ele><time>2026-04-22T13:04:15.642Z</time></trkpt><trkpt lat="46.4093264" lon="12.8752465"><ele>392.0</ele><time>2026-04-22T13:04:16.642Z</time></trkpt><trkpt lat="46.4092229" lon="12.8751075"><ele>392.66666666666663</ele><time>2026-04-22T13:04:17.642Z</time></trkpt><trkpt lat="46.4091116" lon="12.8749618"><ele>393.33333333333337</ele><time>2026-04-22T13:04:18.643Z</time></trkpt><trkpt lat="46.4089995" lon="12.874815"><ele>394.0</ele><time>2026-04-22T13:04:19.642Z</time></trkpt><trkpt lat="46.4088853" lon="12.8746673"><ele>393.6666666666667</ele><time>2026-04-22T13:04:20.642Z</time></trkpt><trkpt lat="46.4087703" lon="12.8745111"><ele>393.33333333333337</ele><time>2026-04-22T13:04:21.642Z</time></trkpt><trkpt lat="46.4086537" lon="12.8743555"><ele>393.0</ele><time>2026-04-22T13:04:22.642Z</time></trkpt><trkpt lat="46.4085345" lon="12.8741976"><ele>393.66666666666663</ele><time>2026-04-22T13:04:23.642Z</time></trkpt><trkpt lat="46.4084156" lon="12.8740389"><ele>394.3333333333333</ele><time>2026-04-22T13:04:24.642Z</time></trkpt><trkpt lat="46.4082965" lon="12.8738816"><ele>395.0</ele><time>2026-04-22T13:04:25.642Z</time></trkpt><trkpt lat="46.4081759" lon="12.8737204"><ele>395.0</ele><time>2026-04-22T13:04:26.642Z</time></trkpt><trkpt lat="46.4080546" lon="12.8735577"><ele>395.0</ele><time>2026-04-22T13:04:27.642Z</time></trkpt><trkpt lat="46.4079366" lon="12.873397"><ele>395.0</ele><time>2026-04-22T13:04:28.643Z</time></trkpt><trkpt lat="46.4078162" lon="12.8732338"><ele>395.0</ele><time>2026-04-22T13:04:29.642Z</time></trkpt><trkpt lat="46.4076951" lon="12.8730742"><ele>395.0</ele><time>2026-04-22T13:04:30.642Z</time></trkpt><trkpt lat="46.4075722" lon="12.8729125"><ele>395.0</ele><time>2026-04-22T13:04:31.642Z</time></trkpt><trkpt lat="46.4074469" lon="12.8727436"><ele>396.66666666666663</ele><time>2026-04-22T13:04:32.642Z</time></trkpt><trkpt lat="46.4073247" lon="12.8725732"><ele>398.33333333333337</ele><time>2026-04-22T13:04:33.642Z</time></trkpt><trkpt lat="46.4072033" lon="12.8723975"><ele>400.0</ele><time>2026-04-22T13:04:34.642Z</time></trkpt><trkpt lat="46.407082" lon="12.8722139"><ele>401.6666666666667</ele><time>2026-04-22T13:04:35.642Z</time></trkpt><trkpt lat="46.40696" lon="12.8720253"><ele>403.33333333333337</ele><time>2026-04-22T13:04:36.642Z</time></trkpt><trkpt lat="46.4068392" lon="12.8718249"><ele>405.0</ele><time>2026-04-22T13:04:37.642Z</time></trkpt><trkpt lat="46.4067228" lon="12.8716147"><ele>406.33333333333337</ele><time>2026-04-22T13:04:38.642Z</time></trkpt><trkpt lat="46.4066142" lon="12.8713882"><ele>407.6666666666667</ele><time>2026-04-22T13:04:39.642Z</time></trkpt><trkpt lat="46.4065142" lon="12.8711546"><ele>409.0</ele><time>2026-04-22T13:04:40.642Z</time></trkpt><trkpt lat="46.406424" lon="12.8709086"><ele>410.33333333333337</ele><time>2026-04-22T13:04:41.642Z</time></trkpt><trkpt lat="46.4063411" lon="12.8706518"><ele>411.66666666666663</ele><time>2026-04-22T13:04:42.642Z</time></trkpt><trkpt lat="46.4062724" lon="12.8703876"><ele>413.0</ele><time>2026-04-22T13:04:43.642Z</time></trkpt><trkpt lat="46.4062179" lon="12.870111"><ele>413.66666666666663</ele><time>2026-04-22T13:04:44.641Z</time></trkpt><trkpt lat="46.4061721" lon="12.8698289"><ele>414.33333333333337</ele><time>2026-04-22T13:04:45.642Z</time></trkpt><trkpt lat="46.4061373" lon="12.8695377"><ele>415.0</ele><time>2026-04-22T13:04:46.642Z</time></trkpt><trkpt lat="46.4061156" lon="12.8692436"><ele>415.0</ele><time>2026-04-22T13:04:47.642Z</time></trkpt><trkpt lat="46.4061038" lon="12.8689415"><ele>415.0</ele><time>2026-04-22T13:04:48.643Z</time></trkpt><trkpt lat="46.4061031" lon="12.868633"><ele>415.0</ele><time>2026-04-22T13:04:49.642Z</time></trkpt><trkpt lat="46.4061083" lon="12.8683258"><ele>414.33333333333337</ele><time>2026-04-22T13:04:50.642Z</time></trkpt><trkpt lat="46.4061232" lon="12.8680129"><ele>413.66666666666663</ele><time>2026-04-22T13:04:51.642Z</time></trkpt><trkpt lat="46.4061406" lon="12.867702"><ele>413.0</ele><time>2026-04-22T13:04:52.642Z</time></trkpt><trkpt lat="46.4061579" lon="12.8673937"><ele>409.0</ele><time>2026-04-22T13:04:53.642Z</time></trkpt><trkpt lat="46.4061722" lon="12.8670885"><ele>405.0</ele><time>2026-04-22T13:04:54.642Z</time></trkpt><trkpt lat="46.4061846" lon="12.866783"><ele>401.0</ele><time>2026-04-22T13:04:55.642Z</time></trkpt><trkpt lat="46.4061874" lon="12.8664765"><ele>400.66666666666663</ele><time>2026-04-22T13:04:56.642Z</time></trkpt><trkpt lat="46.4061871" lon="12.866164"><ele>400.33333333333337</ele><time>2026-04-22T13:04:57.643Z</time></trkpt><trkpt lat="46.4061796" lon="12.8658574"><ele>400.0</ele><time>2026-04-22T13:04:58.642Z</time></trkpt><trkpt lat="46.4061589" lon="12.8655405"><ele>400.0</ele><time>2026-04-22T13:04:59.642Z</time></trkpt><trkpt lat="46.4061255" lon="12.865224"><ele>400.0</ele><time>2026-04-22T13:05:00.642Z</time></trkpt><trkpt lat="46.4060783" lon="12.8649086"><ele>400.0</ele><time>2026-04-22T13:05:01.642Z</time></trkpt><trkpt lat="46.4060225" lon="12.8645953"><ele>399.6666666666667</ele><time>2026-04-22T13:05:02.642Z</time></trkpt><trkpt lat="46.4059512" lon="12.8642868"><ele>399.33333333333337</ele><time>2026-04-22T13:05:03.642Z</time></trkpt><trkpt lat="46.4058711" lon="12.8639852"><ele>399.0</ele><time>2026-04-22T13:05:04.642Z</time></trkpt><trkpt lat="46.4057858" lon="12.8636937"><ele>402.33333333333337</ele><time>2026-04-22T13:05:05.642Z</time></trkpt><trkpt lat="46.4056976" lon="12.8634082"><ele>405.6666666666667</ele><time>2026-04-22T13:05:06.641Z</time></trkpt><trkpt lat="46.4056034" lon="12.8631332"><ele>409.0</ele><time>2026-04-22T13:05:07.642Z</time></trkpt><trkpt lat="46.4055023" lon="12.8628662"><ele>407.6666666666667</ele><time>2026-04-22T13:05:08.642Z</time></trkpt><trkpt lat="46.4053963" lon="12.8626115"><ele>406.33333333333337</ele><time>2026-04-22T13:05:09.642Z</time></trkpt><trkpt lat="46.405285" lon="12.8623657"><ele>405.0</ele><time>2026-04-22T13:05:10.643Z</time></trkpt><trkpt lat="46.4051803" lon="12.862121"><ele>405.0</ele><time>2026-04-22T13:05:11.642Z</time></trkpt><trkpt lat="46.4050871" lon="12.8618787"><ele>405.0</ele><time>2026-04-22T13:05:12.642Z</time></trkpt><trkpt lat="46.4050073" lon="12.8616327"><ele>405.0</ele><time>2026-04-22T13:05:13.642Z</time></trkpt><trkpt lat="46.4049452" lon="12.8613832"><ele>405.66666666666663</ele><time>2026-04-22T13:05:14.642Z</time></trkpt><trkpt lat="46.4048955" lon="12.8611356"><ele>406.3333333333333</ele><time>2026-04-22T13:05:15.642Z</time></trkpt><trkpt lat="46.404851" lon="12.8608943"><ele>407.0</ele><time>2026-04-22T13:05:16.643Z</time></trkpt><trkpt lat="46.40481" lon="12.8606645"><ele>408.66666666666663</ele><time>2026-04-22T13:05:17.642Z</time></trkpt><trkpt lat="46.404772" lon="12.8604417"><ele>410.33333333333337</ele><time>2026-04-22T13:05:18.643Z</time></trkpt><trkpt lat="46.4047325" lon="12.8602265"><ele>412.0</ele><time>2026-04-22T13:05:19.642Z</time></trkpt><trkpt lat="46.4046928" lon="12.8600187"><ele>409.25</ele><time>2026-04-22T13:05:20.642Z</time></trkpt><trkpt lat="46.4046511" lon="12.8598166"><ele>406.5</ele><time>2026-04-22T13:05:21.643Z</time></trkpt><trkpt lat="46.404607" lon="12.8596337"><ele>403.75</ele><time>2026-04-22T13:05:22.642Z</time></trkpt><trkpt lat="46.4045528" lon="12.859462"><ele>401.0</ele><time>2026-04-22T13:05:23.642Z</time></trkpt><trkpt lat="46.4044893" lon="12.8593142"><ele>402.0</ele><time>2026-04-22T13:05:24.642Z</time></trkpt><trkpt lat="46.4044151" lon="12.8591794"><ele>403.0</ele><time>2026-04-22T13:05:25.642Z</time></trkpt><trkpt lat="46.4043298" lon="12.8590624"><ele>404.0</ele><time>2026-04-22T13:05:26.642Z</time></trkpt><trkpt lat="46.4042349" lon="12.858963"><ele>405.0</ele><time>2026-04-22T13:05:27.642Z</time></trkpt><trkpt lat="46.4041404" lon="12.8588931"><ele>405.0</ele><time>2026-04-22T13:05:28.643Z</time></trkpt><trkpt lat="46.4040438" lon="12.8588538"><ele>405.0</ele><time>2026-04-22T13:05:29.641Z</time></trkpt><trkpt lat="46.4039522" lon="12.858846"><ele>405.0</ele><time>2026-04-22T13:05:30.642Z</time></trkpt><trkpt lat="46.4038745" lon="12.8588643"><ele>405.0</ele><time>2026-04-22T13:05:31.643Z</time></trkpt><trkpt lat="46.4038003" lon="12.8588591"><ele>405.0</ele><time>2026-04-22T13:05:32.642Z</time></trkpt><trkpt lat="46.4037267" lon="12.8588297"><ele>405.0</ele><time>2026-04-22T13:05:33.642Z</time></trkpt><trkpt lat="46.4036533" lon="12.8587733"><ele>403.0</ele><time>2026-04-22T13:05:34.642Z</time></trkpt><trkpt lat="46.4035846" lon="12.8587037"><ele>401.0</ele><time>2026-04-22T13:05:35.642Z</time></trkpt><trkpt lat="46.4035077" lon="12.8586226"><ele>399.0</ele><time>2026-04-22T13:05:36.642Z</time></trkpt><trkpt lat="46.4034305" lon="12.858529"><ele>397.0</ele><time>2026-04-22T13:05:37.642Z</time></trkpt><trkpt lat="46.403351" lon="12.8584186"><ele>395.0</ele><time>2026-04-22T13:05:38.642Z</time></trkpt><trkpt lat="46.4032671" lon="12.8582974"><ele>395.0</ele><time>2026-04-22T13:05:39.643Z</time></trkpt><trkpt lat="46.4031781" lon="12.8581714"><ele>395.0</ele><time>2026-04-22T13:05:40.642Z</time></trkpt><trkpt lat="46.4030827" lon="12.8580432"><ele>395.0</ele><time>2026-04-22T13:05:41.643Z</time></trkpt><trkpt lat="46.4029806" lon="12.8579117"><ele>395.0</ele><time>2026-04-22T13:05:42.643Z</time></trkpt><trkpt lat="46.4028739" lon="12.8577766"><ele>393.75</ele><time>2026-04-22T13:05:43.642Z</time></trkpt><trkpt lat="46.4027638" lon="12.8576428"><ele>392.5</ele><time>2026-04-22T13:05:44.642Z</time></trkpt><trkpt lat="46.4026555" lon="12.8575161"><ele>391.25</ele><time>2026-04-22T13:05:45.642Z</time></trkpt><trkpt lat="46.4025454" lon="12.8573854"><ele>390.0</ele><time>2026-04-22T13:05:46.642Z</time></trkpt><trkpt lat="46.4024301" lon="12.8572389"><ele>390.0</ele><time>2026-04-22T13:05:47.641Z</time></trkpt><trkpt lat="46.4023201" lon="12.8570962"><ele>390.0</ele><time>2026-04-22T13:05:48.642Z</time></trkpt><trkpt lat="46.4022046" lon="12.8569468"><ele>390.0</ele><time>2026-04-22T13:05:49.642Z</time></trkpt><trkpt lat="46.4020927" lon="12.856799"><ele>391.0</ele><time>2026-04-22T13:05:50.642Z</time></trkpt><trkpt lat="46.4019821" lon="12.8566453"><ele>392.0</ele><time>2026-04-22T13:05:51.642Z</time></trkpt><trkpt lat="46.4018746" lon="12.8564976"><ele>393.0</ele><time>2026-04-22T13:05:52.642Z</time></trkpt><trkpt lat="46.4017707" lon="12.8563515"><ele>394.0</ele><time>2026-04-22T13:05:53.643Z</time></trkpt><trkpt lat="46.4016652" lon="12.8562086"><ele>394.0</ele><time>2026-04-22T13:05:54.641Z</time></trkpt><trkpt lat="46.4015632" lon="12.8560665"><ele>394.0</ele><time>2026-04-22T13:05:55.642Z</time></trkpt><trkpt lat="46.4014653" lon="12.8559299"><ele>394.0</ele><time>2026-04-22T13:05:56.642Z</time></trkpt><trkpt lat="46.4013704" lon="12.8557972"><ele>394.0</ele><time>2026-04-22T13:05:57.642Z</time></trkpt><trkpt lat="46.4012823" lon="12.8556715"><ele>394.50000000000006</ele><time>2026-04-22T13:05:58.642Z</time></trkpt><trkpt lat="46.4012101" lon="12.8555633"><ele>395.0</ele><time>2026-04-22T13:05:59.642Z</time></trkpt><trkpt lat="46.4011458" lon="12.8554732"><ele>395.5</ele><time>2026-04-22T13:06:00.642Z</time></trkpt><trkpt lat="46.4010895" lon="12.8554095"><ele>396.0</ele><time>2026-04-22T13:06:01.642Z</time></trkpt><trkpt lat="46.4009745" lon="12.8554011"><ele>396.50000000000006</ele><time>2026-04-22T13:06:03.642Z</time></trkpt><trkpt lat="46.4009157" lon="12.8554433"><ele>397.0</ele><time>2026-04-22T13:06:04.642Z</time></trkpt><trkpt lat="46.4008574" lon="12.8555096"><ele>397.0</ele><time>2026-04-22T13:06:05.642Z</time></trkpt><trkpt lat="46.4007977" lon="12.8555885"><ele>397.0</ele><time>2026-04-22T13:06:06.642Z</time></trkpt><trkpt lat="46.4007279" lon="12.8556748"><ele>397.0</ele><time>2026-04-22T13:06:07.642Z</time></trkpt><trkpt lat="46.4006497" lon="12.8557657"><ele>397.0</ele><time>2026-04-22T13:06:08.643Z</time></trkpt><trkpt lat="46.4005644" lon="12.8558647"><ele>397.0</ele><time>2026-04-22T13:06:09.642Z</time></trkpt><trkpt lat="46.4004707" lon="12.8559716"><ele>396.5</ele><time>2026-04-22T13:06:10.642Z</time></trkpt><trkpt lat="46.4003729" lon="12.8560865"><ele>396.0</ele><time>2026-04-22T13:06:11.642Z</time></trkpt><trkpt lat="46.4002711" lon="12.8562092"><ele>395.5</ele><time>2026-04-22T13:06:12.641Z</time></trkpt><trkpt lat="46.4001643" lon="12.8563327"><ele>395.0</ele><time>2026-04-22T13:06:13.643Z</time></trkpt><trkpt lat="46.4000556" lon="12.8564609"><ele>395.0</ele><time>2026-04-22T13:06:14.642Z</time></trkpt><trkpt lat="46.3999422" lon="12.85659"><ele>395.0</ele><time>2026-04-22T13:06:15.642Z</time></trkpt><trkpt lat="46.3998253" lon="12.8567197"><ele>395.0</ele><time>2026-04-22T13:06:16.643Z</time></trkpt><trkpt lat="46.3997084" lon="12.856853"><ele>395.0</ele><time>2026-04-22T13:06:17.643Z</time></trkpt><trkpt lat="46.3995917" lon="12.8569877"><ele>395.0</ele><time>2026-04-22T13:06:18.641Z</time></trkpt><trkpt lat="46.3994755" lon="12.8571257"><ele>395.0</ele><time>2026-04-22T13:06:19.642Z</time></trkpt><trkpt lat="46.3993666" lon="12.8572723"><ele>395.0</ele><time>2026-04-22T13:06:20.642Z</time></trkpt><trkpt lat="46.3992569" lon="12.8574222"><ele>395.0</ele><time>2026-04-22T13:06:21.642Z</time></trkpt><trkpt lat="46.3991509" lon="12.8575847"><ele>395.0</ele><time>2026-04-22T13:06:22.643Z</time></trkpt><trkpt lat="46.3990515" lon="12.8577547"><ele>395.0</ele><time>2026-04-22T13:06:23.642Z</time></trkpt><trkpt lat="46.3989588" lon="12.8579313"><ele>395.0</ele><time>2026-04-22T13:06:24.64Z</time></trkpt><trkpt lat="46.39887" lon="12.8581167"><ele>395.0</ele><time>2026-04-22T13:06:25.642Z</time></trkpt><trkpt lat="46.3987827" lon="12.8582969"><ele>395.0</ele><time>2026-04-22T13:06:26.642Z</time></trkpt><trkpt lat="46.3986959" lon="12.858476"><ele>395.0</ele><time>2026-04-22T13:06:27.642Z</time></trkpt><trkpt lat="46.3986117" lon="12.8586529"><ele>395.0</ele><time>2026-04-22T13:06:28.642Z</time></trkpt><trkpt lat="46.3985277" lon="12.8588286"><ele>395.0</ele><time>2026-04-22T13:06:29.643Z</time></trkpt><trkpt lat="46.3984454" lon="12.8590021"><ele>395.0</ele><time>2026-04-22T13:06:30.642Z</time></trkpt><trkpt lat="46.3983622" lon="12.8591729"><ele>394.0</ele><time>2026-04-22T13:06:31.642Z</time></trkpt><trkpt lat="46.39828" lon="12.8593426"><ele>393.0</ele><time>2026-04-22T13:06:32.642Z</time></trkpt><trkpt lat="46.3981991" lon="12.8595183"><ele>392.0</ele><time>2026-04-22T13:06:33.643Z</time></trkpt><trkpt lat="46.3981163" lon="12.8596937"><ele>391.0</ele><time>2026-04-22T13:06:34.642Z</time></trkpt><trkpt lat="46.3980332" lon="12.8598691"><ele>391.33333333333337</ele><time>2026-04-22T13:06:35.643Z</time></trkpt><trkpt lat="46.3979472" lon="12.8600569"><ele>391.66666666666663</ele><time>2026-04-22T13:06:36.642Z</time></trkpt><trkpt lat="46.3978617" lon="12.8602369"><ele>392.0</ele><time>2026-04-22T13:06:37.642Z</time></trkpt><trkpt lat="46.3977745" lon="12.8604176"><ele>392.75</ele><time>2026-04-22T13:06:38.642Z</time></trkpt><trkpt lat="46.3976918" lon="12.8605925"><ele>393.5</ele><time>2026-04-22T13:06:39.642Z</time></trkpt><trkpt lat="46.3976123" lon="12.8607642"><ele>394.25</ele><time>2026-04-22T13:06:40.643Z</time></trkpt><trkpt lat="46.397528" lon="12.8609298"><ele>395.0</ele><time>2026-04-22T13:06:41.642Z</time></trkpt><trkpt lat="46.3974462" lon="12.8610914"><ele>397.75</ele><time>2026-04-22T13:06:42.642Z</time></trkpt><trkpt lat="46.39737" lon="12.8612575"><ele>400.5</ele><time>2026-04-22T13:06:43.642Z</time></trkpt><trkpt lat="46.3973087" lon="12.8614383"><ele>403.25</ele><time>2026-04-22T13:06:44.643Z</time></trkpt><trkpt lat="46.3972645" lon="12.8616266"><ele>406.0</ele><time>2026-04-22T13:06:45.643Z</time></trkpt><trkpt lat="46.3972333" lon="12.8618159"><ele>408.0</ele><time>2026-04-22T13:06:46.642Z</time></trkpt><trkpt lat="46.3972186" lon="12.862014"><ele>410.0</ele><time>2026-04-22T13:06:47.642Z</time></trkpt><trkpt lat="46.397222" lon="12.8622106"><ele>412.0</ele><time>2026-04-22T13:06:48.642Z</time></trkpt><trkpt lat="46.3972423" lon="12.862408"><ele>414.0</ele><time>2026-04-22T13:06:49.641Z</time></trkpt><trkpt lat="46.3972789" lon="12.8626019"><ele>414.5</ele><time>2026-04-22T13:06:50.642Z</time></trkpt><trkpt lat="46.3973312" lon="12.8627953"><ele>415.0</ele><time>2026-04-22T13:06:51.642Z</time></trkpt><trkpt lat="46.3973935" lon="12.8629866"><ele>415.5</ele><time>2026-04-22T13:06:52.642Z</time></trkpt><trkpt lat="46.3974579" lon="12.8631751"><ele>416.0</ele><time>2026-04-22T13:06:53.643Z</time></trkpt><trkpt lat="46.3975264" lon="12.8633582"><ele>417.75</ele><time>2026-04-22T13:06:54.641Z</time></trkpt><trkpt lat="46.3975875" lon="12.8635417"><ele>419.5</ele><time>2026-04-22T13:06:55.642Z</time></trkpt><trkpt lat="46.3976516" lon="12.8637273"><ele>421.25</ele><time>2026-04-22T13:06:56.642Z</time></trkpt><trkpt lat="46.3977058" lon="12.8639207"><ele>423.0</ele><time>2026-04-22T13:06:57.642Z</time></trkpt><trkpt lat="46.3977471" lon="12.8641209"><ele>423.25</ele><time>2026-04-22T13:06:58.642Z</time></trkpt><trkpt lat="46.3977665" lon="12.8643241"><ele>423.5</ele><time>2026-04-22T13:06:59.642Z</time></trkpt><trkpt lat="46.3977658" lon="12.864532"><ele>423.75</ele><time>2026-04-22T13:07:00.642Z</time></trkpt><trkpt lat="46.3977373" lon="12.8647358"><ele>424.0</ele><time>2026-04-22T13:07:01.642Z</time></trkpt><trkpt lat="46.3976849" lon="12.8649381"><ele>423.0</ele><time>2026-04-22T13:07:02.642Z</time></trkpt><trkpt lat="46.3976197" lon="12.8651258"><ele>422.0</ele><time>2026-04-22T13:07:03.642Z</time></trkpt><trkpt lat="46.3975336" lon="12.8652964"><ele>421.0</ele><time>2026-04-22T13:07:04.642Z</time></trkpt><trkpt lat="46.3974316" lon="12.8654521"><ele>420.0</ele><time>2026-04-22T13:07:05.643Z</time></trkpt><trkpt lat="46.397326" lon="12.865592"><ele>420.0</ele><time>2026-04-22T13:07:06.642Z</time></trkpt><trkpt lat="46.3972224" lon="12.8657257"><ele>420.0</ele><time>2026-04-22T13:07:07.643Z</time></trkpt><trkpt lat="46.39713" lon="12.8658519"><ele>420.0</ele><time>2026-04-22T13:07:08.642Z</time></trkpt><trkpt lat="46.3970349" lon="12.8659633"><ele>420.0</ele><time>2026-04-22T13:07:09.642Z</time></trkpt><trkpt lat="46.3969344" lon="12.8660553"><ele>421.5</ele><time>2026-04-22T13:07:10.642Z</time></trkpt><trkpt lat="46.3968216" lon="12.8661065"><ele>423.0</ele><time>2026-04-22T13:07:11.642Z</time></trkpt><trkpt lat="46.3967022" lon="12.8661254"><ele>424.5</ele><time>2026-04-22T13:07:12.642Z</time></trkpt><trkpt lat="46.3965796" lon="12.8660992"><ele>426.0</ele><time>2026-04-22T13:07:13.642Z</time></trkpt><trkpt lat="46.3964663" lon="12.8660445"><ele>426.0</ele><time>2026-04-22T13:07:14.643Z</time></trkpt><trkpt lat="46.3963503" lon="12.8659667"><ele>426.0</ele><time>2026-04-22T13:07:15.642Z</time></trkpt><trkpt lat="46.3962364" lon="12.8658742"><ele>426.0</ele><time>2026-04-22T13:07:16.643Z</time></trkpt><trkpt lat="46.3961248" lon="12.8657835"><ele>426.0</ele><time>2026-04-22T13:07:17.642Z</time></trkpt><trkpt lat="46.3960183" lon="12.865695"><ele>427.75</ele><time>2026-04-22T13:07:18.642Z</time></trkpt><trkpt lat="46.3959136" lon="12.8656109"><ele>429.5</ele><time>2026-04-22T13:07:19.642Z</time></trkpt><trkpt lat="46.3958087" lon="12.8655317"><ele>431.25</ele><time>2026-04-22T13:07:20.642Z</time></trkpt><trkpt lat="46.3957043" lon="12.8654667"><ele>433.0</ele><time>2026-04-22T13:07:21.641Z</time></trkpt><trkpt lat="46.3955938" lon="12.8654244"><ele>434.79999999999995</ele><time>2026-04-22T13:07:22.64Z</time></trkpt><trkpt lat="46.3954811" lon="12.8654066"><ele>436.59999999999997</ele><time>2026-04-22T13:07:23.642Z</time></trkpt><trkpt lat="46.3953791" lon="12.8654266"><ele>438.40000000000003</ele><time>2026-04-22T13:07:24.642Z</time></trkpt><trkpt lat="46.3952702" lon="12.8654655"><ele>440.20000000000005</ele><time>2026-04-22T13:07:25.642Z</time></trkpt><trkpt lat="46.3951608" lon="12.8655136"><ele>442.0</ele><time>2026-04-22T13:07:26.642Z</time></trkpt><trkpt lat="46.3950516" lon="12.8655584"><ele>442.0</ele><time>2026-04-22T13:07:27.642Z</time></trkpt><trkpt lat="46.3949413" lon="12.8656043"><ele>442.00000000000006</ele><time>2026-04-22T13:07:28.642Z</time></trkpt><trkpt lat="46.3948313" lon="12.8656413"><ele>442.00000000000006</ele><time>2026-04-22T13:07:29.642Z</time></trkpt><trkpt lat="46.3947288" lon="12.8656711"><ele>442.0</ele><time>2026-04-22T13:07:30.64Z</time></trkpt><trkpt lat="46.3946355" lon="12.8656947"><ele>442.0</ele><time>2026-04-22T13:07:31.642Z</time></trkpt><trkpt lat="46.3945528" lon="12.8657194"><ele>442.50000000000006</ele><time>2026-04-22T13:07:32.641Z</time></trkpt><trkpt lat="46.3944802" lon="12.8657388"><ele>443.0</ele><time>2026-04-22T13:07:33.64Z</time></trkpt><trkpt lat="46.394388" lon="12.8658119"><ele>443.5</ele><time>2026-04-22T13:07:35.641Z</time></trkpt><trkpt lat="46.3943453" lon="12.8659077"><ele>444.0</ele><time>2026-04-22T13:07:37.64Z</time></trkpt><trkpt lat="46.3943061" lon="12.8660013"><ele>444.50000000000006</ele><time>2026-04-22T13:07:39.642Z</time></trkpt><trkpt lat="46.3942229" lon="12.8660462"><ele>445.0</ele><time>2026-04-22T13:07:41.642Z</time></trkpt><trkpt lat="46.3941247" lon="12.8660741"><ele>445.0</ele><time>2026-04-22T13:07:43.642Z</time></trkpt><trkpt lat="46.3940166" lon="12.8661039"><ele>445.0</ele><time>2026-04-22T13:07:45.641Z</time></trkpt><trkpt lat="46.3938908" lon="12.8661307"><ele>445.0</ele><time>2026-04-22T13:07:47.642Z</time></trkpt><trkpt lat="46.3938256" lon="12.8661523"><ele>445.0</ele><time>2026-04-22T13:07:48.641Z</time></trkpt><trkpt lat="46.3937655" lon="12.8661805"><ele>445.0</ele><time>2026-04-22T13:07:49.639Z</time></trkpt><trkpt lat="46.3936545" lon="12.8662289"><ele>446.00000000000006</ele><time>2026-04-22T13:07:51.642Z</time></trkpt><trkpt lat="46.3935654" lon="12.8662717"><ele>447.0</ele><time>2026-04-22T13:07:53.642Z</time></trkpt><trkpt lat="46.3934968" lon="12.8663309"><ele>448.0</ele><time>2026-04-22T13:07:55.642Z</time></trkpt><trkpt lat="46.3934224" lon="12.8663585"><ele>449.0</ele><time>2026-04-22T13:07:57.642Z</time></trkpt><trkpt lat="46.3933469" lon="12.8663483"><ele>450.00000000000006</ele><time>2026-04-22T13:07:59.642Z</time></trkpt><trkpt lat="46.3932562" lon="12.8662971"><ele>451.0</ele><time>2026-04-22T13:08:01.642Z</time></trkpt><trkpt lat="46.3931665" lon="12.8662146"><ele>451.0</ele><time>2026-04-22T13:08:03.642Z</time></trkpt><trkpt lat="46.3930682" lon="12.8661299"><ele>451.0</ele><time>2026-04-22T13:08:05.64Z</time></trkpt><trkpt lat="46.3929646" lon="12.8660536"><ele>451.0</ele><time>2026-04-22T13:08:07.64Z</time></trkpt><trkpt lat="46.3928586" lon="12.8659769"><ele>451.0</ele><time>2026-04-22T13:08:09.639Z</time></trkpt><trkpt lat="46.3927999" lon="12.8659374"><ele>451.0</ele><time>2026-04-22T13:08:10.642Z</time></trkpt><trkpt lat="46.3926832" lon="12.8658438"><ele>452.33333333333337</ele><time>2026-04-22T13:08:12.64Z</time></trkpt><trkpt lat="46.3925846" lon="12.8657395"><ele>453.6666666666667</ele><time>2026-04-22T13:08:14.642Z</time></trkpt><trkpt lat="46.3925323" lon="12.865661"><ele>455.0</ele><time>2026-04-22T13:08:15.642Z</time></trkpt><trkpt lat="46.3924751" lon="12.8655877"><ele>456.33333333333337</ele><time>2026-04-22T13:08:16.642Z</time></trkpt><trkpt lat="46.3924152" lon="12.8655102"><ele>457.6666666666667</ele><time>2026-04-22T13:08:17.642Z</time></trkpt><trkpt lat="46.3923499" lon="12.8654406"><ele>459.0</ele><time>2026-04-22T13:08:18.641Z</time></trkpt><trkpt lat="46.3922859" lon="12.8653796"><ele>459.0</ele><time>2026-04-22T13:08:19.641Z</time></trkpt><trkpt lat="46.3922231" lon="12.8653204"><ele>459.0</ele><time>2026-04-22T13:08:20.642Z</time></trkpt><trkpt lat="46.3921558" lon="12.8652659"><ele>459.0</ele><time>2026-04-22T13:08:21.642Z</time></trkpt><trkpt lat="46.3920906" lon="12.8652136"><ele>459.0</ele><time>2026-04-22T13:08:22.643Z</time></trkpt><trkpt lat="46.392028" lon="12.8651587"><ele>459.0</ele><time>2026-04-22T13:08:23.642Z</time></trkpt><trkpt lat="46.3919642" lon="12.8651041"><ele>459.0</ele><time>2026-04-22T13:08:24.642Z</time></trkpt><trkpt lat="46.3918988" lon="12.8650436"><ele>460.3333333333333</ele><time>2026-04-22T13:08:25.642Z</time></trkpt><trkpt lat="46.3918325" lon="12.8649801"><ele>461.66666666666663</ele><time>2026-04-22T13:08:26.642Z</time></trkpt><trkpt lat="46.3917647" lon="12.8649089"><ele>463.0</ele><time>2026-04-22T13:08:27.643Z</time></trkpt><trkpt lat="46.391696" lon="12.8648357"><ele>464.3333333333333</ele><time>2026-04-22T13:08:28.642Z</time></trkpt><trkpt lat="46.391626" lon="12.8647661"><ele>465.66666666666663</ele><time>2026-04-22T13:08:29.642Z</time></trkpt><trkpt lat="46.3915507" lon="12.8646979"><ele>467.0</ele><time>2026-04-22T13:08:30.642Z</time></trkpt><trkpt lat="46.3914707" lon="12.8646398"><ele>466.99999999999994</ele><time>2026-04-22T13:08:31.642Z</time></trkpt><trkpt lat="46.3913912" lon="12.8645927"><ele>467.0</ele><time>2026-04-22T13:08:32.642Z</time></trkpt><trkpt lat="46.391312" lon="12.8645361"><ele>467.0</ele><time>2026-04-22T13:08:33.642Z</time></trkpt><trkpt lat="46.3912361" lon="12.8644764"><ele>467.0</ele><time>2026-04-22T13:08:34.643Z</time></trkpt><trkpt lat="46.3911661" lon="12.8643959"><ele>466.99999999999994</ele><time>2026-04-22T13:08:35.642Z</time></trkpt><trkpt lat="46.3911055" lon="12.8642999"><ele>467.0</ele><time>2026-04-22T13:08:36.643Z</time></trkpt><trkpt lat="46.3910517" lon="12.8641975"><ele>467.8333333333333</ele><time>2026-04-22T13:08:37.642Z</time></trkpt><trkpt lat="46.3910028" lon="12.8640851"><ele>468.66666666666663</ele><time>2026-04-22T13:08:38.642Z</time></trkpt><trkpt lat="46.3909684" lon="12.863966"><ele>469.5</ele><time>2026-04-22T13:08:39.642Z</time></trkpt><trkpt lat="46.3909501" lon="12.8638388"><ele>470.33333333333337</ele><time>2026-04-22T13:08:40.642Z</time></trkpt><trkpt lat="46.3909317" lon="12.8637244"><ele>471.1666666666667</ele><time>2026-04-22T13:08:41.642Z</time></trkpt><trkpt lat="46.3909055" lon="12.8636175"><ele>472.0</ele><time>2026-04-22T13:08:42.642Z</time></trkpt><trkpt lat="46.3908695" lon="12.8635133"><ele>473.50000000000006</ele><time>2026-04-22T13:08:43.643Z</time></trkpt><trkpt lat="46.3908244" lon="12.8634215"><ele>475.0</ele><time>2026-04-22T13:08:44.642Z</time></trkpt><trkpt lat="46.3907805" lon="12.8633357"><ele>476.5</ele><time>2026-04-22T13:08:45.642Z</time></trkpt><trkpt lat="46.390748" lon="12.863246"><ele>478.0</ele><time>2026-04-22T13:08:46.642Z</time></trkpt><trkpt lat="46.3907295" lon="12.8631562"><ele>479.50000000000006</ele><time>2026-04-22T13:08:47.642Z</time></trkpt><trkpt lat="46.3907105" lon="12.8629849"><ele>481.0</ele><time>2026-04-22T13:08:49.642Z</time></trkpt><trkpt lat="46.3907016" lon="12.8628551"><ele>481.00000000000006</ele><time>2026-04-22T13:08:51.642Z</time></trkpt><trkpt lat="46.3907545" lon="12.8627716"><ele>481.0</ele><time>2026-04-22T13:08:54.642Z</time></trkpt><trkpt lat="46.3908356" lon="12.8628294"><ele>481.0</ele><time>2026-04-22T13:08:57.642Z</time></trkpt><trkpt lat="46.3908956" lon="12.8628899"><ele>481.0</ele><time>2026-04-22T13:08:59.642Z</time></trkpt><trkpt lat="46.3909639" lon="12.8629256"><ele>481.00000000000006</ele><time>2026-04-22T13:09:01.642Z</time></trkpt><trkpt lat="46.3910333" lon="12.8629732"><ele>481.0</ele><time>2026-04-22T13:09:04.642Z</time></trkpt><trkpt lat="46.3910692" lon="12.8630548"><ele>481.0</ele><time>2026-04-22T13:09:09.642Z</time></trkpt></trkseg></trk></gpx>